<?xml version="1.0" encoding="UTF-8" standalone="no" ?>
<gpx xmlns="http://www.topografix.com/GPX/1/1" xmlns:xsi="http://www.w3.org/2001/XMLSchema-instance" xsi:schemaLocation="http://www.topografix.com/GPX/1/1 http://www.topografix.com/GPX/1/1/gpx.xsd" version="1.1" creator="VisuGPX - https://www.visugpx.com">
  <metadata>
    <name>Barrage de Clozel</name>
    <desc><![CDATA[Barrage de Clozel Gilhoc]]></desc>
  </metadata>
  <trk>
    <name><![CDATA[Barrage de clozel gilhoc]]></name>
    <cmt><![CDATA[Bruno, thierry1 & 2 alain, edouard, jeanMArie JeanMichel MArtine, laurent jacques]]></cmt>
    <trkseg>
      <trkpt lat="45.11776" lon="4.96892">
        <ele>211.24299621582</ele>
        <time>2009-10-24T11:49:52Z</time>
      </trkpt>
      <trkpt lat="45.11771" lon="4.96885">
        <ele>210.42100524902</ele>
        <time>2009-10-24T11:49:53Z</time>
      </trkpt>
      <trkpt lat="45.11765" lon="4.96853">
        <ele>212.10299682617</ele>
        <time>2009-10-24T11:49:57Z</time>
      </trkpt>
      <trkpt lat="45.11768" lon="4.9678">
        <ele>211.46000671387</ele>
        <time>2009-10-24T11:50:07Z</time>
      </trkpt>
      <trkpt lat="45.11774" lon="4.96776">
        <ele>211.45399475098</ele>
        <time>2009-10-24T11:50:08Z</time>
      </trkpt>
      <trkpt lat="45.11795" lon="4.96764">
        <ele>211.45399475098</ele>
        <time>2009-10-24T11:50:12Z</time>
      </trkpt>
      <trkpt lat="45.11817" lon="4.96739">
        <ele>211.43400573731</ele>
        <time>2009-10-24T11:50:17Z</time>
      </trkpt>
      <trkpt lat="45.11838" lon="4.96695">
        <ele>212.97799682617</ele>
        <time>2009-10-24T11:50:24Z</time>
      </trkpt>
      <trkpt lat="45.11857" lon="4.96641">
        <ele>213.00199890137</ele>
        <time>2009-10-24T11:50:33Z</time>
      </trkpt>
      <trkpt lat="45.11874" lon="4.96576">
        <ele>212.96000671387</ele>
        <time>2009-10-24T11:50:44Z</time>
      </trkpt>
      <trkpt lat="45.11876" lon="4.96556">
        <ele>212.95100402832</ele>
        <time>2009-10-24T11:50:47Z</time>
      </trkpt>
      <trkpt lat="45.11885" lon="4.96513">
        <ele>212.93800354004</ele>
        <time>2009-10-24T11:50:53Z</time>
      </trkpt>
      <trkpt lat="45.11886" lon="4.96498">
        <ele>212.93099975586</ele>
        <time>2009-10-24T11:50:55Z</time>
      </trkpt>
      <trkpt lat="45.11839" lon="4.96377">
        <ele>218.89799499512</ele>
        <time>2009-10-24T11:51:17Z</time>
      </trkpt>
      <trkpt lat="45.11835" lon="4.9635">
        <ele>220.49499511719</ele>
        <time>2009-10-24T11:51:22Z</time>
      </trkpt>
      <trkpt lat="45.11834" lon="4.96319">
        <ele>222.21099853516</ele>
        <time>2009-10-24T11:51:28Z</time>
      </trkpt>
      <trkpt lat="45.11831" lon="4.96301">
        <ele>223.31700134277</ele>
        <time>2009-10-24T11:51:31Z</time>
      </trkpt>
      <trkpt lat="45.11822" lon="4.96274">
        <ele>224.47700500488</ele>
        <time>2009-10-24T11:51:36Z</time>
      </trkpt>
      <trkpt lat="45.11816" lon="4.96252">
        <ele>225.66900634766</ele>
        <time>2009-10-24T11:51:41Z</time>
      </trkpt>
      <trkpt lat="45.11814" lon="4.96225">
        <ele>226.90199279785</ele>
        <time>2009-10-24T11:51:47Z</time>
      </trkpt>
      <trkpt lat="45.11811" lon="4.96192">
        <ele>228.37600708008</ele>
        <time>2009-10-24T11:51:54Z</time>
      </trkpt>
      <trkpt lat="45.1181" lon="4.96158">
        <ele>230.17100524902</ele>
        <time>2009-10-24T11:52:01Z</time>
      </trkpt>
      <trkpt lat="45.11806" lon="4.96119">
        <ele>231.71200561523</ele>
        <time>2009-10-24T11:52:09Z</time>
      </trkpt>
      <trkpt lat="45.11804" lon="4.96084">
        <ele>233.44400024414</ele>
        <time>2009-10-24T11:52:16Z</time>
      </trkpt>
      <trkpt lat="45.118" lon="4.96051">
        <ele>234.97300720215</ele>
        <time>2009-10-24T11:52:23Z</time>
      </trkpt>
      <trkpt lat="45.11791" lon="4.96001">
        <ele>237.20599365234</ele>
        <time>2009-10-24T11:52:33Z</time>
      </trkpt>
      <trkpt lat="45.11783" lon="4.9596">
        <ele>239.31799316406</ele>
        <time>2009-10-24T11:52:42Z</time>
      </trkpt>
      <trkpt lat="45.11775" lon="4.95917">
        <ele>241.00300598144</ele>
        <time>2009-10-24T11:52:51Z</time>
      </trkpt>
      <trkpt lat="45.11765" lon="4.95872">
        <ele>242.66999816894</ele>
        <time>2009-10-24T11:53:00Z</time>
      </trkpt>
      <trkpt lat="45.1175" lon="4.9581">
        <ele>244.08000183106</ele>
        <time>2009-10-24T11:53:12Z</time>
      </trkpt>
      <trkpt lat="45.11744" lon="4.95769">
        <ele>244.17999267578</ele>
        <time>2009-10-24T11:53:19Z</time>
      </trkpt>
      <trkpt lat="45.11743" lon="4.95763">
        <ele>243.90600585938</ele>
        <time>2009-10-24T11:53:20Z</time>
      </trkpt>
      <trkpt lat="45.11745" lon="4.9573">
        <ele>242.52000427246</ele>
        <time>2009-10-24T11:53:25Z</time>
      </trkpt>
      <trkpt lat="45.11746" lon="4.95714">
        <ele>241.63600158691</ele>
        <time>2009-10-24T11:53:27Z</time>
      </trkpt>
      <trkpt lat="45.11747" lon="4.95687">
        <ele>240.03199768066</ele>
        <time>2009-10-24T11:53:30Z</time>
      </trkpt>
      <trkpt lat="45.11749" lon="4.95668">
        <ele>239.30799865723</ele>
        <time>2009-10-24T11:53:32Z</time>
      </trkpt>
      <trkpt lat="45.11749" lon="4.95659">
        <ele>238.88200378418</ele>
        <time>2009-10-24T11:53:33Z</time>
      </trkpt>
      <trkpt lat="45.1176" lon="4.95635">
        <ele>237.11000061035</ele>
        <time>2009-10-24T11:53:36Z</time>
      </trkpt>
      <trkpt lat="45.11781" lon="4.95624">
        <ele>235.53399658203</ele>
        <time>2009-10-24T11:53:39Z</time>
      </trkpt>
      <trkpt lat="45.11796" lon="4.95621">
        <ele>234.36500549316</ele>
        <time>2009-10-24T11:53:41Z</time>
      </trkpt>
      <trkpt lat="45.11805" lon="4.95609">
        <ele>233.32600402832</ele>
        <time>2009-10-24T11:53:43Z</time>
      </trkpt>
      <trkpt lat="45.11805" lon="4.95589">
        <ele>232.04400634766</ele>
        <time>2009-10-24T11:53:45Z</time>
      </trkpt>
      <trkpt lat="45.11803" lon="4.95545">
        <ele>229.30299377441</ele>
        <time>2009-10-24T11:53:49Z</time>
      </trkpt>
      <trkpt lat="45.11814" lon="4.95527">
        <ele>227.68499755859</ele>
        <time>2009-10-24T11:53:51Z</time>
      </trkpt>
      <trkpt lat="45.11831" lon="4.95498">
        <ele>226.17599487305</ele>
        <time>2009-10-24T11:53:54Z</time>
      </trkpt>
      <trkpt lat="45.11831" lon="4.95461">
        <ele>225.63000488281</ele>
        <time>2009-10-24T11:53:57Z</time>
      </trkpt>
      <trkpt lat="45.11824" lon="4.95443">
        <ele>227.36799621582</ele>
        <time>2009-10-24T11:53:59Z</time>
      </trkpt>
      <trkpt lat="45.11804" lon="4.95432">
        <ele>227.1309967041</ele>
        <time>2009-10-24T11:54:02Z</time>
      </trkpt>
      <trkpt lat="45.11782" lon="4.95424">
        <ele>228.57800292969</ele>
        <time>2009-10-24T11:54:06Z</time>
      </trkpt>
      <trkpt lat="45.11748" lon="4.95417">
        <ele>231.25799560547</ele>
        <time>2009-10-24T11:54:14Z</time>
      </trkpt>
      <trkpt lat="45.11733" lon="4.95408">
        <ele>232.42599487305</ele>
        <time>2009-10-24T11:54:18Z</time>
      </trkpt>
      <trkpt lat="45.11726" lon="4.95401">
        <ele>233.28300476074</ele>
        <time>2009-10-24T11:54:20Z</time>
      </trkpt>
      <trkpt lat="45.11724" lon="4.95397">
        <ele>233.54400634766</ele>
        <time>2009-10-24T11:54:21Z</time>
      </trkpt>
      <trkpt lat="45.11718" lon="4.95383">
        <ele>234.54600524902</ele>
        <time>2009-10-24T11:54:24Z</time>
      </trkpt>
      <trkpt lat="45.11717" lon="4.95378">
        <ele>234.79800415039</ele>
        <time>2009-10-24T11:54:25Z</time>
      </trkpt>
      <trkpt lat="45.11717" lon="4.95373">
        <ele>235.25100708008</ele>
        <time>2009-10-24T11:54:26Z</time>
      </trkpt>
      <trkpt lat="45.11717" lon="4.95356">
        <ele>236.12300109863</ele>
        <time>2009-10-24T11:54:29Z</time>
      </trkpt>
      <trkpt lat="45.11719" lon="4.95344">
        <ele>236.90299987793</ele>
        <time>2009-10-24T11:54:31Z</time>
      </trkpt>
      <trkpt lat="45.11723" lon="4.95317">
        <ele>238.04899597168</ele>
        <time>2009-10-24T11:54:36Z</time>
      </trkpt>
      <trkpt lat="45.11724" lon="4.95292">
        <ele>239.19999694824</ele>
        <time>2009-10-24T11:54:41Z</time>
      </trkpt>
      <trkpt lat="45.11716" lon="4.95265">
        <ele>240.42900085449</ele>
        <time>2009-10-24T11:54:47Z</time>
      </trkpt>
      <trkpt lat="45.117" lon="4.95229">
        <ele>241.69000244141</ele>
        <time>2009-10-24T11:54:55Z</time>
      </trkpt>
      <trkpt lat="45.11686" lon="4.95182">
        <ele>242.31799316406</ele>
        <time>2009-10-24T11:55:04Z</time>
      </trkpt>
      <trkpt lat="45.11672" lon="4.9513">
        <ele>243.06700134277</ele>
        <time>2009-10-24T11:55:13Z</time>
      </trkpt>
      <trkpt lat="45.11656" lon="4.95081">
        <ele>244.08099365234</ele>
        <time>2009-10-24T11:55:22Z</time>
      </trkpt>
      <trkpt lat="45.11636" lon="4.95039">
        <ele>245.10899353027</ele>
        <time>2009-10-24T11:55:30Z</time>
      </trkpt>
      <trkpt lat="45.11611" lon="4.94985">
        <ele>245.9049987793</ele>
        <time>2009-10-24T11:55:40Z</time>
      </trkpt>
      <trkpt lat="45.11592" lon="4.94932">
        <ele>246.125</ele>
        <time>2009-10-24T11:55:49Z</time>
      </trkpt>
      <trkpt lat="45.11584" lon="4.94899">
        <ele>245.99299621582</ele>
        <time>2009-10-24T11:55:54Z</time>
      </trkpt>
      <trkpt lat="45.11572" lon="4.94839">
        <ele>244.79800415039</ele>
        <time>2009-10-24T11:56:02Z</time>
      </trkpt>
      <trkpt lat="45.11565" lon="4.94792">
        <ele>244.27099609375</ele>
        <time>2009-10-24T11:56:07Z</time>
      </trkpt>
      <trkpt lat="45.11562" lon="4.94763">
        <ele>243.23899841309</ele>
        <time>2009-10-24T11:56:10Z</time>
      </trkpt>
      <trkpt lat="45.1156" lon="4.94753">
        <ele>243.1309967041</ele>
        <time>2009-10-24T11:56:11Z</time>
      </trkpt>
      <trkpt lat="45.11559" lon="4.94695">
        <ele>241.62699890137</ele>
        <time>2009-10-24T11:56:17Z</time>
      </trkpt>
      <trkpt lat="45.1156" lon="4.94618">
        <ele>241.04299926758</ele>
        <time>2009-10-24T11:56:25Z</time>
      </trkpt>
      <trkpt lat="45.1156" lon="4.94603">
        <ele>240.74699401856</ele>
        <time>2009-10-24T11:56:27Z</time>
      </trkpt>
      <trkpt lat="45.11561" lon="4.94579">
        <ele>240.52200317383</ele>
        <time>2009-10-24T11:56:30Z</time>
      </trkpt>
      <trkpt lat="45.11562" lon="4.94572">
        <ele>240.39900207519</ele>
        <time>2009-10-24T11:56:31Z</time>
      </trkpt>
      <trkpt lat="45.11565" lon="4.94533">
        <ele>239.67399597168</ele>
        <time>2009-10-24T11:56:36Z</time>
      </trkpt>
      <trkpt lat="45.11561" lon="4.94508">
        <ele>239.15800476074</ele>
        <time>2009-10-24T11:56:40Z</time>
      </trkpt>
      <trkpt lat="45.11549" lon="4.94496">
        <ele>239.83299255371</ele>
        <time>2009-10-24T11:56:43Z</time>
      </trkpt>
      <trkpt lat="45.11526" lon="4.94479">
        <ele>239.01400756836</ele>
        <time>2009-10-24T11:56:48Z</time>
      </trkpt>
      <trkpt lat="45.11492" lon="4.94452">
        <ele>237.26100158691</ele>
        <time>2009-10-24T11:56:54Z</time>
      </trkpt>
      <trkpt lat="45.11447" lon="4.94416">
        <ele>235.42700195312</ele>
        <time>2009-10-24T11:57:01Z</time>
      </trkpt>
      <trkpt lat="45.11433" lon="4.94404">
        <ele>234.8869934082</ele>
        <time>2009-10-24T11:57:03Z</time>
      </trkpt>
      <trkpt lat="45.114" lon="4.94389">
        <ele>233.59300231934</ele>
        <time>2009-10-24T11:57:07Z</time>
      </trkpt>
      <trkpt lat="45.11356" lon="4.94382">
        <ele>232.14500427246</ele>
        <time>2009-10-24T11:57:12Z</time>
      </trkpt>
      <trkpt lat="45.11286" lon="4.94374">
        <ele>230.43299865723</ele>
        <time>2009-10-24T11:57:20Z</time>
      </trkpt>
      <trkpt lat="45.11268" lon="4.94371">
        <ele>229.30900573731</ele>
        <time>2009-10-24T11:57:22Z</time>
      </trkpt>
      <trkpt lat="45.11171" lon="4.94359">
        <ele>226.69999694824</ele>
        <time>2009-10-24T11:57:33Z</time>
      </trkpt>
      <trkpt lat="45.11086" lon="4.94348">
        <ele>224.94099426269</ele>
        <time>2009-10-24T11:57:43Z</time>
      </trkpt>
      <trkpt lat="45.11054" lon="4.94343">
        <ele>224.57600402832</ele>
        <time>2009-10-24T11:57:47Z</time>
      </trkpt>
      <trkpt lat="45.10983" lon="4.94328">
        <ele>223.11199951172</ele>
        <time>2009-10-24T11:57:56Z</time>
      </trkpt>
      <trkpt lat="45.1096" lon="4.94321">
        <ele>222.83399963379</ele>
        <time>2009-10-24T11:57:59Z</time>
      </trkpt>
      <trkpt lat="45.10938" lon="4.94312">
        <ele>222.21899414062</ele>
        <time>2009-10-24T11:58:02Z</time>
      </trkpt>
      <trkpt lat="45.10917" lon="4.94303">
        <ele>222.34599304199</ele>
        <time>2009-10-24T11:58:05Z</time>
      </trkpt>
      <trkpt lat="45.10885" lon="4.94276">
        <ele>222.13299560547</ele>
        <time>2009-10-24T11:58:10Z</time>
      </trkpt>
      <trkpt lat="45.10869" lon="4.94256">
        <ele>221.52799987793</ele>
        <time>2009-10-24T11:58:13Z</time>
      </trkpt>
      <trkpt lat="45.10852" lon="4.94237">
        <ele>221.04899597168</ele>
        <time>2009-10-24T11:58:16Z</time>
      </trkpt>
      <trkpt lat="45.10846" lon="4.9423">
        <ele>221.31199645996</ele>
        <time>2009-10-24T11:58:17Z</time>
      </trkpt>
      <trkpt lat="45.1083" lon="4.9421">
        <ele>220.81500244141</ele>
        <time>2009-10-24T11:58:20Z</time>
      </trkpt>
      <trkpt lat="45.10802" lon="4.94177">
        <ele>221.14799499512</ele>
        <time>2009-10-24T11:58:25Z</time>
      </trkpt>
      <trkpt lat="45.10781" lon="4.94151">
        <ele>221.1309967041</ele>
        <time>2009-10-24T11:58:29Z</time>
      </trkpt>
      <trkpt lat="45.10776" lon="4.94145">
        <ele>221.49800109863</ele>
        <time>2009-10-24T11:58:30Z</time>
      </trkpt>
      <trkpt lat="45.10771" lon="4.94139">
        <ele>221.8809967041</ele>
        <time>2009-10-24T11:58:31Z</time>
      </trkpt>
      <trkpt lat="45.10742" lon="4.94094">
        <ele>222.49499511719</ele>
        <time>2009-10-24T11:58:38Z</time>
      </trkpt>
      <trkpt lat="45.10728" lon="4.94064">
        <ele>222.9049987793</ele>
        <time>2009-10-24T11:58:42Z</time>
      </trkpt>
      <trkpt lat="45.10719" lon="4.94042">
        <ele>223.51800537109</ele>
        <time>2009-10-24T11:58:45Z</time>
      </trkpt>
      <trkpt lat="45.10716" lon="4.94034">
        <ele>223.51499938965</ele>
        <time>2009-10-24T11:58:46Z</time>
      </trkpt>
      <trkpt lat="45.10714" lon="4.94026">
        <ele>223.16700744629</ele>
        <time>2009-10-24T11:58:47Z</time>
      </trkpt>
      <trkpt lat="45.10704" lon="4.93992">
        <ele>223.78199768066</ele>
        <time>2009-10-24T11:58:51Z</time>
      </trkpt>
      <trkpt lat="45.10693" lon="4.93935">
        <ele>224.62699890137</ele>
        <time>2009-10-24T11:58:58Z</time>
      </trkpt>
      <trkpt lat="45.10687" lon="4.93895">
        <ele>224.89799499512</ele>
        <time>2009-10-24T11:59:03Z</time>
      </trkpt>
      <trkpt lat="45.1068" lon="4.93832">
        <ele>224.68299865723</ele>
        <time>2009-10-24T11:59:11Z</time>
      </trkpt>
      <trkpt lat="45.10674" lon="4.93771">
        <ele>223.42900085449</ele>
        <time>2009-10-24T11:59:19Z</time>
      </trkpt>
      <trkpt lat="45.10666" lon="4.93697">
        <ele>221.10400390625</ele>
        <time>2009-10-24T11:59:26Z</time>
      </trkpt>
      <trkpt lat="45.10655" lon="4.93612">
        <ele>218.13800048828</ele>
        <time>2009-10-24T11:59:33Z</time>
      </trkpt>
      <trkpt lat="45.10646" lon="4.9356">
        <ele>215.53199768066</ele>
        <time>2009-10-24T11:59:37Z</time>
      </trkpt>
      <trkpt lat="45.10635" lon="4.93507">
        <ele>213.25199890137</ele>
        <time>2009-10-24T11:59:41Z</time>
      </trkpt>
      <trkpt lat="45.10627" lon="4.93466">
        <ele>210.96800231934</ele>
        <time>2009-10-24T11:59:44Z</time>
      </trkpt>
      <trkpt lat="45.10625" lon="4.93452">
        <ele>210.38200378418</ele>
        <time>2009-10-24T11:59:45Z</time>
      </trkpt>
      <trkpt lat="45.10602" lon="4.93336">
        <ele>208.04800415039</ele>
        <time>2009-10-24T11:59:54Z</time>
      </trkpt>
      <trkpt lat="45.106" lon="4.93324">
        <ele>208.20199584961</ele>
        <time>2009-10-24T11:59:55Z</time>
      </trkpt>
      <trkpt lat="45.10597" lon="4.93312">
        <ele>207.94200134277</ele>
        <time>2009-10-24T11:59:56Z</time>
      </trkpt>
      <trkpt lat="45.10595" lon="4.933">
        <ele>207.92700195312</ele>
        <time>2009-10-24T11:59:57Z</time>
      </trkpt>
      <trkpt lat="45.10577" lon="4.93209">
        <ele>206.0359954834</ele>
        <time>2009-10-24T12:00:05Z</time>
      </trkpt>
      <trkpt lat="45.10567" lon="4.93155">
        <ele>205.02699279785</ele>
        <time>2009-10-24T12:00:10Z</time>
      </trkpt>
      <trkpt lat="45.10555" lon="4.93096">
        <ele>204.14999389648</ele>
        <time>2009-10-24T12:00:16Z</time>
      </trkpt>
      <trkpt lat="45.10544" lon="4.93041">
        <ele>203.5890045166</ele>
        <time>2009-10-24T12:00:22Z</time>
      </trkpt>
      <trkpt lat="45.10529" lon="4.92962">
        <ele>203.38299560547</ele>
        <time>2009-10-24T12:00:30Z</time>
      </trkpt>
      <trkpt lat="45.10519" lon="4.92912">
        <ele>203.21699523926</ele>
        <time>2009-10-24T12:00:35Z</time>
      </trkpt>
      <trkpt lat="45.10503" lon="4.92833">
        <ele>203.00300598144</ele>
        <time>2009-10-24T12:00:43Z</time>
      </trkpt>
      <trkpt lat="45.10492" lon="4.92773">
        <ele>202.53399658203</ele>
        <time>2009-10-24T12:00:50Z</time>
      </trkpt>
      <trkpt lat="45.10478" lon="4.92716">
        <ele>202.07099914551</ele>
        <time>2009-10-24T12:00:57Z</time>
      </trkpt>
      <trkpt lat="45.10469" lon="4.92666">
        <ele>202.17500305176</ele>
        <time>2009-10-24T12:01:03Z</time>
      </trkpt>
      <trkpt lat="45.1046" lon="4.92619">
        <ele>201.94700622559</ele>
        <time>2009-10-24T12:01:09Z</time>
      </trkpt>
      <trkpt lat="45.10453" lon="4.92577">
        <ele>201.71000671387</ele>
        <time>2009-10-24T12:01:14Z</time>
      </trkpt>
      <trkpt lat="45.10441" lon="4.92503">
        <ele>200.72599792481</ele>
        <time>2009-10-24T12:01:22Z</time>
      </trkpt>
      <trkpt lat="45.1043" lon="4.92444">
        <ele>199.99899291992</ele>
        <time>2009-10-24T12:01:28Z</time>
      </trkpt>
      <trkpt lat="45.10419" lon="4.92378">
        <ele>198.69000244141</ele>
        <time>2009-10-24T12:01:34Z</time>
      </trkpt>
      <trkpt lat="45.10402" lon="4.92284">
        <ele>198.08500671387</ele>
        <time>2009-10-24T12:01:43Z</time>
      </trkpt>
      <trkpt lat="45.10387" lon="4.92195">
        <ele>198.15100097656</ele>
        <time>2009-10-24T12:01:52Z</time>
      </trkpt>
      <trkpt lat="45.10371" lon="4.92109">
        <ele>197.70100402832</ele>
        <time>2009-10-24T12:02:01Z</time>
      </trkpt>
      <trkpt lat="45.10364" lon="4.92072">
        <ele>198.31900024414</ele>
        <time>2009-10-24T12:02:05Z</time>
      </trkpt>
      <trkpt lat="45.10355" lon="4.92022">
        <ele>198.88400268555</ele>
        <time>2009-10-24T12:02:11Z</time>
      </trkpt>
      <trkpt lat="45.10346" lon="4.91966">
        <ele>199.28100585938</ele>
        <time>2009-10-24T12:02:17Z</time>
      </trkpt>
      <trkpt lat="45.1034" lon="4.9193">
        <ele>199.53300476074</ele>
        <time>2009-10-24T12:02:21Z</time>
      </trkpt>
      <trkpt lat="45.10328" lon="4.91859">
        <ele>200.5059967041</ele>
        <time>2009-10-24T12:02:29Z</time>
      </trkpt>
      <trkpt lat="45.1032" lon="4.91815">
        <ele>201.16400146484</ele>
        <time>2009-10-24T12:02:34Z</time>
      </trkpt>
      <trkpt lat="45.10315" lon="4.91789">
        <ele>201.59800720215</ele>
        <time>2009-10-24T12:02:37Z</time>
      </trkpt>
      <trkpt lat="45.10302" lon="4.91762">
        <ele>201.71099853516</ele>
        <time>2009-10-24T12:02:41Z</time>
      </trkpt>
      <trkpt lat="45.10283" lon="4.91756">
        <ele>200.95899963379</ele>
        <time>2009-10-24T12:02:44Z</time>
      </trkpt>
      <trkpt lat="45.10276" lon="4.91756">
        <ele>200.98500061035</ele>
        <time>2009-10-24T12:02:45Z</time>
      </trkpt>
      <trkpt lat="45.10226" lon="4.91765">
        <ele>200.89700317383</ele>
        <time>2009-10-24T12:02:52Z</time>
      </trkpt>
      <trkpt lat="45.1022" lon="4.91766">
        <ele>200.77900695801</ele>
        <time>2009-10-24T12:02:53Z</time>
      </trkpt>
      <trkpt lat="45.10212" lon="4.91756">
        <ele>201.25900268555</ele>
        <time>2009-10-24T12:02:56Z</time>
      </trkpt>
      <trkpt lat="45.10214" lon="4.91743">
        <ele>201.02499389648</ele>
        <time>2009-10-24T12:02:58Z</time>
      </trkpt>
      <trkpt lat="45.10227" lon="4.91677">
        <ele>201.99600219727</ele>
        <time>2009-10-24T12:03:07Z</time>
      </trkpt>
      <trkpt lat="45.10238" lon="4.91615">
        <ele>203.02699279785</ele>
        <time>2009-10-24T12:03:15Z</time>
      </trkpt>
      <trkpt lat="45.10249" lon="4.91552">
        <ele>203.98100280762</ele>
        <time>2009-10-24T12:03:24Z</time>
      </trkpt>
      <trkpt lat="45.1026" lon="4.91489">
        <ele>205.05099487305</ele>
        <time>2009-10-24T12:03:33Z</time>
      </trkpt>
      <trkpt lat="45.10272" lon="4.9142">
        <ele>205.91700744629</ele>
        <time>2009-10-24T12:03:42Z</time>
      </trkpt>
      <trkpt lat="45.10279" lon="4.9136">
        <ele>207.14500427246</ele>
        <time>2009-10-24T12:03:49Z</time>
      </trkpt>
      <trkpt lat="45.10283" lon="4.91285">
        <ele>207.61700439453</ele>
        <time>2009-10-24T12:03:58Z</time>
      </trkpt>
      <trkpt lat="45.10284" lon="4.91262">
        <ele>207.7619934082</ele>
        <time>2009-10-24T12:04:01Z</time>
      </trkpt>
      <trkpt lat="45.10278" lon="4.91243">
        <ele>208.08799743652</ele>
        <time>2009-10-24T12:04:04Z</time>
      </trkpt>
      <trkpt lat="45.10262" lon="4.91241">
        <ele>208.16700744629</ele>
        <time>2009-10-24T12:04:07Z</time>
      </trkpt>
      <trkpt lat="45.10216" lon="4.91231">
        <ele>208.55000305176</ele>
        <time>2009-10-24T12:04:15Z</time>
      </trkpt>
      <trkpt lat="45.10147" lon="4.91214">
        <ele>209.58000183106</ele>
        <time>2009-10-24T12:04:26Z</time>
      </trkpt>
      <trkpt lat="45.10099" lon="4.91199">
        <ele>210.48199462891</ele>
        <time>2009-10-24T12:04:34Z</time>
      </trkpt>
      <trkpt lat="45.1005" lon="4.91174">
        <ele>212.25799560547</ele>
        <time>2009-10-24T12:04:43Z</time>
      </trkpt>
      <trkpt lat="45.10008" lon="4.91148">
        <ele>214.50799560547</ele>
        <time>2009-10-24T12:04:52Z</time>
      </trkpt>
      <trkpt lat="45.09971" lon="4.91126">
        <ele>216.47700500488</ele>
        <time>2009-10-24T12:05:00Z</time>
      </trkpt>
      <trkpt lat="45.09937" lon="4.91096">
        <ele>217.84599304199</ele>
        <time>2009-10-24T12:05:08Z</time>
      </trkpt>
      <trkpt lat="45.09893" lon="4.9105">
        <ele>220.25199890137</ele>
        <time>2009-10-24T12:05:19Z</time>
      </trkpt>
      <trkpt lat="45.09863" lon="4.91017">
        <ele>222.67399597168</ele>
        <time>2009-10-24T12:05:28Z</time>
      </trkpt>
      <trkpt lat="45.09859" lon="4.91013">
        <ele>222.97799682617</ele>
        <time>2009-10-24T12:05:29Z</time>
      </trkpt>
      <trkpt lat="45.0984" lon="4.90984">
        <ele>225.0950012207</ele>
        <time>2009-10-24T12:05:37Z</time>
      </trkpt>
      <trkpt lat="45.0983" lon="4.90963">
        <ele>226.40100097656</ele>
        <time>2009-10-24T12:05:43Z</time>
      </trkpt>
      <trkpt lat="45.09824" lon="4.90941">
        <ele>227.90400695801</ele>
        <time>2009-10-24T12:05:49Z</time>
      </trkpt>
      <trkpt lat="45.09818" lon="4.90917">
        <ele>229.96000671387</ele>
        <time>2009-10-24T12:05:55Z</time>
      </trkpt>
      <trkpt lat="45.09809" lon="4.90891">
        <ele>231.92799377441</ele>
        <time>2009-10-24T12:06:02Z</time>
      </trkpt>
      <trkpt lat="45.09799" lon="4.90874">
        <ele>233.89799499512</ele>
        <time>2009-10-24T12:06:08Z</time>
      </trkpt>
      <trkpt lat="45.09785" lon="4.90856">
        <ele>235.8390045166</ele>
        <time>2009-10-24T12:06:15Z</time>
      </trkpt>
      <trkpt lat="45.09767" lon="4.90839">
        <ele>238.58200073242</ele>
        <time>2009-10-24T12:06:23Z</time>
      </trkpt>
      <trkpt lat="45.09754" lon="4.90823">
        <ele>239.99299621582</ele>
        <time>2009-10-24T12:06:29Z</time>
      </trkpt>
      <trkpt lat="45.09738" lon="4.90793">
        <ele>241.24600219727</ele>
        <time>2009-10-24T12:06:37Z</time>
      </trkpt>
      <trkpt lat="45.09728" lon="4.9077">
        <ele>243.1130065918</ele>
        <time>2009-10-24T12:06:44Z</time>
      </trkpt>
      <trkpt lat="45.09718" lon="4.9075">
        <ele>245.37600708008</ele>
        <time>2009-10-24T12:06:51Z</time>
      </trkpt>
      <trkpt lat="45.09706" lon="4.90726">
        <ele>246.61799621582</ele>
        <time>2009-10-24T12:06:58Z</time>
      </trkpt>
      <trkpt lat="45.09694" lon="4.907">
        <ele>248.53199768066</ele>
        <time>2009-10-24T12:07:05Z</time>
      </trkpt>
      <trkpt lat="45.0968" lon="4.90674">
        <ele>250.39599609375</ele>
        <time>2009-10-24T12:07:12Z</time>
      </trkpt>
      <trkpt lat="45.09664" lon="4.90651">
        <ele>252.28900146484</ele>
        <time>2009-10-24T12:07:19Z</time>
      </trkpt>
      <trkpt lat="45.09643" lon="4.90628">
        <ele>253.69099426269</ele>
        <time>2009-10-24T12:07:26Z</time>
      </trkpt>
      <trkpt lat="45.09625" lon="4.90613">
        <ele>255.27400207519</ele>
        <time>2009-10-24T12:07:32Z</time>
      </trkpt>
      <trkpt lat="45.09611" lon="4.90602">
        <ele>255.71299743652</ele>
        <time>2009-10-24T12:07:36Z</time>
      </trkpt>
      <trkpt lat="45.09599" lon="4.90596">
        <ele>256.14199829102</ele>
        <time>2009-10-24T12:07:39Z</time>
      </trkpt>
      <trkpt lat="45.09566" lon="4.90587">
        <ele>254.84300231934</ele>
        <time>2009-10-24T12:07:46Z</time>
      </trkpt>
      <trkpt lat="45.09534" lon="4.9058">
        <ele>253.79499816894</ele>
        <time>2009-10-24T12:07:51Z</time>
      </trkpt>
      <trkpt lat="45.0951" lon="4.90584">
        <ele>252.80299377441</ele>
        <time>2009-10-24T12:07:55Z</time>
      </trkpt>
      <trkpt lat="45.09504" lon="4.90585">
        <ele>252.46099853516</ele>
        <time>2009-10-24T12:07:56Z</time>
      </trkpt>
      <trkpt lat="45.09481" lon="4.90595">
        <ele>251.65699768066</ele>
        <time>2009-10-24T12:08:00Z</time>
      </trkpt>
      <trkpt lat="45.09433" lon="4.90613">
        <ele>249.625</ele>
        <time>2009-10-24T12:08:07Z</time>
      </trkpt>
      <trkpt lat="45.09377" lon="4.90631">
        <ele>246.91900634766</ele>
        <time>2009-10-24T12:08:14Z</time>
      </trkpt>
      <trkpt lat="45.09332" lon="4.90643">
        <ele>244.20100402832</ele>
        <time>2009-10-24T12:08:19Z</time>
      </trkpt>
      <trkpt lat="45.09291" lon="4.90646">
        <ele>242.64500427246</ele>
        <time>2009-10-24T12:08:23Z</time>
      </trkpt>
      <trkpt lat="45.09238" lon="4.90645">
        <ele>239.7200012207</ele>
        <time>2009-10-24T12:08:28Z</time>
      </trkpt>
      <trkpt lat="45.09227" lon="4.90643">
        <ele>239.48599243164</ele>
        <time>2009-10-24T12:08:29Z</time>
      </trkpt>
      <trkpt lat="45.09175" lon="4.90619">
        <ele>236.28799438477</ele>
        <time>2009-10-24T12:08:34Z</time>
      </trkpt>
      <trkpt lat="45.09131" lon="4.90612">
        <ele>234.39900207519</ele>
        <time>2009-10-24T12:08:38Z</time>
      </trkpt>
      <trkpt lat="45.09098" lon="4.9061">
        <ele>233.22999572754</ele>
        <time>2009-10-24T12:08:41Z</time>
      </trkpt>
      <trkpt lat="45.09075" lon="4.9061">
        <ele>232.79899597168</ele>
        <time>2009-10-24T12:08:43Z</time>
      </trkpt>
      <trkpt lat="45.09064" lon="4.9061">
        <ele>231.88600158691</ele>
        <time>2009-10-24T12:08:44Z</time>
      </trkpt>
      <trkpt lat="45.09021" lon="4.90603">
        <ele>230.0059967041</ele>
        <time>2009-10-24T12:08:48Z</time>
      </trkpt>
      <trkpt lat="45.08955" lon="4.90589">
        <ele>228.96099853516</ele>
        <time>2009-10-24T12:08:54Z</time>
      </trkpt>
      <trkpt lat="45.08913" lon="4.90574">
        <ele>228.08799743652</ele>
        <time>2009-10-24T12:08:58Z</time>
      </trkpt>
      <trkpt lat="45.08846" lon="4.90549">
        <ele>226.98500061035</ele>
        <time>2009-10-24T12:09:05Z</time>
      </trkpt>
      <trkpt lat="45.08836" lon="4.90544">
        <ele>226.89700317383</ele>
        <time>2009-10-24T12:09:06Z</time>
      </trkpt>
      <trkpt lat="45.08801" lon="4.90516">
        <ele>225.91600036621</ele>
        <time>2009-10-24T12:09:10Z</time>
      </trkpt>
      <trkpt lat="45.08754" lon="4.90495">
        <ele>224.48300170898</ele>
        <time>2009-10-24T12:09:15Z</time>
      </trkpt>
      <trkpt lat="45.08685" lon="4.90471">
        <ele>223.11799621582</ele>
        <time>2009-10-24T12:09:22Z</time>
      </trkpt>
      <trkpt lat="45.08617" lon="4.90451">
        <ele>221.85800170898</ele>
        <time>2009-10-24T12:09:29Z</time>
      </trkpt>
      <trkpt lat="45.08555" lon="4.90435">
        <ele>222.11199951172</ele>
        <time>2009-10-24T12:09:36Z</time>
      </trkpt>
      <trkpt lat="45.0852" lon="4.90431">
        <ele>221.33500671387</ele>
        <time>2009-10-24T12:09:40Z</time>
      </trkpt>
      <trkpt lat="45.08485" lon="4.90413">
        <ele>218.40899658203</ele>
        <time>2009-10-24T12:09:44Z</time>
      </trkpt>
      <trkpt lat="45.08447" lon="4.90381">
        <ele>214.2859954834</ele>
        <time>2009-10-24T12:09:48Z</time>
      </trkpt>
      <trkpt lat="45.0839" lon="4.9032">
        <ele>210.24800109863</ele>
        <time>2009-10-24T12:09:54Z</time>
      </trkpt>
      <trkpt lat="45.08343" lon="4.90276">
        <ele>209.05000305176</ele>
        <time>2009-10-24T12:09:59Z</time>
      </trkpt>
      <trkpt lat="45.08287" lon="4.90227">
        <ele>205.00399780273</ele>
        <time>2009-10-24T12:10:05Z</time>
      </trkpt>
      <trkpt lat="45.08224" lon="4.90178">
        <ele>201.58500671387</ele>
        <time>2009-10-24T12:10:11Z</time>
      </trkpt>
      <trkpt lat="45.08195" lon="4.90149">
        <ele>200.50999450684</ele>
        <time>2009-10-24T12:10:14Z</time>
      </trkpt>
      <trkpt lat="45.08176" lon="4.90128">
        <ele>200.34700012207</ele>
        <time>2009-10-24T12:10:16Z</time>
      </trkpt>
      <trkpt lat="45.08122" lon="4.90065">
        <ele>197.61799621582</ele>
        <time>2009-10-24T12:10:22Z</time>
      </trkpt>
      <trkpt lat="45.08072" lon="4.90023">
        <ele>195.56799316406</ele>
        <time>2009-10-24T12:10:27Z</time>
      </trkpt>
      <trkpt lat="45.08062" lon="4.90015">
        <ele>195.29800415039</ele>
        <time>2009-10-24T12:10:28Z</time>
      </trkpt>
      <trkpt lat="45.08044" lon="4.89996">
        <ele>194.66299438477</ele>
        <time>2009-10-24T12:10:30Z</time>
      </trkpt>
      <trkpt lat="45.08019" lon="4.89953">
        <ele>192.99800109863</ele>
        <time>2009-10-24T12:10:34Z</time>
      </trkpt>
      <trkpt lat="45.08009" lon="4.89939">
        <ele>192.61399841309</ele>
        <time>2009-10-24T12:10:36Z</time>
      </trkpt>
      <trkpt lat="45.07992" lon="4.89946">
        <ele>191.4700012207</ele>
        <time>2009-10-24T12:10:38Z</time>
      </trkpt>
      <trkpt lat="45.07983" lon="4.89952">
        <ele>191.16600036621</ele>
        <time>2009-10-24T12:10:39Z</time>
      </trkpt>
      <trkpt lat="45.07965" lon="4.89948">
        <ele>190.4880065918</ele>
        <time>2009-10-24T12:10:41Z</time>
      </trkpt>
      <trkpt lat="45.07954" lon="4.89925">
        <ele>189.17100524902</ele>
        <time>2009-10-24T12:10:43Z</time>
      </trkpt>
      <trkpt lat="45.07938" lon="4.89881">
        <ele>188.38800048828</ele>
        <time>2009-10-24T12:10:46Z</time>
      </trkpt>
      <trkpt lat="45.07925" lon="4.89849">
        <ele>188.11000061035</ele>
        <time>2009-10-24T12:10:48Z</time>
      </trkpt>
      <trkpt lat="45.07919" lon="4.89832">
        <ele>188.98399353027</ele>
        <time>2009-10-24T12:10:49Z</time>
      </trkpt>
      <trkpt lat="45.07913" lon="4.89816">
        <ele>189.24299621582</ele>
        <time>2009-10-24T12:10:50Z</time>
      </trkpt>
      <trkpt lat="45.07899" lon="4.89786">
        <ele>187.44799804688</ele>
        <time>2009-10-24T12:10:52Z</time>
      </trkpt>
      <trkpt lat="45.07893" lon="4.89773">
        <ele>187.43499755859</ele>
        <time>2009-10-24T12:10:53Z</time>
      </trkpt>
      <trkpt lat="45.07883" lon="4.89751">
        <ele>187.13499450684</ele>
        <time>2009-10-24T12:10:55Z</time>
      </trkpt>
      <trkpt lat="45.07876" lon="4.89728">
        <ele>186.64999389648</ele>
        <time>2009-10-24T12:10:58Z</time>
      </trkpt>
      <trkpt lat="45.07875" lon="4.8972">
        <ele>186.23599243164</ele>
        <time>2009-10-24T12:10:59Z</time>
      </trkpt>
      <trkpt lat="45.07875" lon="4.89698">
        <ele>186.19299316406</ele>
        <time>2009-10-24T12:11:02Z</time>
      </trkpt>
      <trkpt lat="45.0788" lon="4.89643">
        <ele>185.62899780273</ele>
        <time>2009-10-24T12:11:09Z</time>
      </trkpt>
      <trkpt lat="45.07884" lon="4.89611">
        <ele>184.99699401856</ele>
        <time>2009-10-24T12:11:13Z</time>
      </trkpt>
      <trkpt lat="45.07889" lon="4.89551">
        <ele>185.00700378418</ele>
        <time>2009-10-24T12:11:20Z</time>
      </trkpt>
      <trkpt lat="45.07889" lon="4.89491">
        <ele>185.07299804688</ele>
        <time>2009-10-24T12:11:27Z</time>
      </trkpt>
      <trkpt lat="45.07885" lon="4.89439">
        <ele>185.40800476074</ele>
        <time>2009-10-24T12:11:33Z</time>
      </trkpt>
      <trkpt lat="45.07874" lon="4.89389">
        <ele>185.44500732422</ele>
        <time>2009-10-24T12:11:39Z</time>
      </trkpt>
      <trkpt lat="45.07863" lon="4.89352">
        <ele>185.78300476074</ele>
        <time>2009-10-24T12:11:44Z</time>
      </trkpt>
      <trkpt lat="45.0787" lon="4.89337">
        <ele>185.59300231934</ele>
        <time>2009-10-24T12:11:47Z</time>
      </trkpt>
      <trkpt lat="45.07876" lon="4.89337">
        <ele>184.90899658203</ele>
        <time>2009-10-24T12:11:48Z</time>
      </trkpt>
      <trkpt lat="45.07917" lon="4.89345">
        <ele>183.55799865723</ele>
        <time>2009-10-24T12:11:54Z</time>
      </trkpt>
      <trkpt lat="45.07966" lon="4.89351">
        <ele>183.68600463867</ele>
        <time>2009-10-24T12:12:01Z</time>
      </trkpt>
      <trkpt lat="45.07984" lon="4.89353">
        <ele>183.72900390625</ele>
        <time>2009-10-24T12:12:04Z</time>
      </trkpt>
      <trkpt lat="45.08026" lon="4.89357">
        <ele>185.86799621582</ele>
        <time>2009-10-24T12:12:11Z</time>
      </trkpt>
      <trkpt lat="45.08057" lon="4.89348">
        <ele>186.72099304199</ele>
        <time>2009-10-24T12:12:17Z</time>
      </trkpt>
      <trkpt lat="45.08075" lon="4.89351">
        <ele>187.75199890137</ele>
        <time>2009-10-24T12:12:21Z</time>
      </trkpt>
      <trkpt lat="45.08106" lon="4.89374">
        <ele>190.22900390625</ele>
        <time>2009-10-24T12:12:30Z</time>
      </trkpt>
      <trkpt lat="45.08131" lon="4.89393">
        <ele>192.22599792481</ele>
        <time>2009-10-24T12:12:38Z</time>
      </trkpt>
      <trkpt lat="45.0815" lon="4.89397">
        <ele>193.33799743652</ele>
        <time>2009-10-24T12:12:44Z</time>
      </trkpt>
      <trkpt lat="45.08159" lon="4.89385">
        <ele>194.54699707031</ele>
        <time>2009-10-24T12:12:48Z</time>
      </trkpt>
      <trkpt lat="45.0816" lon="4.89367">
        <ele>195.45199584961</ele>
        <time>2009-10-24T12:12:52Z</time>
      </trkpt>
      <trkpt lat="45.08154" lon="4.89338">
        <ele>196.75</ele>
        <time>2009-10-24T12:12:58Z</time>
      </trkpt>
      <trkpt lat="45.08159" lon="4.89309">
        <ele>198.69099426269</ele>
        <time>2009-10-24T12:13:04Z</time>
      </trkpt>
      <trkpt lat="45.08175" lon="4.89274">
        <ele>200.46899414062</ele>
        <time>2009-10-24T12:13:12Z</time>
      </trkpt>
      <trkpt lat="45.08192" lon="4.89254">
        <ele>202.17700195312</ele>
        <time>2009-10-24T12:13:18Z</time>
      </trkpt>
      <trkpt lat="45.08199" lon="4.89251">
        <ele>203.09800720215</ele>
        <time>2009-10-24T12:13:20Z</time>
      </trkpt>
      <trkpt lat="45.08224" lon="4.89245">
        <ele>205.45700073242</ele>
        <time>2009-10-24T12:13:27Z</time>
      </trkpt>
      <trkpt lat="45.0826" lon="4.89239">
        <ele>208.47300720215</ele>
        <time>2009-10-24T12:13:38Z</time>
      </trkpt>
      <trkpt lat="45.08282" lon="4.89245">
        <ele>210.32699584961</ele>
        <time>2009-10-24T12:13:45Z</time>
      </trkpt>
      <trkpt lat="45.08303" lon="4.89247">
        <ele>212.30799865723</ele>
        <time>2009-10-24T12:13:52Z</time>
      </trkpt>
      <trkpt lat="45.08324" lon="4.89242">
        <ele>214.52900695801</ele>
        <time>2009-10-24T12:13:59Z</time>
      </trkpt>
      <trkpt lat="45.08351" lon="4.89249">
        <ele>216.80499267578</ele>
        <time>2009-10-24T12:14:08Z</time>
      </trkpt>
      <trkpt lat="45.08367" lon="4.89243">
        <ele>217.76100158691</ele>
        <time>2009-10-24T12:14:13Z</time>
      </trkpt>
      <trkpt lat="45.08386" lon="4.89221">
        <ele>219.97900390625</ele>
        <time>2009-10-24T12:14:20Z</time>
      </trkpt>
      <trkpt lat="45.08412" lon="4.89199">
        <ele>221.10200500488</ele>
        <time>2009-10-24T12:14:28Z</time>
      </trkpt>
      <trkpt lat="45.08429" lon="4.89186">
        <ele>221.52699279785</ele>
        <time>2009-10-24T12:14:33Z</time>
      </trkpt>
      <trkpt lat="45.08447" lon="4.89169">
        <ele>222.68499755859</ele>
        <time>2009-10-24T12:14:39Z</time>
      </trkpt>
      <trkpt lat="45.08471" lon="4.89144">
        <ele>223.36399841309</ele>
        <time>2009-10-24T12:14:47Z</time>
      </trkpt>
      <trkpt lat="45.08493" lon="4.89132">
        <ele>222.77099609375</ele>
        <time>2009-10-24T12:14:52Z</time>
      </trkpt>
      <trkpt lat="45.08524" lon="4.89136">
        <ele>222.40800476074</ele>
        <time>2009-10-24T12:14:58Z</time>
      </trkpt>
      <trkpt lat="45.08542" lon="4.89147">
        <ele>221.97300720215</ele>
        <time>2009-10-24T12:15:02Z</time>
      </trkpt>
      <trkpt lat="45.08568" lon="4.89145">
        <ele>222.93699645996</ele>
        <time>2009-10-24T12:15:07Z</time>
      </trkpt>
      <trkpt lat="45.08605" lon="4.89127">
        <ele>222.86199951172</ele>
        <time>2009-10-24T12:15:14Z</time>
      </trkpt>
      <trkpt lat="45.08649" lon="4.89123">
        <ele>223.17999267578</ele>
        <time>2009-10-24T12:15:22Z</time>
      </trkpt>
      <trkpt lat="45.08708" lon="4.89121">
        <ele>224.67900085449</ele>
        <time>2009-10-24T12:15:33Z</time>
      </trkpt>
      <trkpt lat="45.08748" lon="4.89123">
        <ele>226.56500244141</ele>
        <time>2009-10-24T12:15:41Z</time>
      </trkpt>
      <trkpt lat="45.08777" lon="4.89129">
        <ele>227.58399963379</ele>
        <time>2009-10-24T12:15:47Z</time>
      </trkpt>
      <trkpt lat="45.08831" lon="4.89134">
        <ele>229.80099487305</ele>
        <time>2009-10-24T12:15:58Z</time>
      </trkpt>
      <trkpt lat="45.08873" lon="4.89142">
        <ele>232.5</ele>
        <time>2009-10-24T12:16:07Z</time>
      </trkpt>
      <trkpt lat="45.08914" lon="4.89147">
        <ele>233.46200561523</ele>
        <time>2009-10-24T12:16:16Z</time>
      </trkpt>
      <trkpt lat="45.08946" lon="4.89142">
        <ele>233.96200561523</ele>
        <time>2009-10-24T12:16:23Z</time>
      </trkpt>
      <trkpt lat="45.08965" lon="4.89122">
        <ele>236.41400146484</ele>
        <time>2009-10-24T12:16:28Z</time>
      </trkpt>
      <trkpt lat="45.08967" lon="4.89116">
        <ele>236.23599243164</ele>
        <time>2009-10-24T12:16:29Z</time>
      </trkpt>
      <trkpt lat="45.08986" lon="4.89064">
        <ele>237.74099731445</ele>
        <time>2009-10-24T12:16:38Z</time>
      </trkpt>
      <trkpt lat="45.0901" lon="4.89029">
        <ele>239.46299743652</ele>
        <time>2009-10-24T12:16:46Z</time>
      </trkpt>
      <trkpt lat="45.0903" lon="4.89019">
        <ele>239.47399902344</ele>
        <time>2009-10-24T12:16:51Z</time>
      </trkpt>
      <trkpt lat="45.09034" lon="4.89018">
        <ele>239.66499328613</ele>
        <time>2009-10-24T12:16:52Z</time>
      </trkpt>
      <trkpt lat="45.09069" lon="4.89006">
        <ele>240.56199645996</ele>
        <time>2009-10-24T12:17:00Z</time>
      </trkpt>
      <trkpt lat="45.09106" lon="4.89003">
        <ele>241.63600158691</ele>
        <time>2009-10-24T12:17:08Z</time>
      </trkpt>
      <trkpt lat="45.09151" lon="4.8901">
        <ele>242.03799438477</ele>
        <time>2009-10-24T12:17:17Z</time>
      </trkpt>
      <trkpt lat="45.09179" lon="4.89007">
        <ele>241.38200378418</ele>
        <time>2009-10-24T12:17:22Z</time>
      </trkpt>
      <trkpt lat="45.09201" lon="4.88995">
        <ele>241.06399536133</ele>
        <time>2009-10-24T12:17:26Z</time>
      </trkpt>
      <trkpt lat="45.09245" lon="4.88957">
        <ele>239.24000549316</ele>
        <time>2009-10-24T12:17:34Z</time>
      </trkpt>
      <trkpt lat="45.09266" lon="4.88943">
        <ele>237.76300048828</ele>
        <time>2009-10-24T12:17:37Z</time>
      </trkpt>
      <trkpt lat="45.09301" lon="4.88936">
        <ele>235.33200073242</ele>
        <time>2009-10-24T12:17:41Z</time>
      </trkpt>
      <trkpt lat="45.0931" lon="4.88938">
        <ele>234.96800231934</ele>
        <time>2009-10-24T12:17:42Z</time>
      </trkpt>
      <trkpt lat="45.09328" lon="4.88944">
        <ele>234.39799499512</ele>
        <time>2009-10-24T12:17:44Z</time>
      </trkpt>
      <trkpt lat="45.09361" lon="4.88943">
        <ele>235.08099365234</ele>
        <time>2009-10-24T12:17:48Z</time>
      </trkpt>
      <trkpt lat="45.09368" lon="4.88939">
        <ele>236.05200195312</ele>
        <time>2009-10-24T12:17:49Z</time>
      </trkpt>
      <trkpt lat="45.09406" lon="4.88914">
        <ele>239.80799865723</ele>
        <time>2009-10-24T12:17:57Z</time>
      </trkpt>
      <trkpt lat="45.09423" lon="4.88907">
        <ele>239.84100341797</ele>
        <time>2009-10-24T12:18:01Z</time>
      </trkpt>
      <trkpt lat="45.09449" lon="4.88895">
        <ele>237.96499633789</ele>
        <time>2009-10-24T12:18:06Z</time>
      </trkpt>
      <trkpt lat="45.09476" lon="4.88904">
        <ele>235.91900634766</ele>
        <time>2009-10-24T12:18:10Z</time>
      </trkpt>
      <trkpt lat="45.09484" lon="4.88925">
        <ele>233.55700683594</ele>
        <time>2009-10-24T12:18:12Z</time>
      </trkpt>
      <trkpt lat="45.09488" lon="4.88935">
        <ele>232.66600036621</ele>
        <time>2009-10-24T12:18:13Z</time>
      </trkpt>
      <trkpt lat="45.09496" lon="4.88951">
        <ele>231.55900573731</ele>
        <time>2009-10-24T12:18:15Z</time>
      </trkpt>
      <trkpt lat="45.09511" lon="4.88949">
        <ele>230.93800354004</ele>
        <time>2009-10-24T12:18:17Z</time>
      </trkpt>
      <trkpt lat="45.09521" lon="4.88937">
        <ele>231.18299865723</ele>
        <time>2009-10-24T12:18:19Z</time>
      </trkpt>
      <trkpt lat="45.09537" lon="4.8891">
        <ele>231.70799255371</ele>
        <time>2009-10-24T12:18:23Z</time>
      </trkpt>
      <trkpt lat="45.09547" lon="4.88902">
        <ele>231.47099304199</ele>
        <time>2009-10-24T12:18:25Z</time>
      </trkpt>
      <trkpt lat="45.09584" lon="4.88889">
        <ele>230.08700561523</ele>
        <time>2009-10-24T12:18:31Z</time>
      </trkpt>
      <trkpt lat="45.09598" lon="4.88887">
        <ele>229.98199462891</ele>
        <time>2009-10-24T12:18:33Z</time>
      </trkpt>
      <trkpt lat="45.09639" lon="4.88892">
        <ele>227.98500061035</ele>
        <time>2009-10-24T12:18:39Z</time>
      </trkpt>
      <trkpt lat="45.09663" lon="4.88891">
        <ele>226.60200500488</ele>
        <time>2009-10-24T12:18:42Z</time>
      </trkpt>
      <trkpt lat="45.09672" lon="4.88892">
        <ele>225.95700073242</ele>
        <time>2009-10-24T12:18:43Z</time>
      </trkpt>
      <trkpt lat="45.09689" lon="4.88896">
        <ele>225.30799865723</ele>
        <time>2009-10-24T12:18:45Z</time>
      </trkpt>
      <trkpt lat="45.09698" lon="4.88899">
        <ele>225.27400207519</ele>
        <time>2009-10-24T12:18:46Z</time>
      </trkpt>
      <trkpt lat="45.09723" lon="4.88891">
        <ele>225.58399963379</ele>
        <time>2009-10-24T12:18:49Z</time>
      </trkpt>
      <trkpt lat="45.09727" lon="4.88871">
        <ele>226.47300720215</ele>
        <time>2009-10-24T12:18:51Z</time>
      </trkpt>
      <trkpt lat="45.09728" lon="4.88852">
        <ele>227.42700195312</ele>
        <time>2009-10-24T12:18:53Z</time>
      </trkpt>
      <trkpt lat="45.09729" lon="4.88829">
        <ele>228.49899291992</ele>
        <time>2009-10-24T12:18:56Z</time>
      </trkpt>
      <trkpt lat="45.09725" lon="4.88798">
        <ele>231.13400268555</ele>
        <time>2009-10-24T12:19:00Z</time>
      </trkpt>
      <trkpt lat="45.09716" lon="4.88774">
        <ele>231.99200439453</ele>
        <time>2009-10-24T12:19:04Z</time>
      </trkpt>
      <trkpt lat="45.09713" lon="4.88769">
        <ele>231.69900512695</ele>
        <time>2009-10-24T12:19:05Z</time>
      </trkpt>
      <trkpt lat="45.09706" lon="4.88748">
        <ele>231.82099914551</ele>
        <time>2009-10-24T12:19:08Z</time>
      </trkpt>
      <trkpt lat="45.09705" lon="4.88719">
        <ele>230.68600463867</ele>
        <time>2009-10-24T12:19:12Z</time>
      </trkpt>
      <trkpt lat="45.09709" lon="4.88676">
        <ele>229.16999816894</ele>
        <time>2009-10-24T12:19:17Z</time>
      </trkpt>
      <trkpt lat="45.09723" lon="4.88638">
        <ele>228.5950012207</ele>
        <time>2009-10-24T12:19:21Z</time>
      </trkpt>
      <trkpt lat="45.0973" lon="4.88631">
        <ele>227.27299499512</ele>
        <time>2009-10-24T12:19:22Z</time>
      </trkpt>
      <trkpt lat="45.09793" lon="4.88582">
        <ele>221.13900756836</ele>
        <time>2009-10-24T12:19:29Z</time>
      </trkpt>
      <trkpt lat="45.09833" lon="4.88551">
        <ele>217.7859954834</ele>
        <time>2009-10-24T12:19:33Z</time>
      </trkpt>
      <trkpt lat="45.09843" lon="4.88542">
        <ele>216.27699279785</ele>
        <time>2009-10-24T12:19:34Z</time>
      </trkpt>
      <trkpt lat="45.09879" lon="4.8849">
        <ele>212.53100585938</ele>
        <time>2009-10-24T12:19:38Z</time>
      </trkpt>
      <trkpt lat="45.09895" lon="4.88459">
        <ele>210.16600036621</ele>
        <time>2009-10-24T12:19:40Z</time>
      </trkpt>
      <trkpt lat="45.09934" lon="4.88408">
        <ele>206.25199890137</ele>
        <time>2009-10-24T12:19:44Z</time>
      </trkpt>
      <trkpt lat="45.09938" lon="4.88366">
        <ele>202.81199645996</ele>
        <time>2009-10-24T12:19:47Z</time>
      </trkpt>
      <trkpt lat="45.09919" lon="4.88351">
        <ele>201.23599243164</ele>
        <time>2009-10-24T12:19:49Z</time>
      </trkpt>
      <trkpt lat="45.09897" lon="4.8834">
        <ele>199.65100097656</ele>
        <time>2009-10-24T12:19:51Z</time>
      </trkpt>
      <trkpt lat="45.09879" lon="4.88298">
        <ele>196.49600219727</ele>
        <time>2009-10-24T12:19:54Z</time>
      </trkpt>
      <trkpt lat="45.09882" lon="4.88252">
        <ele>193.79699707031</ele>
        <time>2009-10-24T12:19:57Z</time>
      </trkpt>
      <trkpt lat="45.09896" lon="4.8824">
        <ele>191.80599975586</ele>
        <time>2009-10-24T12:19:59Z</time>
      </trkpt>
      <trkpt lat="45.09917" lon="4.88243">
        <ele>191.1609954834</ele>
        <time>2009-10-24T12:20:01Z</time>
      </trkpt>
      <trkpt lat="45.09943" lon="4.88237">
        <ele>188.27200317383</ele>
        <time>2009-10-24T12:20:04Z</time>
      </trkpt>
      <trkpt lat="45.09951" lon="4.88219">
        <ele>186.88999938965</ele>
        <time>2009-10-24T12:20:06Z</time>
      </trkpt>
      <trkpt lat="45.09953" lon="4.8821">
        <ele>186.05799865723</ele>
        <time>2009-10-24T12:20:07Z</time>
      </trkpt>
      <trkpt lat="45.09957" lon="4.88193">
        <ele>184.52000427246</ele>
        <time>2009-10-24T12:20:11Z</time>
      </trkpt>
      <trkpt lat="45.09958" lon="4.88191">
        <ele>184.1309967041</ele>
        <time>2009-10-24T12:20:16Z</time>
      </trkpt>
      <trkpt lat="45.09958" lon="4.88191">
        <ele>184.03300476074</ele>
        <time>2009-10-24T12:20:31Z</time>
      </trkpt>
      <trkpt lat="45.09958" lon="4.88191">
        <ele>184.40299987793</ele>
        <time>2009-10-24T12:20:41Z</time>
      </trkpt>
      <trkpt lat="45.09958" lon="4.88191">
        <ele>183.91999816894</ele>
        <time>2009-10-24T12:20:42Z</time>
      </trkpt>
      <trkpt lat="45.09956" lon="4.88185">
        <ele>184.17500305176</ele>
        <time>2009-10-24T12:20:45Z</time>
      </trkpt>
      <trkpt lat="45.09949" lon="4.88177">
        <ele>184.00300598144</ele>
        <time>2009-10-24T12:20:48Z</time>
      </trkpt>
      <trkpt lat="45.09918" lon="4.88161">
        <ele>183.64900207519</ele>
        <time>2009-10-24T12:20:55Z</time>
      </trkpt>
      <trkpt lat="45.09884" lon="4.88142">
        <ele>183.52000427246</ele>
        <time>2009-10-24T12:21:01Z</time>
      </trkpt>
      <trkpt lat="45.09833" lon="4.88119">
        <ele>182.92300415039</ele>
        <time>2009-10-24T12:21:09Z</time>
      </trkpt>
      <trkpt lat="45.09772" lon="4.88097">
        <ele>182.50999450684</ele>
        <time>2009-10-24T12:21:18Z</time>
      </trkpt>
      <trkpt lat="45.09718" lon="4.88082">
        <ele>182.60099792481</ele>
        <time>2009-10-24T12:21:26Z</time>
      </trkpt>
      <trkpt lat="45.09677" lon="4.88081">
        <ele>181.92399597168</ele>
        <time>2009-10-24T12:21:32Z</time>
      </trkpt>
      <trkpt lat="45.09663" lon="4.88084">
        <ele>181.73300170898</ele>
        <time>2009-10-24T12:21:34Z</time>
      </trkpt>
      <trkpt lat="45.09605" lon="4.88106">
        <ele>181.23199462891</ele>
        <time>2009-10-24T12:21:43Z</time>
      </trkpt>
      <trkpt lat="45.09552" lon="4.8812">
        <ele>181.53399658203</ele>
        <time>2009-10-24T12:21:51Z</time>
      </trkpt>
      <trkpt lat="45.09504" lon="4.88129">
        <ele>181.16400146484</ele>
        <time>2009-10-24T12:21:58Z</time>
      </trkpt>
      <trkpt lat="45.09423" lon="4.88143">
        <ele>181.35000610352</ele>
        <time>2009-10-24T12:22:10Z</time>
      </trkpt>
      <trkpt lat="45.09364" lon="4.88154">
        <ele>179.25900268555</ele>
        <time>2009-10-24T12:22:18Z</time>
      </trkpt>
      <trkpt lat="45.09327" lon="4.88166">
        <ele>178.95899963379</ele>
        <time>2009-10-24T12:22:23Z</time>
      </trkpt>
      <trkpt lat="45.09273" lon="4.88184">
        <ele>177.80499267578</ele>
        <time>2009-10-24T12:22:30Z</time>
      </trkpt>
      <trkpt lat="45.09225" lon="4.8819">
        <ele>176.77400207519</ele>
        <time>2009-10-24T12:22:36Z</time>
      </trkpt>
      <trkpt lat="45.09166" lon="4.88183">
        <ele>176.05299377441</ele>
        <time>2009-10-24T12:22:43Z</time>
      </trkpt>
      <trkpt lat="45.09139" lon="4.88177">
        <ele>174.62699890137</ele>
        <time>2009-10-24T12:22:46Z</time>
      </trkpt>
      <trkpt lat="45.09094" lon="4.88168">
        <ele>173.60499572754</ele>
        <time>2009-10-24T12:22:51Z</time>
      </trkpt>
      <trkpt lat="45.09024" lon="4.8815">
        <ele>172.24699401856</ele>
        <time>2009-10-24T12:22:59Z</time>
      </trkpt>
      <trkpt lat="45.08964" lon="4.88142">
        <ele>170.65800476074</ele>
        <time>2009-10-24T12:23:06Z</time>
      </trkpt>
      <trkpt lat="45.08897" lon="4.88144">
        <ele>170.79100036621</ele>
        <time>2009-10-24T12:23:14Z</time>
      </trkpt>
      <trkpt lat="45.08823" lon="4.8813">
        <ele>170.46000671387</ele>
        <time>2009-10-24T12:23:23Z</time>
      </trkpt>
      <trkpt lat="45.08758" lon="4.88127">
        <ele>170.50100708008</ele>
        <time>2009-10-24T12:23:31Z</time>
      </trkpt>
      <trkpt lat="45.08713" lon="4.88119">
        <ele>170.67300415039</ele>
        <time>2009-10-24T12:23:37Z</time>
      </trkpt>
      <trkpt lat="45.08671" lon="4.88101">
        <ele>170.27600097656</ele>
        <time>2009-10-24T12:23:43Z</time>
      </trkpt>
      <trkpt lat="45.08608" lon="4.88065">
        <ele>169.92199707031</ele>
        <time>2009-10-24T12:23:52Z</time>
      </trkpt>
      <trkpt lat="45.08546" lon="4.88019">
        <ele>168.79899597168</ele>
        <time>2009-10-24T12:24:01Z</time>
      </trkpt>
      <trkpt lat="45.08491" lon="4.87975">
        <ele>168.22200012207</ele>
        <time>2009-10-24T12:24:09Z</time>
      </trkpt>
      <trkpt lat="45.08467" lon="4.87929">
        <ele>167.83099365234</ele>
        <time>2009-10-24T12:24:14Z</time>
      </trkpt>
      <trkpt lat="45.08463" lon="4.87907">
        <ele>167.94599914551</ele>
        <time>2009-10-24T12:24:16Z</time>
      </trkpt>
      <trkpt lat="45.08449" lon="4.87791">
        <ele>167.59300231934</ele>
        <time>2009-10-24T12:24:26Z</time>
      </trkpt>
      <trkpt lat="45.0844" lon="4.87714">
        <ele>166.14500427246</ele>
        <time>2009-10-24T12:24:33Z</time>
      </trkpt>
      <trkpt lat="45.08437" lon="4.87687">
        <ele>166.21699523926</ele>
        <time>2009-10-24T12:24:35Z</time>
      </trkpt>
      <trkpt lat="45.08434" lon="4.87665">
        <ele>166.18800354004</ele>
        <time>2009-10-24T12:24:37Z</time>
      </trkpt>
      <trkpt lat="45.08424" lon="4.87636">
        <ele>167.20399475098</ele>
        <time>2009-10-24T12:24:40Z</time>
      </trkpt>
      <trkpt lat="45.08409" lon="4.87611">
        <ele>168.64900207519</ele>
        <time>2009-10-24T12:24:43Z</time>
      </trkpt>
      <trkpt lat="45.08387" lon="4.87594">
        <ele>170.35200500488</ele>
        <time>2009-10-24T12:24:46Z</time>
      </trkpt>
      <trkpt lat="45.08372" lon="4.87586">
        <ele>171.16000366211</ele>
        <time>2009-10-24T12:24:48Z</time>
      </trkpt>
      <trkpt lat="45.08352" lon="4.87574">
        <ele>172.60600280762</ele>
        <time>2009-10-24T12:24:51Z</time>
      </trkpt>
      <trkpt lat="45.08339" lon="4.87567">
        <ele>172.70300292969</ele>
        <time>2009-10-24T12:24:53Z</time>
      </trkpt>
      <trkpt lat="45.08332" lon="4.87563">
        <ele>172.88800048828</ele>
        <time>2009-10-24T12:24:54Z</time>
      </trkpt>
      <trkpt lat="45.08326" lon="4.87559">
        <ele>172.55499267578</ele>
        <time>2009-10-24T12:24:55Z</time>
      </trkpt>
      <trkpt lat="45.08319" lon="4.87555">
        <ele>172.39900207519</ele>
        <time>2009-10-24T12:24:56Z</time>
      </trkpt>
      <trkpt lat="45.08264" lon="4.87519">
        <ele>171.20599365234</ele>
        <time>2009-10-24T12:25:04Z</time>
      </trkpt>
      <trkpt lat="45.08232" lon="4.87492">
        <ele>170.05900573731</ele>
        <time>2009-10-24T12:25:09Z</time>
      </trkpt>
      <trkpt lat="45.08185" lon="4.87438">
        <ele>167.6609954834</ele>
        <time>2009-10-24T12:25:17Z</time>
      </trkpt>
      <trkpt lat="45.08141" lon="4.87388">
        <ele>166.38200378418</ele>
        <time>2009-10-24T12:25:24Z</time>
      </trkpt>
      <trkpt lat="45.08105" lon="4.87345">
        <ele>166.26699829102</ele>
        <time>2009-10-24T12:25:30Z</time>
      </trkpt>
      <trkpt lat="45.08088" lon="4.87312">
        <ele>166.82499694824</ele>
        <time>2009-10-24T12:25:34Z</time>
      </trkpt>
      <trkpt lat="45.08076" lon="4.87286">
        <ele>166.27000427246</ele>
        <time>2009-10-24T12:25:37Z</time>
      </trkpt>
      <trkpt lat="45.08049" lon="4.8724">
        <ele>165.61500549316</ele>
        <time>2009-10-24T12:25:42Z</time>
      </trkpt>
      <trkpt lat="45.08012" lon="4.87188">
        <ele>163.46600341797</ele>
        <time>2009-10-24T12:25:48Z</time>
      </trkpt>
      <trkpt lat="45.07967" lon="4.87123">
        <ele>161.27600097656</ele>
        <time>2009-10-24T12:25:56Z</time>
      </trkpt>
      <trkpt lat="45.07934" lon="4.87087">
        <ele>159.35600280762</ele>
        <time>2009-10-24T12:26:01Z</time>
      </trkpt>
      <trkpt lat="45.07904" lon="4.87064">
        <ele>158.23500061035</ele>
        <time>2009-10-24T12:26:05Z</time>
      </trkpt>
      <trkpt lat="45.07838" lon="4.87018">
        <ele>156.52600097656</ele>
        <time>2009-10-24T12:26:13Z</time>
      </trkpt>
      <trkpt lat="45.07797" lon="4.86989">
        <ele>154.9640045166</ele>
        <time>2009-10-24T12:26:18Z</time>
      </trkpt>
      <trkpt lat="45.0779" lon="4.86982">
        <ele>154.54499816894</ele>
        <time>2009-10-24T12:26:19Z</time>
      </trkpt>
      <trkpt lat="45.07764" lon="4.86945">
        <ele>153.85200500488</ele>
        <time>2009-10-24T12:26:23Z</time>
      </trkpt>
      <trkpt lat="45.07718" lon="4.86841">
        <ele>152.80599975586</ele>
        <time>2009-10-24T12:26:33Z</time>
      </trkpt>
      <trkpt lat="45.07677" lon="4.86752">
        <ele>150.94000244141</ele>
        <time>2009-10-24T12:26:42Z</time>
      </trkpt>
      <trkpt lat="45.07634" lon="4.86665">
        <ele>149.95399475098</ele>
        <time>2009-10-24T12:26:51Z</time>
      </trkpt>
      <trkpt lat="45.076" lon="4.8663">
        <ele>149.24099731445</ele>
        <time>2009-10-24T12:26:56Z</time>
      </trkpt>
      <trkpt lat="45.07537" lon="4.8657">
        <ele>148.01600646973</ele>
        <time>2009-10-24T12:27:05Z</time>
      </trkpt>
      <trkpt lat="45.07485" lon="4.86515">
        <ele>147.92300415039</ele>
        <time>2009-10-24T12:27:13Z</time>
      </trkpt>
      <trkpt lat="45.07444" lon="4.86453">
        <ele>147.78700256348</ele>
        <time>2009-10-24T12:27:21Z</time>
      </trkpt>
      <trkpt lat="45.07392" lon="4.8637">
        <ele>147.05099487305</ele>
        <time>2009-10-24T12:27:31Z</time>
      </trkpt>
      <trkpt lat="45.0736" lon="4.86304">
        <ele>145.93400573731</ele>
        <time>2009-10-24T12:27:38Z</time>
      </trkpt>
      <trkpt lat="45.07336" lon="4.86232">
        <ele>145.43499755859</ele>
        <time>2009-10-24T12:27:45Z</time>
      </trkpt>
      <trkpt lat="45.07319" lon="4.86157">
        <ele>144.69400024414</ele>
        <time>2009-10-24T12:27:52Z</time>
      </trkpt>
      <trkpt lat="45.07291" lon="4.86102">
        <ele>143.08500671387</ele>
        <time>2009-10-24T12:27:58Z</time>
      </trkpt>
      <trkpt lat="45.07275" lon="4.86061">
        <ele>142.78900146484</ele>
        <time>2009-10-24T12:28:02Z</time>
      </trkpt>
      <trkpt lat="45.07263" lon="4.86009">
        <ele>142.33299255371</ele>
        <time>2009-10-24T12:28:07Z</time>
      </trkpt>
      <trkpt lat="45.07246" lon="4.85972">
        <ele>142.08200073242</ele>
        <time>2009-10-24T12:28:11Z</time>
      </trkpt>
      <trkpt lat="45.07192" lon="4.85905">
        <ele>140.89399719238</ele>
        <time>2009-10-24T12:28:20Z</time>
      </trkpt>
      <trkpt lat="45.07161" lon="4.85867">
        <ele>140.24299621582</ele>
        <time>2009-10-24T12:28:26Z</time>
      </trkpt>
      <trkpt lat="45.07146" lon="4.85852">
        <ele>139.72099304199</ele>
        <time>2009-10-24T12:28:29Z</time>
      </trkpt>
      <trkpt lat="45.07119" lon="4.85838">
        <ele>139.24200439453</ele>
        <time>2009-10-24T12:28:34Z</time>
      </trkpt>
      <trkpt lat="45.07096" lon="4.85822">
        <ele>139.15800476074</ele>
        <time>2009-10-24T12:28:39Z</time>
      </trkpt>
      <trkpt lat="45.07093" lon="4.85816">
        <ele>139.11500549316</ele>
        <time>2009-10-24T12:28:40Z</time>
      </trkpt>
      <trkpt lat="45.07082" lon="4.85782">
        <ele>138.14799499512</ele>
        <time>2009-10-24T12:28:45Z</time>
      </trkpt>
      <trkpt lat="45.07083" lon="4.85774">
        <ele>138.00199890137</ele>
        <time>2009-10-24T12:28:46Z</time>
      </trkpt>
      <trkpt lat="45.07087" lon="4.8572">
        <ele>135.80000305176</ele>
        <time>2009-10-24T12:28:52Z</time>
      </trkpt>
      <trkpt lat="45.07087" lon="4.85709">
        <ele>135.65100097656</ele>
        <time>2009-10-24T12:28:53Z</time>
      </trkpt>
      <trkpt lat="45.07089" lon="4.8565">
        <ele>134.68400573731</ele>
        <time>2009-10-24T12:28:58Z</time>
      </trkpt>
      <trkpt lat="45.07091" lon="4.85612">
        <ele>134.56100463867</ele>
        <time>2009-10-24T12:29:01Z</time>
      </trkpt>
      <trkpt lat="45.07096" lon="4.85533">
        <ele>133.93499755859</ele>
        <time>2009-10-24T12:29:08Z</time>
      </trkpt>
      <trkpt lat="45.07098" lon="4.85462">
        <ele>132.98500061035</ele>
        <time>2009-10-24T12:29:14Z</time>
      </trkpt>
      <trkpt lat="45.07093" lon="4.85337">
        <ele>132.19700622559</ele>
        <time>2009-10-24T12:29:25Z</time>
      </trkpt>
      <trkpt lat="45.07091" lon="4.85237">
        <ele>131.20199584961</ele>
        <time>2009-10-24T12:29:34Z</time>
      </trkpt>
      <trkpt lat="45.07087" lon="4.85164">
        <ele>130.81799316406</ele>
        <time>2009-10-24T12:29:41Z</time>
      </trkpt>
      <trkpt lat="45.0708" lon="4.85084">
        <ele>130.08000183106</ele>
        <time>2009-10-24T12:29:49Z</time>
      </trkpt>
      <trkpt lat="45.07082" lon="4.85025">
        <ele>130.06799316406</ele>
        <time>2009-10-24T12:29:55Z</time>
      </trkpt>
      <trkpt lat="45.07088" lon="4.84983">
        <ele>128.41499328613</ele>
        <time>2009-10-24T12:29:59Z</time>
      </trkpt>
      <trkpt lat="45.07088" lon="4.84972">
        <ele>127.68699645996</ele>
        <time>2009-10-24T12:30:00Z</time>
      </trkpt>
      <trkpt lat="45.07082" lon="4.84924">
        <ele>126.42400360107</ele>
        <time>2009-10-24T12:30:04Z</time>
      </trkpt>
      <trkpt lat="45.0706" lon="4.84861">
        <ele>126.59700012207</ele>
        <time>2009-10-24T12:30:10Z</time>
      </trkpt>
      <trkpt lat="45.07053" lon="4.84825">
        <ele>128.27099609375</ele>
        <time>2009-10-24T12:30:14Z</time>
      </trkpt>
      <trkpt lat="45.07049" lon="4.84781">
        <ele>129.81700134277</ele>
        <time>2009-10-24T12:30:20Z</time>
      </trkpt>
      <trkpt lat="45.07048" lon="4.84755">
        <ele>129.55200195312</ele>
        <time>2009-10-24T12:30:23Z</time>
      </trkpt>
      <trkpt lat="45.07047" lon="4.84746">
        <ele>130.02000427246</ele>
        <time>2009-10-24T12:30:24Z</time>
      </trkpt>
      <trkpt lat="45.07041" lon="4.84688">
        <ele>129.7380065918</ele>
        <time>2009-10-24T12:30:31Z</time>
      </trkpt>
      <trkpt lat="45.07025" lon="4.84619">
        <ele>129.10000610352</ele>
        <time>2009-10-24T12:30:39Z</time>
      </trkpt>
      <trkpt lat="45.0702" lon="4.8457">
        <ele>129.29100036621</ele>
        <time>2009-10-24T12:30:44Z</time>
      </trkpt>
      <trkpt lat="45.07025" lon="4.84521">
        <ele>129.02699279785</ele>
        <time>2009-10-24T12:30:49Z</time>
      </trkpt>
      <trkpt lat="45.07034" lon="4.84435">
        <ele>128.54699707031</ele>
        <time>2009-10-24T12:30:58Z</time>
      </trkpt>
      <trkpt lat="45.07038" lon="4.84373">
        <ele>128.10400390625</ele>
        <time>2009-10-24T12:31:05Z</time>
      </trkpt>
      <trkpt lat="45.07042" lon="4.84342">
        <ele>128.22399902344</ele>
        <time>2009-10-24T12:31:09Z</time>
      </trkpt>
      <trkpt lat="45.07043" lon="4.84325">
        <ele>128.15299987793</ele>
        <time>2009-10-24T12:31:12Z</time>
      </trkpt>
      <trkpt lat="45.07034" lon="4.84318">
        <ele>128.16700744629</ele>
        <time>2009-10-24T12:31:15Z</time>
      </trkpt>
      <trkpt lat="45.07022" lon="4.84331">
        <ele>128.16200256348</ele>
        <time>2009-10-24T12:31:18Z</time>
      </trkpt>
      <trkpt lat="45.07012" lon="4.84334">
        <ele>128.22399902344</ele>
        <time>2009-10-24T12:31:20Z</time>
      </trkpt>
      <trkpt lat="45.06971" lon="4.84339">
        <ele>127.98400115967</ele>
        <time>2009-10-24T12:31:27Z</time>
      </trkpt>
      <trkpt lat="45.0692" lon="4.84343">
        <ele>127.65000152588</ele>
        <time>2009-10-24T12:31:35Z</time>
      </trkpt>
      <trkpt lat="45.0691" lon="4.84343">
        <ele>127.65899658203</ele>
        <time>2009-10-24T12:31:38Z</time>
      </trkpt>
      <trkpt lat="45.06897" lon="4.84342">
        <ele>127.422996521</ele>
        <time>2009-10-24T12:31:44Z</time>
      </trkpt>
      <trkpt lat="45.06891" lon="4.84343">
        <ele>127.3690032959</ele>
        <time>2009-10-24T12:31:50Z</time>
      </trkpt>
      <trkpt lat="45.06886" lon="4.84356">
        <ele>127.49299621582</ele>
        <time>2009-10-24T12:32:18Z</time>
      </trkpt>
      <trkpt lat="45.06879" lon="4.84355">
        <ele>127.21399688721</ele>
        <time>2009-10-24T12:32:23Z</time>
      </trkpt>
      <trkpt lat="45.06878" lon="4.84335">
        <ele>127.29000091553</ele>
        <time>2009-10-24T12:32:27Z</time>
      </trkpt>
      <trkpt lat="45.06881" lon="4.84322">
        <ele>127.6129989624</ele>
        <time>2009-10-24T12:32:29Z</time>
      </trkpt>
      <trkpt lat="45.06894" lon="4.8427">
        <ele>128.13800048828</ele>
        <time>2009-10-24T12:32:38Z</time>
      </trkpt>
      <trkpt lat="45.06901" lon="4.84242">
        <ele>127.72100067139</ele>
        <time>2009-10-24T12:32:44Z</time>
      </trkpt>
      <trkpt lat="45.06902" lon="4.84237">
        <ele>127.75700378418</ele>
        <time>2009-10-24T12:32:48Z</time>
      </trkpt>
      <trkpt lat="45.06902" lon="4.84236">
        <ele>127.41200256348</ele>
        <time>2009-10-24T12:32:56Z</time>
      </trkpt>
      <trkpt lat="45.06902" lon="4.84234">
        <ele>127.65100097656</ele>
        <time>2009-10-24T12:33:13Z</time>
      </trkpt>
      <trkpt lat="45.06901" lon="4.84233">
        <ele>127.46399688721</ele>
        <time>2009-10-24T12:33:22Z</time>
      </trkpt>
      <trkpt lat="45.06901" lon="4.84233">
        <ele>127.69300079346</ele>
        <time>2009-10-24T12:33:24Z</time>
      </trkpt>
      <trkpt lat="45.06901" lon="4.84232">
        <ele>127.56199645996</ele>
        <time>2009-10-24T12:33:25Z</time>
      </trkpt>
      <trkpt lat="45.06902" lon="4.84228">
        <ele>127.57599639893</ele>
        <time>2009-10-24T12:33:27Z</time>
      </trkpt>
      <trkpt lat="45.06896" lon="4.84207">
        <ele>127.58999633789</ele>
        <time>2009-10-24T12:33:33Z</time>
      </trkpt>
      <trkpt lat="45.0687" lon="4.84193">
        <ele>128.57400512695</ele>
        <time>2009-10-24T12:33:39Z</time>
      </trkpt>
      <trkpt lat="45.06845" lon="4.84179">
        <ele>129.59800720215</ele>
        <time>2009-10-24T12:33:44Z</time>
      </trkpt>
      <trkpt lat="45.06819" lon="4.84162">
        <ele>130.57499694824</ele>
        <time>2009-10-24T12:33:49Z</time>
      </trkpt>
      <trkpt lat="45.06794" lon="4.84148">
        <ele>131.45399475098</ele>
        <time>2009-10-24T12:33:54Z</time>
      </trkpt>
      <trkpt lat="45.06756" lon="4.84125">
        <ele>132.84800720215</ele>
        <time>2009-10-24T12:34:01Z</time>
      </trkpt>
      <trkpt lat="45.06715" lon="4.84099">
        <ele>134.51600646973</ele>
        <time>2009-10-24T12:34:09Z</time>
      </trkpt>
      <trkpt lat="45.06669" lon="4.84071">
        <ele>134.35200500488</ele>
        <time>2009-10-24T12:34:18Z</time>
      </trkpt>
      <trkpt lat="45.06608" lon="4.84033">
        <ele>133.67199707031</ele>
        <time>2009-10-24T12:34:30Z</time>
      </trkpt>
      <trkpt lat="45.06575" lon="4.84012">
        <ele>133.03999328613</ele>
        <time>2009-10-24T12:34:36Z</time>
      </trkpt>
      <trkpt lat="45.06559" lon="4.83987">
        <ele>132.08599853516</ele>
        <time>2009-10-24T12:34:40Z</time>
      </trkpt>
      <trkpt lat="45.06562" lon="4.8397">
        <ele>131.91400146484</ele>
        <time>2009-10-24T12:34:42Z</time>
      </trkpt>
      <trkpt lat="45.06592" lon="4.83889">
        <ele>130.26800537109</ele>
        <time>2009-10-24T12:34:52Z</time>
      </trkpt>
      <trkpt lat="45.06622" lon="4.83816">
        <ele>130.23699951172</ele>
        <time>2009-10-24T12:35:01Z</time>
      </trkpt>
      <trkpt lat="45.06661" lon="4.83724">
        <ele>130.30400085449</ele>
        <time>2009-10-24T12:35:13Z</time>
      </trkpt>
      <trkpt lat="45.06697" lon="4.83642">
        <ele>130.53300476074</ele>
        <time>2009-10-24T12:35:24Z</time>
      </trkpt>
      <trkpt lat="45.06735" lon="4.83559">
        <ele>130.71000671387</ele>
        <time>2009-10-24T12:35:35Z</time>
      </trkpt>
      <trkpt lat="45.06775" lon="4.8347">
        <ele>130.80499267578</ele>
        <time>2009-10-24T12:35:47Z</time>
      </trkpt>
      <trkpt lat="45.06801" lon="4.83417">
        <ele>129.74000549316</ele>
        <time>2009-10-24T12:35:54Z</time>
      </trkpt>
      <trkpt lat="45.06839" lon="4.83348">
        <ele>128.77799987793</ele>
        <time>2009-10-24T12:36:03Z</time>
      </trkpt>
      <trkpt lat="45.06863" lon="4.83295">
        <ele>129.04400634766</ele>
        <time>2009-10-24T12:36:10Z</time>
      </trkpt>
      <trkpt lat="45.06875" lon="4.83271">
        <ele>129.45599365234</ele>
        <time>2009-10-24T12:36:15Z</time>
      </trkpt>
      <trkpt lat="45.06882" lon="4.8324">
        <ele>128.96299743652</ele>
        <time>2009-10-24T12:36:21Z</time>
      </trkpt>
      <trkpt lat="45.06884" lon="4.83234">
        <ele>128.84399414062</ele>
        <time>2009-10-24T12:36:22Z</time>
      </trkpt>
      <trkpt lat="45.06896" lon="4.8321">
        <ele>128.28700256348</ele>
        <time>2009-10-24T12:36:27Z</time>
      </trkpt>
      <trkpt lat="45.06898" lon="4.83205">
        <ele>127.8809967041</ele>
        <time>2009-10-24T12:36:28Z</time>
      </trkpt>
      <trkpt lat="45.06921" lon="4.83158">
        <ele>126.45899963379</ele>
        <time>2009-10-24T12:36:35Z</time>
      </trkpt>
      <trkpt lat="45.06937" lon="4.83125">
        <ele>126.64600372315</ele>
        <time>2009-10-24T12:36:40Z</time>
      </trkpt>
      <trkpt lat="45.06944" lon="4.83112">
        <ele>126.34400177002</ele>
        <time>2009-10-24T12:36:42Z</time>
      </trkpt>
      <trkpt lat="45.06958" lon="4.83088">
        <ele>126.33200073242</ele>
        <time>2009-10-24T12:36:46Z</time>
      </trkpt>
      <trkpt lat="45.06975" lon="4.83063">
        <ele>126.30799865723</ele>
        <time>2009-10-24T12:36:51Z</time>
      </trkpt>
      <trkpt lat="45.07004" lon="4.83022">
        <ele>126.43199920654</ele>
        <time>2009-10-24T12:36:59Z</time>
      </trkpt>
      <trkpt lat="45.07031" lon="4.82986">
        <ele>126.8929977417</ele>
        <time>2009-10-24T12:37:06Z</time>
      </trkpt>
      <trkpt lat="45.07051" lon="4.8296">
        <ele>126.03199768066</ele>
        <time>2009-10-24T12:37:11Z</time>
      </trkpt>
      <trkpt lat="45.07059" lon="4.82932">
        <ele>126.95400238037</ele>
        <time>2009-10-24T12:37:15Z</time>
      </trkpt>
      <trkpt lat="45.07059" lon="4.82919">
        <ele>126.9169998169</ele>
        <time>2009-10-24T12:37:17Z</time>
      </trkpt>
      <trkpt lat="45.07055" lon="4.82887">
        <ele>127.10399627685</ele>
        <time>2009-10-24T12:37:23Z</time>
      </trkpt>
      <trkpt lat="45.07057" lon="4.8287">
        <ele>127.81199645996</ele>
        <time>2009-10-24T12:37:28Z</time>
      </trkpt>
      <trkpt lat="45.07063" lon="4.82864">
        <ele>128.50399780273</ele>
        <time>2009-10-24T12:37:32Z</time>
      </trkpt>
      <trkpt lat="45.07074" lon="4.82855">
        <ele>128.68299865723</ele>
        <time>2009-10-24T12:37:37Z</time>
      </trkpt>
      <trkpt lat="45.0709" lon="4.82839">
        <ele>129.19200134277</ele>
        <time>2009-10-24T12:37:43Z</time>
      </trkpt>
      <trkpt lat="45.07113" lon="4.82816">
        <ele>129.70199584961</ele>
        <time>2009-10-24T12:37:50Z</time>
      </trkpt>
      <trkpt lat="45.07136" lon="4.82791">
        <ele>129.81399536133</ele>
        <time>2009-10-24T12:37:57Z</time>
      </trkpt>
      <trkpt lat="45.07139" lon="4.82787">
        <ele>129.82299804688</ele>
        <time>2009-10-24T12:37:58Z</time>
      </trkpt>
      <trkpt lat="45.07156" lon="4.82765">
        <ele>130.01899719238</ele>
        <time>2009-10-24T12:38:03Z</time>
      </trkpt>
      <trkpt lat="45.0717" lon="4.82747">
        <ele>129.8809967041</ele>
        <time>2009-10-24T12:38:07Z</time>
      </trkpt>
      <trkpt lat="45.07198" lon="4.82698">
        <ele>130.06199645996</ele>
        <time>2009-10-24T12:38:16Z</time>
      </trkpt>
      <trkpt lat="45.07206" lon="4.82685">
        <ele>130.15899658203</ele>
        <time>2009-10-24T12:38:20Z</time>
      </trkpt>
      <trkpt lat="45.07207" lon="4.82684">
        <ele>130.29600524902</ele>
        <time>2009-10-24T12:38:21Z</time>
      </trkpt>
      <trkpt lat="45.0721" lon="4.82673">
        <ele>129.92399597168</ele>
        <time>2009-10-24T12:38:26Z</time>
      </trkpt>
      <trkpt lat="45.0722" lon="4.82656">
        <ele>130.26800537109</ele>
        <time>2009-10-24T12:38:31Z</time>
      </trkpt>
      <trkpt lat="45.07228" lon="4.82635">
        <ele>130.27699279785</ele>
        <time>2009-10-24T12:38:36Z</time>
      </trkpt>
      <trkpt lat="45.07235" lon="4.82617">
        <ele>130.39599609375</ele>
        <time>2009-10-24T12:38:40Z</time>
      </trkpt>
      <trkpt lat="45.07243" lon="4.82595">
        <ele>130.27000427246</ele>
        <time>2009-10-24T12:38:44Z</time>
      </trkpt>
      <trkpt lat="45.07261" lon="4.82539">
        <ele>130.46899414062</ele>
        <time>2009-10-24T12:38:53Z</time>
      </trkpt>
      <trkpt lat="45.07277" lon="4.82474">
        <ele>130.75399780273</ele>
        <time>2009-10-24T12:39:02Z</time>
      </trkpt>
      <trkpt lat="45.07286" lon="4.82424">
        <ele>131.02099609375</ele>
        <time>2009-10-24T12:39:09Z</time>
      </trkpt>
      <trkpt lat="45.07289" lon="4.82371">
        <ele>131.11599731445</ele>
        <time>2009-10-24T12:39:16Z</time>
      </trkpt>
      <trkpt lat="45.07288" lon="4.82297">
        <ele>131.12899780273</ele>
        <time>2009-10-24T12:39:25Z</time>
      </trkpt>
      <trkpt lat="45.0728" lon="4.82254">
        <ele>131.03300476074</ele>
        <time>2009-10-24T12:39:31Z</time>
      </trkpt>
      <trkpt lat="45.07276" lon="4.82242">
        <ele>131.36099243164</ele>
        <time>2009-10-24T12:39:33Z</time>
      </trkpt>
      <trkpt lat="45.07271" lon="4.82233">
        <ele>131.10899353027</ele>
        <time>2009-10-24T12:39:37Z</time>
      </trkpt>
      <trkpt lat="45.0727" lon="4.82227">
        <ele>131.06500244141</ele>
        <time>2009-10-24T12:39:39Z</time>
      </trkpt>
      <trkpt lat="45.07267" lon="4.82209">
        <ele>130.9640045166</ele>
        <time>2009-10-24T12:39:43Z</time>
      </trkpt>
      <trkpt lat="45.07262" lon="4.82196">
        <ele>131.25999450684</ele>
        <time>2009-10-24T12:39:47Z</time>
      </trkpt>
      <trkpt lat="45.07261" lon="4.82195">
        <ele>131.16900634766</ele>
        <time>2009-10-24T12:39:50Z</time>
      </trkpt>
      <trkpt lat="45.07261" lon="4.82195">
        <ele>131.14900207519</ele>
        <time>2009-10-24T12:39:59Z</time>
      </trkpt>
      <trkpt lat="45.07256" lon="4.8219">
        <ele>131.17999267578</ele>
        <time>2009-10-24T12:40:12Z</time>
      </trkpt>
      <trkpt lat="45.07254" lon="4.82176">
        <ele>131.41900634766</ele>
        <time>2009-10-24T12:40:16Z</time>
      </trkpt>
      <trkpt lat="45.07261" lon="4.82142">
        <ele>131.45700073242</ele>
        <time>2009-10-24T12:40:22Z</time>
      </trkpt>
      <trkpt lat="45.0727" lon="4.82111">
        <ele>131.26899719238</ele>
        <time>2009-10-24T12:40:27Z</time>
      </trkpt>
      <trkpt lat="45.07282" lon="4.82074">
        <ele>131.22999572754</ele>
        <time>2009-10-24T12:40:33Z</time>
      </trkpt>
      <trkpt lat="45.07299" lon="4.82019">
        <ele>131.61199951172</ele>
        <time>2009-10-24T12:40:41Z</time>
      </trkpt>
      <trkpt lat="45.07318" lon="4.81955">
        <ele>131.72999572754</ele>
        <time>2009-10-24T12:40:49Z</time>
      </trkpt>
      <trkpt lat="45.07339" lon="4.81883">
        <ele>132.01600646973</ele>
        <time>2009-10-24T12:40:57Z</time>
      </trkpt>
      <trkpt lat="45.07356" lon="4.81813">
        <ele>131.94400024414</ele>
        <time>2009-10-24T12:41:05Z</time>
      </trkpt>
      <trkpt lat="45.07379" lon="4.81766">
        <ele>132.35299682617</ele>
        <time>2009-10-24T12:41:11Z</time>
      </trkpt>
      <trkpt lat="45.07404" lon="4.81737">
        <ele>132.53300476074</ele>
        <time>2009-10-24T12:41:16Z</time>
      </trkpt>
      <trkpt lat="45.07451" lon="4.81704">
        <ele>133.06300354004</ele>
        <time>2009-10-24T12:41:24Z</time>
      </trkpt>
      <trkpt lat="45.07491" lon="4.81676">
        <ele>133.4640045166</ele>
        <time>2009-10-24T12:41:31Z</time>
      </trkpt>
      <trkpt lat="45.07545" lon="4.81638">
        <ele>132.25199890137</ele>
        <time>2009-10-24T12:41:40Z</time>
      </trkpt>
      <trkpt lat="45.07573" lon="4.81619">
        <ele>131.1309967041</ele>
        <time>2009-10-24T12:41:44Z</time>
      </trkpt>
      <trkpt lat="45.0762" lon="4.81588">
        <ele>130.08399963379</ele>
        <time>2009-10-24T12:41:51Z</time>
      </trkpt>
      <trkpt lat="45.0764" lon="4.81582">
        <ele>130.17300415039</ele>
        <time>2009-10-24T12:41:54Z</time>
      </trkpt>
      <trkpt lat="45.07653" lon="4.81565">
        <ele>129.78799438477</ele>
        <time>2009-10-24T12:41:57Z</time>
      </trkpt>
      <trkpt lat="45.07647" lon="4.81547">
        <ele>129.75300598144</ele>
        <time>2009-10-24T12:41:59Z</time>
      </trkpt>
      <trkpt lat="45.07628" lon="4.81499">
        <ele>128.95100402832</ele>
        <time>2009-10-24T12:42:05Z</time>
      </trkpt>
      <trkpt lat="45.07608" lon="4.81475">
        <ele>129.22700500488</ele>
        <time>2009-10-24T12:42:09Z</time>
      </trkpt>
      <trkpt lat="45.07592" lon="4.81465">
        <ele>128.86199951172</ele>
        <time>2009-10-24T12:42:12Z</time>
      </trkpt>
      <trkpt lat="45.0757" lon="4.81453">
        <ele>129.44000244141</ele>
        <time>2009-10-24T12:42:16Z</time>
      </trkpt>
      <trkpt lat="45.07562" lon="4.81431">
        <ele>129.60299682617</ele>
        <time>2009-10-24T12:42:19Z</time>
      </trkpt>
      <trkpt lat="45.07561" lon="4.81406">
        <ele>129.25100708008</ele>
        <time>2009-10-24T12:42:22Z</time>
      </trkpt>
      <trkpt lat="45.07562" lon="4.81389">
        <ele>129.42999267578</ele>
        <time>2009-10-24T12:42:24Z</time>
      </trkpt>
      <trkpt lat="45.07573" lon="4.81352">
        <ele>128.85699462891</ele>
        <time>2009-10-24T12:42:28Z</time>
      </trkpt>
      <trkpt lat="45.07582" lon="4.81339">
        <ele>129.17399597168</ele>
        <time>2009-10-24T12:42:30Z</time>
      </trkpt>
      <trkpt lat="45.07595" lon="4.81289">
        <ele>129.11399841309</ele>
        <time>2009-10-24T12:42:36Z</time>
      </trkpt>
      <trkpt lat="45.07605" lon="4.81249">
        <ele>129.40600585938</ele>
        <time>2009-10-24T12:42:41Z</time>
      </trkpt>
      <trkpt lat="45.07623" lon="4.81231">
        <ele>129.42199707031</ele>
        <time>2009-10-24T12:42:45Z</time>
      </trkpt>
      <trkpt lat="45.07637" lon="4.81203">
        <ele>129.59700012207</ele>
        <time>2009-10-24T12:42:49Z</time>
      </trkpt>
      <trkpt lat="45.07663" lon="4.81149">
        <ele>129.90100097656</ele>
        <time>2009-10-24T12:42:56Z</time>
      </trkpt>
      <trkpt lat="45.07676" lon="4.81122">
        <ele>131.44099426269</ele>
        <time>2009-10-24T12:43:00Z</time>
      </trkpt>
      <trkpt lat="45.07689" lon="4.81091">
        <ele>134.18800354004</ele>
        <time>2009-10-24T12:43:05Z</time>
      </trkpt>
      <trkpt lat="45.07691" lon="4.81085">
        <ele>134.31199645996</ele>
        <time>2009-10-24T12:43:06Z</time>
      </trkpt>
      <trkpt lat="45.07693" lon="4.81079">
        <ele>134.86500549316</ele>
        <time>2009-10-24T12:43:07Z</time>
      </trkpt>
      <trkpt lat="45.077" lon="4.81058">
        <ele>135.31900024414</ele>
        <time>2009-10-24T12:43:11Z</time>
      </trkpt>
      <trkpt lat="45.07705" lon="4.81049">
        <ele>135.93299865723</ele>
        <time>2009-10-24T12:43:14Z</time>
      </trkpt>
      <trkpt lat="45.07707" lon="4.81046">
        <ele>136.29499816894</ele>
        <time>2009-10-24T12:43:16Z</time>
      </trkpt>
      <trkpt lat="45.07703" lon="4.81033">
        <ele>135.90899658203</ele>
        <time>2009-10-24T12:43:20Z</time>
      </trkpt>
      <trkpt lat="45.07692" lon="4.81005">
        <ele>136.01300048828</ele>
        <time>2009-10-24T12:43:26Z</time>
      </trkpt>
      <trkpt lat="45.07681" lon="4.80972">
        <ele>136.8809967041</ele>
        <time>2009-10-24T12:43:32Z</time>
      </trkpt>
      <trkpt lat="45.07669" lon="4.80931">
        <ele>137.62800598144</ele>
        <time>2009-10-24T12:43:38Z</time>
      </trkpt>
      <trkpt lat="45.0766" lon="4.80896">
        <ele>138.64799499512</ele>
        <time>2009-10-24T12:43:43Z</time>
      </trkpt>
      <trkpt lat="45.0765" lon="4.80851">
        <ele>140.23599243164</ele>
        <time>2009-10-24T12:43:51Z</time>
      </trkpt>
      <trkpt lat="45.07645" lon="4.80817">
        <ele>140.67500305176</ele>
        <time>2009-10-24T12:43:57Z</time>
      </trkpt>
      <trkpt lat="45.07641" lon="4.80778">
        <ele>140.87399291992</ele>
        <time>2009-10-24T12:44:03Z</time>
      </trkpt>
      <trkpt lat="45.07628" lon="4.80744">
        <ele>141.49299621582</ele>
        <time>2009-10-24T12:44:09Z</time>
      </trkpt>
      <trkpt lat="45.0761" lon="4.80701">
        <ele>142.84100341797</ele>
        <time>2009-10-24T12:44:17Z</time>
      </trkpt>
      <trkpt lat="45.07597" lon="4.80665">
        <ele>143.24600219727</ele>
        <time>2009-10-24T12:44:24Z</time>
      </trkpt>
      <trkpt lat="45.07586" lon="4.80624">
        <ele>141.81900024414</ele>
        <time>2009-10-24T12:44:30Z</time>
      </trkpt>
      <trkpt lat="45.07572" lon="4.80572">
        <ele>140.99699401856</ele>
        <time>2009-10-24T12:44:36Z</time>
      </trkpt>
      <trkpt lat="45.0756" lon="4.80517">
        <ele>140.60200500488</ele>
        <time>2009-10-24T12:44:42Z</time>
      </trkpt>
      <trkpt lat="45.07549" lon="4.80456">
        <ele>138.26699829102</ele>
        <time>2009-10-24T12:44:48Z</time>
      </trkpt>
      <trkpt lat="45.07546" lon="4.80445">
        <ele>138.26499938965</ele>
        <time>2009-10-24T12:44:49Z</time>
      </trkpt>
      <trkpt lat="45.07521" lon="4.80389">
        <ele>138.28700256348</ele>
        <time>2009-10-24T12:44:55Z</time>
      </trkpt>
      <trkpt lat="45.07492" lon="4.80337">
        <ele>138.53399658203</ele>
        <time>2009-10-24T12:45:02Z</time>
      </trkpt>
      <trkpt lat="45.07466" lon="4.80292">
        <ele>139.3809967041</ele>
        <time>2009-10-24T12:45:09Z</time>
      </trkpt>
      <trkpt lat="45.07433" lon="4.80241">
        <ele>139.11199951172</ele>
        <time>2009-10-24T12:45:17Z</time>
      </trkpt>
      <trkpt lat="45.07401" lon="4.80195">
        <ele>140.07400512695</ele>
        <time>2009-10-24T12:45:24Z</time>
      </trkpt>
      <trkpt lat="45.07377" lon="4.80155">
        <ele>141.56399536133</ele>
        <time>2009-10-24T12:45:30Z</time>
      </trkpt>
      <trkpt lat="45.07356" lon="4.80104">
        <ele>142.53700256348</ele>
        <time>2009-10-24T12:45:37Z</time>
      </trkpt>
      <trkpt lat="45.07322" lon="4.80049">
        <ele>142.5299987793</ele>
        <time>2009-10-24T12:45:45Z</time>
      </trkpt>
      <trkpt lat="45.07284" lon="4.79993">
        <ele>142.21899414062</ele>
        <time>2009-10-24T12:45:53Z</time>
      </trkpt>
      <trkpt lat="45.07248" lon="4.79949">
        <ele>141.27900695801</ele>
        <time>2009-10-24T12:45:59Z</time>
      </trkpt>
      <trkpt lat="45.072" lon="4.79907">
        <ele>141.46099853516</ele>
        <time>2009-10-24T12:46:06Z</time>
      </trkpt>
      <trkpt lat="45.07194" lon="4.79901">
        <ele>141.55400085449</ele>
        <time>2009-10-24T12:46:07Z</time>
      </trkpt>
      <trkpt lat="45.07175" lon="4.79874">
        <ele>143.40600585938</ele>
        <time>2009-10-24T12:46:11Z</time>
      </trkpt>
      <trkpt lat="45.07141" lon="4.79801">
        <ele>143.47500610352</ele>
        <time>2009-10-24T12:46:21Z</time>
      </trkpt>
      <trkpt lat="45.07112" lon="4.79736">
        <ele>142.77900695801</ele>
        <time>2009-10-24T12:46:29Z</time>
      </trkpt>
      <trkpt lat="45.0708" lon="4.79672">
        <ele>143.81300354004</ele>
        <time>2009-10-24T12:46:37Z</time>
      </trkpt>
      <trkpt lat="45.07043" lon="4.79597">
        <ele>144.73500061035</ele>
        <time>2009-10-24T12:46:47Z</time>
      </trkpt>
      <trkpt lat="45.07013" lon="4.79538">
        <ele>143.87399291992</ele>
        <time>2009-10-24T12:46:55Z</time>
      </trkpt>
      <trkpt lat="45.06969" lon="4.79453">
        <ele>144.67900085449</ele>
        <time>2009-10-24T12:47:06Z</time>
      </trkpt>
      <trkpt lat="45.06939" lon="4.79397">
        <ele>146.51800537109</ele>
        <time>2009-10-24T12:47:14Z</time>
      </trkpt>
      <trkpt lat="45.06918" lon="4.79352">
        <ele>148.375</ele>
        <time>2009-10-24T12:47:21Z</time>
      </trkpt>
      <trkpt lat="45.06898" lon="4.79289">
        <ele>148.7140045166</ele>
        <time>2009-10-24T12:47:29Z</time>
      </trkpt>
      <trkpt lat="45.06888" lon="4.79245">
        <ele>148.94999694824</ele>
        <time>2009-10-24T12:47:34Z</time>
      </trkpt>
      <trkpt lat="45.06869" lon="4.79202">
        <ele>148.01600646973</ele>
        <time>2009-10-24T12:47:40Z</time>
      </trkpt>
      <trkpt lat="45.06852" lon="4.79164">
        <ele>147.11599731445</ele>
        <time>2009-10-24T12:47:45Z</time>
      </trkpt>
      <trkpt lat="45.06832" lon="4.79111">
        <ele>146.30799865723</ele>
        <time>2009-10-24T12:47:51Z</time>
      </trkpt>
      <trkpt lat="45.06823" lon="4.7906">
        <ele>146.66900634766</ele>
        <time>2009-10-24T12:47:56Z</time>
      </trkpt>
      <trkpt lat="45.06819" lon="4.78989">
        <ele>148.29200744629</ele>
        <time>2009-10-24T12:48:03Z</time>
      </trkpt>
      <trkpt lat="45.06816" lon="4.78912">
        <ele>149.3390045166</ele>
        <time>2009-10-24T12:48:12Z</time>
      </trkpt>
      <trkpt lat="45.06806" lon="4.7885">
        <ele>149.19000244141</ele>
        <time>2009-10-24T12:48:19Z</time>
      </trkpt>
      <trkpt lat="45.06799" lon="4.78779">
        <ele>150.57499694824</ele>
        <time>2009-10-24T12:48:27Z</time>
      </trkpt>
      <trkpt lat="45.06802" lon="4.78709">
        <ele>150.97500610352</ele>
        <time>2009-10-24T12:48:35Z</time>
      </trkpt>
      <trkpt lat="45.06805" lon="4.78618">
        <ele>151.14599609375</ele>
        <time>2009-10-24T12:48:45Z</time>
      </trkpt>
      <trkpt lat="45.06805" lon="4.78517">
        <ele>151.43200683594</ele>
        <time>2009-10-24T12:48:56Z</time>
      </trkpt>
      <trkpt lat="45.06803" lon="4.78432">
        <ele>151.48100280762</ele>
        <time>2009-10-24T12:49:05Z</time>
      </trkpt>
      <trkpt lat="45.06787" lon="4.78378">
        <ele>151.41400146484</ele>
        <time>2009-10-24T12:49:11Z</time>
      </trkpt>
      <trkpt lat="45.06761" lon="4.78323">
        <ele>151.74200439453</ele>
        <time>2009-10-24T12:49:18Z</time>
      </trkpt>
      <trkpt lat="45.06739" lon="4.78267">
        <ele>151.49299621582</ele>
        <time>2009-10-24T12:49:25Z</time>
      </trkpt>
      <trkpt lat="45.0673" lon="4.78212">
        <ele>153.09800720215</ele>
        <time>2009-10-24T12:49:32Z</time>
      </trkpt>
      <trkpt lat="45.06723" lon="4.78168">
        <ele>154.88600158691</ele>
        <time>2009-10-24T12:49:39Z</time>
      </trkpt>
      <trkpt lat="45.0672" lon="4.78147">
        <ele>155.6130065918</ele>
        <time>2009-10-24T12:49:43Z</time>
      </trkpt>
      <trkpt lat="45.06716" lon="4.78128">
        <ele>156.68499755859</ele>
        <time>2009-10-24T12:49:47Z</time>
      </trkpt>
      <trkpt lat="45.06723" lon="4.78121">
        <ele>157.58500671387</ele>
        <time>2009-10-24T12:49:51Z</time>
      </trkpt>
      <trkpt lat="45.06728" lon="4.78128">
        <ele>157.79400634766</ele>
        <time>2009-10-24T12:49:53Z</time>
      </trkpt>
      <trkpt lat="45.06733" lon="4.78158">
        <ele>158.65699768066</ele>
        <time>2009-10-24T12:49:59Z</time>
      </trkpt>
      <trkpt lat="45.06739" lon="4.78195">
        <ele>160.55000305176</ele>
        <time>2009-10-24T12:50:06Z</time>
      </trkpt>
      <trkpt lat="45.06748" lon="4.78236">
        <ele>162.69799804688</ele>
        <time>2009-10-24T12:50:14Z</time>
      </trkpt>
      <trkpt lat="45.06754" lon="4.78261">
        <ele>164.23300170898</ele>
        <time>2009-10-24T12:50:19Z</time>
      </trkpt>
      <trkpt lat="45.06762" lon="4.78285">
        <ele>165.82400512695</ele>
        <time>2009-10-24T12:50:24Z</time>
      </trkpt>
      <trkpt lat="45.06774" lon="4.78302">
        <ele>166.93400573731</ele>
        <time>2009-10-24T12:50:29Z</time>
      </trkpt>
      <trkpt lat="45.06787" lon="4.78315">
        <ele>167.90100097656</ele>
        <time>2009-10-24T12:50:34Z</time>
      </trkpt>
      <trkpt lat="45.06808" lon="4.78332">
        <ele>169.94900512695</ele>
        <time>2009-10-24T12:50:41Z</time>
      </trkpt>
      <trkpt lat="45.06831" lon="4.78346">
        <ele>171.86999511719</ele>
        <time>2009-10-24T12:50:48Z</time>
      </trkpt>
      <trkpt lat="45.06857" lon="4.78352">
        <ele>173.43899536133</ele>
        <time>2009-10-24T12:50:55Z</time>
      </trkpt>
      <trkpt lat="45.06882" lon="4.78356">
        <ele>175.01499938965</ele>
        <time>2009-10-24T12:51:02Z</time>
      </trkpt>
      <trkpt lat="45.06893" lon="4.78358">
        <ele>176.23399353027</ele>
        <time>2009-10-24T12:51:05Z</time>
      </trkpt>
      <trkpt lat="45.06909" lon="4.78368">
        <ele>178.18400573731</ele>
        <time>2009-10-24T12:51:10Z</time>
      </trkpt>
      <trkpt lat="45.06913" lon="4.78388">
        <ele>179.4109954834</ele>
        <time>2009-10-24T12:51:14Z</time>
      </trkpt>
      <trkpt lat="45.06907" lon="4.78407">
        <ele>180.68699645996</ele>
        <time>2009-10-24T12:51:18Z</time>
      </trkpt>
      <trkpt lat="45.06888" lon="4.78428">
        <ele>182.41799926758</ele>
        <time>2009-10-24T12:51:24Z</time>
      </trkpt>
      <trkpt lat="45.06874" lon="4.78462">
        <ele>184.53900146484</ele>
        <time>2009-10-24T12:51:31Z</time>
      </trkpt>
      <trkpt lat="45.06877" lon="4.78496">
        <ele>186.37100219727</ele>
        <time>2009-10-24T12:51:37Z</time>
      </trkpt>
      <trkpt lat="45.06884" lon="4.7854">
        <ele>188.28799438477</ele>
        <time>2009-10-24T12:51:45Z</time>
      </trkpt>
      <trkpt lat="45.06889" lon="4.78577">
        <ele>190.45599365234</ele>
        <time>2009-10-24T12:51:52Z</time>
      </trkpt>
      <trkpt lat="45.06896" lon="4.78618">
        <ele>192.5359954834</ele>
        <time>2009-10-24T12:51:59Z</time>
      </trkpt>
      <trkpt lat="45.06903" lon="4.78662">
        <ele>194.93600463867</ele>
        <time>2009-10-24T12:52:06Z</time>
      </trkpt>
      <trkpt lat="45.0691" lon="4.78699">
        <ele>196.83000183106</ele>
        <time>2009-10-24T12:52:12Z</time>
      </trkpt>
      <trkpt lat="45.06923" lon="4.78733">
        <ele>198.58000183106</ele>
        <time>2009-10-24T12:52:18Z</time>
      </trkpt>
      <trkpt lat="45.06947" lon="4.78766">
        <ele>200.87800598144</ele>
        <time>2009-10-24T12:52:25Z</time>
      </trkpt>
      <trkpt lat="45.06954" lon="4.7879">
        <ele>202.5</ele>
        <time>2009-10-24T12:52:29Z</time>
      </trkpt>
      <trkpt lat="45.06953" lon="4.78797">
        <ele>202.71600341797</ele>
        <time>2009-10-24T12:52:30Z</time>
      </trkpt>
      <trkpt lat="45.06952" lon="4.7881">
        <ele>203.83999633789</ele>
        <time>2009-10-24T12:52:32Z</time>
      </trkpt>
      <trkpt lat="45.06957" lon="4.78851">
        <ele>205.8809967041</ele>
        <time>2009-10-24T12:52:38Z</time>
      </trkpt>
      <trkpt lat="45.06963" lon="4.78862">
        <ele>206.50799560547</ele>
        <time>2009-10-24T12:52:40Z</time>
      </trkpt>
      <trkpt lat="45.06969" lon="4.78873">
        <ele>207.46800231934</ele>
        <time>2009-10-24T12:52:42Z</time>
      </trkpt>
      <trkpt lat="45.06974" lon="4.789">
        <ele>208.64799499512</ele>
        <time>2009-10-24T12:52:46Z</time>
      </trkpt>
      <trkpt lat="45.06965" lon="4.78917">
        <ele>209.8690032959</ele>
        <time>2009-10-24T12:52:49Z</time>
      </trkpt>
      <trkpt lat="45.06961" lon="4.78922">
        <ele>210.47599792481</ele>
        <time>2009-10-24T12:52:50Z</time>
      </trkpt>
      <trkpt lat="45.06948" lon="4.78936">
        <ele>211.44000244141</ele>
        <time>2009-10-24T12:52:53Z</time>
      </trkpt>
      <trkpt lat="45.06934" lon="4.78969">
        <ele>213.25500488281</ele>
        <time>2009-10-24T12:52:58Z</time>
      </trkpt>
      <trkpt lat="45.06933" lon="4.79">
        <ele>214.99800109863</ele>
        <time>2009-10-24T12:53:02Z</time>
      </trkpt>
      <trkpt lat="45.06938" lon="4.79052">
        <ele>217.07600402832</ele>
        <time>2009-10-24T12:53:09Z</time>
      </trkpt>
      <trkpt lat="45.06953" lon="4.79084">
        <ele>218.78100585938</ele>
        <time>2009-10-24T12:53:14Z</time>
      </trkpt>
      <trkpt lat="45.06957" lon="4.79088">
        <ele>218.98100280762</ele>
        <time>2009-10-24T12:53:15Z</time>
      </trkpt>
      <trkpt lat="45.07006" lon="4.79125">
        <ele>222.68699645996</ele>
        <time>2009-10-24T12:53:26Z</time>
      </trkpt>
      <trkpt lat="45.07018" lon="4.79122">
        <ele>223.66999816894</ele>
        <time>2009-10-24T12:53:29Z</time>
      </trkpt>
      <trkpt lat="45.07018" lon="4.79108">
        <ele>223.89700317383</ele>
        <time>2009-10-24T12:53:31Z</time>
      </trkpt>
      <trkpt lat="45.07005" lon="4.79093">
        <ele>224.47799682617</ele>
        <time>2009-10-24T12:53:34Z</time>
      </trkpt>
      <trkpt lat="45.06999" lon="4.79089">
        <ele>224.83700561523</ele>
        <time>2009-10-24T12:53:35Z</time>
      </trkpt>
      <trkpt lat="45.06969" lon="4.79051">
        <ele>227.33500671387</ele>
        <time>2009-10-24T12:53:42Z</time>
      </trkpt>
      <trkpt lat="45.06965" lon="4.79037">
        <ele>228.20199584961</ele>
        <time>2009-10-24T12:53:44Z</time>
      </trkpt>
      <trkpt lat="45.06964" lon="4.79009">
        <ele>230.07899475098</ele>
        <time>2009-10-24T12:53:48Z</time>
      </trkpt>
      <trkpt lat="45.06971" lon="4.78984">
        <ele>231.60600280762</ele>
        <time>2009-10-24T12:53:52Z</time>
      </trkpt>
      <trkpt lat="45.06995" lon="4.7895">
        <ele>233.95100402832</ele>
        <time>2009-10-24T12:54:00Z</time>
      </trkpt>
      <trkpt lat="45.0701" lon="4.7894">
        <ele>235.29600524902</ele>
        <time>2009-10-24T12:54:04Z</time>
      </trkpt>
      <trkpt lat="45.07032" lon="4.78918">
        <ele>236.98300170898</ele>
        <time>2009-10-24T12:54:10Z</time>
      </trkpt>
      <trkpt lat="45.07033" lon="4.78895">
        <ele>237.35000610352</ele>
        <time>2009-10-24T12:54:13Z</time>
      </trkpt>
      <trkpt lat="45.07029" lon="4.78881">
        <ele>237.47599792481</ele>
        <time>2009-10-24T12:54:15Z</time>
      </trkpt>
      <trkpt lat="45.07011" lon="4.78829">
        <ele>239.85000610352</ele>
        <time>2009-10-24T12:54:23Z</time>
      </trkpt>
      <trkpt lat="45.07009" lon="4.78801">
        <ele>241.04800415039</ele>
        <time>2009-10-24T12:54:27Z</time>
      </trkpt>
      <trkpt lat="45.07017" lon="4.78745">
        <ele>243.72999572754</ele>
        <time>2009-10-24T12:54:35Z</time>
      </trkpt>
      <trkpt lat="45.07014" lon="4.7871">
        <ele>245.39900207519</ele>
        <time>2009-10-24T12:54:40Z</time>
      </trkpt>
      <trkpt lat="45.07006" lon="4.78692">
        <ele>247.13900756836</ele>
        <time>2009-10-24T12:54:43Z</time>
      </trkpt>
      <trkpt lat="45.06992" lon="4.78662">
        <ele>248.7799987793</ele>
        <time>2009-10-24T12:54:48Z</time>
      </trkpt>
      <trkpt lat="45.06988" lon="4.7862">
        <ele>250.45100402832</ele>
        <time>2009-10-24T12:54:54Z</time>
      </trkpt>
      <trkpt lat="45.0699" lon="4.78606">
        <ele>251.28100585938</ele>
        <time>2009-10-24T12:54:56Z</time>
      </trkpt>
      <trkpt lat="45.07003" lon="4.78571">
        <ele>253.4940032959</ele>
        <time>2009-10-24T12:55:02Z</time>
      </trkpt>
      <trkpt lat="45.07013" lon="4.78557">
        <ele>254.45700073242</ele>
        <time>2009-10-24T12:55:05Z</time>
      </trkpt>
      <trkpt lat="45.07037" lon="4.78535">
        <ele>256.53399658203</ele>
        <time>2009-10-24T12:55:11Z</time>
      </trkpt>
      <trkpt lat="45.07051" lon="4.78519">
        <ele>257.91101074219</ele>
        <time>2009-10-24T12:55:15Z</time>
      </trkpt>
      <trkpt lat="45.07061" lon="4.78504">
        <ele>258.63500976562</ele>
        <time>2009-10-24T12:55:18Z</time>
      </trkpt>
      <trkpt lat="45.07066" lon="4.78478">
        <ele>259.48498535156</ele>
        <time>2009-10-24T12:55:22Z</time>
      </trkpt>
      <trkpt lat="45.07067" lon="4.78444">
        <ele>260.99899291992</ele>
        <time>2009-10-24T12:55:27Z</time>
      </trkpt>
      <trkpt lat="45.07084" lon="4.78398">
        <ele>264.07901000977</ele>
        <time>2009-10-24T12:55:35Z</time>
      </trkpt>
      <trkpt lat="45.07089" lon="4.78388">
        <ele>264.25201416016</ele>
        <time>2009-10-24T12:55:37Z</time>
      </trkpt>
      <trkpt lat="45.07113" lon="4.78371">
        <ele>265.98999023438</ele>
        <time>2009-10-24T12:55:43Z</time>
      </trkpt>
      <trkpt lat="45.07118" lon="4.78371">
        <ele>266.3869934082</ele>
        <time>2009-10-24T12:55:44Z</time>
      </trkpt>
      <trkpt lat="45.07145" lon="4.78371">
        <ele>268.14199829102</ele>
        <time>2009-10-24T12:55:50Z</time>
      </trkpt>
      <trkpt lat="45.07186" lon="4.78377">
        <ele>271.01998901367</ele>
        <time>2009-10-24T12:55:59Z</time>
      </trkpt>
      <trkpt lat="45.07217" lon="4.78388">
        <ele>273.37200927734</ele>
        <time>2009-10-24T12:56:07Z</time>
      </trkpt>
      <trkpt lat="45.07234" lon="4.78395">
        <ele>274.36700439453</ele>
        <time>2009-10-24T12:56:11Z</time>
      </trkpt>
      <trkpt lat="45.07261" lon="4.78411">
        <ele>276.24301147461</ele>
        <time>2009-10-24T12:56:18Z</time>
      </trkpt>
      <trkpt lat="45.0727" lon="4.78416">
        <ele>276.74798583984</ele>
        <time>2009-10-24T12:56:20Z</time>
      </trkpt>
      <trkpt lat="45.0729" lon="4.7841">
        <ele>277.97399902344</ele>
        <time>2009-10-24T12:56:25Z</time>
      </trkpt>
      <trkpt lat="45.07295" lon="4.78397">
        <ele>279.03298950195</ele>
        <time>2009-10-24T12:56:28Z</time>
      </trkpt>
      <trkpt lat="45.07294" lon="4.78375">
        <ele>279.83999633789</ele>
        <time>2009-10-24T12:56:33Z</time>
      </trkpt>
      <trkpt lat="45.07289" lon="4.78339">
        <ele>281.86801147461</ele>
        <time>2009-10-24T12:56:41Z</time>
      </trkpt>
      <trkpt lat="45.07275" lon="4.78309">
        <ele>283.0719909668</ele>
        <time>2009-10-24T12:56:48Z</time>
      </trkpt>
      <trkpt lat="45.07256" lon="4.78287">
        <ele>284.76400756836</ele>
        <time>2009-10-24T12:56:55Z</time>
      </trkpt>
      <trkpt lat="45.07236" lon="4.78265">
        <ele>286.54901123047</ele>
        <time>2009-10-24T12:57:02Z</time>
      </trkpt>
      <trkpt lat="45.07214" lon="4.78233">
        <ele>289.06799316406</ele>
        <time>2009-10-24T12:57:11Z</time>
      </trkpt>
      <trkpt lat="45.07195" lon="4.78204">
        <ele>291.00100708008</ele>
        <time>2009-10-24T12:57:19Z</time>
      </trkpt>
      <trkpt lat="45.07176" lon="4.78181">
        <ele>293.09698486328</ele>
        <time>2009-10-24T12:57:26Z</time>
      </trkpt>
      <trkpt lat="45.07157" lon="4.78165">
        <ele>294.00399780273</ele>
        <time>2009-10-24T12:57:32Z</time>
      </trkpt>
      <trkpt lat="45.07141" lon="4.78155">
        <ele>295.10900878906</ele>
        <time>2009-10-24T12:57:36Z</time>
      </trkpt>
      <trkpt lat="45.07127" lon="4.78141">
        <ele>296.31298828125</ele>
        <time>2009-10-24T12:57:40Z</time>
      </trkpt>
      <trkpt lat="45.07117" lon="4.78127">
        <ele>297.31799316406</ele>
        <time>2009-10-24T12:57:43Z</time>
      </trkpt>
      <trkpt lat="45.07097" lon="4.78074">
        <ele>300.22399902344</ele>
        <time>2009-10-24T12:57:53Z</time>
      </trkpt>
      <trkpt lat="45.07095" lon="4.78068">
        <ele>300.15600585938</ele>
        <time>2009-10-24T12:57:54Z</time>
      </trkpt>
      <trkpt lat="45.07087" lon="4.78055">
        <ele>300.66299438477</ele>
        <time>2009-10-24T12:57:57Z</time>
      </trkpt>
      <trkpt lat="45.07065" lon="4.78021">
        <ele>302.68798828125</ele>
        <time>2009-10-24T12:58:05Z</time>
      </trkpt>
      <trkpt lat="45.07055" lon="4.77985">
        <ele>304.08099365234</ele>
        <time>2009-10-24T12:58:12Z</time>
      </trkpt>
      <trkpt lat="45.07053" lon="4.77974">
        <ele>304.35800170898</ele>
        <time>2009-10-24T12:58:14Z</time>
      </trkpt>
      <trkpt lat="45.07059" lon="4.77947">
        <ele>305.12298583984</ele>
        <time>2009-10-24T12:58:19Z</time>
      </trkpt>
      <trkpt lat="45.07072" lon="4.77934">
        <ele>305.86499023438</ele>
        <time>2009-10-24T12:58:23Z</time>
      </trkpt>
      <trkpt lat="45.07097" lon="4.7793">
        <ele>307.35501098633</ele>
        <time>2009-10-24T12:58:30Z</time>
      </trkpt>
      <trkpt lat="45.07124" lon="4.77928">
        <ele>309.15701293945</ele>
        <time>2009-10-24T12:58:38Z</time>
      </trkpt>
      <trkpt lat="45.0714" lon="4.77922">
        <ele>310.38598632812</ele>
        <time>2009-10-24T12:58:44Z</time>
      </trkpt>
      <trkpt lat="45.0716" lon="4.77905">
        <ele>311.56698608398</ele>
        <time>2009-10-24T12:58:52Z</time>
      </trkpt>
      <trkpt lat="45.07175" lon="4.77898">
        <ele>312.90301513672</ele>
        <time>2009-10-24T12:58:56Z</time>
      </trkpt>
      <trkpt lat="45.0721" lon="4.7789">
        <ele>315.25900268555</ele>
        <time>2009-10-24T12:59:03Z</time>
      </trkpt>
      <trkpt lat="45.07249" lon="4.77886">
        <ele>317.82800292969</ele>
        <time>2009-10-24T12:59:11Z</time>
      </trkpt>
      <trkpt lat="45.07294" lon="4.77882">
        <ele>320.97100830078</ele>
        <time>2009-10-24T12:59:20Z</time>
      </trkpt>
      <trkpt lat="45.07335" lon="4.77878">
        <ele>323.89801025391</ele>
        <time>2009-10-24T12:59:29Z</time>
      </trkpt>
      <trkpt lat="45.07363" lon="4.77872">
        <ele>325.5950012207</ele>
        <time>2009-10-24T12:59:37Z</time>
      </trkpt>
      <trkpt lat="45.07383" lon="4.77864">
        <ele>326.79598999023</ele>
        <time>2009-10-24T12:59:43Z</time>
      </trkpt>
      <trkpt lat="45.074" lon="4.77858">
        <ele>327.76699829102</ele>
        <time>2009-10-24T12:59:49Z</time>
      </trkpt>
      <trkpt lat="45.07433" lon="4.77847">
        <ele>329.44198608398</ele>
        <time>2009-10-24T12:59:59Z</time>
      </trkpt>
      <trkpt lat="45.07453" lon="4.7785">
        <ele>330.71899414062</ele>
        <time>2009-10-24T13:00:05Z</time>
      </trkpt>
      <trkpt lat="45.07475" lon="4.77867">
        <ele>332.84799194336</ele>
        <time>2009-10-24T13:00:13Z</time>
      </trkpt>
      <trkpt lat="45.07499" lon="4.77888">
        <ele>334.57501220703</ele>
        <time>2009-10-24T13:00:21Z</time>
      </trkpt>
      <trkpt lat="45.07524" lon="4.77906">
        <ele>336.08898925781</ele>
        <time>2009-10-24T13:00:28Z</time>
      </trkpt>
      <trkpt lat="45.07557" lon="4.77932">
        <ele>338.34799194336</ele>
        <time>2009-10-24T13:00:37Z</time>
      </trkpt>
      <trkpt lat="45.07586" lon="4.77955">
        <ele>340.66299438477</ele>
        <time>2009-10-24T13:00:45Z</time>
      </trkpt>
      <trkpt lat="45.0761" lon="4.77971">
        <ele>342.26400756836</ele>
        <time>2009-10-24T13:00:52Z</time>
      </trkpt>
      <trkpt lat="45.07638" lon="4.7799">
        <ele>344.15100097656</ele>
        <time>2009-10-24T13:01:01Z</time>
      </trkpt>
      <trkpt lat="45.07668" lon="4.78011">
        <ele>346.31900024414</ele>
        <time>2009-10-24T13:01:11Z</time>
      </trkpt>
      <trkpt lat="45.07687" lon="4.78022">
        <ele>347.59298706055</ele>
        <time>2009-10-24T13:01:17Z</time>
      </trkpt>
      <trkpt lat="45.07713" lon="4.78032">
        <ele>349.6369934082</ele>
        <time>2009-10-24T13:01:25Z</time>
      </trkpt>
      <trkpt lat="45.07743" lon="4.78044">
        <ele>351.20700073242</ele>
        <time>2009-10-24T13:01:34Z</time>
      </trkpt>
      <trkpt lat="45.07771" lon="4.78051">
        <ele>353.19500732422</ele>
        <time>2009-10-24T13:01:42Z</time>
      </trkpt>
      <trkpt lat="45.07792" lon="4.78055">
        <ele>354.74899291992</ele>
        <time>2009-10-24T13:01:48Z</time>
      </trkpt>
      <trkpt lat="45.07829" lon="4.78055">
        <ele>357.09201049805</ele>
        <time>2009-10-24T13:01:58Z</time>
      </trkpt>
      <trkpt lat="45.07864" lon="4.78047">
        <ele>359.02801513672</ele>
        <time>2009-10-24T13:02:07Z</time>
      </trkpt>
      <trkpt lat="45.07899" lon="4.78038">
        <ele>361.02600097656</ele>
        <time>2009-10-24T13:02:15Z</time>
      </trkpt>
      <trkpt lat="45.07934" lon="4.78017">
        <ele>363.0530090332</ele>
        <time>2009-10-24T13:02:23Z</time>
      </trkpt>
      <trkpt lat="45.0797" lon="4.77996">
        <ele>366.00299072266</ele>
        <time>2009-10-24T13:02:31Z</time>
      </trkpt>
      <trkpt lat="45.08001" lon="4.77985">
        <ele>367.90600585938</ele>
        <time>2009-10-24T13:02:37Z</time>
      </trkpt>
      <trkpt lat="45.08026" lon="4.77962">
        <ele>370.51300048828</ele>
        <time>2009-10-24T13:02:43Z</time>
      </trkpt>
      <trkpt lat="45.08029" lon="4.77957">
        <ele>371.01501464844</ele>
        <time>2009-10-24T13:02:44Z</time>
      </trkpt>
      <trkpt lat="45.08047" lon="4.77917">
        <ele>373.12799072266</ele>
        <time>2009-10-24T13:02:52Z</time>
      </trkpt>
      <trkpt lat="45.08067" lon="4.77891">
        <ele>375.03698730469</ele>
        <time>2009-10-24T13:02:59Z</time>
      </trkpt>
      <trkpt lat="45.08089" lon="4.77877">
        <ele>376.50900268555</ele>
        <time>2009-10-24T13:03:05Z</time>
      </trkpt>
      <trkpt lat="45.08124" lon="4.77861">
        <ele>378.84298706055</ele>
        <time>2009-10-24T13:03:14Z</time>
      </trkpt>
      <trkpt lat="45.08143" lon="4.77842">
        <ele>380.17599487305</ele>
        <time>2009-10-24T13:03:20Z</time>
      </trkpt>
      <trkpt lat="45.08157" lon="4.77812">
        <ele>381.96899414062</ele>
        <time>2009-10-24T13:03:27Z</time>
      </trkpt>
      <trkpt lat="45.08167" lon="4.77772">
        <ele>383.72500610352</ele>
        <time>2009-10-24T13:03:36Z</time>
      </trkpt>
      <trkpt lat="45.08174" lon="4.77737">
        <ele>385.03500366211</ele>
        <time>2009-10-24T13:03:44Z</time>
      </trkpt>
      <trkpt lat="45.08183" lon="4.77698">
        <ele>386.73300170898</ele>
        <time>2009-10-24T13:03:53Z</time>
      </trkpt>
      <trkpt lat="45.08193" lon="4.77673">
        <ele>387.58099365234</ele>
        <time>2009-10-24T13:03:59Z</time>
      </trkpt>
      <trkpt lat="45.08211" lon="4.77644">
        <ele>388.33099365234</ele>
        <time>2009-10-24T13:04:07Z</time>
      </trkpt>
      <trkpt lat="45.08221" lon="4.77617">
        <ele>388.67300415039</ele>
        <time>2009-10-24T13:04:13Z</time>
      </trkpt>
      <trkpt lat="45.08229" lon="4.77584">
        <ele>389.53900146484</ele>
        <time>2009-10-24T13:04:20Z</time>
      </trkpt>
      <trkpt lat="45.08224" lon="4.77549">
        <ele>390.32699584961</ele>
        <time>2009-10-24T13:04:27Z</time>
      </trkpt>
      <trkpt lat="45.08208" lon="4.77507">
        <ele>391.59399414062</ele>
        <time>2009-10-24T13:04:36Z</time>
      </trkpt>
      <trkpt lat="45.08189" lon="4.77469">
        <ele>392.59899902344</ele>
        <time>2009-10-24T13:04:44Z</time>
      </trkpt>
      <trkpt lat="45.08176" lon="4.77428">
        <ele>393.68899536133</ele>
        <time>2009-10-24T13:04:52Z</time>
      </trkpt>
      <trkpt lat="45.08175" lon="4.77411">
        <ele>394.36099243164</ele>
        <time>2009-10-24T13:04:55Z</time>
      </trkpt>
      <trkpt lat="45.08184" lon="4.77385">
        <ele>395.19400024414</ele>
        <time>2009-10-24T13:05:00Z</time>
      </trkpt>
      <trkpt lat="45.082" lon="4.77379">
        <ele>395.82000732422</ele>
        <time>2009-10-24T13:05:04Z</time>
      </trkpt>
      <trkpt lat="45.08208" lon="4.77384">
        <ele>396.07400512695</ele>
        <time>2009-10-24T13:05:06Z</time>
      </trkpt>
      <trkpt lat="45.08236" lon="4.7742">
        <ele>397.98901367188</ele>
        <time>2009-10-24T13:05:15Z</time>
      </trkpt>
      <trkpt lat="45.08258" lon="4.77433">
        <ele>399.74798583984</ele>
        <time>2009-10-24T13:05:21Z</time>
      </trkpt>
      <trkpt lat="45.08289" lon="4.77443">
        <ele>400.7080078125</ele>
        <time>2009-10-24T13:05:28Z</time>
      </trkpt>
      <trkpt lat="45.08302" lon="4.77446">
        <ele>401.21600341797</ele>
        <time>2009-10-24T13:05:31Z</time>
      </trkpt>
      <trkpt lat="45.0832" lon="4.77444">
        <ele>401.98300170898</ele>
        <time>2009-10-24T13:05:35Z</time>
      </trkpt>
      <trkpt lat="45.08352" lon="4.77428">
        <ele>403.20901489258</ele>
        <time>2009-10-24T13:05:42Z</time>
      </trkpt>
      <trkpt lat="45.08376" lon="4.77425">
        <ele>404.12100219727</ele>
        <time>2009-10-24T13:05:47Z</time>
      </trkpt>
      <trkpt lat="45.08425" lon="4.77438">
        <ele>405.96499633789</ele>
        <time>2009-10-24T13:05:57Z</time>
      </trkpt>
      <trkpt lat="45.08448" lon="4.77444">
        <ele>406.36898803711</ele>
        <time>2009-10-24T13:06:03Z</time>
      </trkpt>
      <trkpt lat="45.08466" lon="4.77449">
        <ele>406.52398681641</ele>
        <time>2009-10-24T13:06:10Z</time>
      </trkpt>
      <trkpt lat="45.08471" lon="4.77451">
        <ele>406.59899902344</ele>
        <time>2009-10-24T13:06:13Z</time>
      </trkpt>
      <trkpt lat="45.08472" lon="4.77446">
        <ele>406.44100952148</ele>
        <time>2009-10-24T13:06:17Z</time>
      </trkpt>
      <trkpt lat="45.08468" lon="4.77449">
        <ele>406.52600097656</ele>
        <time>2009-10-24T13:06:21Z</time>
      </trkpt>
      <trkpt lat="45.08462" lon="4.77445">
        <ele>406.59899902344</ele>
        <time>2009-10-24T13:06:28Z</time>
      </trkpt>
      <trkpt lat="45.08459" lon="4.77444">
        <ele>406.34600830078</ele>
        <time>2009-10-24T13:06:29Z</time>
      </trkpt>
      <trkpt lat="45.08442" lon="4.77438">
        <ele>406.15100097656</ele>
        <time>2009-10-24T13:06:34Z</time>
      </trkpt>
      <trkpt lat="45.08433" lon="4.77435">
        <ele>406.08999633789</ele>
        <time>2009-10-24T13:06:36Z</time>
      </trkpt>
      <trkpt lat="45.08423" lon="4.77432">
        <ele>405.94299316406</ele>
        <time>2009-10-24T13:06:38Z</time>
      </trkpt>
      <trkpt lat="45.08395" lon="4.77422">
        <ele>404.75201416016</ele>
        <time>2009-10-24T13:06:43Z</time>
      </trkpt>
      <trkpt lat="45.08382" lon="4.77418">
        <ele>404.54098510742</ele>
        <time>2009-10-24T13:06:45Z</time>
      </trkpt>
      <trkpt lat="45.08347" lon="4.77422">
        <ele>403.34799194336</ele>
        <time>2009-10-24T13:06:50Z</time>
      </trkpt>
      <trkpt lat="45.0834" lon="4.77426">
        <ele>403.11700439453</ele>
        <time>2009-10-24T13:06:51Z</time>
      </trkpt>
      <trkpt lat="45.08326" lon="4.77434">
        <ele>402.55200195312</ele>
        <time>2009-10-24T13:06:53Z</time>
      </trkpt>
      <trkpt lat="45.08294" lon="4.77439">
        <ele>401.10900878906</ele>
        <time>2009-10-24T13:06:57Z</time>
      </trkpt>
      <trkpt lat="45.08259" lon="4.77429">
        <ele>399.92001342773</ele>
        <time>2009-10-24T13:07:01Z</time>
      </trkpt>
      <trkpt lat="45.08227" lon="4.774">
        <ele>397.69299316406</ele>
        <time>2009-10-24T13:07:05Z</time>
      </trkpt>
      <trkpt lat="45.08203" lon="4.77375">
        <ele>396.33801269531</ele>
        <time>2009-10-24T13:07:08Z</time>
      </trkpt>
      <trkpt lat="45.08182" lon="4.77383">
        <ele>395.87600708008</ele>
        <time>2009-10-24T13:07:10Z</time>
      </trkpt>
      <trkpt lat="45.08173" lon="4.77408">
        <ele>395.71200561523</ele>
        <time>2009-10-24T13:07:12Z</time>
      </trkpt>
      <trkpt lat="45.08175" lon="4.77446">
        <ele>394.54098510742</ele>
        <time>2009-10-24T13:07:15Z</time>
      </trkpt>
      <trkpt lat="45.08181" lon="4.77463">
        <ele>393.79000854492</ele>
        <time>2009-10-24T13:07:17Z</time>
      </trkpt>
      <trkpt lat="45.08192" lon="4.77488">
        <ele>392.73001098633</ele>
        <time>2009-10-24T13:07:22Z</time>
      </trkpt>
      <trkpt lat="45.08199" lon="4.775">
        <ele>392.10800170898</ele>
        <time>2009-10-24T13:07:27Z</time>
      </trkpt>
      <trkpt lat="45.08204" lon="4.77503">
        <ele>392.02700805664</ele>
        <time>2009-10-24T13:07:31Z</time>
      </trkpt>
      <trkpt lat="45.08199" lon="4.77491">
        <ele>392.09698486328</ele>
        <time>2009-10-24T13:07:34Z</time>
      </trkpt>
      <trkpt lat="45.08194" lon="4.77477">
        <ele>392.37600708008</ele>
        <time>2009-10-24T13:07:36Z</time>
      </trkpt>
      <trkpt lat="45.08186" lon="4.7746">
        <ele>392.85101318359</ele>
        <time>2009-10-24T13:07:38Z</time>
      </trkpt>
      <trkpt lat="45.08177" lon="4.77415">
        <ele>395.01098632812</ele>
        <time>2009-10-24T13:07:42Z</time>
      </trkpt>
      <trkpt lat="45.08179" lon="4.77404">
        <ele>395.30599975586</ele>
        <time>2009-10-24T13:07:43Z</time>
      </trkpt>
      <trkpt lat="45.08192" lon="4.77383">
        <ele>396.19799804688</ele>
        <time>2009-10-24T13:07:45Z</time>
      </trkpt>
      <trkpt lat="45.08212" lon="4.77383">
        <ele>396.74798583984</ele>
        <time>2009-10-24T13:07:47Z</time>
      </trkpt>
      <trkpt lat="45.08225" lon="4.77397">
        <ele>396.89001464844</ele>
        <time>2009-10-24T13:07:49Z</time>
      </trkpt>
      <trkpt lat="45.08236" lon="4.77414">
        <ele>397.22198486328</ele>
        <time>2009-10-24T13:07:51Z</time>
      </trkpt>
      <trkpt lat="45.08264" lon="4.77437">
        <ele>399.75100708008</ele>
        <time>2009-10-24T13:07:55Z</time>
      </trkpt>
      <trkpt lat="45.08272" lon="4.7744">
        <ele>400.26599121094</ele>
        <time>2009-10-24T13:07:56Z</time>
      </trkpt>
      <trkpt lat="45.08301" lon="4.77448">
        <ele>401.02200317383</ele>
        <time>2009-10-24T13:08:00Z</time>
      </trkpt>
      <trkpt lat="45.08332" lon="4.77442">
        <ele>402.06799316406</ele>
        <time>2009-10-24T13:08:05Z</time>
      </trkpt>
      <trkpt lat="45.08363" lon="4.77426">
        <ele>402.72601318359</ele>
        <time>2009-10-24T13:08:11Z</time>
      </trkpt>
      <trkpt lat="45.08395" lon="4.77429">
        <ele>403.94500732422</ele>
        <time>2009-10-24T13:08:18Z</time>
      </trkpt>
      <trkpt lat="45.08423" lon="4.77437">
        <ele>405.06500244141</ele>
        <time>2009-10-24T13:08:25Z</time>
      </trkpt>
      <trkpt lat="45.08455" lon="4.77444">
        <ele>405.75100708008</ele>
        <time>2009-10-24T13:08:34Z</time>
      </trkpt>
      <trkpt lat="45.08464" lon="4.77447">
        <ele>405.91299438477</ele>
        <time>2009-10-24T13:08:39Z</time>
      </trkpt>
      <trkpt lat="45.08468" lon="4.77449">
        <ele>405.8219909668</ele>
        <time>2009-10-24T13:08:45Z</time>
      </trkpt>
      <trkpt lat="45.08469" lon="4.77449">
        <ele>405.62100219727</ele>
        <time>2009-10-24T13:08:59Z</time>
      </trkpt>
      <trkpt lat="45.08471" lon="4.7745">
        <ele>405.40899658203</ele>
        <time>2009-10-24T13:09:08Z</time>
      </trkpt>
      <trkpt lat="45.08471" lon="4.77451">
        <ele>405.77899169922</ele>
        <time>2009-10-24T13:09:10Z</time>
      </trkpt>
      <trkpt lat="45.08475" lon="4.77454">
        <ele>405.59399414062</ele>
        <time>2009-10-24T13:09:16Z</time>
      </trkpt>
      <trkpt lat="45.08473" lon="4.77453">
        <ele>405.60299682617</ele>
        <time>2009-10-24T13:09:29Z</time>
      </trkpt>
      <trkpt lat="45.08472" lon="4.77453">
        <ele>405.64898681641</ele>
        <time>2009-10-24T13:09:48Z</time>
      </trkpt>
      <trkpt lat="45.08476" lon="4.77447">
        <ele>405.37200927734</ele>
        <time>2009-10-24T13:09:53Z</time>
      </trkpt>
      <trkpt lat="45.08491" lon="4.77452">
        <ele>405.38400268555</ele>
        <time>2009-10-24T13:10:01Z</time>
      </trkpt>
      <trkpt lat="45.08501" lon="4.77451">
        <ele>405.02398681641</ele>
        <time>2009-10-24T13:10:05Z</time>
      </trkpt>
      <trkpt lat="45.08516" lon="4.77453">
        <ele>404.63299560547</ele>
        <time>2009-10-24T13:10:10Z</time>
      </trkpt>
      <trkpt lat="45.08535" lon="4.77454">
        <ele>404.2619934082</ele>
        <time>2009-10-24T13:10:14Z</time>
      </trkpt>
      <trkpt lat="45.08554" lon="4.77462">
        <ele>404.38800048828</ele>
        <time>2009-10-24T13:10:18Z</time>
      </trkpt>
      <trkpt lat="45.08563" lon="4.77469">
        <ele>403.97100830078</ele>
        <time>2009-10-24T13:10:20Z</time>
      </trkpt>
      <trkpt lat="45.08572" lon="4.77478">
        <ele>404.4580078125</ele>
        <time>2009-10-24T13:10:22Z</time>
      </trkpt>
      <trkpt lat="45.08605" lon="4.77518">
        <ele>402.5539855957</ele>
        <time>2009-10-24T13:10:30Z</time>
      </trkpt>
      <trkpt lat="45.08615" lon="4.77526">
        <ele>402.66799926758</ele>
        <time>2009-10-24T13:10:32Z</time>
      </trkpt>
      <trkpt lat="45.08641" lon="4.77537">
        <ele>402.45498657227</ele>
        <time>2009-10-24T13:10:37Z</time>
      </trkpt>
      <trkpt lat="45.08694" lon="4.77531">
        <ele>401.09899902344</ele>
        <time>2009-10-24T13:10:46Z</time>
      </trkpt>
      <trkpt lat="45.08724" lon="4.77502">
        <ele>400.3030090332</ele>
        <time>2009-10-24T13:10:52Z</time>
      </trkpt>
      <trkpt lat="45.08727" lon="4.77495">
        <ele>399.94100952148</ele>
        <time>2009-10-24T13:10:53Z</time>
      </trkpt>
      <trkpt lat="45.08732" lon="4.7748">
        <ele>399.95700073242</ele>
        <time>2009-10-24T13:10:55Z</time>
      </trkpt>
      <trkpt lat="45.08747" lon="4.7741">
        <ele>398.77600097656</ele>
        <time>2009-10-24T13:11:03Z</time>
      </trkpt>
      <trkpt lat="45.08748" lon="4.77362">
        <ele>397.96099853516</ele>
        <time>2009-10-24T13:11:08Z</time>
      </trkpt>
      <trkpt lat="45.08731" lon="4.77318">
        <ele>397.43701171875</ele>
        <time>2009-10-24T13:11:13Z</time>
      </trkpt>
      <trkpt lat="45.0872" lon="4.77305">
        <ele>397.14801025391</ele>
        <time>2009-10-24T13:11:15Z</time>
      </trkpt>
      <trkpt lat="45.08694" lon="4.77284">
        <ele>396.74700927734</ele>
        <time>2009-10-24T13:11:19Z</time>
      </trkpt>
      <trkpt lat="45.08678" lon="4.77263">
        <ele>396.16101074219</ele>
        <time>2009-10-24T13:11:22Z</time>
      </trkpt>
      <trkpt lat="45.08673" lon="4.77231">
        <ele>395.7619934082</ele>
        <time>2009-10-24T13:11:25Z</time>
      </trkpt>
      <trkpt lat="45.08688" lon="4.77204">
        <ele>395.43899536133</ele>
        <time>2009-10-24T13:11:28Z</time>
      </trkpt>
      <trkpt lat="45.08694" lon="4.77197">
        <ele>395.25799560547</ele>
        <time>2009-10-24T13:11:29Z</time>
      </trkpt>
      <trkpt lat="45.08725" lon="4.77163">
        <ele>394.55499267578</ele>
        <time>2009-10-24T13:11:34Z</time>
      </trkpt>
      <trkpt lat="45.08754" lon="4.7715">
        <ele>393.61599731445</ele>
        <time>2009-10-24T13:11:38Z</time>
      </trkpt>
      <trkpt lat="45.08778" lon="4.77154">
        <ele>393.04598999023</ele>
        <time>2009-10-24T13:11:41Z</time>
      </trkpt>
      <trkpt lat="45.08852" lon="4.77186">
        <ele>391.39300537109</ele>
        <time>2009-10-24T13:11:51Z</time>
      </trkpt>
      <trkpt lat="45.08915" lon="4.77214">
        <ele>391.08898925781</ele>
        <time>2009-10-24T13:12:00Z</time>
      </trkpt>
      <trkpt lat="45.08963" lon="4.77233">
        <ele>391.88198852539</ele>
        <time>2009-10-24T13:12:08Z</time>
      </trkpt>
      <trkpt lat="45.08974" lon="4.77236">
        <ele>392.2200012207</ele>
        <time>2009-10-24T13:12:10Z</time>
      </trkpt>
      <trkpt lat="45.08995" lon="4.77234">
        <ele>392.71099853516</ele>
        <time>2009-10-24T13:12:14Z</time>
      </trkpt>
      <trkpt lat="45.09009" lon="4.77228">
        <ele>393.49200439453</ele>
        <time>2009-10-24T13:12:17Z</time>
      </trkpt>
      <trkpt lat="45.09029" lon="4.77201">
        <ele>394.09100341797</ele>
        <time>2009-10-24T13:12:23Z</time>
      </trkpt>
      <trkpt lat="45.09039" lon="4.77154">
        <ele>395.63598632812</ele>
        <time>2009-10-24T13:12:30Z</time>
      </trkpt>
      <trkpt lat="45.09045" lon="4.77104">
        <ele>397.33499145508</ele>
        <time>2009-10-24T13:12:37Z</time>
      </trkpt>
      <trkpt lat="45.09068" lon="4.77044">
        <ele>399.14498901367</ele>
        <time>2009-10-24T13:12:46Z</time>
      </trkpt>
      <trkpt lat="45.09091" lon="4.76991">
        <ele>401.24398803711</ele>
        <time>2009-10-24T13:12:54Z</time>
      </trkpt>
      <trkpt lat="45.09108" lon="4.76952">
        <ele>402.84201049805</ele>
        <time>2009-10-24T13:13:00Z</time>
      </trkpt>
      <trkpt lat="45.09134" lon="4.76891">
        <ele>404.68200683594</ele>
        <time>2009-10-24T13:13:09Z</time>
      </trkpt>
      <trkpt lat="45.09137" lon="4.76884">
        <ele>404.7919921875</ele>
        <time>2009-10-24T13:13:10Z</time>
      </trkpt>
      <trkpt lat="45.09145" lon="4.76819">
        <ele>406.91000366211</ele>
        <time>2009-10-24T13:13:18Z</time>
      </trkpt>
      <trkpt lat="45.09153" lon="4.76766">
        <ele>408.20300292969</ele>
        <time>2009-10-24T13:13:24Z</time>
      </trkpt>
      <trkpt lat="45.09174" lon="4.76712">
        <ele>410.53698730469</ele>
        <time>2009-10-24T13:13:30Z</time>
      </trkpt>
      <trkpt lat="45.09183" lon="4.76692">
        <ele>411.19000244141</ele>
        <time>2009-10-24T13:13:32Z</time>
      </trkpt>
      <trkpt lat="45.09187" lon="4.76647">
        <ele>412.88101196289</ele>
        <time>2009-10-24T13:13:36Z</time>
      </trkpt>
      <trkpt lat="45.09171" lon="4.76609">
        <ele>413.38299560547</ele>
        <time>2009-10-24T13:13:40Z</time>
      </trkpt>
      <trkpt lat="45.09137" lon="4.76554">
        <ele>415.23199462891</ele>
        <time>2009-10-24T13:13:48Z</time>
      </trkpt>
      <trkpt lat="45.09126" lon="4.76528">
        <ele>415.97799682617</ele>
        <time>2009-10-24T13:13:52Z</time>
      </trkpt>
      <trkpt lat="45.09124" lon="4.76494">
        <ele>416.86700439453</ele>
        <time>2009-10-24T13:13:57Z</time>
      </trkpt>
      <trkpt lat="45.09137" lon="4.7647">
        <ele>418.1549987793</ele>
        <time>2009-10-24T13:14:02Z</time>
      </trkpt>
      <trkpt lat="45.09148" lon="4.76461">
        <ele>419.10299682617</ele>
        <time>2009-10-24T13:14:05Z</time>
      </trkpt>
      <trkpt lat="45.0917" lon="4.76453">
        <ele>420.05899047852</ele>
        <time>2009-10-24T13:14:10Z</time>
      </trkpt>
      <trkpt lat="45.09198" lon="4.76462">
        <ele>421.54299926758</ele>
        <time>2009-10-24T13:14:17Z</time>
      </trkpt>
      <trkpt lat="45.09226" lon="4.76471">
        <ele>423.0119934082</ele>
        <time>2009-10-24T13:14:24Z</time>
      </trkpt>
      <trkpt lat="45.09235" lon="4.76471">
        <ele>423.31698608398</ele>
        <time>2009-10-24T13:14:26Z</time>
      </trkpt>
      <trkpt lat="45.09251" lon="4.76465">
        <ele>424.21899414062</ele>
        <time>2009-10-24T13:14:30Z</time>
      </trkpt>
      <trkpt lat="45.09287" lon="4.76438">
        <ele>425.43798828125</ele>
        <time>2009-10-24T13:14:39Z</time>
      </trkpt>
      <trkpt lat="45.09321" lon="4.76411">
        <ele>426.98199462891</ele>
        <time>2009-10-24T13:14:48Z</time>
      </trkpt>
      <trkpt lat="45.09324" lon="4.76408">
        <ele>427.18899536133</ele>
        <time>2009-10-24T13:14:49Z</time>
      </trkpt>
      <trkpt lat="45.09337" lon="4.7638">
        <ele>428.31298828125</ele>
        <time>2009-10-24T13:14:55Z</time>
      </trkpt>
      <trkpt lat="45.09338" lon="4.76363">
        <ele>428.97100830078</ele>
        <time>2009-10-24T13:14:58Z</time>
      </trkpt>
      <trkpt lat="45.09335" lon="4.76322">
        <ele>429.89801025391</ele>
        <time>2009-10-24T13:15:05Z</time>
      </trkpt>
      <trkpt lat="45.09344" lon="4.76289">
        <ele>430.99700927734</ele>
        <time>2009-10-24T13:15:11Z</time>
      </trkpt>
      <trkpt lat="45.09357" lon="4.76276">
        <ele>431.64898681641</ele>
        <time>2009-10-24T13:15:15Z</time>
      </trkpt>
      <trkpt lat="45.09389" lon="4.76268">
        <ele>433.71600341797</ele>
        <time>2009-10-24T13:15:23Z</time>
      </trkpt>
      <trkpt lat="45.09402" lon="4.76265">
        <ele>434.28399658203</ele>
        <time>2009-10-24T13:15:26Z</time>
      </trkpt>
      <trkpt lat="45.0943" lon="4.76248">
        <ele>435.7380065918</ele>
        <time>2009-10-24T13:15:33Z</time>
      </trkpt>
      <trkpt lat="45.09446" lon="4.76229">
        <ele>436.56100463867</ele>
        <time>2009-10-24T13:15:38Z</time>
      </trkpt>
      <trkpt lat="45.09467" lon="4.76184">
        <ele>438.44000244141</ele>
        <time>2009-10-24T13:15:47Z</time>
      </trkpt>
      <trkpt lat="45.09476" lon="4.76158">
        <ele>439.51998901367</ele>
        <time>2009-10-24T13:15:52Z</time>
      </trkpt>
      <trkpt lat="45.09494" lon="4.76107">
        <ele>441.39401245117</ele>
        <time>2009-10-24T13:16:02Z</time>
      </trkpt>
      <trkpt lat="45.0951" lon="4.76057">
        <ele>442.36999511719</ele>
        <time>2009-10-24T13:16:11Z</time>
      </trkpt>
      <trkpt lat="45.09531" lon="4.7601">
        <ele>444.10299682617</ele>
        <time>2009-10-24T13:16:20Z</time>
      </trkpt>
      <trkpt lat="45.09545" lon="4.75988">
        <ele>445.25500488281</ele>
        <time>2009-10-24T13:16:25Z</time>
      </trkpt>
      <trkpt lat="45.09576" lon="4.75961">
        <ele>445.86099243164</ele>
        <time>2009-10-24T13:16:33Z</time>
      </trkpt>
      <trkpt lat="45.09624" lon="4.75946">
        <ele>447.22198486328</ele>
        <time>2009-10-24T13:16:43Z</time>
      </trkpt>
      <trkpt lat="45.09663" lon="4.75946">
        <ele>448.01400756836</ele>
        <time>2009-10-24T13:16:51Z</time>
      </trkpt>
      <trkpt lat="45.09706" lon="4.75954">
        <ele>449.76699829102</ele>
        <time>2009-10-24T13:17:00Z</time>
      </trkpt>
      <trkpt lat="45.09753" lon="4.75965">
        <ele>450.74398803711</ele>
        <time>2009-10-24T13:17:10Z</time>
      </trkpt>
      <trkpt lat="45.09793" lon="4.7598">
        <ele>452.09600830078</ele>
        <time>2009-10-24T13:17:19Z</time>
      </trkpt>
      <trkpt lat="45.09833" lon="4.76004">
        <ele>454.28399658203</ele>
        <time>2009-10-24T13:17:28Z</time>
      </trkpt>
      <trkpt lat="45.09857" lon="4.7602">
        <ele>454.68301391602</ele>
        <time>2009-10-24T13:17:34Z</time>
      </trkpt>
      <trkpt lat="45.0989" lon="4.76045">
        <ele>455.26000976562</ele>
        <time>2009-10-24T13:17:42Z</time>
      </trkpt>
      <trkpt lat="45.09932" lon="4.76074">
        <ele>455.24798583984</ele>
        <time>2009-10-24T13:17:51Z</time>
      </trkpt>
      <trkpt lat="45.09967" lon="4.76095">
        <ele>454.06298828125</ele>
        <time>2009-10-24T13:17:58Z</time>
      </trkpt>
      <trkpt lat="45.10001" lon="4.76103">
        <ele>454.10400390625</ele>
        <time>2009-10-24T13:18:04Z</time>
      </trkpt>
      <trkpt lat="45.10035" lon="4.76106">
        <ele>454.23199462891</ele>
        <time>2009-10-24T13:18:10Z</time>
      </trkpt>
      <trkpt lat="45.10072" lon="4.76099">
        <ele>455.02801513672</ele>
        <time>2009-10-24T13:18:17Z</time>
      </trkpt>
      <trkpt lat="45.10121" lon="4.76075">
        <ele>456.23599243164</ele>
        <time>2009-10-24T13:18:27Z</time>
      </trkpt>
      <trkpt lat="45.10152" lon="4.76051">
        <ele>456.8219909668</ele>
        <time>2009-10-24T13:18:34Z</time>
      </trkpt>
      <trkpt lat="45.10175" lon="4.76024">
        <ele>457.59201049805</ele>
        <time>2009-10-24T13:18:40Z</time>
      </trkpt>
      <trkpt lat="45.10207" lon="4.75985">
        <ele>458.41299438477</ele>
        <time>2009-10-24T13:18:49Z</time>
      </trkpt>
      <trkpt lat="45.10235" lon="4.75953">
        <ele>459.30999755859</ele>
        <time>2009-10-24T13:18:57Z</time>
      </trkpt>
      <trkpt lat="45.1026" lon="4.75919">
        <ele>459.75399780273</ele>
        <time>2009-10-24T13:19:04Z</time>
      </trkpt>
      <trkpt lat="45.10281" lon="4.75872">
        <ele>460.92498779297</ele>
        <time>2009-10-24T13:19:12Z</time>
      </trkpt>
      <trkpt lat="45.10299" lon="4.75815">
        <ele>462.81399536133</ele>
        <time>2009-10-24T13:19:21Z</time>
      </trkpt>
      <trkpt lat="45.10315" lon="4.75779">
        <ele>463.48599243164</ele>
        <time>2009-10-24T13:19:27Z</time>
      </trkpt>
      <trkpt lat="45.10338" lon="4.75739">
        <ele>464.02801513672</ele>
        <time>2009-10-24T13:19:34Z</time>
      </trkpt>
      <trkpt lat="45.1036" lon="4.75697">
        <ele>464.19000244141</ele>
        <time>2009-10-24T13:19:41Z</time>
      </trkpt>
      <trkpt lat="45.10382" lon="4.75648">
        <ele>464.49798583984</ele>
        <time>2009-10-24T13:19:49Z</time>
      </trkpt>
      <trkpt lat="45.10403" lon="4.75591">
        <ele>465.30099487305</ele>
        <time>2009-10-24T13:19:58Z</time>
      </trkpt>
      <trkpt lat="45.10406" lon="4.75584">
        <ele>465.09399414062</ele>
        <time>2009-10-24T13:19:59Z</time>
      </trkpt>
      <trkpt lat="45.10431" lon="4.75521">
        <ele>465.09201049805</ele>
        <time>2009-10-24T13:20:09Z</time>
      </trkpt>
      <trkpt lat="45.10443" lon="4.75488">
        <ele>465.21798706055</ele>
        <time>2009-10-24T13:20:14Z</time>
      </trkpt>
      <trkpt lat="45.10467" lon="4.75429">
        <ele>465.78799438477</ele>
        <time>2009-10-24T13:20:23Z</time>
      </trkpt>
      <trkpt lat="45.10483" lon="4.75398">
        <ele>465.53698730469</ele>
        <time>2009-10-24T13:20:28Z</time>
      </trkpt>
      <trkpt lat="45.10519" lon="4.75354">
        <ele>464.79501342773</ele>
        <time>2009-10-24T13:20:36Z</time>
      </trkpt>
      <trkpt lat="45.10529" lon="4.75343">
        <ele>464.21899414062</ele>
        <time>2009-10-24T13:20:38Z</time>
      </trkpt>
      <trkpt lat="45.10547" lon="4.75314">
        <ele>463.64401245117</ele>
        <time>2009-10-24T13:20:42Z</time>
      </trkpt>
      <trkpt lat="45.10561" lon="4.75267">
        <ele>462.76501464844</ele>
        <time>2009-10-24T13:20:47Z</time>
      </trkpt>
      <trkpt lat="45.10577" lon="4.75192">
        <ele>462.35699462891</ele>
        <time>2009-10-24T13:20:55Z</time>
      </trkpt>
      <trkpt lat="45.10582" lon="4.75174">
        <ele>461.85900878906</ele>
        <time>2009-10-24T13:20:57Z</time>
      </trkpt>
      <trkpt lat="45.10625" lon="4.75072">
        <ele>460.14001464844</ele>
        <time>2009-10-24T13:21:08Z</time>
      </trkpt>
      <trkpt lat="45.10655" lon="4.74999">
        <ele>460.28298950195</ele>
        <time>2009-10-24T13:21:16Z</time>
      </trkpt>
      <trkpt lat="45.10687" lon="4.74908">
        <ele>459.96200561523</ele>
        <time>2009-10-24T13:21:26Z</time>
      </trkpt>
      <trkpt lat="45.1071" lon="4.74829">
        <ele>460.68899536133</ele>
        <time>2009-10-24T13:21:35Z</time>
      </trkpt>
      <trkpt lat="45.10728" lon="4.74767">
        <ele>462.15701293945</ele>
        <time>2009-10-24T13:21:43Z</time>
      </trkpt>
      <trkpt lat="45.10743" lon="4.74716">
        <ele>463.0830078125</ele>
        <time>2009-10-24T13:21:50Z</time>
      </trkpt>
      <trkpt lat="45.10757" lon="4.74667">
        <ele>464.18701171875</ele>
        <time>2009-10-24T13:21:57Z</time>
      </trkpt>
      <trkpt lat="45.10772" lon="4.74616">
        <ele>466.42199707031</ele>
        <time>2009-10-24T13:22:05Z</time>
      </trkpt>
      <trkpt lat="45.10775" lon="4.74604">
        <ele>466.99499511719</ele>
        <time>2009-10-24T13:22:07Z</time>
      </trkpt>
      <trkpt lat="45.10784" lon="4.7456">
        <ele>469.06500244141</ele>
        <time>2009-10-24T13:22:14Z</time>
      </trkpt>
      <trkpt lat="45.10785" lon="4.74547">
        <ele>469.70098876953</ele>
        <time>2009-10-24T13:22:16Z</time>
      </trkpt>
      <trkpt lat="45.10787" lon="4.74492">
        <ele>471.40701293945</ele>
        <time>2009-10-24T13:22:24Z</time>
      </trkpt>
      <trkpt lat="45.10787" lon="4.74429">
        <ele>473.64199829102</ele>
        <time>2009-10-24T13:22:33Z</time>
      </trkpt>
      <trkpt lat="45.10788" lon="4.74379">
        <ele>474.23498535156</ele>
        <time>2009-10-24T13:22:39Z</time>
      </trkpt>
      <trkpt lat="45.10786" lon="4.7431">
        <ele>473.94900512695</ele>
        <time>2009-10-24T13:22:47Z</time>
      </trkpt>
      <trkpt lat="45.10788" lon="4.74245">
        <ele>473.79400634766</ele>
        <time>2009-10-24T13:22:55Z</time>
      </trkpt>
      <trkpt lat="45.10796" lon="4.74185">
        <ele>474.10101318359</ele>
        <time>2009-10-24T13:23:02Z</time>
      </trkpt>
      <trkpt lat="45.10812" lon="4.74105">
        <ele>474.73901367188</ele>
        <time>2009-10-24T13:23:11Z</time>
      </trkpt>
      <trkpt lat="45.10829" lon="4.74036">
        <ele>475.82400512695</ele>
        <time>2009-10-24T13:23:20Z</time>
      </trkpt>
      <trkpt lat="45.10844" lon="4.73979">
        <ele>477.51699829102</ele>
        <time>2009-10-24T13:23:28Z</time>
      </trkpt>
      <trkpt lat="45.10856" lon="4.73934">
        <ele>478.64898681641</ele>
        <time>2009-10-24T13:23:35Z</time>
      </trkpt>
      <trkpt lat="45.10858" lon="4.73927">
        <ele>478.5950012207</ele>
        <time>2009-10-24T13:23:36Z</time>
      </trkpt>
      <trkpt lat="45.10862" lon="4.73902">
        <ele>479.13800048828</ele>
        <time>2009-10-24T13:23:40Z</time>
      </trkpt>
      <trkpt lat="45.10855" lon="4.73883">
        <ele>479.07998657227</ele>
        <time>2009-10-24T13:23:44Z</time>
      </trkpt>
      <trkpt lat="45.10843" lon="4.7387">
        <ele>479.00399780273</ele>
        <time>2009-10-24T13:23:48Z</time>
      </trkpt>
      <trkpt lat="45.10833" lon="4.73843">
        <ele>478.63400268555</ele>
        <time>2009-10-24T13:23:54Z</time>
      </trkpt>
      <trkpt lat="45.10823" lon="4.73828">
        <ele>477.35501098633</ele>
        <time>2009-10-24T13:23:59Z</time>
      </trkpt>
      <trkpt lat="45.10817" lon="4.7382">
        <ele>476.94198608398</ele>
        <time>2009-10-24T13:24:02Z</time>
      </trkpt>
      <trkpt lat="45.10815" lon="4.73816">
        <ele>476.63800048828</ele>
        <time>2009-10-24T13:24:03Z</time>
      </trkpt>
      <trkpt lat="45.10798" lon="4.73794">
        <ele>475.14199829102</ele>
        <time>2009-10-24T13:24:08Z</time>
      </trkpt>
      <trkpt lat="45.10786" lon="4.73779">
        <ele>473.72500610352</ele>
        <time>2009-10-24T13:24:12Z</time>
      </trkpt>
      <trkpt lat="45.10776" lon="4.73766">
        <ele>473.24398803711</ele>
        <time>2009-10-24T13:24:15Z</time>
      </trkpt>
      <trkpt lat="45.10772" lon="4.73761">
        <ele>472.62200927734</ele>
        <time>2009-10-24T13:24:16Z</time>
      </trkpt>
      <trkpt lat="45.10747" lon="4.73729">
        <ele>470.8039855957</ele>
        <time>2009-10-24T13:24:21Z</time>
      </trkpt>
      <trkpt lat="45.1072" lon="4.73698">
        <ele>468.82400512695</ele>
        <time>2009-10-24T13:24:25Z</time>
      </trkpt>
      <trkpt lat="45.10682" lon="4.7366">
        <ele>465.47399902344</ele>
        <time>2009-10-24T13:24:29Z</time>
      </trkpt>
      <trkpt lat="45.10649" lon="4.73632">
        <ele>461.76400756836</ele>
        <time>2009-10-24T13:24:32Z</time>
      </trkpt>
      <trkpt lat="45.10595" lon="4.73611">
        <ele>456.47799682617</ele>
        <time>2009-10-24T13:24:36Z</time>
      </trkpt>
      <trkpt lat="45.10565" lon="4.73596">
        <ele>453.70901489258</ele>
        <time>2009-10-24T13:24:38Z</time>
      </trkpt>
      <trkpt lat="45.10506" lon="4.73567">
        <ele>449.16400146484</ele>
        <time>2009-10-24T13:24:42Z</time>
      </trkpt>
      <trkpt lat="45.1048" lon="4.73553">
        <ele>446.59899902344</ele>
        <time>2009-10-24T13:24:44Z</time>
      </trkpt>
      <trkpt lat="45.10464" lon="4.73522">
        <ele>445.07299804688</ele>
        <time>2009-10-24T13:24:46Z</time>
      </trkpt>
      <trkpt lat="45.10458" lon="4.73489">
        <ele>446.24099731445</ele>
        <time>2009-10-24T13:24:48Z</time>
      </trkpt>
      <trkpt lat="45.10452" lon="4.73461">
        <ele>447.26599121094</ele>
        <time>2009-10-24T13:24:50Z</time>
      </trkpt>
      <trkpt lat="45.10431" lon="4.73417">
        <ele>449.88400268555</ele>
        <time>2009-10-24T13:24:54Z</time>
      </trkpt>
      <trkpt lat="45.10424" lon="4.73397">
        <ele>450.78698730469</ele>
        <time>2009-10-24T13:24:56Z</time>
      </trkpt>
      <trkpt lat="45.1042" lon="4.73367">
        <ele>452.52398681641</ele>
        <time>2009-10-24T13:24:59Z</time>
      </trkpt>
      <trkpt lat="45.10422" lon="4.73295">
        <ele>455.6549987793</ele>
        <time>2009-10-24T13:25:07Z</time>
      </trkpt>
      <trkpt lat="45.1042" lon="4.73262">
        <ele>456.84698486328</ele>
        <time>2009-10-24T13:25:11Z</time>
      </trkpt>
      <trkpt lat="45.10422" lon="4.73206">
        <ele>459.62298583984</ele>
        <time>2009-10-24T13:25:18Z</time>
      </trkpt>
      <trkpt lat="45.10419" lon="4.73174">
        <ele>461.14599609375</ele>
        <time>2009-10-24T13:25:22Z</time>
      </trkpt>
      <trkpt lat="45.10409" lon="4.73141">
        <ele>462.62200927734</ele>
        <time>2009-10-24T13:25:28Z</time>
      </trkpt>
      <trkpt lat="45.10396" lon="4.73145">
        <ele>463.18301391602</ele>
        <time>2009-10-24T13:25:33Z</time>
      </trkpt>
      <trkpt lat="45.10385" lon="4.73157">
        <ele>463.91299438477</ele>
        <time>2009-10-24T13:25:38Z</time>
      </trkpt>
      <trkpt lat="45.10377" lon="4.73174">
        <ele>463.80899047852</ele>
        <time>2009-10-24T13:25:44Z</time>
      </trkpt>
      <trkpt lat="45.10366" lon="4.7319">
        <ele>464.11499023438</ele>
        <time>2009-10-24T13:25:49Z</time>
      </trkpt>
      <trkpt lat="45.10352" lon="4.73208">
        <ele>464.49099731445</ele>
        <time>2009-10-24T13:25:55Z</time>
      </trkpt>
      <trkpt lat="45.10332" lon="4.73232">
        <ele>465.24499511719</ele>
        <time>2009-10-24T13:26:02Z</time>
      </trkpt>
      <trkpt lat="45.10302" lon="4.73265">
        <ele>467.07901000977</ele>
        <time>2009-10-24T13:26:11Z</time>
      </trkpt>
      <trkpt lat="45.1027" lon="4.73301">
        <ele>469.05899047852</ele>
        <time>2009-10-24T13:26:20Z</time>
      </trkpt>
      <trkpt lat="45.1024" lon="4.73332">
        <ele>471.07901000977</ele>
        <time>2009-10-24T13:26:28Z</time>
      </trkpt>
      <trkpt lat="45.10228" lon="4.73342">
        <ele>471.65100097656</ele>
        <time>2009-10-24T13:26:31Z</time>
      </trkpt>
      <trkpt lat="45.10215" lon="4.73353">
        <ele>471.93200683594</ele>
        <time>2009-10-24T13:26:35Z</time>
      </trkpt>
      <trkpt lat="45.10193" lon="4.73364">
        <ele>471.19198608398</ele>
        <time>2009-10-24T13:26:41Z</time>
      </trkpt>
      <trkpt lat="45.10169" lon="4.73374">
        <ele>470.43600463867</ele>
        <time>2009-10-24T13:26:46Z</time>
      </trkpt>
      <trkpt lat="45.10145" lon="4.73387">
        <ele>469.71099853516</ele>
        <time>2009-10-24T13:26:51Z</time>
      </trkpt>
      <trkpt lat="45.10116" lon="4.73405">
        <ele>470.26800537109</ele>
        <time>2009-10-24T13:26:58Z</time>
      </trkpt>
      <trkpt lat="45.10094" lon="4.73416">
        <ele>470.20901489258</ele>
        <time>2009-10-24T13:27:04Z</time>
      </trkpt>
      <trkpt lat="45.10075" lon="4.73427">
        <ele>469.97601318359</ele>
        <time>2009-10-24T13:27:10Z</time>
      </trkpt>
      <trkpt lat="45.10055" lon="4.73438">
        <ele>470.06799316406</ele>
        <time>2009-10-24T13:27:15Z</time>
      </trkpt>
      <trkpt lat="45.10033" lon="4.73452">
        <ele>469.42599487305</ele>
        <time>2009-10-24T13:27:19Z</time>
      </trkpt>
      <trkpt lat="45.10006" lon="4.73471">
        <ele>468.58898925781</ele>
        <time>2009-10-24T13:27:23Z</time>
      </trkpt>
      <trkpt lat="45.0999" lon="4.7348">
        <ele>467.73400878906</ele>
        <time>2009-10-24T13:27:25Z</time>
      </trkpt>
      <trkpt lat="45.09955" lon="4.73499">
        <ele>467.04699707031</ele>
        <time>2009-10-24T13:27:30Z</time>
      </trkpt>
      <trkpt lat="45.09916" lon="4.73528">
        <ele>466.92001342773</ele>
        <time>2009-10-24T13:27:36Z</time>
      </trkpt>
      <trkpt lat="45.09876" lon="4.73575">
        <ele>467.74200439453</ele>
        <time>2009-10-24T13:27:43Z</time>
      </trkpt>
      <trkpt lat="45.09827" lon="4.73628">
        <ele>468.64099121094</ele>
        <time>2009-10-24T13:27:52Z</time>
      </trkpt>
      <trkpt lat="45.09793" lon="4.7366">
        <ele>467.34399414062</ele>
        <time>2009-10-24T13:27:59Z</time>
      </trkpt>
      <trkpt lat="45.09784" lon="4.73667">
        <ele>466.99499511719</ele>
        <time>2009-10-24T13:28:03Z</time>
      </trkpt>
      <trkpt lat="45.09776" lon="4.73672">
        <ele>466.5299987793</ele>
        <time>2009-10-24T13:28:07Z</time>
      </trkpt>
      <trkpt lat="45.0977" lon="4.73676">
        <ele>466.43701171875</ele>
        <time>2009-10-24T13:28:10Z</time>
      </trkpt>
      <trkpt lat="45.09761" lon="4.73683">
        <ele>465.81900024414</ele>
        <time>2009-10-24T13:28:14Z</time>
      </trkpt>
      <trkpt lat="45.09735" lon="4.73698">
        <ele>465.06500244141</ele>
        <time>2009-10-24T13:28:19Z</time>
      </trkpt>
      <trkpt lat="45.09703" lon="4.73712">
        <ele>464.77801513672</ele>
        <time>2009-10-24T13:28:23Z</time>
      </trkpt>
      <trkpt lat="45.09656" lon="4.73728">
        <ele>464.89700317383</ele>
        <time>2009-10-24T13:28:28Z</time>
      </trkpt>
      <trkpt lat="45.09622" lon="4.73735">
        <ele>464.95498657227</ele>
        <time>2009-10-24T13:28:32Z</time>
      </trkpt>
      <trkpt lat="45.09607" lon="4.73735">
        <ele>465.04299926758</ele>
        <time>2009-10-24T13:28:34Z</time>
      </trkpt>
      <trkpt lat="45.09566" lon="4.73727">
        <ele>465.39099121094</ele>
        <time>2009-10-24T13:28:40Z</time>
      </trkpt>
      <trkpt lat="45.09513" lon="4.73716">
        <ele>465.97399902344</ele>
        <time>2009-10-24T13:28:49Z</time>
      </trkpt>
      <trkpt lat="45.09475" lon="4.73709">
        <ele>466</ele>
        <time>2009-10-24T13:28:56Z</time>
      </trkpt>
      <trkpt lat="45.09465" lon="4.73708">
        <ele>465.97500610352</ele>
        <time>2009-10-24T13:28:58Z</time>
      </trkpt>
      <trkpt lat="45.09435" lon="4.73719">
        <ele>465.56298828125</ele>
        <time>2009-10-24T13:29:04Z</time>
      </trkpt>
      <trkpt lat="45.09402" lon="4.73744">
        <ele>464.4049987793</ele>
        <time>2009-10-24T13:29:10Z</time>
      </trkpt>
      <trkpt lat="45.09355" lon="4.73772">
        <ele>464.27600097656</ele>
        <time>2009-10-24T13:29:18Z</time>
      </trkpt>
      <trkpt lat="45.09318" lon="4.73787">
        <ele>463.76800537109</ele>
        <time>2009-10-24T13:29:24Z</time>
      </trkpt>
      <trkpt lat="45.09279" lon="4.73806">
        <ele>462.8630065918</ele>
        <time>2009-10-24T13:29:30Z</time>
      </trkpt>
      <trkpt lat="45.09231" lon="4.73838">
        <ele>460.81799316406</ele>
        <time>2009-10-24T13:29:37Z</time>
      </trkpt>
      <trkpt lat="45.09186" lon="4.73868">
        <ele>458.93200683594</ele>
        <time>2009-10-24T13:29:43Z</time>
      </trkpt>
      <trkpt lat="45.09135" lon="4.73907">
        <ele>457.53799438477</ele>
        <time>2009-10-24T13:29:50Z</time>
      </trkpt>
      <trkpt lat="45.09121" lon="4.73918">
        <ele>456.57598876953</ele>
        <time>2009-10-24T13:29:52Z</time>
      </trkpt>
      <trkpt lat="45.09098" lon="4.73933">
        <ele>455.65701293945</ele>
        <time>2009-10-24T13:29:55Z</time>
      </trkpt>
      <trkpt lat="45.09055" lon="4.73941">
        <ele>453.83700561523</ele>
        <time>2009-10-24T13:30:00Z</time>
      </trkpt>
      <trkpt lat="45.09046" lon="4.73943">
        <ele>453.83599853516</ele>
        <time>2009-10-24T13:30:01Z</time>
      </trkpt>
      <trkpt lat="45.09013" lon="4.73964">
        <ele>452.48901367188</ele>
        <time>2009-10-24T13:30:05Z</time>
      </trkpt>
      <trkpt lat="45.08953" lon="4.74012">
        <ele>450.89801025391</ele>
        <time>2009-10-24T13:30:13Z</time>
      </trkpt>
      <trkpt lat="45.08938" lon="4.74021">
        <ele>450.47198486328</ele>
        <time>2009-10-24T13:30:15Z</time>
      </trkpt>
      <trkpt lat="45.08884" lon="4.74036">
        <ele>449.96301269531</ele>
        <time>2009-10-24T13:30:22Z</time>
      </trkpt>
      <trkpt lat="45.08836" lon="4.74048">
        <ele>450.96099853516</ele>
        <time>2009-10-24T13:30:29Z</time>
      </trkpt>
      <trkpt lat="45.0883" lon="4.7405">
        <ele>451.10101318359</ele>
        <time>2009-10-24T13:30:30Z</time>
      </trkpt>
      <trkpt lat="45.08807" lon="4.74051">
        <ele>452.45098876953</ele>
        <time>2009-10-24T13:30:34Z</time>
      </trkpt>
      <trkpt lat="45.0878" lon="4.74045">
        <ele>454.35699462891</ele>
        <time>2009-10-24T13:30:39Z</time>
      </trkpt>
      <trkpt lat="45.08757" lon="4.74042">
        <ele>454.88400268555</ele>
        <time>2009-10-24T13:30:43Z</time>
      </trkpt>
      <trkpt lat="45.08713" lon="4.74044">
        <ele>454.36099243164</ele>
        <time>2009-10-24T13:30:50Z</time>
      </trkpt>
      <trkpt lat="45.08652" lon="4.74059">
        <ele>454.73498535156</ele>
        <time>2009-10-24T13:30:59Z</time>
      </trkpt>
      <trkpt lat="45.08602" lon="4.74075">
        <ele>455.81799316406</ele>
        <time>2009-10-24T13:31:07Z</time>
      </trkpt>
      <trkpt lat="45.08581" lon="4.74089">
        <ele>457.10800170898</ele>
        <time>2009-10-24T13:31:11Z</time>
      </trkpt>
      <trkpt lat="45.0854" lon="4.74133">
        <ele>457.25299072266</ele>
        <time>2009-10-24T13:31:20Z</time>
      </trkpt>
      <trkpt lat="45.08519" lon="4.74152">
        <ele>455.65600585938</ele>
        <time>2009-10-24T13:31:24Z</time>
      </trkpt>
      <trkpt lat="45.08504" lon="4.74159">
        <ele>454.75299072266</ele>
        <time>2009-10-24T13:31:26Z</time>
      </trkpt>
      <trkpt lat="45.08489" lon="4.74164">
        <ele>454.02200317383</ele>
        <time>2009-10-24T13:31:28Z</time>
      </trkpt>
      <trkpt lat="45.08473" lon="4.74167">
        <ele>453.13500976562</ele>
        <time>2009-10-24T13:31:30Z</time>
      </trkpt>
      <trkpt lat="45.08416" lon="4.74178">
        <ele>450.57699584961</ele>
        <time>2009-10-24T13:31:37Z</time>
      </trkpt>
      <trkpt lat="45.08372" lon="4.74179">
        <ele>447.45401000977</ele>
        <time>2009-10-24T13:31:42Z</time>
      </trkpt>
      <trkpt lat="45.08327" lon="4.7416">
        <ele>444.34799194336</ele>
        <time>2009-10-24T13:31:47Z</time>
      </trkpt>
      <trkpt lat="45.08289" lon="4.74149">
        <ele>442.97399902344</ele>
        <time>2009-10-24T13:31:51Z</time>
      </trkpt>
      <trkpt lat="45.08236" lon="4.74135">
        <ele>443.58200073242</ele>
        <time>2009-10-24T13:31:57Z</time>
      </trkpt>
      <trkpt lat="45.08197" lon="4.74117">
        <ele>443.03399658203</ele>
        <time>2009-10-24T13:32:02Z</time>
      </trkpt>
      <trkpt lat="45.08184" lon="4.7411">
        <ele>443.03100585938</ele>
        <time>2009-10-24T13:32:04Z</time>
      </trkpt>
      <trkpt lat="45.0817" lon="4.74106">
        <ele>443.07299804688</ele>
        <time>2009-10-24T13:32:06Z</time>
      </trkpt>
      <trkpt lat="45.0815" lon="4.74112">
        <ele>443.57400512695</ele>
        <time>2009-10-24T13:32:09Z</time>
      </trkpt>
      <trkpt lat="45.08138" lon="4.74122">
        <ele>443.24899291992</ele>
        <time>2009-10-24T13:32:11Z</time>
      </trkpt>
      <trkpt lat="45.08118" lon="4.74146">
        <ele>444.06298828125</ele>
        <time>2009-10-24T13:32:15Z</time>
      </trkpt>
      <trkpt lat="45.08104" lon="4.7418">
        <ele>445.33099365234</ele>
        <time>2009-10-24T13:32:20Z</time>
      </trkpt>
      <trkpt lat="45.08094" lon="4.74239">
        <ele>444.86700439453</ele>
        <time>2009-10-24T13:32:28Z</time>
      </trkpt>
      <trkpt lat="45.08078" lon="4.74279">
        <ele>443.75399780273</ele>
        <time>2009-10-24T13:32:33Z</time>
      </trkpt>
      <trkpt lat="45.08058" lon="4.74346">
        <ele>444.21899414062</ele>
        <time>2009-10-24T13:32:41Z</time>
      </trkpt>
      <trkpt lat="45.08054" lon="4.74361">
        <ele>444.50100708008</ele>
        <time>2009-10-24T13:32:43Z</time>
      </trkpt>
      <trkpt lat="45.08049" lon="4.74391">
        <ele>445.54901123047</ele>
        <time>2009-10-24T13:32:47Z</time>
      </trkpt>
      <trkpt lat="45.08052" lon="4.74441">
        <ele>447.65600585938</ele>
        <time>2009-10-24T13:32:54Z</time>
      </trkpt>
      <trkpt lat="45.08054" lon="4.74474">
        <ele>448.79901123047</ele>
        <time>2009-10-24T13:32:59Z</time>
      </trkpt>
      <trkpt lat="45.08054" lon="4.74488">
        <ele>449.11999511719</ele>
        <time>2009-10-24T13:33:01Z</time>
      </trkpt>
      <trkpt lat="45.0804" lon="4.74519">
        <ele>448.33200073242</ele>
        <time>2009-10-24T13:33:06Z</time>
      </trkpt>
      <trkpt lat="45.08019" lon="4.7453">
        <ele>447.93399047852</ele>
        <time>2009-10-24T13:33:10Z</time>
      </trkpt>
      <trkpt lat="45.07996" lon="4.74532">
        <ele>447.38000488281</ele>
        <time>2009-10-24T13:33:14Z</time>
      </trkpt>
      <trkpt lat="45.07986" lon="4.74532">
        <ele>447.26699829102</ele>
        <time>2009-10-24T13:33:16Z</time>
      </trkpt>
      <trkpt lat="45.07951" lon="4.74539">
        <ele>446.94000244141</ele>
        <time>2009-10-24T13:33:23Z</time>
      </trkpt>
      <trkpt lat="45.07929" lon="4.74543">
        <ele>446.36099243164</ele>
        <time>2009-10-24T13:33:28Z</time>
      </trkpt>
      <trkpt lat="45.07925" lon="4.74544">
        <ele>446.32901000977</ele>
        <time>2009-10-24T13:33:29Z</time>
      </trkpt>
      <trkpt lat="45.07906" lon="4.74553">
        <ele>445.94000244141</ele>
        <time>2009-10-24T13:33:33Z</time>
      </trkpt>
      <trkpt lat="45.0789" lon="4.74563">
        <ele>445.07501220703</ele>
        <time>2009-10-24T13:33:36Z</time>
      </trkpt>
      <trkpt lat="45.07872" lon="4.74576">
        <ele>443.40701293945</ele>
        <time>2009-10-24T13:33:39Z</time>
      </trkpt>
      <trkpt lat="45.07841" lon="4.7459">
        <ele>439.42599487305</ele>
        <time>2009-10-24T13:33:44Z</time>
      </trkpt>
      <trkpt lat="45.07822" lon="4.74605">
        <ele>436.38101196289</ele>
        <time>2009-10-24T13:33:47Z</time>
      </trkpt>
      <trkpt lat="45.07815" lon="4.74613">
        <ele>435.16101074219</ele>
        <time>2009-10-24T13:33:48Z</time>
      </trkpt>
      <trkpt lat="45.07767" lon="4.74674">
        <ele>429.57699584961</ele>
        <time>2009-10-24T13:33:54Z</time>
      </trkpt>
      <trkpt lat="45.0773" lon="4.74706">
        <ele>425.20300292969</ele>
        <time>2009-10-24T13:33:58Z</time>
      </trkpt>
      <trkpt lat="45.07684" lon="4.74741">
        <ele>419.47299194336</ele>
        <time>2009-10-24T13:34:02Z</time>
      </trkpt>
      <trkpt lat="45.07661" lon="4.74761">
        <ele>416.72601318359</ele>
        <time>2009-10-24T13:34:04Z</time>
      </trkpt>
      <trkpt lat="45.07601" lon="4.74831">
        <ele>410.10998535156</ele>
        <time>2009-10-24T13:34:10Z</time>
      </trkpt>
      <trkpt lat="45.07583" lon="4.74875">
        <ele>407.49301147461</ele>
        <time>2009-10-24T13:34:14Z</time>
      </trkpt>
      <trkpt lat="45.07581" lon="4.74889">
        <ele>405.66198730469</ele>
        <time>2009-10-24T13:34:15Z</time>
      </trkpt>
      <trkpt lat="45.07571" lon="4.74971">
        <ele>399.30801391602</ele>
        <time>2009-10-24T13:34:20Z</time>
      </trkpt>
      <trkpt lat="45.07568" lon="4.74987">
        <ele>399.14898681641</ele>
        <time>2009-10-24T13:34:21Z</time>
      </trkpt>
      <trkpt lat="45.07557" lon="4.75027">
        <ele>400.56799316406</ele>
        <time>2009-10-24T13:34:24Z</time>
      </trkpt>
      <trkpt lat="45.07549" lon="4.75095">
        <ele>400.29299926758</ele>
        <time>2009-10-24T13:34:30Z</time>
      </trkpt>
      <trkpt lat="45.0754" lon="4.75124">
        <ele>399.625</ele>
        <time>2009-10-24T13:34:33Z</time>
      </trkpt>
      <trkpt lat="45.07526" lon="4.7513">
        <ele>399.40200805664</ele>
        <time>2009-10-24T13:34:35Z</time>
      </trkpt>
      <trkpt lat="45.07518" lon="4.75131">
        <ele>399.1969909668</ele>
        <time>2009-10-24T13:34:36Z</time>
      </trkpt>
      <trkpt lat="45.0747" lon="4.75126">
        <ele>398.65301513672</ele>
        <time>2009-10-24T13:34:43Z</time>
      </trkpt>
      <trkpt lat="45.07463" lon="4.75125">
        <ele>398.66198730469</ele>
        <time>2009-10-24T13:34:44Z</time>
      </trkpt>
      <trkpt lat="45.07424" lon="4.7511">
        <ele>397.74600219727</ele>
        <time>2009-10-24T13:34:50Z</time>
      </trkpt>
      <trkpt lat="45.07412" lon="4.75103">
        <ele>397.61199951172</ele>
        <time>2009-10-24T13:34:52Z</time>
      </trkpt>
      <trkpt lat="45.07394" lon="4.7509">
        <ele>397.15701293945</ele>
        <time>2009-10-24T13:34:55Z</time>
      </trkpt>
      <trkpt lat="45.07361" lon="4.75057">
        <ele>393.49798583984</ele>
        <time>2009-10-24T13:35:00Z</time>
      </trkpt>
      <trkpt lat="45.07319" lon="4.75024">
        <ele>391.11401367188</ele>
        <time>2009-10-24T13:35:05Z</time>
      </trkpt>
      <trkpt lat="45.07253" lon="4.74988">
        <ele>388.04000854492</ele>
        <time>2009-10-24T13:35:12Z</time>
      </trkpt>
      <trkpt lat="45.07234" lon="4.7498">
        <ele>386.95199584961</ele>
        <time>2009-10-24T13:35:14Z</time>
      </trkpt>
      <trkpt lat="45.07174" lon="4.74963">
        <ele>382.63400268555</ele>
        <time>2009-10-24T13:35:20Z</time>
      </trkpt>
      <trkpt lat="45.07159" lon="4.7495">
        <ele>381.36801147461</ele>
        <time>2009-10-24T13:35:23Z</time>
      </trkpt>
      <trkpt lat="45.07162" lon="4.74935">
        <ele>380.07800292969</ele>
        <time>2009-10-24T13:35:25Z</time>
      </trkpt>
      <trkpt lat="45.07183" lon="4.74922">
        <ele>378.55599975586</ele>
        <time>2009-10-24T13:35:28Z</time>
      </trkpt>
      <trkpt lat="45.07201" lon="4.7492">
        <ele>376.65899658203</ele>
        <time>2009-10-24T13:35:30Z</time>
      </trkpt>
      <trkpt lat="45.07264" lon="4.74915">
        <ele>369.63101196289</ele>
        <time>2009-10-24T13:35:36Z</time>
      </trkpt>
      <trkpt lat="45.07274" lon="4.74914">
        <ele>367.77200317383</ele>
        <time>2009-10-24T13:35:37Z</time>
      </trkpt>
      <trkpt lat="45.07321" lon="4.74925">
        <ele>361.49899291992</ele>
        <time>2009-10-24T13:35:41Z</time>
      </trkpt>
      <trkpt lat="45.07375" lon="4.74927">
        <ele>351.93600463867</ele>
        <time>2009-10-24T13:35:45Z</time>
      </trkpt>
      <trkpt lat="45.07415" lon="4.74929">
        <ele>348.84600830078</ele>
        <time>2009-10-24T13:35:48Z</time>
      </trkpt>
      <trkpt lat="45.07426" lon="4.74932">
        <ele>347.98001098633</ele>
        <time>2009-10-24T13:35:49Z</time>
      </trkpt>
      <trkpt lat="45.07452" lon="4.74923">
        <ele>346.01098632812</ele>
        <time>2009-10-24T13:35:52Z</time>
      </trkpt>
      <trkpt lat="45.07467" lon="4.74894">
        <ele>344.60699462891</ele>
        <time>2009-10-24T13:35:55Z</time>
      </trkpt>
      <trkpt lat="45.07454" lon="4.74873">
        <ele>343.22698974609</ele>
        <time>2009-10-24T13:35:57Z</time>
      </trkpt>
      <trkpt lat="45.07433" lon="4.7484">
        <ele>338.82598876953</ele>
        <time>2009-10-24T13:36:00Z</time>
      </trkpt>
      <trkpt lat="45.07417" lon="4.74819">
        <ele>336.02499389648</ele>
        <time>2009-10-24T13:36:02Z</time>
      </trkpt>
      <trkpt lat="45.07393" lon="4.74767">
        <ele>329.62899780273</ele>
        <time>2009-10-24T13:36:06Z</time>
      </trkpt>
      <trkpt lat="45.07376" lon="4.74707">
        <ele>323.18499755859</ele>
        <time>2009-10-24T13:36:10Z</time>
      </trkpt>
      <trkpt lat="45.07352" lon="4.74666">
        <ele>319.50399780273</ele>
        <time>2009-10-24T13:36:14Z</time>
      </trkpt>
      <trkpt lat="45.07346" lon="4.74655">
        <ele>318.60900878906</ele>
        <time>2009-10-24T13:36:15Z</time>
      </trkpt>
      <trkpt lat="45.07335" lon="4.7463">
        <ele>316.31399536133</ele>
        <time>2009-10-24T13:36:17Z</time>
      </trkpt>
      <trkpt lat="45.07331" lon="4.74581">
        <ele>312.74301147461</ele>
        <time>2009-10-24T13:36:21Z</time>
      </trkpt>
      <trkpt lat="45.07328" lon="4.7456">
        <ele>311.71600341797</ele>
        <time>2009-10-24T13:36:23Z</time>
      </trkpt>
      <trkpt lat="45.07314" lon="4.74547">
        <ele>310.07800292969</ele>
        <time>2009-10-24T13:36:25Z</time>
      </trkpt>
      <trkpt lat="45.07296" lon="4.74536">
        <ele>308.35998535156</ele>
        <time>2009-10-24T13:36:27Z</time>
      </trkpt>
      <trkpt lat="45.07273" lon="4.745">
        <ele>307.36199951172</ele>
        <time>2009-10-24T13:36:31Z</time>
      </trkpt>
      <trkpt lat="45.07262" lon="4.74485">
        <ele>307.93899536133</ele>
        <time>2009-10-24T13:36:33Z</time>
      </trkpt>
      <trkpt lat="45.07242" lon="4.74462">
        <ele>309.95199584961</ele>
        <time>2009-10-24T13:36:37Z</time>
      </trkpt>
      <trkpt lat="45.07219" lon="4.74427">
        <ele>310.74899291992</ele>
        <time>2009-10-24T13:36:42Z</time>
      </trkpt>
      <trkpt lat="45.07209" lon="4.74413">
        <ele>310.78601074219</ele>
        <time>2009-10-24T13:36:45Z</time>
      </trkpt>
      <trkpt lat="45.07203" lon="4.74401">
        <ele>310.45300292969</ele>
        <time>2009-10-24T13:36:49Z</time>
      </trkpt>
      <trkpt lat="45.07196" lon="4.74389">
        <ele>310.04000854492</ele>
        <time>2009-10-24T13:36:55Z</time>
      </trkpt>
      <trkpt lat="45.0719" lon="4.74375">
        <ele>308.8630065918</ele>
        <time>2009-10-24T13:37:02Z</time>
      </trkpt>
      <trkpt lat="45.07185" lon="4.74361">
        <ele>307.39300537109</ele>
        <time>2009-10-24T13:37:06Z</time>
      </trkpt>
      <trkpt lat="45.07184" lon="4.74354">
        <ele>306.73498535156</ele>
        <time>2009-10-24T13:37:07Z</time>
      </trkpt>
      <trkpt lat="45.07184" lon="4.74325">
        <ele>304.25100708008</ele>
        <time>2009-10-24T13:37:10Z</time>
      </trkpt>
      <trkpt lat="45.07173" lon="4.74284">
        <ele>299.92098999023</ele>
        <time>2009-10-24T13:37:14Z</time>
      </trkpt>
      <trkpt lat="45.07163" lon="4.74263">
        <ele>295.59100341797</ele>
        <time>2009-10-24T13:37:17Z</time>
      </trkpt>
      <trkpt lat="45.07164" lon="4.74239">
        <ele>293.05099487305</ele>
        <time>2009-10-24T13:37:19Z</time>
      </trkpt>
      <trkpt lat="45.07186" lon="4.74173">
        <ele>285.35501098633</ele>
        <time>2009-10-24T13:37:24Z</time>
      </trkpt>
      <trkpt lat="45.07188" lon="4.74134">
        <ele>282.59201049805</ele>
        <time>2009-10-24T13:37:27Z</time>
      </trkpt>
      <trkpt lat="45.07175" lon="4.74093">
        <ele>278.8219909668</ele>
        <time>2009-10-24T13:37:30Z</time>
      </trkpt>
      <trkpt lat="45.07139" lon="4.74007">
        <ele>267.25299072266</ele>
        <time>2009-10-24T13:37:35Z</time>
      </trkpt>
      <trkpt lat="45.07089" lon="4.73922">
        <ele>262.29299926758</ele>
        <time>2009-10-24T13:37:40Z</time>
      </trkpt>
      <trkpt lat="45.0708" lon="4.73908">
        <ele>262.73498535156</ele>
        <time>2009-10-24T13:37:41Z</time>
      </trkpt>
      <trkpt lat="45.07039" lon="4.7387">
        <ele>260.14700317383</ele>
        <time>2009-10-24T13:37:45Z</time>
      </trkpt>
      <trkpt lat="45.06987" lon="4.73809">
        <ele>255.10200500488</ele>
        <time>2009-10-24T13:37:50Z</time>
      </trkpt>
      <trkpt lat="45.06939" lon="4.73777">
        <ele>249.84800720215</ele>
        <time>2009-10-24T13:37:54Z</time>
      </trkpt>
      <trkpt lat="45.06874" lon="4.73732">
        <ele>240.63800048828</ele>
        <time>2009-10-24T13:37:59Z</time>
      </trkpt>
      <trkpt lat="45.06854" lon="4.73718">
        <ele>239.06300354004</ele>
        <time>2009-10-24T13:38:01Z</time>
      </trkpt>
      <trkpt lat="45.06847" lon="4.73714">
        <ele>238.11000061035</ele>
        <time>2009-10-24T13:38:02Z</time>
      </trkpt>
      <trkpt lat="45.06836" lon="4.73716">
        <ele>236.26400756836</ele>
        <time>2009-10-24T13:38:05Z</time>
      </trkpt>
      <trkpt lat="45.06833" lon="4.73735">
        <ele>233.64100646973</ele>
        <time>2009-10-24T13:38:08Z</time>
      </trkpt>
      <trkpt lat="45.06834" lon="4.73743">
        <ele>232.87199401856</ele>
        <time>2009-10-24T13:38:09Z</time>
      </trkpt>
      <trkpt lat="45.06845" lon="4.73796">
        <ele>228.42999267578</ele>
        <time>2009-10-24T13:38:15Z</time>
      </trkpt>
      <trkpt lat="45.06846" lon="4.73803">
        <ele>227.54600524902</ele>
        <time>2009-10-24T13:38:16Z</time>
      </trkpt>
      <trkpt lat="45.06861" lon="4.73836">
        <ele>222.36599731445</ele>
        <time>2009-10-24T13:38:21Z</time>
      </trkpt>
      <trkpt lat="45.0687" lon="4.73863">
        <ele>217.71499633789</ele>
        <time>2009-10-24T13:38:25Z</time>
      </trkpt>
      <trkpt lat="45.06872" lon="4.73878">
        <ele>215.55099487305</ele>
        <time>2009-10-24T13:38:28Z</time>
      </trkpt>
      <trkpt lat="45.06871" lon="4.73901">
        <ele>214.68800354004</ele>
        <time>2009-10-24T13:38:33Z</time>
      </trkpt>
      <trkpt lat="45.06871" lon="4.73905">
        <ele>214.62600708008</ele>
        <time>2009-10-24T13:38:34Z</time>
      </trkpt>
      <trkpt lat="45.0687" lon="4.73911">
        <ele>214.65800476074</ele>
        <time>2009-10-24T13:38:39Z</time>
      </trkpt>
      <trkpt lat="45.06867" lon="4.73909">
        <ele>214.04100036621</ele>
        <time>2009-10-24T13:39:00Z</time>
      </trkpt>
      <trkpt lat="45.06868" lon="4.7391">
        <ele>214.67500305176</ele>
        <time>2009-10-24T13:39:13Z</time>
      </trkpt>
      <trkpt lat="45.06871" lon="4.73912">
        <ele>214.6549987793</ele>
        <time>2009-10-24T13:39:23Z</time>
      </trkpt>
      <trkpt lat="45.06871" lon="4.73912">
        <ele>214.62899780273</ele>
        <time>2009-10-24T13:39:26Z</time>
      </trkpt>
      <trkpt lat="45.06871" lon="4.73912">
        <ele>214.83399963379</ele>
        <time>2009-10-24T13:39:43Z</time>
      </trkpt>
      <trkpt lat="45.06872" lon="4.73911">
        <ele>214.90199279785</ele>
        <time>2009-10-24T13:40:04Z</time>
      </trkpt>
      <trkpt lat="45.0687" lon="4.73913">
        <ele>214.94599914551</ele>
        <time>2009-10-24T13:40:29Z</time>
      </trkpt>
      <trkpt lat="45.06869" lon="4.73916">
        <ele>215.06100463867</ele>
        <time>2009-10-24T13:40:33Z</time>
      </trkpt>
      <trkpt lat="45.06867" lon="4.73935">
        <ele>215.63200378418</ele>
        <time>2009-10-24T13:40:40Z</time>
      </trkpt>
      <trkpt lat="45.06873" lon="4.73948">
        <ele>215.86700439453</ele>
        <time>2009-10-24T13:40:44Z</time>
      </trkpt>
      <trkpt lat="45.06884" lon="4.73976">
        <ele>215.97700500488</ele>
        <time>2009-10-24T13:40:51Z</time>
      </trkpt>
      <trkpt lat="45.06874" lon="4.73997">
        <ele>216.07299804688</ele>
        <time>2009-10-24T13:40:56Z</time>
      </trkpt>
      <trkpt lat="45.0685" lon="4.74038">
        <ele>216.26699829102</ele>
        <time>2009-10-24T13:41:05Z</time>
      </trkpt>
      <trkpt lat="45.06829" lon="4.74073">
        <ele>216.86999511719</ele>
        <time>2009-10-24T13:41:12Z</time>
      </trkpt>
      <trkpt lat="45.0682" lon="4.74088">
        <ele>217.1309967041</ele>
        <time>2009-10-24T13:41:15Z</time>
      </trkpt>
      <trkpt lat="45.0681" lon="4.74102">
        <ele>217.14999389648</ele>
        <time>2009-10-24T13:41:18Z</time>
      </trkpt>
      <trkpt lat="45.06787" lon="4.74131">
        <ele>217.01499938965</ele>
        <time>2009-10-24T13:41:25Z</time>
      </trkpt>
      <trkpt lat="45.0677" lon="4.74158">
        <ele>217.51100158691</ele>
        <time>2009-10-24T13:41:31Z</time>
      </trkpt>
      <trkpt lat="45.06764" lon="4.74168">
        <ele>217.75900268555</ele>
        <time>2009-10-24T13:41:33Z</time>
      </trkpt>
      <trkpt lat="45.06738" lon="4.74196">
        <ele>218.09599304199</ele>
        <time>2009-10-24T13:41:40Z</time>
      </trkpt>
      <trkpt lat="45.0673" lon="4.74204">
        <ele>218.20100402832</ele>
        <time>2009-10-24T13:41:42Z</time>
      </trkpt>
      <trkpt lat="45.06721" lon="4.74212">
        <ele>217.86799621582</ele>
        <time>2009-10-24T13:41:44Z</time>
      </trkpt>
      <trkpt lat="45.06697" lon="4.74236">
        <ele>218.15400695801</ele>
        <time>2009-10-24T13:41:50Z</time>
      </trkpt>
      <trkpt lat="45.06668" lon="4.74261">
        <ele>218.47500610352</ele>
        <time>2009-10-24T13:41:57Z</time>
      </trkpt>
      <trkpt lat="45.06652" lon="4.74271">
        <ele>219.16999816894</ele>
        <time>2009-10-24T13:42:02Z</time>
      </trkpt>
      <trkpt lat="45.06653" lon="4.74264">
        <ele>220.21099853516</ele>
        <time>2009-10-24T13:42:05Z</time>
      </trkpt>
      <trkpt lat="45.06659" lon="4.74256">
        <ele>221.69000244141</ele>
        <time>2009-10-24T13:42:09Z</time>
      </trkpt>
      <trkpt lat="45.06668" lon="4.74234">
        <ele>224.13299560547</ele>
        <time>2009-10-24T13:42:16Z</time>
      </trkpt>
      <trkpt lat="45.06672" lon="4.74224">
        <ele>225.14599609375</ele>
        <time>2009-10-24T13:42:19Z</time>
      </trkpt>
      <trkpt lat="45.0668" lon="4.74205">
        <ele>227.24699401856</ele>
        <time>2009-10-24T13:42:25Z</time>
      </trkpt>
      <trkpt lat="45.06683" lon="4.74202">
        <ele>227.53900146484</ele>
        <time>2009-10-24T13:42:26Z</time>
      </trkpt>
      <trkpt lat="45.06687" lon="4.74195">
        <ele>228.49299621582</ele>
        <time>2009-10-24T13:42:28Z</time>
      </trkpt>
      <trkpt lat="45.06691" lon="4.7419">
        <ele>229.16200256348</ele>
        <time>2009-10-24T13:42:30Z</time>
      </trkpt>
      <trkpt lat="45.06696" lon="4.74184">
        <ele>229.97900390625</ele>
        <time>2009-10-24T13:42:32Z</time>
      </trkpt>
      <trkpt lat="45.06699" lon="4.74178">
        <ele>230.73399353027</ele>
        <time>2009-10-24T13:42:34Z</time>
      </trkpt>
      <trkpt lat="45.06712" lon="4.74154">
        <ele>232.94099426269</ele>
        <time>2009-10-24T13:42:41Z</time>
      </trkpt>
      <trkpt lat="45.06717" lon="4.74135">
        <ele>234.87100219727</ele>
        <time>2009-10-24T13:42:46Z</time>
      </trkpt>
      <trkpt lat="45.06718" lon="4.74127">
        <ele>235.54899597168</ele>
        <time>2009-10-24T13:42:48Z</time>
      </trkpt>
      <trkpt lat="45.06721" lon="4.74102">
        <ele>237.1130065918</ele>
        <time>2009-10-24T13:42:54Z</time>
      </trkpt>
      <trkpt lat="45.06723" lon="4.74068">
        <ele>238.0119934082</ele>
        <time>2009-10-24T13:43:01Z</time>
      </trkpt>
      <trkpt lat="45.06721" lon="4.74021">
        <ele>239.04899597168</ele>
        <time>2009-10-24T13:43:10Z</time>
      </trkpt>
      <trkpt lat="45.06715" lon="4.73992">
        <ele>240.36500549316</ele>
        <time>2009-10-24T13:43:16Z</time>
      </trkpt>
      <trkpt lat="45.06707" lon="4.7396">
        <ele>243.31599426269</ele>
        <time>2009-10-24T13:43:24Z</time>
      </trkpt>
      <trkpt lat="45.06695" lon="4.73937">
        <ele>245.1309967041</ele>
        <time>2009-10-24T13:43:31Z</time>
      </trkpt>
      <trkpt lat="45.0668" lon="4.73925">
        <ele>246.63999938965</ele>
        <time>2009-10-24T13:43:37Z</time>
      </trkpt>
      <trkpt lat="45.06664" lon="4.73927">
        <ele>248.82899475098</ele>
        <time>2009-10-24T13:43:43Z</time>
      </trkpt>
      <trkpt lat="45.06643" lon="4.73934">
        <ele>250.67700195312</ele>
        <time>2009-10-24T13:43:51Z</time>
      </trkpt>
      <trkpt lat="45.06624" lon="4.73932">
        <ele>252.28900146484</ele>
        <time>2009-10-24T13:43:58Z</time>
      </trkpt>
      <trkpt lat="45.06605" lon="4.73922">
        <ele>254.28500366211</ele>
        <time>2009-10-24T13:44:05Z</time>
      </trkpt>
      <trkpt lat="45.06583" lon="4.73914">
        <ele>256.75100708008</ele>
        <time>2009-10-24T13:44:13Z</time>
      </trkpt>
      <trkpt lat="45.06567" lon="4.73916">
        <ele>259.29501342773</ele>
        <time>2009-10-24T13:44:19Z</time>
      </trkpt>
      <trkpt lat="45.06551" lon="4.73921">
        <ele>262.43798828125</ele>
        <time>2009-10-24T13:44:25Z</time>
      </trkpt>
      <trkpt lat="45.06539" lon="4.73935">
        <ele>264.65899658203</ele>
        <time>2009-10-24T13:44:30Z</time>
      </trkpt>
      <trkpt lat="45.06536" lon="4.73942">
        <ele>265.91198730469</ele>
        <time>2009-10-24T13:44:32Z</time>
      </trkpt>
      <trkpt lat="45.06528" lon="4.73942">
        <ele>267.46701049805</ele>
        <time>2009-10-24T13:44:35Z</time>
      </trkpt>
      <trkpt lat="45.06527" lon="4.73932">
        <ele>268.59201049805</ele>
        <time>2009-10-24T13:44:38Z</time>
      </trkpt>
      <trkpt lat="45.0652" lon="4.73901">
        <ele>271.36099243164</ele>
        <time>2009-10-24T13:44:46Z</time>
      </trkpt>
      <trkpt lat="45.06518" lon="4.73886">
        <ele>272.76800537109</ele>
        <time>2009-10-24T13:44:50Z</time>
      </trkpt>
      <trkpt lat="45.06516" lon="4.73861">
        <ele>276.09799194336</ele>
        <time>2009-10-24T13:44:56Z</time>
      </trkpt>
      <trkpt lat="45.06517" lon="4.73839">
        <ele>278.62600708008</ele>
        <time>2009-10-24T13:45:01Z</time>
      </trkpt>
      <trkpt lat="45.06516" lon="4.73826">
        <ele>280.01800537109</ele>
        <time>2009-10-24T13:45:05Z</time>
      </trkpt>
      <trkpt lat="45.06516" lon="4.73811">
        <ele>281.85598754883</ele>
        <time>2009-10-24T13:45:10Z</time>
      </trkpt>
      <trkpt lat="45.06512" lon="4.73797">
        <ele>283.17098999023</ele>
        <time>2009-10-24T13:45:15Z</time>
      </trkpt>
      <trkpt lat="45.06501" lon="4.73777">
        <ele>284.16400146484</ele>
        <time>2009-10-24T13:45:21Z</time>
      </trkpt>
      <trkpt lat="45.06492" lon="4.73763">
        <ele>285.73098754883</ele>
        <time>2009-10-24T13:45:26Z</time>
      </trkpt>
      <trkpt lat="45.06479" lon="4.73755">
        <ele>287.97799682617</ele>
        <time>2009-10-24T13:45:32Z</time>
      </trkpt>
      <trkpt lat="45.06467" lon="4.7376">
        <ele>289.74099731445</ele>
        <time>2009-10-24T13:45:37Z</time>
      </trkpt>
      <trkpt lat="45.06466" lon="4.73762">
        <ele>289.94900512695</ele>
        <time>2009-10-24T13:45:38Z</time>
      </trkpt>
      <trkpt lat="45.06466" lon="4.73774">
        <ele>291.25399780273</ele>
        <time>2009-10-24T13:45:43Z</time>
      </trkpt>
      <trkpt lat="45.06472" lon="4.73787">
        <ele>292.67599487305</ele>
        <time>2009-10-24T13:45:48Z</time>
      </trkpt>
      <trkpt lat="45.06479" lon="4.73801">
        <ele>294.29598999023</ele>
        <time>2009-10-24T13:45:54Z</time>
      </trkpt>
      <trkpt lat="45.06483" lon="4.73815">
        <ele>295.62100219727</ele>
        <time>2009-10-24T13:45:59Z</time>
      </trkpt>
      <trkpt lat="45.06484" lon="4.7384">
        <ele>297.80099487305</ele>
        <time>2009-10-24T13:46:07Z</time>
      </trkpt>
      <trkpt lat="45.0648" lon="4.7386">
        <ele>299.74899291992</ele>
        <time>2009-10-24T13:46:14Z</time>
      </trkpt>
      <trkpt lat="45.06477" lon="4.73873">
        <ele>301.36801147461</ele>
        <time>2009-10-24T13:46:19Z</time>
      </trkpt>
      <trkpt lat="45.06473" lon="4.73889">
        <ele>302.89898681641</ele>
        <time>2009-10-24T13:46:25Z</time>
      </trkpt>
      <trkpt lat="45.06467" lon="4.73906">
        <ele>304.6780090332</ele>
        <time>2009-10-24T13:46:31Z</time>
      </trkpt>
      <trkpt lat="45.06462" lon="4.73911">
        <ele>305.94000244141</ele>
        <time>2009-10-24T13:46:34Z</time>
      </trkpt>
      <trkpt lat="45.06456" lon="4.73904">
        <ele>307.60400390625</ele>
        <time>2009-10-24T13:46:39Z</time>
      </trkpt>
      <trkpt lat="45.06454" lon="4.73888">
        <ele>308.95001220703</ele>
        <time>2009-10-24T13:46:45Z</time>
      </trkpt>
      <trkpt lat="45.06451" lon="4.73868">
        <ele>311.00201416016</ele>
        <time>2009-10-24T13:46:52Z</time>
      </trkpt>
      <trkpt lat="45.06447" lon="4.73849">
        <ele>313.03698730469</ele>
        <time>2009-10-24T13:46:59Z</time>
      </trkpt>
      <trkpt lat="45.06443" lon="4.73837">
        <ele>314.13598632812</ele>
        <time>2009-10-24T13:47:03Z</time>
      </trkpt>
      <trkpt lat="45.06426" lon="4.7383">
        <ele>315.50500488281</ele>
        <time>2009-10-24T13:47:10Z</time>
      </trkpt>
      <trkpt lat="45.06408" lon="4.73835">
        <ele>317.41299438477</ele>
        <time>2009-10-24T13:47:17Z</time>
      </trkpt>
      <trkpt lat="45.06393" lon="4.73839">
        <ele>318.81399536133</ele>
        <time>2009-10-24T13:47:23Z</time>
      </trkpt>
      <trkpt lat="45.06377" lon="4.73837">
        <ele>320.49099731445</ele>
        <time>2009-10-24T13:47:29Z</time>
      </trkpt>
      <trkpt lat="45.06361" lon="4.73829">
        <ele>321.7919921875</ele>
        <time>2009-10-24T13:47:35Z</time>
      </trkpt>
      <trkpt lat="45.06348" lon="4.7382">
        <ele>323.17098999023</ele>
        <time>2009-10-24T13:47:41Z</time>
      </trkpt>
      <trkpt lat="45.06337" lon="4.73803">
        <ele>324.98699951172</ele>
        <time>2009-10-24T13:47:48Z</time>
      </trkpt>
      <trkpt lat="45.06332" lon="4.7378">
        <ele>326.94000244141</ele>
        <time>2009-10-24T13:47:55Z</time>
      </trkpt>
      <trkpt lat="45.06327" lon="4.73758">
        <ele>327.07501220703</ele>
        <time>2009-10-24T13:48:02Z</time>
      </trkpt>
      <trkpt lat="45.06329" lon="4.73732">
        <ele>327.85800170898</ele>
        <time>2009-10-24T13:48:09Z</time>
      </trkpt>
      <trkpt lat="45.06331" lon="4.73711">
        <ele>328.30200195312</ele>
        <time>2009-10-24T13:48:14Z</time>
      </trkpt>
      <trkpt lat="45.06332" lon="4.73684">
        <ele>329.92498779297</ele>
        <time>2009-10-24T13:48:21Z</time>
      </trkpt>
      <trkpt lat="45.06334" lon="4.73656">
        <ele>330.46701049805</ele>
        <time>2009-10-24T13:48:28Z</time>
      </trkpt>
      <trkpt lat="45.06335" lon="4.73627">
        <ele>331.78601074219</ele>
        <time>2009-10-24T13:48:35Z</time>
      </trkpt>
      <trkpt lat="45.06332" lon="4.73607">
        <ele>333.3039855957</ele>
        <time>2009-10-24T13:48:41Z</time>
      </trkpt>
      <trkpt lat="45.06329" lon="4.73594">
        <ele>334.82699584961</ele>
        <time>2009-10-24T13:48:45Z</time>
      </trkpt>
      <trkpt lat="45.06326" lon="4.73572">
        <ele>336.38598632812</ele>
        <time>2009-10-24T13:48:52Z</time>
      </trkpt>
      <trkpt lat="45.06326" lon="4.73553">
        <ele>337.85900878906</ele>
        <time>2009-10-24T13:48:58Z</time>
      </trkpt>
      <trkpt lat="45.06327" lon="4.73532">
        <ele>340.1369934082</ele>
        <time>2009-10-24T13:49:05Z</time>
      </trkpt>
      <trkpt lat="45.06321" lon="4.73512">
        <ele>341.89099121094</ele>
        <time>2009-10-24T13:49:12Z</time>
      </trkpt>
      <trkpt lat="45.06314" lon="4.73496">
        <ele>342.94500732422</ele>
        <time>2009-10-24T13:49:18Z</time>
      </trkpt>
      <trkpt lat="45.0631" lon="4.73478">
        <ele>344.65301513672</ele>
        <time>2009-10-24T13:49:24Z</time>
      </trkpt>
      <trkpt lat="45.0631" lon="4.73476">
        <ele>344.89300537109</ele>
        <time>2009-10-24T13:49:25Z</time>
      </trkpt>
      <trkpt lat="45.0631" lon="4.73459">
        <ele>346.64999389648</ele>
        <time>2009-10-24T13:49:31Z</time>
      </trkpt>
      <trkpt lat="45.0631" lon="4.73439">
        <ele>348.14999389648</ele>
        <time>2009-10-24T13:49:38Z</time>
      </trkpt>
      <trkpt lat="45.06314" lon="4.73419">
        <ele>350.13400268555</ele>
        <time>2009-10-24T13:49:45Z</time>
      </trkpt>
      <trkpt lat="45.06321" lon="4.73405">
        <ele>351.74798583984</ele>
        <time>2009-10-24T13:49:51Z</time>
      </trkpt>
      <trkpt lat="45.06326" lon="4.73391">
        <ele>353.49200439453</ele>
        <time>2009-10-24T13:49:57Z</time>
      </trkpt>
      <trkpt lat="45.06326" lon="4.73371">
        <ele>354.55999755859</ele>
        <time>2009-10-24T13:50:03Z</time>
      </trkpt>
      <trkpt lat="45.06325" lon="4.73368">
        <ele>354.81799316406</ele>
        <time>2009-10-24T13:50:04Z</time>
      </trkpt>
      <trkpt lat="45.06319" lon="4.73358">
        <ele>354.88800048828</ele>
        <time>2009-10-24T13:50:08Z</time>
      </trkpt>
      <trkpt lat="45.06305" lon="4.73335">
        <ele>355.43099975586</ele>
        <time>2009-10-24T13:50:16Z</time>
      </trkpt>
      <trkpt lat="45.06289" lon="4.73312">
        <ele>356.125</ele>
        <time>2009-10-24T13:50:24Z</time>
      </trkpt>
      <trkpt lat="45.06282" lon="4.73287">
        <ele>357.17098999023</ele>
        <time>2009-10-24T13:50:31Z</time>
      </trkpt>
      <trkpt lat="45.06279" lon="4.73255">
        <ele>358.60101318359</ele>
        <time>2009-10-24T13:50:40Z</time>
      </trkpt>
      <trkpt lat="45.06281" lon="4.73236">
        <ele>359.78698730469</ele>
        <time>2009-10-24T13:50:47Z</time>
      </trkpt>
      <trkpt lat="45.06281" lon="4.73233">
        <ele>359.91900634766</ele>
        <time>2009-10-24T13:50:49Z</time>
      </trkpt>
      <trkpt lat="45.06284" lon="4.73228">
        <ele>360.22601318359</ele>
        <time>2009-10-24T13:50:54Z</time>
      </trkpt>
      <trkpt lat="45.06282" lon="4.73228">
        <ele>360.0719909668</ele>
        <time>2009-10-24T13:51:15Z</time>
      </trkpt>
      <trkpt lat="45.06281" lon="4.73228">
        <ele>360.40899658203</ele>
        <time>2009-10-24T13:51:24Z</time>
      </trkpt>
      <trkpt lat="45.06282" lon="4.73228">
        <ele>360.16101074219</ele>
        <time>2009-10-24T13:51:30Z</time>
      </trkpt>
      <trkpt lat="45.06282" lon="4.73228">
        <ele>360.1969909668</ele>
        <time>2009-10-24T13:51:32Z</time>
      </trkpt>
      <trkpt lat="45.06281" lon="4.73228">
        <ele>360.19500732422</ele>
        <time>2009-10-24T13:51:33Z</time>
      </trkpt>
      <trkpt lat="45.06281" lon="4.73229">
        <ele>359.9580078125</ele>
        <time>2009-10-24T13:51:52Z</time>
      </trkpt>
      <trkpt lat="45.06281" lon="4.73227">
        <ele>360.01998901367</ele>
        <time>2009-10-24T13:52:41Z</time>
      </trkpt>
      <trkpt lat="45.06284" lon="4.73229">
        <ele>364.19400024414</ele>
        <time>2009-10-24T13:53:30Z</time>
      </trkpt>
      <trkpt lat="45.06284" lon="4.73229">
        <ele>364.31600952148</ele>
        <time>2009-10-24T13:53:31Z</time>
      </trkpt>
      <trkpt lat="45.06282" lon="4.73229">
        <ele>360.48498535156</ele>
        <time>2009-10-24T13:54:03Z</time>
      </trkpt>
      <trkpt lat="45.06282" lon="4.73229">
        <ele>360.04901123047</ele>
        <time>2009-10-24T13:54:09Z</time>
      </trkpt>
      <trkpt lat="45.0628" lon="4.73229">
        <ele>359.92700195312</ele>
        <time>2009-10-24T13:54:21Z</time>
      </trkpt>
      <trkpt lat="45.0628" lon="4.73229">
        <ele>360.06799316406</ele>
        <time>2009-10-24T13:54:25Z</time>
      </trkpt>
      <trkpt lat="45.06279" lon="4.73229">
        <ele>359.94900512695</ele>
        <time>2009-10-24T13:54:45Z</time>
      </trkpt>
      <trkpt lat="45.0628" lon="4.73229">
        <ele>359.95599365234</ele>
        <time>2009-10-24T13:54:49Z</time>
      </trkpt>
      <trkpt lat="45.0628" lon="4.73228">
        <ele>359.88000488281</ele>
        <time>2009-10-24T13:55:24Z</time>
      </trkpt>
      <trkpt lat="45.0628" lon="4.73227">
        <ele>360.08599853516</ele>
        <time>2009-10-24T13:55:27Z</time>
      </trkpt>
      <trkpt lat="45.06279" lon="4.73223">
        <ele>359.98599243164</ele>
        <time>2009-10-24T13:55:34Z</time>
      </trkpt>
      <trkpt lat="45.06279" lon="4.73224">
        <ele>359.92498779297</ele>
        <time>2009-10-24T13:55:48Z</time>
      </trkpt>
      <trkpt lat="45.06268" lon="4.73221">
        <ele>359.00201416016</ele>
        <time>2009-10-24T13:55:53Z</time>
      </trkpt>
      <trkpt lat="45.06264" lon="4.73219">
        <ele>358.57000732422</ele>
        <time>2009-10-24T13:55:54Z</time>
      </trkpt>
      <trkpt lat="45.06246" lon="4.73211">
        <ele>357.26699829102</ele>
        <time>2009-10-24T13:55:58Z</time>
      </trkpt>
      <trkpt lat="45.0624" lon="4.73208">
        <ele>356.9169921875</ele>
        <time>2009-10-24T13:55:59Z</time>
      </trkpt>
      <trkpt lat="45.06224" lon="4.73194">
        <ele>355.20199584961</ele>
        <time>2009-10-24T13:56:02Z</time>
      </trkpt>
      <trkpt lat="45.06218" lon="4.73186">
        <ele>354.87799072266</ele>
        <time>2009-10-24T13:56:03Z</time>
      </trkpt>
      <trkpt lat="45.06197" lon="4.73162">
        <ele>353.22500610352</ele>
        <time>2009-10-24T13:56:06Z</time>
      </trkpt>
      <trkpt lat="45.06158" lon="4.73137">
        <ele>349.94900512695</ele>
        <time>2009-10-24T13:56:10Z</time>
      </trkpt>
      <trkpt lat="45.06129" lon="4.73131">
        <ele>346.90798950195</ele>
        <time>2009-10-24T13:56:13Z</time>
      </trkpt>
      <trkpt lat="45.0612" lon="4.73118">
        <ele>344.93600463867</ele>
        <time>2009-10-24T13:56:17Z</time>
      </trkpt>
      <trkpt lat="45.06131" lon="4.73116">
        <ele>343.84899902344</ele>
        <time>2009-10-24T13:56:19Z</time>
      </trkpt>
      <trkpt lat="45.06169" lon="4.73119">
        <ele>341.65399169922</ele>
        <time>2009-10-24T13:56:24Z</time>
      </trkpt>
      <trkpt lat="45.06196" lon="4.73122">
        <ele>339.18399047852</ele>
        <time>2009-10-24T13:56:27Z</time>
      </trkpt>
      <trkpt lat="45.06229" lon="4.73137">
        <ele>335.75500488281</ele>
        <time>2009-10-24T13:56:31Z</time>
      </trkpt>
      <trkpt lat="45.06248" lon="4.73135">
        <ele>333.78201293945</ele>
        <time>2009-10-24T13:56:34Z</time>
      </trkpt>
      <trkpt lat="45.06253" lon="4.73116">
        <ele>333.12399291992</ele>
        <time>2009-10-24T13:56:36Z</time>
      </trkpt>
      <trkpt lat="45.06254" lon="4.73093">
        <ele>331.81698608398</ele>
        <time>2009-10-24T13:56:38Z</time>
      </trkpt>
      <trkpt lat="45.06255" lon="4.73055">
        <ele>329.52099609375</ele>
        <time>2009-10-24T13:56:41Z</time>
      </trkpt>
      <trkpt lat="45.06245" lon="4.73006">
        <ele>326.8030090332</ele>
        <time>2009-10-24T13:56:45Z</time>
      </trkpt>
      <trkpt lat="45.06239" lon="4.72972">
        <ele>323.14401245117</ele>
        <time>2009-10-24T13:56:48Z</time>
      </trkpt>
      <trkpt lat="45.06231" lon="4.72966">
        <ele>322.9169921875</ele>
        <time>2009-10-24T13:56:49Z</time>
      </trkpt>
      <trkpt lat="45.06208" lon="4.72952">
        <ele>320.79598999023</ele>
        <time>2009-10-24T13:56:52Z</time>
      </trkpt>
      <trkpt lat="45.06166" lon="4.72916">
        <ele>316.17401123047</ele>
        <time>2009-10-24T13:56:57Z</time>
      </trkpt>
      <trkpt lat="45.06138" lon="4.72886">
        <ele>313.6969909668</ele>
        <time>2009-10-24T13:57:01Z</time>
      </trkpt>
      <trkpt lat="45.06103" lon="4.72834">
        <ele>309.32699584961</ele>
        <time>2009-10-24T13:57:06Z</time>
      </trkpt>
      <trkpt lat="45.06092" lon="4.72815">
        <ele>307.55999755859</ele>
        <time>2009-10-24T13:57:08Z</time>
      </trkpt>
      <trkpt lat="45.06081" lon="4.72783">
        <ele>305.54998779297</ele>
        <time>2009-10-24T13:57:11Z</time>
      </trkpt>
      <trkpt lat="45.06054" lon="4.72712">
        <ele>300.60699462891</ele>
        <time>2009-10-24T13:57:17Z</time>
      </trkpt>
      <trkpt lat="45.06037" lon="4.72677">
        <ele>297.83499145508</ele>
        <time>2009-10-24T13:57:20Z</time>
      </trkpt>
      <trkpt lat="45.06031" lon="4.72645">
        <ele>295.41000366211</ele>
        <time>2009-10-24T13:57:23Z</time>
      </trkpt>
      <trkpt lat="45.06044" lon="4.72632">
        <ele>294.90701293945</ele>
        <time>2009-10-24T13:57:25Z</time>
      </trkpt>
      <trkpt lat="45.06067" lon="4.72622">
        <ele>293.82998657227</ele>
        <time>2009-10-24T13:57:28Z</time>
      </trkpt>
      <trkpt lat="45.06084" lon="4.72617">
        <ele>292.62701416016</ele>
        <time>2009-10-24T13:57:30Z</time>
      </trkpt>
      <trkpt lat="45.06098" lon="4.72594">
        <ele>289.7080078125</ele>
        <time>2009-10-24T13:57:34Z</time>
      </trkpt>
      <trkpt lat="45.06087" lon="4.72583">
        <ele>287.5119934082</ele>
        <time>2009-10-24T13:57:37Z</time>
      </trkpt>
      <trkpt lat="45.06085" lon="4.72583">
        <ele>287.25900268555</ele>
        <time>2009-10-24T13:57:38Z</time>
      </trkpt>
      <trkpt lat="45.0608" lon="4.72587">
        <ele>285.82699584961</ele>
        <time>2009-10-24T13:57:43Z</time>
      </trkpt>
      <trkpt lat="45.06073" lon="4.72597">
        <ele>285.28601074219</ele>
        <time>2009-10-24T13:57:48Z</time>
      </trkpt>
      <trkpt lat="45.0606" lon="4.72611">
        <ele>284.72900390625</ele>
        <time>2009-10-24T13:57:53Z</time>
      </trkpt>
      <trkpt lat="45.06053" lon="4.72614">
        <ele>284.51501464844</ele>
        <time>2009-10-24T13:57:55Z</time>
      </trkpt>
      <trkpt lat="45.06044" lon="4.72616">
        <ele>284.25</ele>
        <time>2009-10-24T13:57:57Z</time>
      </trkpt>
      <trkpt lat="45.06036" lon="4.72618">
        <ele>283.77499389648</ele>
        <time>2009-10-24T13:57:59Z</time>
      </trkpt>
      <trkpt lat="45.06022" lon="4.72626">
        <ele>283.69799804688</ele>
        <time>2009-10-24T13:58:02Z</time>
      </trkpt>
      <trkpt lat="45.06007" lon="4.72654">
        <ele>282.9469909668</ele>
        <time>2009-10-24T13:58:07Z</time>
      </trkpt>
      <trkpt lat="45.06009" lon="4.7268">
        <ele>282.4280090332</ele>
        <time>2009-10-24T13:58:10Z</time>
      </trkpt>
      <trkpt lat="45.06012" lon="4.72689">
        <ele>282.51098632812</ele>
        <time>2009-10-24T13:58:11Z</time>
      </trkpt>
      <trkpt lat="45.0603" lon="4.72741">
        <ele>280.77499389648</ele>
        <time>2009-10-24T13:58:17Z</time>
      </trkpt>
      <trkpt lat="45.06042" lon="4.72788">
        <ele>279.65600585938</ele>
        <time>2009-10-24T13:58:22Z</time>
      </trkpt>
      <trkpt lat="45.06054" lon="4.72851">
        <ele>277.86700439453</ele>
        <time>2009-10-24T13:58:28Z</time>
      </trkpt>
      <trkpt lat="45.06069" lon="4.72891">
        <ele>276.45999145508</ele>
        <time>2009-10-24T13:58:32Z</time>
      </trkpt>
      <trkpt lat="45.06079" lon="4.7291">
        <ele>275.93301391602</ele>
        <time>2009-10-24T13:58:34Z</time>
      </trkpt>
      <trkpt lat="45.06087" lon="4.72943">
        <ele>275.29598999023</ele>
        <time>2009-10-24T13:58:37Z</time>
      </trkpt>
      <trkpt lat="45.06077" lon="4.7296">
        <ele>274.82699584961</ele>
        <time>2009-10-24T13:58:39Z</time>
      </trkpt>
      <trkpt lat="45.0606" lon="4.72957">
        <ele>274.36801147461</ele>
        <time>2009-10-24T13:58:41Z</time>
      </trkpt>
      <trkpt lat="45.06036" lon="4.72957">
        <ele>274.34799194336</ele>
        <time>2009-10-24T13:58:44Z</time>
      </trkpt>
      <trkpt lat="45.06016" lon="4.72977">
        <ele>272.27099609375</ele>
        <time>2009-10-24T13:58:47Z</time>
      </trkpt>
      <trkpt lat="45.05986" lon="4.73039">
        <ele>269.33200073242</ele>
        <time>2009-10-24T13:58:53Z</time>
      </trkpt>
      <trkpt lat="45.05952" lon="4.7308">
        <ele>268.28298950195</ele>
        <time>2009-10-24T13:58:58Z</time>
      </trkpt>
      <trkpt lat="45.05922" lon="4.73107">
        <ele>267.11401367188</ele>
        <time>2009-10-24T13:59:02Z</time>
      </trkpt>
      <trkpt lat="45.05889" lon="4.73132">
        <ele>265.75399780273</ele>
        <time>2009-10-24T13:59:06Z</time>
      </trkpt>
      <trkpt lat="45.05869" lon="4.73174">
        <ele>263.97601318359</ele>
        <time>2009-10-24T13:59:10Z</time>
      </trkpt>
      <trkpt lat="45.05869" lon="4.73187">
        <ele>263.85299682617</ele>
        <time>2009-10-24T13:59:11Z</time>
      </trkpt>
      <trkpt lat="45.05872" lon="4.73214">
        <ele>262.91101074219</ele>
        <time>2009-10-24T13:59:13Z</time>
      </trkpt>
      <trkpt lat="45.0587" lon="4.73241">
        <ele>262.11700439453</ele>
        <time>2009-10-24T13:59:15Z</time>
      </trkpt>
      <trkpt lat="45.05859" lon="4.73261">
        <ele>261.18600463867</ele>
        <time>2009-10-24T13:59:17Z</time>
      </trkpt>
      <trkpt lat="45.05849" lon="4.73264">
        <ele>261.39801025391</ele>
        <time>2009-10-24T13:59:18Z</time>
      </trkpt>
      <trkpt lat="45.05819" lon="4.73285">
        <ele>260.82400512695</ele>
        <time>2009-10-24T13:59:22Z</time>
      </trkpt>
      <trkpt lat="45.05817" lon="4.73304">
        <ele>260.57598876953</ele>
        <time>2009-10-24T13:59:24Z</time>
      </trkpt>
      <trkpt lat="45.05819" lon="4.73313">
        <ele>260.56399536133</ele>
        <time>2009-10-24T13:59:25Z</time>
      </trkpt>
      <trkpt lat="45.05824" lon="4.73328">
        <ele>261.20700073242</ele>
        <time>2009-10-24T13:59:27Z</time>
      </trkpt>
      <trkpt lat="45.05827" lon="4.73361">
        <ele>262.29299926758</ele>
        <time>2009-10-24T13:59:33Z</time>
      </trkpt>
      <trkpt lat="45.0583" lon="4.73376">
        <ele>263.07299804688</ele>
        <time>2009-10-24T13:59:37Z</time>
      </trkpt>
      <trkpt lat="45.0583" lon="4.73392">
        <ele>263.66799926758</ele>
        <time>2009-10-24T13:59:42Z</time>
      </trkpt>
      <trkpt lat="45.05831" lon="4.73409">
        <ele>264.15600585938</ele>
        <time>2009-10-24T13:59:48Z</time>
      </trkpt>
      <trkpt lat="45.05829" lon="4.73433">
        <ele>265.05700683594</ele>
        <time>2009-10-24T13:59:56Z</time>
      </trkpt>
      <trkpt lat="45.05827" lon="4.73449">
        <ele>265.37600708008</ele>
        <time>2009-10-24T14:00:01Z</time>
      </trkpt>
      <trkpt lat="45.05822" lon="4.73482">
        <ele>266.18399047852</ele>
        <time>2009-10-24T14:00:09Z</time>
      </trkpt>
      <trkpt lat="45.05817" lon="4.73504">
        <ele>267.18600463867</ele>
        <time>2009-10-24T14:00:14Z</time>
      </trkpt>
      <trkpt lat="45.0581" lon="4.7353">
        <ele>268.11401367188</ele>
        <time>2009-10-24T14:00:20Z</time>
      </trkpt>
      <trkpt lat="45.05806" lon="4.7355">
        <ele>268.34399414062</ele>
        <time>2009-10-24T14:00:24Z</time>
      </trkpt>
      <trkpt lat="45.05811" lon="4.73585">
        <ele>269.31600952148</ele>
        <time>2009-10-24T14:00:30Z</time>
      </trkpt>
      <trkpt lat="45.05822" lon="4.73622">
        <ele>270.42999267578</ele>
        <time>2009-10-24T14:00:37Z</time>
      </trkpt>
      <trkpt lat="45.05845" lon="4.73671">
        <ele>272.28100585938</ele>
        <time>2009-10-24T14:00:47Z</time>
      </trkpt>
      <trkpt lat="45.05869" lon="4.73717">
        <ele>274.90600585938</ele>
        <time>2009-10-24T14:00:57Z</time>
      </trkpt>
      <trkpt lat="45.05894" lon="4.73761">
        <ele>276.29000854492</ele>
        <time>2009-10-24T14:01:07Z</time>
      </trkpt>
      <trkpt lat="45.05897" lon="4.73766">
        <ele>276.28698730469</ele>
        <time>2009-10-24T14:01:08Z</time>
      </trkpt>
      <trkpt lat="45.05902" lon="4.73797">
        <ele>277.60800170898</ele>
        <time>2009-10-24T14:01:14Z</time>
      </trkpt>
      <trkpt lat="45.059" lon="4.73808">
        <ele>277.85000610352</ele>
        <time>2009-10-24T14:01:16Z</time>
      </trkpt>
      <trkpt lat="45.05885" lon="4.73863">
        <ele>279.5719909668</ele>
        <time>2009-10-24T14:01:26Z</time>
      </trkpt>
      <trkpt lat="45.05875" lon="4.73907">
        <ele>281.07598876953</ele>
        <time>2009-10-24T14:01:34Z</time>
      </trkpt>
      <trkpt lat="45.05864" lon="4.73966">
        <ele>282.60198974609</ele>
        <time>2009-10-24T14:01:45Z</time>
      </trkpt>
      <trkpt lat="45.05853" lon="4.74003">
        <ele>283.64599609375</ele>
        <time>2009-10-24T14:01:52Z</time>
      </trkpt>
      <trkpt lat="45.0584" lon="4.74015">
        <ele>284.37399291992</ele>
        <time>2009-10-24T14:01:56Z</time>
      </trkpt>
      <trkpt lat="45.0582" lon="4.74017">
        <ele>285.51800537109</ele>
        <time>2009-10-24T14:02:01Z</time>
      </trkpt>
      <trkpt lat="45.05793" lon="4.74015">
        <ele>286.78900146484</ele>
        <time>2009-10-24T14:02:08Z</time>
      </trkpt>
      <trkpt lat="45.05768" lon="4.74015">
        <ele>287.96499633789</ele>
        <time>2009-10-24T14:02:14Z</time>
      </trkpt>
      <trkpt lat="45.05738" lon="4.74011">
        <ele>289.12100219727</ele>
        <time>2009-10-24T14:02:21Z</time>
      </trkpt>
      <trkpt lat="45.05698" lon="4.74003">
        <ele>290.79800415039</ele>
        <time>2009-10-24T14:02:31Z</time>
      </trkpt>
      <trkpt lat="45.05685" lon="4.74002">
        <ele>291.6549987793</ele>
        <time>2009-10-24T14:02:34Z</time>
      </trkpt>
      <trkpt lat="45.05668" lon="4.74016">
        <ele>292.22299194336</ele>
        <time>2009-10-24T14:02:39Z</time>
      </trkpt>
      <trkpt lat="45.05667" lon="4.74034">
        <ele>292.71301269531</ele>
        <time>2009-10-24T14:02:42Z</time>
      </trkpt>
      <trkpt lat="45.05677" lon="4.74052">
        <ele>293.62701416016</ele>
        <time>2009-10-24T14:02:46Z</time>
      </trkpt>
      <trkpt lat="45.05706" lon="4.74082">
        <ele>295.31201171875</ele>
        <time>2009-10-24T14:02:54Z</time>
      </trkpt>
      <trkpt lat="45.05731" lon="4.74114">
        <ele>296.77700805664</ele>
        <time>2009-10-24T14:03:02Z</time>
      </trkpt>
      <trkpt lat="45.05751" lon="4.74144">
        <ele>298.20999145508</ele>
        <time>2009-10-24T14:03:09Z</time>
      </trkpt>
      <trkpt lat="45.05777" lon="4.74169">
        <ele>299.81201171875</ele>
        <time>2009-10-24T14:03:17Z</time>
      </trkpt>
      <trkpt lat="45.0578" lon="4.74173">
        <ele>299.89001464844</ele>
        <time>2009-10-24T14:03:18Z</time>
      </trkpt>
      <trkpt lat="45.05802" lon="4.74213">
        <ele>301.59600830078</ele>
        <time>2009-10-24T14:03:27Z</time>
      </trkpt>
      <trkpt lat="45.05815" lon="4.74253">
        <ele>303.28900146484</ele>
        <time>2009-10-24T14:03:35Z</time>
      </trkpt>
      <trkpt lat="45.05816" lon="4.74286">
        <ele>304.08499145508</ele>
        <time>2009-10-24T14:03:41Z</time>
      </trkpt>
      <trkpt lat="45.05816" lon="4.74343">
        <ele>305.87899780273</ele>
        <time>2009-10-24T14:03:51Z</time>
      </trkpt>
      <trkpt lat="45.05814" lon="4.74399">
        <ele>307.94900512695</ele>
        <time>2009-10-24T14:04:01Z</time>
      </trkpt>
      <trkpt lat="45.0582" lon="4.74437">
        <ele>309.10501098633</ele>
        <time>2009-10-24T14:04:08Z</time>
      </trkpt>
      <trkpt lat="45.05825" lon="4.74481">
        <ele>311.03399658203</ele>
        <time>2009-10-24T14:04:16Z</time>
      </trkpt>
      <trkpt lat="45.05832" lon="4.74507">
        <ele>312.24499511719</ele>
        <time>2009-10-24T14:04:21Z</time>
      </trkpt>
      <trkpt lat="45.05835" lon="4.74538">
        <ele>313.00100708008</ele>
        <time>2009-10-24T14:04:27Z</time>
      </trkpt>
      <trkpt lat="45.0583" lon="4.74558">
        <ele>313.91000366211</ele>
        <time>2009-10-24T14:04:31Z</time>
      </trkpt>
      <trkpt lat="45.05835" lon="4.74585">
        <ele>314.77899169922</ele>
        <time>2009-10-24T14:04:36Z</time>
      </trkpt>
      <trkpt lat="45.05837" lon="4.7459">
        <ele>315.03399658203</ele>
        <time>2009-10-24T14:04:37Z</time>
      </trkpt>
      <trkpt lat="45.05848" lon="4.74613">
        <ele>315.91900634766</ele>
        <time>2009-10-24T14:04:42Z</time>
      </trkpt>
      <trkpt lat="45.05858" lon="4.74655">
        <ele>317.69198608398</ele>
        <time>2009-10-24T14:04:50Z</time>
      </trkpt>
      <trkpt lat="45.05873" lon="4.74694">
        <ele>318.75799560547</ele>
        <time>2009-10-24T14:04:58Z</time>
      </trkpt>
      <trkpt lat="45.05875" lon="4.747">
        <ele>318.98699951172</ele>
        <time>2009-10-24T14:04:59Z</time>
      </trkpt>
      <trkpt lat="45.05877" lon="4.74728">
        <ele>320.45199584961</ele>
        <time>2009-10-24T14:05:04Z</time>
      </trkpt>
      <trkpt lat="45.05875" lon="4.74739">
        <ele>320.51098632812</ele>
        <time>2009-10-24T14:05:06Z</time>
      </trkpt>
      <trkpt lat="45.05856" lon="4.74802">
        <ele>323.23400878906</ele>
        <time>2009-10-24T14:05:18Z</time>
      </trkpt>
      <trkpt lat="45.05854" lon="4.74807">
        <ele>323.20098876953</ele>
        <time>2009-10-24T14:05:19Z</time>
      </trkpt>
      <trkpt lat="45.05859" lon="4.74836">
        <ele>323.94299316406</ele>
        <time>2009-10-24T14:05:24Z</time>
      </trkpt>
      <trkpt lat="45.05872" lon="4.74854">
        <ele>325.66101074219</ele>
        <time>2009-10-24T14:05:29Z</time>
      </trkpt>
      <trkpt lat="45.05891" lon="4.74859">
        <ele>326.51501464844</ele>
        <time>2009-10-24T14:05:34Z</time>
      </trkpt>
      <trkpt lat="45.05936" lon="4.74858">
        <ele>328.82598876953</ele>
        <time>2009-10-24T14:05:45Z</time>
      </trkpt>
      <trkpt lat="45.05972" lon="4.74857">
        <ele>330.58499145508</ele>
        <time>2009-10-24T14:05:53Z</time>
      </trkpt>
      <trkpt lat="45.06004" lon="4.74844">
        <ele>331.74200439453</ele>
        <time>2009-10-24T14:06:01Z</time>
      </trkpt>
      <trkpt lat="45.06031" lon="4.74837">
        <ele>332.47698974609</ele>
        <time>2009-10-24T14:06:06Z</time>
      </trkpt>
      <trkpt lat="45.06063" lon="4.74838">
        <ele>334.47900390625</ele>
        <time>2009-10-24T14:06:14Z</time>
      </trkpt>
      <trkpt lat="45.06086" lon="4.74838">
        <ele>335.49499511719</ele>
        <time>2009-10-24T14:06:20Z</time>
      </trkpt>
      <trkpt lat="45.06094" lon="4.74837">
        <ele>336.31201171875</ele>
        <time>2009-10-24T14:06:22Z</time>
      </trkpt>
      <trkpt lat="45.06114" lon="4.7483">
        <ele>337.17300415039</ele>
        <time>2009-10-24T14:06:27Z</time>
      </trkpt>
      <trkpt lat="45.06144" lon="4.74803">
        <ele>338.57699584961</ele>
        <time>2009-10-24T14:06:35Z</time>
      </trkpt>
      <trkpt lat="45.06172" lon="4.74786">
        <ele>339.6969909668</ele>
        <time>2009-10-24T14:06:42Z</time>
      </trkpt>
      <trkpt lat="45.06211" lon="4.74775">
        <ele>341.5299987793</ele>
        <time>2009-10-24T14:06:52Z</time>
      </trkpt>
      <trkpt lat="45.06232" lon="4.7476">
        <ele>342.66500854492</ele>
        <time>2009-10-24T14:06:58Z</time>
      </trkpt>
      <trkpt lat="45.06258" lon="4.74728">
        <ele>344.16299438477</ele>
        <time>2009-10-24T14:07:06Z</time>
      </trkpt>
      <trkpt lat="45.06278" lon="4.74696">
        <ele>345.08801269531</ele>
        <time>2009-10-24T14:07:13Z</time>
      </trkpt>
      <trkpt lat="45.06295" lon="4.74691">
        <ele>346.35198974609</ele>
        <time>2009-10-24T14:07:18Z</time>
      </trkpt>
      <trkpt lat="45.06306" lon="4.74702">
        <ele>347.77398681641</ele>
        <time>2009-10-24T14:07:23Z</time>
      </trkpt>
      <trkpt lat="45.06312" lon="4.7471">
        <ele>348.1669921875</ele>
        <time>2009-10-24T14:07:28Z</time>
      </trkpt>
      <trkpt lat="45.06314" lon="4.74716">
        <ele>347.79998779297</ele>
        <time>2009-10-24T14:07:33Z</time>
      </trkpt>
      <trkpt lat="45.06308" lon="4.7472">
        <ele>347.7919921875</ele>
        <time>2009-10-24T14:07:37Z</time>
      </trkpt>
      <trkpt lat="45.06304" lon="4.74715">
        <ele>348.11898803711</ele>
        <time>2009-10-24T14:07:39Z</time>
      </trkpt>
      <trkpt lat="45.06302" lon="4.74709">
        <ele>348.5119934082</ele>
        <time>2009-10-24T14:07:41Z</time>
      </trkpt>
      <trkpt lat="45.06296" lon="4.74706">
        <ele>348.68600463867</ele>
        <time>2009-10-24T14:07:47Z</time>
      </trkpt>
      <trkpt lat="45.06295" lon="4.74705">
        <ele>348.76998901367</ele>
        <time>2009-10-24T14:08:29Z</time>
      </trkpt>
      <trkpt lat="45.06295" lon="4.74705">
        <ele>348.79699707031</ele>
        <time>2009-10-24T14:08:32Z</time>
      </trkpt>
      <trkpt lat="45.06295" lon="4.74704">
        <ele>348.64401245117</ele>
        <time>2009-10-24T14:08:34Z</time>
      </trkpt>
      <trkpt lat="45.06295" lon="4.74704">
        <ele>348.62100219727</ele>
        <time>2009-10-24T14:08:41Z</time>
      </trkpt>
      <trkpt lat="45.06295" lon="4.74704">
        <ele>348.8039855957</ele>
        <time>2009-10-24T14:08:43Z</time>
      </trkpt>
      <trkpt lat="45.06295" lon="4.74704">
        <ele>348.77801513672</ele>
        <time>2009-10-24T14:09:11Z</time>
      </trkpt>
      <trkpt lat="45.06295" lon="4.74705">
        <ele>348.9460144043</ele>
        <time>2009-10-24T14:09:16Z</time>
      </trkpt>
      <trkpt lat="45.06291" lon="4.74708">
        <ele>348.9169921875</ele>
        <time>2009-10-24T14:09:21Z</time>
      </trkpt>
      <trkpt lat="45.06292" lon="4.74708">
        <ele>348.74700927734</ele>
        <time>2009-10-24T14:09:33Z</time>
      </trkpt>
      <trkpt lat="45.06288" lon="4.74711">
        <ele>349.18499755859</ele>
        <time>2009-10-24T14:09:37Z</time>
      </trkpt>
      <trkpt lat="45.06276" lon="4.74719">
        <ele>350.11199951172</ele>
        <time>2009-10-24T14:09:43Z</time>
      </trkpt>
      <trkpt lat="45.06265" lon="4.74733">
        <ele>350.83200073242</ele>
        <time>2009-10-24T14:09:48Z</time>
      </trkpt>
      <trkpt lat="45.06255" lon="4.74748">
        <ele>351.32299804688</ele>
        <time>2009-10-24T14:09:53Z</time>
      </trkpt>
      <trkpt lat="45.0624" lon="4.74765">
        <ele>352.43499755859</ele>
        <time>2009-10-24T14:09:59Z</time>
      </trkpt>
      <trkpt lat="45.06212" lon="4.74785">
        <ele>353.5719909668</ele>
        <time>2009-10-24T14:10:07Z</time>
      </trkpt>
      <trkpt lat="45.06173" lon="4.74808">
        <ele>355.23098754883</ele>
        <time>2009-10-24T14:10:17Z</time>
      </trkpt>
      <trkpt lat="45.06151" lon="4.7483">
        <ele>356.47299194336</ele>
        <time>2009-10-24T14:10:23Z</time>
      </trkpt>
      <trkpt lat="45.06141" lon="4.74843">
        <ele>356.72198486328</ele>
        <time>2009-10-24T14:10:26Z</time>
      </trkpt>
      <trkpt lat="45.06116" lon="4.74857">
        <ele>357.93899536133</ele>
        <time>2009-10-24T14:10:32Z</time>
      </trkpt>
      <trkpt lat="45.06086" lon="4.74869">
        <ele>359.19400024414</ele>
        <time>2009-10-24T14:10:39Z</time>
      </trkpt>
      <trkpt lat="45.06054" lon="4.7487">
        <ele>360.3219909668</ele>
        <time>2009-10-24T14:10:46Z</time>
      </trkpt>
      <trkpt lat="45.06041" lon="4.74872">
        <ele>360.63500976562</ele>
        <time>2009-10-24T14:10:49Z</time>
      </trkpt>
      <trkpt lat="45.06028" lon="4.74878">
        <ele>360.92498779297</ele>
        <time>2009-10-24T14:10:52Z</time>
      </trkpt>
      <trkpt lat="45.06001" lon="4.749">
        <ele>362.64498901367</ele>
        <time>2009-10-24T14:10:59Z</time>
      </trkpt>
      <trkpt lat="45.05997" lon="4.74903">
        <ele>362.71099853516</ele>
        <time>2009-10-24T14:11:00Z</time>
      </trkpt>
      <trkpt lat="45.05958" lon="4.7492">
        <ele>364.15701293945</ele>
        <time>2009-10-24T14:11:09Z</time>
      </trkpt>
      <trkpt lat="45.05911" lon="4.7493">
        <ele>364.68301391602</ele>
        <time>2009-10-24T14:11:19Z</time>
      </trkpt>
      <trkpt lat="45.05893" lon="4.74936">
        <ele>366.38598632812</ele>
        <time>2009-10-24T14:11:23Z</time>
      </trkpt>
      <trkpt lat="45.0588" lon="4.74943">
        <ele>366.96798706055</ele>
        <time>2009-10-24T14:11:26Z</time>
      </trkpt>
      <trkpt lat="45.05844" lon="4.74968">
        <ele>368.3219909668</ele>
        <time>2009-10-24T14:11:35Z</time>
      </trkpt>
      <trkpt lat="45.05819" lon="4.74971">
        <ele>369.30499267578</ele>
        <time>2009-10-24T14:11:41Z</time>
      </trkpt>
      <trkpt lat="45.05811" lon="4.7497">
        <ele>369.41500854492</ele>
        <time>2009-10-24T14:11:43Z</time>
      </trkpt>
      <trkpt lat="45.05785" lon="4.74954">
        <ele>370.6960144043</ele>
        <time>2009-10-24T14:11:50Z</time>
      </trkpt>
      <trkpt lat="45.05776" lon="4.74944">
        <ele>371.10400390625</ele>
        <time>2009-10-24T14:11:53Z</time>
      </trkpt>
      <trkpt lat="45.05768" lon="4.7493">
        <ele>371.73098754883</ele>
        <time>2009-10-24T14:11:56Z</time>
      </trkpt>
      <trkpt lat="45.05763" lon="4.7492">
        <ele>371.85501098633</ele>
        <time>2009-10-24T14:11:58Z</time>
      </trkpt>
      <trkpt lat="45.05753" lon="4.74883">
        <ele>373.22601318359</ele>
        <time>2009-10-24T14:12:05Z</time>
      </trkpt>
      <trkpt lat="45.05753" lon="4.74866">
        <ele>373.54501342773</ele>
        <time>2009-10-24T14:12:08Z</time>
      </trkpt>
      <trkpt lat="45.05754" lon="4.74848">
        <ele>373.98300170898</ele>
        <time>2009-10-24T14:12:11Z</time>
      </trkpt>
      <trkpt lat="45.05769" lon="4.74813">
        <ele>375.05099487305</ele>
        <time>2009-10-24T14:12:18Z</time>
      </trkpt>
      <trkpt lat="45.05786" lon="4.74763">
        <ele>376.46398925781</ele>
        <time>2009-10-24T14:12:27Z</time>
      </trkpt>
      <trkpt lat="45.05789" lon="4.74753">
        <ele>376.74301147461</ele>
        <time>2009-10-24T14:12:29Z</time>
      </trkpt>
      <trkpt lat="45.05791" lon="4.74736">
        <ele>377.40600585938</ele>
        <time>2009-10-24T14:12:32Z</time>
      </trkpt>
      <trkpt lat="45.0579" lon="4.74712">
        <ele>378.04098510742</ele>
        <time>2009-10-24T14:12:36Z</time>
      </trkpt>
      <trkpt lat="45.05777" lon="4.74663">
        <ele>379.41000366211</ele>
        <time>2009-10-24T14:12:44Z</time>
      </trkpt>
      <trkpt lat="45.05758" lon="4.74637">
        <ele>380.58099365234</ele>
        <time>2009-10-24T14:12:50Z</time>
      </trkpt>
      <trkpt lat="45.05755" lon="4.74633">
        <ele>380.78100585938</ele>
        <time>2009-10-24T14:12:51Z</time>
      </trkpt>
      <trkpt lat="45.05745" lon="4.74595">
        <ele>381.39898681641</ele>
        <time>2009-10-24T14:12:57Z</time>
      </trkpt>
      <trkpt lat="45.05739" lon="4.74575">
        <ele>381.92098999023</ele>
        <time>2009-10-24T14:13:00Z</time>
      </trkpt>
      <trkpt lat="45.05724" lon="4.74541">
        <ele>383.10198974609</ele>
        <time>2009-10-24T14:13:06Z</time>
      </trkpt>
      <trkpt lat="45.05718" lon="4.74522">
        <ele>383.63198852539</ele>
        <time>2009-10-24T14:13:09Z</time>
      </trkpt>
      <trkpt lat="45.05698" lon="4.74488">
        <ele>385.10998535156</ele>
        <time>2009-10-24T14:13:16Z</time>
      </trkpt>
      <trkpt lat="45.05692" lon="4.74479">
        <ele>385.70001220703</ele>
        <time>2009-10-24T14:13:18Z</time>
      </trkpt>
      <trkpt lat="45.05683" lon="4.74446">
        <ele>386.85800170898</ele>
        <time>2009-10-24T14:13:24Z</time>
      </trkpt>
      <trkpt lat="45.05684" lon="4.74399">
        <ele>388.29501342773</ele>
        <time>2009-10-24T14:13:32Z</time>
      </trkpt>
      <trkpt lat="45.05685" lon="4.74368">
        <ele>389.31698608398</ele>
        <time>2009-10-24T14:13:37Z</time>
      </trkpt>
      <trkpt lat="45.0568" lon="4.74344">
        <ele>389.26000976562</ele>
        <time>2009-10-24T14:13:41Z</time>
      </trkpt>
      <trkpt lat="45.05658" lon="4.74308">
        <ele>390.0299987793</ele>
        <time>2009-10-24T14:13:48Z</time>
      </trkpt>
      <trkpt lat="45.05632" lon="4.74276">
        <ele>390.79299926758</ele>
        <time>2009-10-24T14:13:55Z</time>
      </trkpt>
      <trkpt lat="45.05621" lon="4.74278">
        <ele>391.0950012207</ele>
        <time>2009-10-24T14:13:58Z</time>
      </trkpt>
      <trkpt lat="45.05623" lon="4.7429">
        <ele>391.81399536133</ele>
        <time>2009-10-24T14:14:00Z</time>
      </trkpt>
      <trkpt lat="45.05626" lon="4.74294">
        <ele>391.73699951172</ele>
        <time>2009-10-24T14:14:01Z</time>
      </trkpt>
      <trkpt lat="45.05644" lon="4.74321">
        <ele>393.23098754883</ele>
        <time>2009-10-24T14:14:08Z</time>
      </trkpt>
      <trkpt lat="45.05663" lon="4.74355">
        <ele>394.65701293945</ele>
        <time>2009-10-24T14:14:16Z</time>
      </trkpt>
      <trkpt lat="45.05667" lon="4.74388">
        <ele>396.11099243164</ele>
        <time>2009-10-24T14:14:22Z</time>
      </trkpt>
      <trkpt lat="45.05661" lon="4.74433">
        <ele>397.7919921875</ele>
        <time>2009-10-24T14:14:30Z</time>
      </trkpt>
      <trkpt lat="45.05653" lon="4.74464">
        <ele>399.5419921875</ele>
        <time>2009-10-24T14:14:36Z</time>
      </trkpt>
      <trkpt lat="45.05651" lon="4.74476">
        <ele>399.57800292969</ele>
        <time>2009-10-24T14:14:38Z</time>
      </trkpt>
      <trkpt lat="45.05657" lon="4.74511">
        <ele>400.98699951172</ele>
        <time>2009-10-24T14:14:44Z</time>
      </trkpt>
      <trkpt lat="45.05663" lon="4.7452">
        <ele>401.62100219727</ele>
        <time>2009-10-24T14:14:46Z</time>
      </trkpt>
      <trkpt lat="45.05688" lon="4.74557">
        <ele>403.27499389648</ele>
        <time>2009-10-24T14:14:55Z</time>
      </trkpt>
      <trkpt lat="45.05702" lon="4.74596">
        <ele>405.50601196289</ele>
        <time>2009-10-24T14:15:03Z</time>
      </trkpt>
      <trkpt lat="45.05713" lon="4.74635">
        <ele>407.04098510742</ele>
        <time>2009-10-24T14:15:11Z</time>
      </trkpt>
      <trkpt lat="45.05722" lon="4.7467">
        <ele>408.5719909668</ele>
        <time>2009-10-24T14:15:18Z</time>
      </trkpt>
      <trkpt lat="45.05731" lon="4.74701">
        <ele>410.24099731445</ele>
        <time>2009-10-24T14:15:24Z</time>
      </trkpt>
      <trkpt lat="45.05729" lon="4.74741">
        <ele>411.59298706055</ele>
        <time>2009-10-24T14:15:31Z</time>
      </trkpt>
      <trkpt lat="45.05725" lon="4.7475">
        <ele>412.10998535156</ele>
        <time>2009-10-24T14:15:33Z</time>
      </trkpt>
      <trkpt lat="45.05702" lon="4.74783">
        <ele>413.99099731445</ele>
        <time>2009-10-24T14:15:41Z</time>
      </trkpt>
      <trkpt lat="45.05684" lon="4.74814">
        <ele>415.73498535156</ele>
        <time>2009-10-24T14:15:48Z</time>
      </trkpt>
      <trkpt lat="45.05681" lon="4.74818">
        <ele>416.29800415039</ele>
        <time>2009-10-24T14:15:49Z</time>
      </trkpt>
      <trkpt lat="45.05674" lon="4.74859">
        <ele>417.42700195312</ele>
        <time>2009-10-24T14:15:56Z</time>
      </trkpt>
      <trkpt lat="45.05673" lon="4.74864">
        <ele>417.74700927734</ele>
        <time>2009-10-24T14:15:57Z</time>
      </trkpt>
      <trkpt lat="45.05656" lon="4.74909">
        <ele>419.44400024414</ele>
        <time>2009-10-24T14:16:06Z</time>
      </trkpt>
      <trkpt lat="45.05638" lon="4.74946">
        <ele>420.90100097656</ele>
        <time>2009-10-24T14:16:14Z</time>
      </trkpt>
      <trkpt lat="45.05629" lon="4.74947">
        <ele>421.93600463867</ele>
        <time>2009-10-24T14:16:17Z</time>
      </trkpt>
      <trkpt lat="45.05626" lon="4.74936">
        <ele>422.60998535156</ele>
        <time>2009-10-24T14:16:19Z</time>
      </trkpt>
      <trkpt lat="45.05624" lon="4.74925">
        <ele>422.8039855957</ele>
        <time>2009-10-24T14:16:21Z</time>
      </trkpt>
      <trkpt lat="45.05624" lon="4.74878">
        <ele>424.64001464844</ele>
        <time>2009-10-24T14:16:29Z</time>
      </trkpt>
      <trkpt lat="45.05634" lon="4.74836">
        <ele>425.83099365234</ele>
        <time>2009-10-24T14:16:37Z</time>
      </trkpt>
      <trkpt lat="45.05647" lon="4.74798">
        <ele>427.09298706055</ele>
        <time>2009-10-24T14:16:45Z</time>
      </trkpt>
      <trkpt lat="45.05667" lon="4.74749">
        <ele>429.24301147461</ele>
        <time>2009-10-24T14:16:55Z</time>
      </trkpt>
      <trkpt lat="45.05682" lon="4.74704">
        <ele>431.40100097656</ele>
        <time>2009-10-24T14:17:04Z</time>
      </trkpt>
      <trkpt lat="45.05679" lon="4.74677">
        <ele>432.11401367188</ele>
        <time>2009-10-24T14:17:09Z</time>
      </trkpt>
      <trkpt lat="45.05666" lon="4.74656">
        <ele>433.21701049805</ele>
        <time>2009-10-24T14:17:14Z</time>
      </trkpt>
      <trkpt lat="45.05658" lon="4.7465">
        <ele>433.81600952148</ele>
        <time>2009-10-24T14:17:16Z</time>
      </trkpt>
      <trkpt lat="45.05614" lon="4.74628">
        <ele>435.68600463867</ele>
        <time>2009-10-24T14:17:27Z</time>
      </trkpt>
      <trkpt lat="45.0558" lon="4.74609">
        <ele>437.58401489258</ele>
        <time>2009-10-24T14:17:36Z</time>
      </trkpt>
      <trkpt lat="45.05542" lon="4.74579">
        <ele>440.12600708008</ele>
        <time>2009-10-24T14:17:47Z</time>
      </trkpt>
      <trkpt lat="45.0552" lon="4.74555">
        <ele>441.45599365234</ele>
        <time>2009-10-24T14:17:54Z</time>
      </trkpt>
      <trkpt lat="45.05493" lon="4.74531">
        <ele>442.66000366211</ele>
        <time>2009-10-24T14:18:02Z</time>
      </trkpt>
      <trkpt lat="45.05468" lon="4.74517">
        <ele>443.08099365234</ele>
        <time>2009-10-24T14:18:08Z</time>
      </trkpt>
      <trkpt lat="45.05437" lon="4.74494">
        <ele>443.33599853516</ele>
        <time>2009-10-24T14:18:16Z</time>
      </trkpt>
      <trkpt lat="45.05404" lon="4.74469">
        <ele>442.78399658203</ele>
        <time>2009-10-24T14:18:23Z</time>
      </trkpt>
      <trkpt lat="45.05384" lon="4.74454">
        <ele>442.44100952148</ele>
        <time>2009-10-24T14:18:27Z</time>
      </trkpt>
      <trkpt lat="45.0535" lon="4.74432">
        <ele>441.31600952148</ele>
        <time>2009-10-24T14:18:33Z</time>
      </trkpt>
      <trkpt lat="45.05304" lon="4.74397">
        <ele>439.2919921875</ele>
        <time>2009-10-24T14:18:40Z</time>
      </trkpt>
      <trkpt lat="45.05284" lon="4.74376">
        <ele>437.99200439453</ele>
        <time>2009-10-24T14:18:43Z</time>
      </trkpt>
      <trkpt lat="45.05246" lon="4.74328">
        <ele>437.0950012207</ele>
        <time>2009-10-24T14:18:49Z</time>
      </trkpt>
      <trkpt lat="45.05213" lon="4.74284">
        <ele>436.74798583984</ele>
        <time>2009-10-24T14:18:55Z</time>
      </trkpt>
      <trkpt lat="45.05182" lon="4.74241">
        <ele>437.05200195312</ele>
        <time>2009-10-24T14:19:01Z</time>
      </trkpt>
      <trkpt lat="45.05129" lon="4.74171">
        <ele>437.15600585938</ele>
        <time>2009-10-24T14:19:11Z</time>
      </trkpt>
      <trkpt lat="45.05089" lon="4.74116">
        <ele>437.42700195312</ele>
        <time>2009-10-24T14:19:19Z</time>
      </trkpt>
      <trkpt lat="45.05069" lon="4.74076">
        <ele>437.77899169922</ele>
        <time>2009-10-24T14:19:24Z</time>
      </trkpt>
      <trkpt lat="45.05052" lon="4.74025">
        <ele>438.85299682617</ele>
        <time>2009-10-24T14:19:30Z</time>
      </trkpt>
      <trkpt lat="45.05048" lon="4.74009">
        <ele>439.27499389648</ele>
        <time>2009-10-24T14:19:32Z</time>
      </trkpt>
      <trkpt lat="45.05038" lon="4.73981">
        <ele>441.54998779297</ele>
        <time>2009-10-24T14:19:36Z</time>
      </trkpt>
      <trkpt lat="45.05027" lon="4.73953">
        <ele>444.03601074219</ele>
        <time>2009-10-24T14:19:41Z</time>
      </trkpt>
      <trkpt lat="45.05019" lon="4.7393">
        <ele>445.69900512695</ele>
        <time>2009-10-24T14:19:45Z</time>
      </trkpt>
      <trkpt lat="45.05012" lon="4.73912">
        <ele>446.98699951172</ele>
        <time>2009-10-24T14:19:48Z</time>
      </trkpt>
      <trkpt lat="45.05004" lon="4.73891">
        <ele>449.16400146484</ele>
        <time>2009-10-24T14:19:52Z</time>
      </trkpt>
      <trkpt lat="45.04998" lon="4.73876">
        <ele>450.53500366211</ele>
        <time>2009-10-24T14:19:55Z</time>
      </trkpt>
      <trkpt lat="45.04986" lon="4.73845">
        <ele>453.31298828125</ele>
        <time>2009-10-24T14:20:01Z</time>
      </trkpt>
      <trkpt lat="45.04974" lon="4.73818">
        <ele>455.79800415039</ele>
        <time>2009-10-24T14:20:05Z</time>
      </trkpt>
      <trkpt lat="45.04956" lon="4.73777">
        <ele>459.85501098633</ele>
        <time>2009-10-24T14:20:11Z</time>
      </trkpt>
      <trkpt lat="45.0494" lon="4.73734">
        <ele>463.76800537109</ele>
        <time>2009-10-24T14:20:17Z</time>
      </trkpt>
      <trkpt lat="45.04933" lon="4.73718">
        <ele>464.78201293945</ele>
        <time>2009-10-24T14:20:19Z</time>
      </trkpt>
      <trkpt lat="45.04918" lon="4.73683">
        <ele>466.9169921875</ele>
        <time>2009-10-24T14:20:24Z</time>
      </trkpt>
      <trkpt lat="45.04904" lon="4.73655">
        <ele>467.79699707031</ele>
        <time>2009-10-24T14:20:29Z</time>
      </trkpt>
      <trkpt lat="45.04882" lon="4.73609">
        <ele>469.38101196289</ele>
        <time>2009-10-24T14:20:38Z</time>
      </trkpt>
      <trkpt lat="45.04865" lon="4.73559">
        <ele>470.92401123047</ele>
        <time>2009-10-24T14:20:48Z</time>
      </trkpt>
      <trkpt lat="45.04852" lon="4.73514">
        <ele>472.09600830078</ele>
        <time>2009-10-24T14:20:56Z</time>
      </trkpt>
      <trkpt lat="45.04842" lon="4.73472">
        <ele>473.16500854492</ele>
        <time>2009-10-24T14:21:03Z</time>
      </trkpt>
      <trkpt lat="45.04831" lon="4.73428">
        <ele>473.81500244141</ele>
        <time>2009-10-24T14:21:10Z</time>
      </trkpt>
      <trkpt lat="45.04819" lon="4.73367">
        <ele>473.82400512695</ele>
        <time>2009-10-24T14:21:19Z</time>
      </trkpt>
      <trkpt lat="45.04812" lon="4.73312">
        <ele>474.05899047852</ele>
        <time>2009-10-24T14:21:27Z</time>
      </trkpt>
      <trkpt lat="45.04806" lon="4.73262">
        <ele>474.21798706055</ele>
        <time>2009-10-24T14:21:35Z</time>
      </trkpt>
      <trkpt lat="45.04802" lon="4.73223">
        <ele>474.62200927734</ele>
        <time>2009-10-24T14:21:41Z</time>
      </trkpt>
      <trkpt lat="45.04797" lon="4.73179">
        <ele>475.23999023438</ele>
        <time>2009-10-24T14:21:48Z</time>
      </trkpt>
      <trkpt lat="45.04796" lon="4.7316">
        <ele>475.54501342773</ele>
        <time>2009-10-24T14:21:51Z</time>
      </trkpt>
      <trkpt lat="45.04792" lon="4.73105">
        <ele>476.85501098633</ele>
        <time>2009-10-24T14:22:00Z</time>
      </trkpt>
      <trkpt lat="45.04789" lon="4.73072">
        <ele>478.03601074219</ele>
        <time>2009-10-24T14:22:06Z</time>
      </trkpt>
      <trkpt lat="45.04786" lon="4.73058">
        <ele>479.28399658203</ele>
        <time>2009-10-24T14:22:09Z</time>
      </trkpt>
      <trkpt lat="45.04779" lon="4.73033">
        <ele>481.05899047852</ele>
        <time>2009-10-24T14:22:15Z</time>
      </trkpt>
      <trkpt lat="45.04763" lon="4.72999">
        <ele>483.03500366211</ele>
        <time>2009-10-24T14:22:24Z</time>
      </trkpt>
      <trkpt lat="45.04747" lon="4.72969">
        <ele>484.88299560547</ele>
        <time>2009-10-24T14:22:32Z</time>
      </trkpt>
      <trkpt lat="45.04735" lon="4.72949">
        <ele>486.03201293945</ele>
        <time>2009-10-24T14:22:38Z</time>
      </trkpt>
      <trkpt lat="45.04726" lon="4.72935">
        <ele>486.29598999023</ele>
        <time>2009-10-24T14:22:43Z</time>
      </trkpt>
      <trkpt lat="45.04719" lon="4.72921">
        <ele>486.45599365234</ele>
        <time>2009-10-24T14:22:49Z</time>
      </trkpt>
      <trkpt lat="45.0471" lon="4.72902">
        <ele>487.19900512695</ele>
        <time>2009-10-24T14:22:55Z</time>
      </trkpt>
      <trkpt lat="45.04698" lon="4.72875">
        <ele>487.62200927734</ele>
        <time>2009-10-24T14:23:01Z</time>
      </trkpt>
      <trkpt lat="45.04686" lon="4.72849">
        <ele>488.02398681641</ele>
        <time>2009-10-24T14:23:06Z</time>
      </trkpt>
      <trkpt lat="45.04665" lon="4.72801">
        <ele>489.65798950195</ele>
        <time>2009-10-24T14:23:15Z</time>
      </trkpt>
      <trkpt lat="45.04644" lon="4.72759">
        <ele>491.2799987793</ele>
        <time>2009-10-24T14:23:24Z</time>
      </trkpt>
      <trkpt lat="45.04626" lon="4.72729">
        <ele>492.29901123047</ele>
        <time>2009-10-24T14:23:31Z</time>
      </trkpt>
      <trkpt lat="45.04607" lon="4.72698">
        <ele>492.99099731445</ele>
        <time>2009-10-24T14:23:38Z</time>
      </trkpt>
      <trkpt lat="45.04578" lon="4.72656">
        <ele>494.62600708008</ele>
        <time>2009-10-24T14:23:48Z</time>
      </trkpt>
      <trkpt lat="45.04546" lon="4.72626">
        <ele>497.54501342773</ele>
        <time>2009-10-24T14:23:58Z</time>
      </trkpt>
      <trkpt lat="45.04517" lon="4.72604">
        <ele>500.19500732422</ele>
        <time>2009-10-24T14:24:07Z</time>
      </trkpt>
      <trkpt lat="45.04483" lon="4.72576">
        <ele>502.26699829102</ele>
        <time>2009-10-24T14:24:17Z</time>
      </trkpt>
      <trkpt lat="45.04452" lon="4.7255">
        <ele>503.86999511719</ele>
        <time>2009-10-24T14:24:26Z</time>
      </trkpt>
      <trkpt lat="45.04412" lon="4.72522">
        <ele>505.09100341797</ele>
        <time>2009-10-24T14:24:36Z</time>
      </trkpt>
      <trkpt lat="45.04377" lon="4.72496">
        <ele>506.36099243164</ele>
        <time>2009-10-24T14:24:45Z</time>
      </trkpt>
      <trkpt lat="45.04345" lon="4.72474">
        <ele>507.75900268555</ele>
        <time>2009-10-24T14:24:54Z</time>
      </trkpt>
      <trkpt lat="45.04331" lon="4.72464">
        <ele>508.53399658203</ele>
        <time>2009-10-24T14:24:59Z</time>
      </trkpt>
      <trkpt lat="45.04314" lon="4.72457">
        <ele>508.88198852539</ele>
        <time>2009-10-24T14:25:06Z</time>
      </trkpt>
      <trkpt lat="45.043" lon="4.72451">
        <ele>508.67300415039</ele>
        <time>2009-10-24T14:25:12Z</time>
      </trkpt>
      <trkpt lat="45.04298" lon="4.72449">
        <ele>508.66299438477</ele>
        <time>2009-10-24T14:25:13Z</time>
      </trkpt>
      <trkpt lat="45.04279" lon="4.72442">
        <ele>508.38800048828</ele>
        <time>2009-10-24T14:25:19Z</time>
      </trkpt>
      <trkpt lat="45.04271" lon="4.72439">
        <ele>507.90701293945</ele>
        <time>2009-10-24T14:25:22Z</time>
      </trkpt>
      <trkpt lat="45.04251" lon="4.72427">
        <ele>507.40399169922</ele>
        <time>2009-10-24T14:25:28Z</time>
      </trkpt>
      <trkpt lat="45.04243" lon="4.72424">
        <ele>507.27700805664</ele>
        <time>2009-10-24T14:25:30Z</time>
      </trkpt>
      <trkpt lat="45.04222" lon="4.72413">
        <ele>507.02899169922</ele>
        <time>2009-10-24T14:25:35Z</time>
      </trkpt>
      <trkpt lat="45.04218" lon="4.72413">
        <ele>506.87701416016</ele>
        <time>2009-10-24T14:25:36Z</time>
      </trkpt>
      <trkpt lat="45.04178" lon="4.72407">
        <ele>505.81298828125</ele>
        <time>2009-10-24T14:25:44Z</time>
      </trkpt>
      <trkpt lat="45.04135" lon="4.72383">
        <ele>504.32699584961</ele>
        <time>2009-10-24T14:25:52Z</time>
      </trkpt>
      <trkpt lat="45.04105" lon="4.72369">
        <ele>503.99301147461</ele>
        <time>2009-10-24T14:25:57Z</time>
      </trkpt>
      <trkpt lat="45.04072" lon="4.72351">
        <ele>503.87100219727</ele>
        <time>2009-10-24T14:26:03Z</time>
      </trkpt>
      <trkpt lat="45.04056" lon="4.72339">
        <ele>503.18499755859</ele>
        <time>2009-10-24T14:26:08Z</time>
      </trkpt>
      <trkpt lat="45.04047" lon="4.7233">
        <ele>503.16799926758</ele>
        <time>2009-10-24T14:26:13Z</time>
      </trkpt>
      <trkpt lat="45.04035" lon="4.72319">
        <ele>502.47698974609</ele>
        <time>2009-10-24T14:26:20Z</time>
      </trkpt>
      <trkpt lat="45.04025" lon="4.72305">
        <ele>501.60900878906</ele>
        <time>2009-10-24T14:26:26Z</time>
      </trkpt>
      <trkpt lat="45.04016" lon="4.72295">
        <ele>501.16799926758</ele>
        <time>2009-10-24T14:26:32Z</time>
      </trkpt>
      <trkpt lat="45.04007" lon="4.72285">
        <ele>500.27200317383</ele>
        <time>2009-10-24T14:26:39Z</time>
      </trkpt>
      <trkpt lat="45.03996" lon="4.72272">
        <ele>499.33401489258</ele>
        <time>2009-10-24T14:26:46Z</time>
      </trkpt>
      <trkpt lat="45.03976" lon="4.72248">
        <ele>498.08099365234</ele>
        <time>2009-10-24T14:26:54Z</time>
      </trkpt>
      <trkpt lat="45.03953" lon="4.72222">
        <ele>496.8219909668</ele>
        <time>2009-10-24T14:27:00Z</time>
      </trkpt>
      <trkpt lat="45.03926" lon="4.72191">
        <ele>496.33599853516</ele>
        <time>2009-10-24T14:27:05Z</time>
      </trkpt>
      <trkpt lat="45.03908" lon="4.7217">
        <ele>496.30599975586</ele>
        <time>2009-10-24T14:27:08Z</time>
      </trkpt>
      <trkpt lat="45.03868" lon="4.72125">
        <ele>496.08999633789</ele>
        <time>2009-10-24T14:27:14Z</time>
      </trkpt>
      <trkpt lat="45.0383" lon="4.7208">
        <ele>496.59600830078</ele>
        <time>2009-10-24T14:27:20Z</time>
      </trkpt>
      <trkpt lat="45.03811" lon="4.7206">
        <ele>497.04699707031</ele>
        <time>2009-10-24T14:27:23Z</time>
      </trkpt>
      <trkpt lat="45.03766" lon="4.72027">
        <ele>499.73300170898</ele>
        <time>2009-10-24T14:27:30Z</time>
      </trkpt>
      <trkpt lat="45.0374" lon="4.72012">
        <ele>500.53500366211</ele>
        <time>2009-10-24T14:27:34Z</time>
      </trkpt>
      <trkpt lat="45.03711" lon="4.71998">
        <ele>501.71499633789</ele>
        <time>2009-10-24T14:27:38Z</time>
      </trkpt>
      <trkpt lat="45.03698" lon="4.71992">
        <ele>502.01300048828</ele>
        <time>2009-10-24T14:27:40Z</time>
      </trkpt>
      <trkpt lat="45.03677" lon="4.71982">
        <ele>502.44100952148</ele>
        <time>2009-10-24T14:27:43Z</time>
      </trkpt>
      <trkpt lat="45.03625" lon="4.71961">
        <ele>503.59399414062</ele>
        <time>2009-10-24T14:27:51Z</time>
      </trkpt>
      <trkpt lat="45.03588" lon="4.71943">
        <ele>504.64999389648</ele>
        <time>2009-10-24T14:27:57Z</time>
      </trkpt>
      <trkpt lat="45.03537" lon="4.7192">
        <ele>505.61199951172</ele>
        <time>2009-10-24T14:28:05Z</time>
      </trkpt>
      <trkpt lat="45.03457" lon="4.71884">
        <ele>507.32699584961</ele>
        <time>2009-10-24T14:28:17Z</time>
      </trkpt>
      <trkpt lat="45.03392" lon="4.71855">
        <ele>509.22500610352</ele>
        <time>2009-10-24T14:28:27Z</time>
      </trkpt>
      <trkpt lat="45.03326" lon="4.71821">
        <ele>510.03298950195</ele>
        <time>2009-10-24T14:28:37Z</time>
      </trkpt>
      <trkpt lat="45.03273" lon="4.71791">
        <ele>508.06100463867</ele>
        <time>2009-10-24T14:28:44Z</time>
      </trkpt>
      <trkpt lat="45.03211" lon="4.71762">
        <ele>508.47601318359</ele>
        <time>2009-10-24T14:28:52Z</time>
      </trkpt>
      <trkpt lat="45.03196" lon="4.71755">
        <ele>508.35900878906</ele>
        <time>2009-10-24T14:28:54Z</time>
      </trkpt>
      <trkpt lat="45.03165" lon="4.71755">
        <ele>508.86599731445</ele>
        <time>2009-10-24T14:28:58Z</time>
      </trkpt>
      <trkpt lat="45.03148" lon="4.71776">
        <ele>508.98199462891</ele>
        <time>2009-10-24T14:29:01Z</time>
      </trkpt>
      <trkpt lat="45.03141" lon="4.71794">
        <ele>509.60198974609</ele>
        <time>2009-10-24T14:29:03Z</time>
      </trkpt>
      <trkpt lat="45.0313" lon="4.71831">
        <ele>510.19900512695</ele>
        <time>2009-10-24T14:29:07Z</time>
      </trkpt>
      <trkpt lat="45.03106" lon="4.71865">
        <ele>510.625</ele>
        <time>2009-10-24T14:29:12Z</time>
      </trkpt>
      <trkpt lat="45.03088" lon="4.71876">
        <ele>510.95999145508</ele>
        <time>2009-10-24T14:29:15Z</time>
      </trkpt>
      <trkpt lat="45.03022" lon="4.71904">
        <ele>512.11700439453</ele>
        <time>2009-10-24T14:29:25Z</time>
      </trkpt>
      <trkpt lat="45.0296" lon="4.71928">
        <ele>512.85302734375</ele>
        <time>2009-10-24T14:29:34Z</time>
      </trkpt>
      <trkpt lat="45.02921" lon="4.71946">
        <ele>513.48602294922</ele>
        <time>2009-10-24T14:29:40Z</time>
      </trkpt>
      <trkpt lat="45.02855" lon="4.71971">
        <ele>514.49798583984</ele>
        <time>2009-10-24T14:29:50Z</time>
      </trkpt>
      <trkpt lat="45.02797" lon="4.71989">
        <ele>514.91400146484</ele>
        <time>2009-10-24T14:29:59Z</time>
      </trkpt>
      <trkpt lat="45.02771" lon="4.71987">
        <ele>514.21002197266</ele>
        <time>2009-10-24T14:30:03Z</time>
      </trkpt>
      <trkpt lat="45.0273" lon="4.7197">
        <ele>514.09899902344</ele>
        <time>2009-10-24T14:30:10Z</time>
      </trkpt>
      <trkpt lat="45.02686" lon="4.71948">
        <ele>512.55999755859</ele>
        <time>2009-10-24T14:30:17Z</time>
      </trkpt>
      <trkpt lat="45.02665" lon="4.71936">
        <ele>512.02301025391</ele>
        <time>2009-10-24T14:30:20Z</time>
      </trkpt>
      <trkpt lat="45.02636" lon="4.71916">
        <ele>510.63800048828</ele>
        <time>2009-10-24T14:30:24Z</time>
      </trkpt>
      <trkpt lat="45.02599" lon="4.71863">
        <ele>508.68099975586</ele>
        <time>2009-10-24T14:30:30Z</time>
      </trkpt>
      <trkpt lat="45.02556" lon="4.71792">
        <ele>506.45498657227</ele>
        <time>2009-10-24T14:30:37Z</time>
      </trkpt>
      <trkpt lat="45.02531" lon="4.71748">
        <ele>505.23300170898</ele>
        <time>2009-10-24T14:30:41Z</time>
      </trkpt>
      <trkpt lat="45.02517" lon="4.71694">
        <ele>503.95498657227</ele>
        <time>2009-10-24T14:30:45Z</time>
      </trkpt>
      <trkpt lat="45.02496" lon="4.71629">
        <ele>501.81799316406</ele>
        <time>2009-10-24T14:30:50Z</time>
      </trkpt>
      <trkpt lat="45.02448" lon="4.71557">
        <ele>500.26501464844</ele>
        <time>2009-10-24T14:30:57Z</time>
      </trkpt>
      <trkpt lat="45.02409" lon="4.7149">
        <ele>499.32998657227</ele>
        <time>2009-10-24T14:31:03Z</time>
      </trkpt>
      <trkpt lat="45.02383" lon="4.71443">
        <ele>499.67498779297</ele>
        <time>2009-10-24T14:31:07Z</time>
      </trkpt>
      <trkpt lat="45.0237" lon="4.71419">
        <ele>500.01501464844</ele>
        <time>2009-10-24T14:31:09Z</time>
      </trkpt>
      <trkpt lat="45.02349" lon="4.71384">
        <ele>500.02700805664</ele>
        <time>2009-10-24T14:31:12Z</time>
      </trkpt>
      <trkpt lat="45.02314" lon="4.71349">
        <ele>500.10598754883</ele>
        <time>2009-10-24T14:31:16Z</time>
      </trkpt>
      <trkpt lat="45.02264" lon="4.71319">
        <ele>501.04699707031</ele>
        <time>2009-10-24T14:31:21Z</time>
      </trkpt>
      <trkpt lat="45.02219" lon="4.71277">
        <ele>501.49301147461</ele>
        <time>2009-10-24T14:31:26Z</time>
      </trkpt>
      <trkpt lat="45.02156" lon="4.71219">
        <ele>502.05099487305</ele>
        <time>2009-10-24T14:31:33Z</time>
      </trkpt>
      <trkpt lat="45.02118" lon="4.7119">
        <ele>500.49099731445</ele>
        <time>2009-10-24T14:31:37Z</time>
      </trkpt>
      <trkpt lat="45.02087" lon="4.71144">
        <ele>498.05200195312</ele>
        <time>2009-10-24T14:31:41Z</time>
      </trkpt>
      <trkpt lat="45.02076" lon="4.71116">
        <ele>497.6130065918</ele>
        <time>2009-10-24T14:31:43Z</time>
      </trkpt>
      <trkpt lat="45.02045" lon="4.71068">
        <ele>496.15100097656</ele>
        <time>2009-10-24T14:31:47Z</time>
      </trkpt>
      <trkpt lat="45.01995" lon="4.71005">
        <ele>495.60000610352</ele>
        <time>2009-10-24T14:31:53Z</time>
      </trkpt>
      <trkpt lat="45.01981" lon="4.70983">
        <ele>494.93600463867</ele>
        <time>2009-10-24T14:31:55Z</time>
      </trkpt>
      <trkpt lat="45.01957" lon="4.70917">
        <ele>494.6130065918</ele>
        <time>2009-10-24T14:32:00Z</time>
      </trkpt>
      <trkpt lat="45.01949" lon="4.70876">
        <ele>494.28500366211</ele>
        <time>2009-10-24T14:32:03Z</time>
      </trkpt>
      <trkpt lat="45.01926" lon="4.7083">
        <ele>493.61700439453</ele>
        <time>2009-10-24T14:32:07Z</time>
      </trkpt>
      <trkpt lat="45.01875" lon="4.7075">
        <ele>493.5530090332</ele>
        <time>2009-10-24T14:32:15Z</time>
      </trkpt>
      <trkpt lat="45.01827" lon="4.70671">
        <ele>493.83401489258</ele>
        <time>2009-10-24T14:32:23Z</time>
      </trkpt>
      <trkpt lat="45.01801" lon="4.70617">
        <ele>494.20401000977</ele>
        <time>2009-10-24T14:32:28Z</time>
      </trkpt>
      <trkpt lat="45.01769" lon="4.70542">
        <ele>495.47299194336</ele>
        <time>2009-10-24T14:32:35Z</time>
      </trkpt>
      <trkpt lat="45.01747" lon="4.70478">
        <ele>496.69799804688</ele>
        <time>2009-10-24T14:32:41Z</time>
      </trkpt>
      <trkpt lat="45.01744" lon="4.70467">
        <ele>496.79800415039</ele>
        <time>2009-10-24T14:32:42Z</time>
      </trkpt>
      <trkpt lat="45.01734" lon="4.7038">
        <ele>498.01098632812</ele>
        <time>2009-10-24T14:32:50Z</time>
      </trkpt>
      <trkpt lat="45.01731" lon="4.70359">
        <ele>498.23498535156</ele>
        <time>2009-10-24T14:32:52Z</time>
      </trkpt>
      <trkpt lat="45.01712" lon="4.70315">
        <ele>498.54299926758</ele>
        <time>2009-10-24T14:32:57Z</time>
      </trkpt>
      <trkpt lat="45.01706" lon="4.70309">
        <ele>498.63000488281</ele>
        <time>2009-10-24T14:32:58Z</time>
      </trkpt>
      <trkpt lat="45.01659" lon="4.70268">
        <ele>501.3630065918</ele>
        <time>2009-10-24T14:33:06Z</time>
      </trkpt>
      <trkpt lat="45.01609" lon="4.70228">
        <ele>504.50100708008</ele>
        <time>2009-10-24T14:33:15Z</time>
      </trkpt>
      <trkpt lat="45.01582" lon="4.70195">
        <ele>505.77200317383</ele>
        <time>2009-10-24T14:33:21Z</time>
      </trkpt>
      <trkpt lat="45.01543" lon="4.70137">
        <ele>507.09298706055</ele>
        <time>2009-10-24T14:33:30Z</time>
      </trkpt>
      <trkpt lat="45.01534" lon="4.70125">
        <ele>507.3039855957</ele>
        <time>2009-10-24T14:33:32Z</time>
      </trkpt>
      <trkpt lat="45.01511" lon="4.7011">
        <ele>507.59298706055</ele>
        <time>2009-10-24T14:33:36Z</time>
      </trkpt>
      <trkpt lat="45.01459" lon="4.70098">
        <ele>507.76599121094</ele>
        <time>2009-10-24T14:33:44Z</time>
      </trkpt>
      <trkpt lat="45.01432" lon="4.70105">
        <ele>508.13500976562</ele>
        <time>2009-10-24T14:33:48Z</time>
      </trkpt>
      <trkpt lat="45.01392" lon="4.70145">
        <ele>509.10101318359</ele>
        <time>2009-10-24T14:33:55Z</time>
      </trkpt>
      <trkpt lat="45.01382" lon="4.70153">
        <ele>509.64898681641</ele>
        <time>2009-10-24T14:33:57Z</time>
      </trkpt>
      <trkpt lat="45.0136" lon="4.70166">
        <ele>510.12200927734</ele>
        <time>2009-10-24T14:34:01Z</time>
      </trkpt>
      <trkpt lat="45.01311" lon="4.7017">
        <ele>510.83801269531</ele>
        <time>2009-10-24T14:34:09Z</time>
      </trkpt>
      <trkpt lat="45.01277" lon="4.7018">
        <ele>511.33700561523</ele>
        <time>2009-10-24T14:34:15Z</time>
      </trkpt>
      <trkpt lat="45.01244" lon="4.70204">
        <ele>512.48297119141</ele>
        <time>2009-10-24T14:34:22Z</time>
      </trkpt>
      <trkpt lat="45.01199" lon="4.70237">
        <ele>514.18200683594</ele>
        <time>2009-10-24T14:34:32Z</time>
      </trkpt>
      <trkpt lat="45.0117" lon="4.70247">
        <ele>515.19097900391</ele>
        <time>2009-10-24T14:34:38Z</time>
      </trkpt>
      <trkpt lat="45.01161" lon="4.70248">
        <ele>515.26397705078</ele>
        <time>2009-10-24T14:34:40Z</time>
      </trkpt>
      <trkpt lat="45.01137" lon="4.70246">
        <ele>515.89300537109</ele>
        <time>2009-10-24T14:34:46Z</time>
      </trkpt>
      <trkpt lat="45.01128" lon="4.70225">
        <ele>516.39801025391</ele>
        <time>2009-10-24T14:34:51Z</time>
      </trkpt>
      <trkpt lat="45.01131" lon="4.70202">
        <ele>516.88397216797</ele>
        <time>2009-10-24T14:34:55Z</time>
      </trkpt>
      <trkpt lat="45.01133" lon="4.70175">
        <ele>517.19702148438</ele>
        <time>2009-10-24T14:35:01Z</time>
      </trkpt>
      <trkpt lat="45.01131" lon="4.70164">
        <ele>516.74700927734</ele>
        <time>2009-10-24T14:35:05Z</time>
      </trkpt>
      <trkpt lat="45.01131" lon="4.70163">
        <ele>516.92901611328</ele>
        <time>2009-10-24T14:35:13Z</time>
      </trkpt>
      <trkpt lat="45.01131" lon="4.70163">
        <ele>516.96002197266</ele>
        <time>2009-10-24T14:35:18Z</time>
      </trkpt>
      <trkpt lat="45.01131" lon="4.70163">
        <ele>516.91400146484</ele>
        <time>2009-10-24T14:35:19Z</time>
      </trkpt>
      <trkpt lat="45.01128" lon="4.70162">
        <ele>516.63897705078</ele>
        <time>2009-10-24T14:35:25Z</time>
      </trkpt>
      <trkpt lat="45.01128" lon="4.70164">
        <ele>516.72198486328</ele>
        <time>2009-10-24T14:35:53Z</time>
      </trkpt>
      <trkpt lat="45.01128" lon="4.70166">
        <ele>516.85998535156</ele>
        <time>2009-10-24T14:36:11Z</time>
      </trkpt>
      <trkpt lat="45.01129" lon="4.70167">
        <ele>516.84899902344</ele>
        <time>2009-10-24T14:36:21Z</time>
      </trkpt>
      <trkpt lat="45.01129" lon="4.70168">
        <ele>517.22900390625</ele>
        <time>2009-10-24T14:36:36Z</time>
      </trkpt>
      <trkpt lat="45.01129" lon="4.70168">
        <ele>516.87200927734</ele>
        <time>2009-10-24T14:36:41Z</time>
      </trkpt>
      <trkpt lat="45.01128" lon="4.70167">
        <ele>517.00299072266</ele>
        <time>2009-10-24T14:36:51Z</time>
      </trkpt>
      <trkpt lat="45.01128" lon="4.70167">
        <ele>517.00299072266</ele>
        <time>2009-10-24T14:36:53Z</time>
      </trkpt>
      <trkpt lat="45.01128" lon="4.70167">
        <ele>517.14398193359</ele>
        <time>2009-10-24T14:36:54Z</time>
      </trkpt>
      <trkpt lat="45.01128" lon="4.70167">
        <ele>516.83001708984</ele>
        <time>2009-10-24T14:36:58Z</time>
      </trkpt>
      <trkpt lat="45.01128" lon="4.70166">
        <ele>517.16101074219</ele>
        <time>2009-10-24T14:37:03Z</time>
      </trkpt>
      <trkpt lat="45.01127" lon="4.70165">
        <ele>517.37902832031</ele>
        <time>2009-10-24T14:37:17Z</time>
      </trkpt>
      <trkpt lat="45.01127" lon="4.70165">
        <ele>517.45599365234</ele>
        <time>2009-10-24T14:37:23Z</time>
      </trkpt>
      <trkpt lat="45.01127" lon="4.70164">
        <ele>517.60699462891</ele>
        <time>2009-10-24T14:37:46Z</time>
      </trkpt>
      <trkpt lat="45.01127" lon="4.70164">
        <ele>517.69702148438</ele>
        <time>2009-10-24T14:37:48Z</time>
      </trkpt>
      <trkpt lat="45.01127" lon="4.70164">
        <ele>517.64099121094</ele>
        <time>2009-10-24T14:37:52Z</time>
      </trkpt>
      <trkpt lat="45.01127" lon="4.70164">
        <ele>517.63702392578</ele>
        <time>2009-10-24T14:37:54Z</time>
      </trkpt>
      <trkpt lat="45.01127" lon="4.70164">
        <ele>517.67602539062</ele>
        <time>2009-10-24T14:37:55Z</time>
      </trkpt>
      <trkpt lat="45.01127" lon="4.70164">
        <ele>517.58197021484</ele>
        <time>2009-10-24T14:37:57Z</time>
      </trkpt>
      <trkpt lat="45.01127" lon="4.70163">
        <ele>517.69000244141</ele>
        <time>2009-10-24T14:38:01Z</time>
      </trkpt>
      <trkpt lat="45.01127" lon="4.70163">
        <ele>517.79901123047</ele>
        <time>2009-10-24T14:38:02Z</time>
      </trkpt>
      <trkpt lat="45.01127" lon="4.70163">
        <ele>517.76397705078</ele>
        <time>2009-10-24T14:38:07Z</time>
      </trkpt>
      <trkpt lat="45.01127" lon="4.70165">
        <ele>517.71099853516</ele>
        <time>2009-10-24T14:38:09Z</time>
      </trkpt>
      <trkpt lat="45.01118" lon="4.7017">
        <ele>517.21801757812</ele>
        <time>2009-10-24T14:38:15Z</time>
      </trkpt>
      <trkpt lat="45.01105" lon="4.70171">
        <ele>516.86199951172</ele>
        <time>2009-10-24T14:38:21Z</time>
      </trkpt>
      <trkpt lat="45.01093" lon="4.70164">
        <ele>516.17199707031</ele>
        <time>2009-10-24T14:38:27Z</time>
      </trkpt>
      <trkpt lat="45.01078" lon="4.70147">
        <ele>515.82098388672</ele>
        <time>2009-10-24T14:38:33Z</time>
      </trkpt>
      <trkpt lat="45.01075" lon="4.70127">
        <ele>515.93499755859</ele>
        <time>2009-10-24T14:38:37Z</time>
      </trkpt>
      <trkpt lat="45.01074" lon="4.70119">
        <ele>516.04797363281</ele>
        <time>2009-10-24T14:38:39Z</time>
      </trkpt>
      <trkpt lat="45.01061" lon="4.70112">
        <ele>515.34997558594</ele>
        <time>2009-10-24T14:38:44Z</time>
      </trkpt>
      <trkpt lat="45.0104" lon="4.70105">
        <ele>513.42102050781</ele>
        <time>2009-10-24T14:38:48Z</time>
      </trkpt>
      <trkpt lat="45.01033" lon="4.70102">
        <ele>512.93499755859</ele>
        <time>2009-10-24T14:38:49Z</time>
      </trkpt>
      <trkpt lat="45.01006" lon="4.7008">
        <ele>511.5530090332</ele>
        <time>2009-10-24T14:38:53Z</time>
      </trkpt>
      <trkpt lat="45.0097" lon="4.7003">
        <ele>509.99700927734</ele>
        <time>2009-10-24T14:39:00Z</time>
      </trkpt>
      <trkpt lat="45.00961" lon="4.70016">
        <ele>509.56600952148</ele>
        <time>2009-10-24T14:39:02Z</time>
      </trkpt>
      <trkpt lat="45.00932" lon="4.69972">
        <ele>509.14801025391</ele>
        <time>2009-10-24T14:39:08Z</time>
      </trkpt>
      <trkpt lat="45.00898" lon="4.69913">
        <ele>509.29598999023</ele>
        <time>2009-10-24T14:39:16Z</time>
      </trkpt>
      <trkpt lat="45.00873" lon="4.69861">
        <ele>508.6130065918</ele>
        <time>2009-10-24T14:39:22Z</time>
      </trkpt>
      <trkpt lat="45.00848" lon="4.698">
        <ele>507.19100952148</ele>
        <time>2009-10-24T14:39:28Z</time>
      </trkpt>
      <trkpt lat="45.00817" lon="4.69753">
        <ele>506.14801025391</ele>
        <time>2009-10-24T14:39:33Z</time>
      </trkpt>
      <trkpt lat="45.00803" lon="4.69737">
        <ele>506.32901000977</ele>
        <time>2009-10-24T14:39:35Z</time>
      </trkpt>
      <trkpt lat="45.00773" lon="4.69723">
        <ele>507.0710144043</ele>
        <time>2009-10-24T14:39:39Z</time>
      </trkpt>
      <trkpt lat="45.00751" lon="4.6973">
        <ele>507.37200927734</ele>
        <time>2009-10-24T14:39:42Z</time>
      </trkpt>
      <trkpt lat="45.00731" lon="4.69745">
        <ele>507.22100830078</ele>
        <time>2009-10-24T14:39:45Z</time>
      </trkpt>
      <trkpt lat="45.00701" lon="4.69753">
        <ele>507.05801391602</ele>
        <time>2009-10-24T14:39:49Z</time>
      </trkpt>
      <trkpt lat="45.00685" lon="4.6975">
        <ele>506.91500854492</ele>
        <time>2009-10-24T14:39:51Z</time>
      </trkpt>
      <trkpt lat="45.00626" lon="4.6973">
        <ele>505.10501098633</ele>
        <time>2009-10-24T14:39:58Z</time>
      </trkpt>
      <trkpt lat="45.00609" lon="4.69725">
        <ele>504.82699584961</ele>
        <time>2009-10-24T14:40:00Z</time>
      </trkpt>
      <trkpt lat="45.00557" lon="4.69733">
        <ele>504.00900268555</ele>
        <time>2009-10-24T14:40:06Z</time>
      </trkpt>
      <trkpt lat="45.00508" lon="4.69746">
        <ele>502.6789855957</ele>
        <time>2009-10-24T14:40:12Z</time>
      </trkpt>
      <trkpt lat="45.0049" lon="4.6975">
        <ele>502.4280090332</ele>
        <time>2009-10-24T14:40:14Z</time>
      </trkpt>
      <trkpt lat="45.00437" lon="4.69753">
        <ele>500.87799072266</ele>
        <time>2009-10-24T14:40:20Z</time>
      </trkpt>
      <trkpt lat="45.00385" lon="4.69769">
        <ele>499.94100952148</ele>
        <time>2009-10-24T14:40:26Z</time>
      </trkpt>
      <trkpt lat="45.00349" lon="4.69768">
        <ele>499.17199707031</ele>
        <time>2009-10-24T14:40:30Z</time>
      </trkpt>
      <trkpt lat="45.00327" lon="4.69744">
        <ele>498.64801025391</ele>
        <time>2009-10-24T14:40:33Z</time>
      </trkpt>
      <trkpt lat="45.00309" lon="4.69699">
        <ele>498.06600952148</ele>
        <time>2009-10-24T14:40:37Z</time>
      </trkpt>
      <trkpt lat="45.00307" lon="4.69673">
        <ele>497.86099243164</ele>
        <time>2009-10-24T14:40:39Z</time>
      </trkpt>
      <trkpt lat="45.00294" lon="4.69624">
        <ele>496.68701171875</ele>
        <time>2009-10-24T14:40:43Z</time>
      </trkpt>
      <trkpt lat="45.00286" lon="4.69619">
        <ele>496.2919921875</ele>
        <time>2009-10-24T14:40:44Z</time>
      </trkpt>
      <trkpt lat="45.00243" lon="4.69597">
        <ele>495.02099609375</ele>
        <time>2009-10-24T14:40:49Z</time>
      </trkpt>
      <trkpt lat="45.00216" lon="4.69563">
        <ele>494.62200927734</ele>
        <time>2009-10-24T14:40:53Z</time>
      </trkpt>
      <trkpt lat="45.00208" lon="4.69526">
        <ele>493.50601196289</ele>
        <time>2009-10-24T14:40:56Z</time>
      </trkpt>
      <trkpt lat="45.00204" lon="4.695">
        <ele>493.05999755859</ele>
        <time>2009-10-24T14:40:58Z</time>
      </trkpt>
      <trkpt lat="45.0019" lon="4.69466">
        <ele>492.2799987793</ele>
        <time>2009-10-24T14:41:01Z</time>
      </trkpt>
      <trkpt lat="45.00165" lon="4.6943">
        <ele>491.94000244141</ele>
        <time>2009-10-24T14:41:05Z</time>
      </trkpt>
      <trkpt lat="45.00137" lon="4.69396">
        <ele>491.14401245117</ele>
        <time>2009-10-24T14:41:09Z</time>
      </trkpt>
      <trkpt lat="45.00114" lon="4.69356">
        <ele>490.01800537109</ele>
        <time>2009-10-24T14:41:13Z</time>
      </trkpt>
      <trkpt lat="45.00092" lon="4.69348">
        <ele>489.43798828125</ele>
        <time>2009-10-24T14:41:16Z</time>
      </trkpt>
      <trkpt lat="45.00068" lon="4.69359">
        <ele>488.72198486328</ele>
        <time>2009-10-24T14:41:19Z</time>
      </trkpt>
      <trkpt lat="45.00045" lon="4.69346">
        <ele>488.08898925781</ele>
        <time>2009-10-24T14:41:22Z</time>
      </trkpt>
      <trkpt lat="45.00032" lon="4.69331">
        <ele>487.23001098633</ele>
        <time>2009-10-24T14:41:24Z</time>
      </trkpt>
      <trkpt lat="45.0002" lon="4.69315">
        <ele>486.6369934082</ele>
        <time>2009-10-24T14:41:26Z</time>
      </trkpt>
      <trkpt lat="44.99977" lon="4.69279">
        <ele>485.72900390625</ele>
        <time>2009-10-24T14:41:32Z</time>
      </trkpt>
      <trkpt lat="44.99929" lon="4.69232">
        <ele>484.41400146484</ele>
        <time>2009-10-24T14:41:39Z</time>
      </trkpt>
      <trkpt lat="44.99922" lon="4.69226">
        <ele>483.91900634766</ele>
        <time>2009-10-24T14:41:40Z</time>
      </trkpt>
      <trkpt lat="44.99891" lon="4.69184">
        <ele>483.37701416016</ele>
        <time>2009-10-24T14:41:45Z</time>
      </trkpt>
      <trkpt lat="44.99878" lon="4.69152">
        <ele>482.30599975586</ele>
        <time>2009-10-24T14:41:48Z</time>
      </trkpt>
      <trkpt lat="44.99879" lon="4.69125">
        <ele>481.67999267578</ele>
        <time>2009-10-24T14:41:50Z</time>
      </trkpt>
      <trkpt lat="44.99891" lon="4.69074">
        <ele>479.82598876953</ele>
        <time>2009-10-24T14:41:54Z</time>
      </trkpt>
      <trkpt lat="44.99885" lon="4.69036">
        <ele>478.64700317383</ele>
        <time>2009-10-24T14:41:57Z</time>
      </trkpt>
      <trkpt lat="44.99867" lon="4.69037">
        <ele>478.6669921875</ele>
        <time>2009-10-24T14:41:59Z</time>
      </trkpt>
      <trkpt lat="44.99854" lon="4.69052">
        <ele>478.46600341797</ele>
        <time>2009-10-24T14:42:01Z</time>
      </trkpt>
      <trkpt lat="44.99813" lon="4.69095">
        <ele>477.44299316406</ele>
        <time>2009-10-24T14:42:07Z</time>
      </trkpt>
      <trkpt lat="44.99808" lon="4.69103">
        <ele>477.57501220703</ele>
        <time>2009-10-24T14:42:08Z</time>
      </trkpt>
      <trkpt lat="44.99798" lon="4.69121">
        <ele>477.62600708008</ele>
        <time>2009-10-24T14:42:10Z</time>
      </trkpt>
      <trkpt lat="44.9977" lon="4.69135">
        <ele>476.65701293945</ele>
        <time>2009-10-24T14:42:14Z</time>
      </trkpt>
      <trkpt lat="44.99759" lon="4.69149">
        <ele>476.01300048828</ele>
        <time>2009-10-24T14:42:16Z</time>
      </trkpt>
      <trkpt lat="44.99755" lon="4.6917">
        <ele>475.90899658203</ele>
        <time>2009-10-24T14:42:18Z</time>
      </trkpt>
      <trkpt lat="44.99761" lon="4.69202">
        <ele>475.3450012207</ele>
        <time>2009-10-24T14:42:21Z</time>
      </trkpt>
      <trkpt lat="44.99767" lon="4.69222">
        <ele>475.79400634766</ele>
        <time>2009-10-24T14:42:23Z</time>
      </trkpt>
      <trkpt lat="44.99769" lon="4.69265">
        <ele>474.88500976562</ele>
        <time>2009-10-24T14:42:27Z</time>
      </trkpt>
      <trkpt lat="44.99766" lon="4.69276">
        <ele>475.08401489258</ele>
        <time>2009-10-24T14:42:28Z</time>
      </trkpt>
      <trkpt lat="44.99747" lon="4.69353">
        <ele>473.20599365234</ele>
        <time>2009-10-24T14:42:35Z</time>
      </trkpt>
      <trkpt lat="44.99743" lon="4.69389">
        <ele>472.67599487305</ele>
        <time>2009-10-24T14:42:38Z</time>
      </trkpt>
      <trkpt lat="44.99731" lon="4.69417">
        <ele>471.22698974609</ele>
        <time>2009-10-24T14:42:41Z</time>
      </trkpt>
      <trkpt lat="44.99714" lon="4.69417">
        <ele>471.42401123047</ele>
        <time>2009-10-24T14:42:43Z</time>
      </trkpt>
      <trkpt lat="44.99697" lon="4.69409">
        <ele>470.87899780273</ele>
        <time>2009-10-24T14:42:45Z</time>
      </trkpt>
      <trkpt lat="44.9966" lon="4.69379">
        <ele>470.49200439453</ele>
        <time>2009-10-24T14:42:50Z</time>
      </trkpt>
      <trkpt lat="44.99631" lon="4.69332">
        <ele>469.93499755859</ele>
        <time>2009-10-24T14:42:55Z</time>
      </trkpt>
      <trkpt lat="44.9962" lon="4.6931">
        <ele>469.1669921875</ele>
        <time>2009-10-24T14:42:57Z</time>
      </trkpt>
      <trkpt lat="44.9961" lon="4.69264">
        <ele>468.52899169922</ele>
        <time>2009-10-24T14:43:01Z</time>
      </trkpt>
      <trkpt lat="44.99601" lon="4.69174">
        <ele>467.5710144043</ele>
        <time>2009-10-24T14:43:08Z</time>
      </trkpt>
      <trkpt lat="44.99594" lon="4.69099">
        <ele>466.63000488281</ele>
        <time>2009-10-24T14:43:14Z</time>
      </trkpt>
      <trkpt lat="44.99579" lon="4.69068">
        <ele>466.25100708008</ele>
        <time>2009-10-24T14:43:17Z</time>
      </trkpt>
      <trkpt lat="44.99561" lon="4.6907">
        <ele>466.03900146484</ele>
        <time>2009-10-24T14:43:19Z</time>
      </trkpt>
      <trkpt lat="44.99548" lon="4.69086">
        <ele>465.80899047852</ele>
        <time>2009-10-24T14:43:21Z</time>
      </trkpt>
      <trkpt lat="44.99536" lon="4.69104">
        <ele>465.25799560547</ele>
        <time>2009-10-24T14:43:23Z</time>
      </trkpt>
      <trkpt lat="44.99513" lon="4.69106">
        <ele>463.30599975586</ele>
        <time>2009-10-24T14:43:26Z</time>
      </trkpt>
      <trkpt lat="44.99508" lon="4.69095">
        <ele>463.08999633789</ele>
        <time>2009-10-24T14:43:27Z</time>
      </trkpt>
      <trkpt lat="44.99502" lon="4.6907">
        <ele>462.9880065918</ele>
        <time>2009-10-24T14:43:29Z</time>
      </trkpt>
      <trkpt lat="44.99498" lon="4.69046">
        <ele>463.00500488281</ele>
        <time>2009-10-24T14:43:31Z</time>
      </trkpt>
      <trkpt lat="44.99483" lon="4.69018">
        <ele>462.16500854492</ele>
        <time>2009-10-24T14:43:34Z</time>
      </trkpt>
      <trkpt lat="44.99466" lon="4.69024">
        <ele>462.01998901367</ele>
        <time>2009-10-24T14:43:36Z</time>
      </trkpt>
      <trkpt lat="44.99433" lon="4.69019">
        <ele>461.2080078125</ele>
        <time>2009-10-24T14:43:40Z</time>
      </trkpt>
      <trkpt lat="44.99426" lon="4.69012">
        <ele>460.77200317383</ele>
        <time>2009-10-24T14:43:41Z</time>
      </trkpt>
      <trkpt lat="44.99403" lon="4.68993">
        <ele>460.46899414062</ele>
        <time>2009-10-24T14:43:44Z</time>
      </trkpt>
      <trkpt lat="44.99374" lon="4.68961">
        <ele>459.51699829102</ele>
        <time>2009-10-24T14:43:48Z</time>
      </trkpt>
      <trkpt lat="44.99324" lon="4.6888">
        <ele>457.76599121094</ele>
        <time>2009-10-24T14:43:56Z</time>
      </trkpt>
      <trkpt lat="44.99302" lon="4.68854">
        <ele>456.91900634766</ele>
        <time>2009-10-24T14:43:59Z</time>
      </trkpt>
      <trkpt lat="44.99274" lon="4.68814">
        <ele>456.03799438477</ele>
        <time>2009-10-24T14:44:03Z</time>
      </trkpt>
      <trkpt lat="44.99251" lon="4.68785">
        <ele>454.97900390625</ele>
        <time>2009-10-24T14:44:06Z</time>
      </trkpt>
      <trkpt lat="44.99228" lon="4.68734">
        <ele>454.56900024414</ele>
        <time>2009-10-24T14:44:10Z</time>
      </trkpt>
      <trkpt lat="44.99221" lon="4.68706">
        <ele>454.16198730469</ele>
        <time>2009-10-24T14:44:12Z</time>
      </trkpt>
      <trkpt lat="44.99215" lon="4.68657">
        <ele>453.625</ele>
        <time>2009-10-24T14:44:15Z</time>
      </trkpt>
      <trkpt lat="44.99192" lon="4.68636">
        <ele>451.14898681641</ele>
        <time>2009-10-24T14:44:18Z</time>
      </trkpt>
      <trkpt lat="44.99175" lon="4.68656">
        <ele>450.45098876953</ele>
        <time>2009-10-24T14:44:20Z</time>
      </trkpt>
      <trkpt lat="44.99157" lon="4.68688">
        <ele>450.58898925781</ele>
        <time>2009-10-24T14:44:23Z</time>
      </trkpt>
      <trkpt lat="44.99139" lon="4.68693">
        <ele>449.85198974609</ele>
        <time>2009-10-24T14:44:25Z</time>
      </trkpt>
      <trkpt lat="44.99115" lon="4.68678">
        <ele>449.68200683594</ele>
        <time>2009-10-24T14:44:28Z</time>
      </trkpt>
      <trkpt lat="44.99065" lon="4.68639">
        <ele>448.95401000977</ele>
        <time>2009-10-24T14:44:34Z</time>
      </trkpt>
      <trkpt lat="44.99044" lon="4.68611">
        <ele>447.70401000977</ele>
        <time>2009-10-24T14:44:37Z</time>
      </trkpt>
      <trkpt lat="44.99032" lon="4.68589">
        <ele>447.48901367188</ele>
        <time>2009-10-24T14:44:39Z</time>
      </trkpt>
      <trkpt lat="44.99003" lon="4.68553">
        <ele>446.91299438477</ele>
        <time>2009-10-24T14:44:43Z</time>
      </trkpt>
      <trkpt lat="44.98971" lon="4.68504">
        <ele>446.20498657227</ele>
        <time>2009-10-24T14:44:48Z</time>
      </trkpt>
      <trkpt lat="44.98956" lon="4.68471">
        <ele>446.27099609375</ele>
        <time>2009-10-24T14:44:51Z</time>
      </trkpt>
      <trkpt lat="44.98949" lon="4.68424">
        <ele>447.81500244141</ele>
        <time>2009-10-24T14:44:55Z</time>
      </trkpt>
      <trkpt lat="44.98937" lon="4.68409">
        <ele>448.27499389648</ele>
        <time>2009-10-24T14:44:58Z</time>
      </trkpt>
      <trkpt lat="44.98932" lon="4.68411">
        <ele>448.35501098633</ele>
        <time>2009-10-24T14:44:59Z</time>
      </trkpt>
      <trkpt lat="44.98898" lon="4.68422">
        <ele>449.15200805664</ele>
        <time>2009-10-24T14:45:06Z</time>
      </trkpt>
      <trkpt lat="44.98875" lon="4.6843">
        <ele>450.76699829102</ele>
        <time>2009-10-24T14:45:12Z</time>
      </trkpt>
      <trkpt lat="44.98864" lon="4.68443">
        <ele>452.04299926758</ele>
        <time>2009-10-24T14:45:17Z</time>
      </trkpt>
      <trkpt lat="44.98861" lon="4.68465">
        <ele>453.43600463867</ele>
        <time>2009-10-24T14:45:22Z</time>
      </trkpt>
      <trkpt lat="44.98863" lon="4.68493">
        <ele>454.76300048828</ele>
        <time>2009-10-24T14:45:28Z</time>
      </trkpt>
      <trkpt lat="44.98864" lon="4.68518">
        <ele>455.64999389648</ele>
        <time>2009-10-24T14:45:33Z</time>
      </trkpt>
      <trkpt lat="44.98851" lon="4.68542">
        <ele>457.4280090332</ele>
        <time>2009-10-24T14:45:39Z</time>
      </trkpt>
      <trkpt lat="44.98825" lon="4.68551">
        <ele>458.91000366211</ele>
        <time>2009-10-24T14:45:46Z</time>
      </trkpt>
      <trkpt lat="44.98796" lon="4.6856">
        <ele>460.79098510742</ele>
        <time>2009-10-24T14:45:54Z</time>
      </trkpt>
      <trkpt lat="44.98774" lon="4.68577">
        <ele>462.85000610352</ele>
        <time>2009-10-24T14:46:01Z</time>
      </trkpt>
      <trkpt lat="44.98752" lon="4.68589">
        <ele>464.47299194336</ele>
        <time>2009-10-24T14:46:08Z</time>
      </trkpt>
      <trkpt lat="44.98733" lon="4.68594">
        <ele>465.92001342773</ele>
        <time>2009-10-24T14:46:14Z</time>
      </trkpt>
      <trkpt lat="44.98712" lon="4.68598">
        <ele>467.43099975586</ele>
        <time>2009-10-24T14:46:21Z</time>
      </trkpt>
      <trkpt lat="44.98707" lon="4.68603">
        <ele>467.89599609375</ele>
        <time>2009-10-24T14:46:23Z</time>
      </trkpt>
      <trkpt lat="44.98709" lon="4.68622">
        <ele>469.27899169922</ele>
        <time>2009-10-24T14:46:28Z</time>
      </trkpt>
      <trkpt lat="44.98719" lon="4.68638">
        <ele>469.9880065918</ele>
        <time>2009-10-24T14:46:33Z</time>
      </trkpt>
      <trkpt lat="44.9873" lon="4.68655">
        <ele>470.99700927734</ele>
        <time>2009-10-24T14:46:38Z</time>
      </trkpt>
      <trkpt lat="44.98742" lon="4.68676">
        <ele>472.34298706055</ele>
        <time>2009-10-24T14:46:44Z</time>
      </trkpt>
      <trkpt lat="44.98746" lon="4.68702">
        <ele>473.60000610352</ele>
        <time>2009-10-24T14:46:50Z</time>
      </trkpt>
      <trkpt lat="44.98742" lon="4.68723">
        <ele>474.53100585938</ele>
        <time>2009-10-24T14:46:56Z</time>
      </trkpt>
      <trkpt lat="44.98729" lon="4.68732">
        <ele>475.85198974609</ele>
        <time>2009-10-24T14:47:02Z</time>
      </trkpt>
      <trkpt lat="44.98716" lon="4.68726">
        <ele>477.1549987793</ele>
        <time>2009-10-24T14:47:08Z</time>
      </trkpt>
      <trkpt lat="44.98702" lon="4.68715">
        <ele>478.63900756836</ele>
        <time>2009-10-24T14:47:15Z</time>
      </trkpt>
      <trkpt lat="44.98691" lon="4.68701">
        <ele>480.08401489258</ele>
        <time>2009-10-24T14:47:21Z</time>
      </trkpt>
      <trkpt lat="44.98679" lon="4.68686">
        <ele>481.61700439453</ele>
        <time>2009-10-24T14:47:28Z</time>
      </trkpt>
      <trkpt lat="44.98664" lon="4.6867">
        <ele>483.4049987793</ele>
        <time>2009-10-24T14:47:36Z</time>
      </trkpt>
      <trkpt lat="44.98655" lon="4.68668">
        <ele>484.40100097656</ele>
        <time>2009-10-24T14:47:41Z</time>
      </trkpt>
      <trkpt lat="44.98639" lon="4.68666">
        <ele>485.72500610352</ele>
        <time>2009-10-24T14:47:48Z</time>
      </trkpt>
      <trkpt lat="44.98617" lon="4.68666">
        <ele>487.8450012207</ele>
        <time>2009-10-24T14:47:57Z</time>
      </trkpt>
      <trkpt lat="44.98602" lon="4.68663">
        <ele>489.74398803711</ele>
        <time>2009-10-24T14:48:04Z</time>
      </trkpt>
      <trkpt lat="44.98596" lon="4.68663">
        <ele>490.04699707031</ele>
        <time>2009-10-24T14:48:06Z</time>
      </trkpt>
      <trkpt lat="44.98592" lon="4.68679">
        <ele>490.39599609375</ele>
        <time>2009-10-24T14:48:11Z</time>
      </trkpt>
      <trkpt lat="44.98594" lon="4.68691">
        <ele>490.52499389648</ele>
        <time>2009-10-24T14:48:14Z</time>
      </trkpt>
      <trkpt lat="44.98599" lon="4.68723">
        <ele>490.99899291992</ele>
        <time>2009-10-24T14:48:21Z</time>
      </trkpt>
      <trkpt lat="44.98604" lon="4.68761">
        <ele>491.52600097656</ele>
        <time>2009-10-24T14:48:28Z</time>
      </trkpt>
      <trkpt lat="44.98605" lon="4.68767">
        <ele>491.52499389648</ele>
        <time>2009-10-24T14:48:29Z</time>
      </trkpt>
      <trkpt lat="44.98607" lon="4.68785">
        <ele>491.51098632812</ele>
        <time>2009-10-24T14:48:32Z</time>
      </trkpt>
      <trkpt lat="44.98608" lon="4.68802">
        <ele>491.58999633789</ele>
        <time>2009-10-24T14:48:34Z</time>
      </trkpt>
      <trkpt lat="44.98603" lon="4.68826">
        <ele>492.07901000977</ele>
        <time>2009-10-24T14:48:38Z</time>
      </trkpt>
      <trkpt lat="44.98601" lon="4.6883">
        <ele>492.21499633789</ele>
        <time>2009-10-24T14:48:39Z</time>
      </trkpt>
      <trkpt lat="44.98569" lon="4.68862">
        <ele>493.60998535156</ele>
        <time>2009-10-24T14:48:48Z</time>
      </trkpt>
      <trkpt lat="44.98544" lon="4.68889">
        <ele>495.10598754883</ele>
        <time>2009-10-24T14:48:56Z</time>
      </trkpt>
      <trkpt lat="44.98513" lon="4.68905">
        <ele>496.61401367188</ele>
        <time>2009-10-24T14:49:04Z</time>
      </trkpt>
      <trkpt lat="44.98481" lon="4.68921">
        <ele>497.60198974609</ele>
        <time>2009-10-24T14:49:12Z</time>
      </trkpt>
      <trkpt lat="44.98454" lon="4.68935">
        <ele>498.87200927734</ele>
        <time>2009-10-24T14:49:19Z</time>
      </trkpt>
      <trkpt lat="44.9844" lon="4.68957">
        <ele>499.43399047852</ele>
        <time>2009-10-24T14:49:24Z</time>
      </trkpt>
      <trkpt lat="44.98445" lon="4.68981">
        <ele>500.20199584961</ele>
        <time>2009-10-24T14:49:28Z</time>
      </trkpt>
      <trkpt lat="44.9846" lon="4.68992">
        <ele>501.36599731445</ele>
        <time>2009-10-24T14:49:32Z</time>
      </trkpt>
      <trkpt lat="44.98468" lon="4.68993">
        <ele>501.63101196289</ele>
        <time>2009-10-24T14:49:34Z</time>
      </trkpt>
      <trkpt lat="44.98486" lon="4.68994">
        <ele>502.46398925781</ele>
        <time>2009-10-24T14:49:38Z</time>
      </trkpt>
      <trkpt lat="44.98506" lon="4.6901">
        <ele>503.32699584961</ele>
        <time>2009-10-24T14:49:43Z</time>
      </trkpt>
      <trkpt lat="44.98519" lon="4.69043">
        <ele>504.63000488281</ele>
        <time>2009-10-24T14:49:49Z</time>
      </trkpt>
      <trkpt lat="44.98518" lon="4.69068">
        <ele>505.54299926758</ele>
        <time>2009-10-24T14:49:53Z</time>
      </trkpt>
      <trkpt lat="44.98509" lon="4.69102">
        <ele>506.75100708008</ele>
        <time>2009-10-24T14:49:59Z</time>
      </trkpt>
      <trkpt lat="44.9851" lon="4.69133">
        <ele>507.81698608398</ele>
        <time>2009-10-24T14:50:04Z</time>
      </trkpt>
      <trkpt lat="44.98522" lon="4.69147">
        <ele>509.10000610352</ele>
        <time>2009-10-24T14:50:08Z</time>
      </trkpt>
      <trkpt lat="44.98545" lon="4.6917">
        <ele>510.61801147461</ele>
        <time>2009-10-24T14:50:16Z</time>
      </trkpt>
      <trkpt lat="44.98566" lon="4.6919">
        <ele>511.39498901367</ele>
        <time>2009-10-24T14:50:23Z</time>
      </trkpt>
      <trkpt lat="44.98584" lon="4.69189">
        <ele>512.47998046875</ele>
        <time>2009-10-24T14:50:28Z</time>
      </trkpt>
      <trkpt lat="44.98601" lon="4.69195">
        <ele>513.25897216797</ele>
        <time>2009-10-24T14:50:33Z</time>
      </trkpt>
      <trkpt lat="44.98633" lon="4.69218">
        <ele>514.96197509766</ele>
        <time>2009-10-24T14:50:43Z</time>
      </trkpt>
      <trkpt lat="44.9866" lon="4.69234">
        <ele>516.61798095703</ele>
        <time>2009-10-24T14:50:52Z</time>
      </trkpt>
      <trkpt lat="44.98677" lon="4.69248">
        <ele>517.61401367188</ele>
        <time>2009-10-24T14:50:58Z</time>
      </trkpt>
      <trkpt lat="44.98683" lon="4.69265">
        <ele>518.36401367188</ele>
        <time>2009-10-24T14:51:02Z</time>
      </trkpt>
      <trkpt lat="44.98686" lon="4.69293">
        <ele>519.38000488281</ele>
        <time>2009-10-24T14:51:08Z</time>
      </trkpt>
      <trkpt lat="44.98682" lon="4.6933">
        <ele>520.67700195312</ele>
        <time>2009-10-24T14:51:16Z</time>
      </trkpt>
      <trkpt lat="44.98669" lon="4.69351">
        <ele>521.76800537109</ele>
        <time>2009-10-24T14:51:22Z</time>
      </trkpt>
      <trkpt lat="44.98648" lon="4.69376">
        <ele>523.47302246094</ele>
        <time>2009-10-24T14:51:30Z</time>
      </trkpt>
      <trkpt lat="44.9863" lon="4.69403">
        <ele>524.50799560547</ele>
        <time>2009-10-24T14:51:38Z</time>
      </trkpt>
      <trkpt lat="44.98625" lon="4.69426">
        <ele>525.61901855469</ele>
        <time>2009-10-24T14:51:44Z</time>
      </trkpt>
      <trkpt lat="44.98621" lon="4.69452">
        <ele>526.02697753906</ele>
        <time>2009-10-24T14:51:50Z</time>
      </trkpt>
      <trkpt lat="44.9861" lon="4.69484">
        <ele>527.36297607422</ele>
        <time>2009-10-24T14:51:58Z</time>
      </trkpt>
      <trkpt lat="44.98597" lon="4.69521">
        <ele>529.17102050781</ele>
        <time>2009-10-24T14:52:07Z</time>
      </trkpt>
      <trkpt lat="44.98595" lon="4.69556">
        <ele>530.14599609375</ele>
        <time>2009-10-24T14:52:14Z</time>
      </trkpt>
      <trkpt lat="44.98589" lon="4.69596">
        <ele>531.61297607422</ele>
        <time>2009-10-24T14:52:22Z</time>
      </trkpt>
      <trkpt lat="44.98579" lon="4.69622">
        <ele>532.46600341797</ele>
        <time>2009-10-24T14:52:28Z</time>
      </trkpt>
      <trkpt lat="44.98568" lon="4.69656">
        <ele>534.15802001953</ele>
        <time>2009-10-24T14:52:36Z</time>
      </trkpt>
      <trkpt lat="44.98572" lon="4.69675">
        <ele>534.90600585938</ele>
        <time>2009-10-24T14:52:40Z</time>
      </trkpt>
      <trkpt lat="44.98584" lon="4.69684">
        <ele>535.54797363281</ele>
        <time>2009-10-24T14:52:44Z</time>
      </trkpt>
      <trkpt lat="44.98604" lon="4.69684">
        <ele>536.53601074219</ele>
        <time>2009-10-24T14:52:50Z</time>
      </trkpt>
      <trkpt lat="44.98634" lon="4.69682">
        <ele>538.21398925781</ele>
        <time>2009-10-24T14:52:59Z</time>
      </trkpt>
      <trkpt lat="44.98657" lon="4.69681">
        <ele>539.38702392578</ele>
        <time>2009-10-24T14:53:06Z</time>
      </trkpt>
      <trkpt lat="44.98679" lon="4.69681">
        <ele>540.26397705078</ele>
        <time>2009-10-24T14:53:12Z</time>
      </trkpt>
      <trkpt lat="44.98715" lon="4.69683">
        <ele>542.41198730469</ele>
        <time>2009-10-24T14:53:22Z</time>
      </trkpt>
      <trkpt lat="44.98747" lon="4.69688">
        <ele>543.69500732422</ele>
        <time>2009-10-24T14:53:31Z</time>
      </trkpt>
      <trkpt lat="44.98764" lon="4.6969">
        <ele>544.59997558594</ele>
        <time>2009-10-24T14:53:37Z</time>
      </trkpt>
      <trkpt lat="44.9878" lon="4.69692">
        <ele>545.37902832031</ele>
        <time>2009-10-24T14:53:43Z</time>
      </trkpt>
      <trkpt lat="44.98801" lon="4.69699">
        <ele>546.5830078125</ele>
        <time>2009-10-24T14:53:51Z</time>
      </trkpt>
      <trkpt lat="44.98819" lon="4.69712">
        <ele>547.62097167969</ele>
        <time>2009-10-24T14:53:57Z</time>
      </trkpt>
      <trkpt lat="44.98847" lon="4.69732">
        <ele>548.93597412109</ele>
        <time>2009-10-24T14:54:05Z</time>
      </trkpt>
      <trkpt lat="44.98866" lon="4.69748">
        <ele>550.21600341797</ele>
        <time>2009-10-24T14:54:11Z</time>
      </trkpt>
      <trkpt lat="44.98878" lon="4.69764">
        <ele>551.25299072266</ele>
        <time>2009-10-24T14:54:17Z</time>
      </trkpt>
      <trkpt lat="44.98891" lon="4.69785">
        <ele>551.70697021484</ele>
        <time>2009-10-24T14:54:24Z</time>
      </trkpt>
      <trkpt lat="44.98902" lon="4.69799">
        <ele>552.66802978516</ele>
        <time>2009-10-24T14:54:29Z</time>
      </trkpt>
      <trkpt lat="44.98914" lon="4.69812">
        <ele>553.64398193359</ele>
        <time>2009-10-24T14:54:34Z</time>
      </trkpt>
      <trkpt lat="44.98927" lon="4.69832">
        <ele>554.74200439453</ele>
        <time>2009-10-24T14:54:40Z</time>
      </trkpt>
      <trkpt lat="44.98935" lon="4.69857">
        <ele>555.666015625</ele>
        <time>2009-10-24T14:54:46Z</time>
      </trkpt>
      <trkpt lat="44.98944" lon="4.69873">
        <ele>556.84698486328</ele>
        <time>2009-10-24T14:54:51Z</time>
      </trkpt>
      <trkpt lat="44.98954" lon="4.69882">
        <ele>557.11102294922</ele>
        <time>2009-10-24T14:54:56Z</time>
      </trkpt>
      <trkpt lat="44.98965" lon="4.69891">
        <ele>558.09600830078</ele>
        <time>2009-10-24T14:55:01Z</time>
      </trkpt>
      <trkpt lat="44.98975" lon="4.69903">
        <ele>558.89001464844</ele>
        <time>2009-10-24T14:55:06Z</time>
      </trkpt>
      <trkpt lat="44.98983" lon="4.69916">
        <ele>559.43701171875</ele>
        <time>2009-10-24T14:55:11Z</time>
      </trkpt>
      <trkpt lat="44.98997" lon="4.69932">
        <ele>560.4580078125</ele>
        <time>2009-10-24T14:55:16Z</time>
      </trkpt>
      <trkpt lat="44.99009" lon="4.69947">
        <ele>560.94097900391</ele>
        <time>2009-10-24T14:55:21Z</time>
      </trkpt>
      <trkpt lat="44.99017" lon="4.69964">
        <ele>561.81597900391</ele>
        <time>2009-10-24T14:55:26Z</time>
      </trkpt>
      <trkpt lat="44.99031" lon="4.69989">
        <ele>563.24200439453</ele>
        <time>2009-10-24T14:55:33Z</time>
      </trkpt>
      <trkpt lat="44.99042" lon="4.70012">
        <ele>563.97698974609</ele>
        <time>2009-10-24T14:55:39Z</time>
      </trkpt>
      <trkpt lat="44.99056" lon="4.7004">
        <ele>565.10900878906</ele>
        <time>2009-10-24T14:55:46Z</time>
      </trkpt>
      <trkpt lat="44.99066" lon="4.70058">
        <ele>566.08099365234</ele>
        <time>2009-10-24T14:55:51Z</time>
      </trkpt>
      <trkpt lat="44.99076" lon="4.70085">
        <ele>567.37200927734</ele>
        <time>2009-10-24T14:55:58Z</time>
      </trkpt>
      <trkpt lat="44.99078" lon="4.70088">
        <ele>567.63397216797</ele>
        <time>2009-10-24T14:55:59Z</time>
      </trkpt>
      <trkpt lat="44.99086" lon="4.701">
        <ele>568.07702636719</ele>
        <time>2009-10-24T14:56:03Z</time>
      </trkpt>
      <trkpt lat="44.99095" lon="4.70116">
        <ele>568.82299804688</ele>
        <time>2009-10-24T14:56:08Z</time>
      </trkpt>
      <trkpt lat="44.99099" lon="4.70143">
        <ele>569.68902587891</ele>
        <time>2009-10-24T14:56:15Z</time>
      </trkpt>
      <trkpt lat="44.99094" lon="4.70168">
        <ele>570.53601074219</ele>
        <time>2009-10-24T14:56:21Z</time>
      </trkpt>
      <trkpt lat="44.99085" lon="4.702">
        <ele>572.09399414062</ele>
        <time>2009-10-24T14:56:29Z</time>
      </trkpt>
      <trkpt lat="44.99081" lon="4.70233">
        <ele>573.22302246094</ele>
        <time>2009-10-24T14:56:36Z</time>
      </trkpt>
      <trkpt lat="44.99075" lon="4.70272">
        <ele>574.54498291016</ele>
        <time>2009-10-24T14:56:44Z</time>
      </trkpt>
      <trkpt lat="44.9908" lon="4.70291">
        <ele>575.38598632812</ele>
        <time>2009-10-24T14:56:49Z</time>
      </trkpt>
      <trkpt lat="44.99093" lon="4.70302">
        <ele>576.09399414062</ele>
        <time>2009-10-24T14:56:54Z</time>
      </trkpt>
      <trkpt lat="44.99102" lon="4.70307">
        <ele>576.55902099609</ele>
        <time>2009-10-24T14:56:57Z</time>
      </trkpt>
      <trkpt lat="44.99121" lon="4.70325">
        <ele>577.32501220703</ele>
        <time>2009-10-24T14:57:04Z</time>
      </trkpt>
      <trkpt lat="44.99128" lon="4.70345">
        <ele>578.27001953125</ele>
        <time>2009-10-24T14:57:09Z</time>
      </trkpt>
      <trkpt lat="44.9913" lon="4.70371">
        <ele>579.15802001953</ele>
        <time>2009-10-24T14:57:16Z</time>
      </trkpt>
      <trkpt lat="44.99133" lon="4.70407">
        <ele>580.65698242188</ele>
        <time>2009-10-24T14:57:25Z</time>
      </trkpt>
      <trkpt lat="44.99126" lon="4.70427">
        <ele>581.25500488281</ele>
        <time>2009-10-24T14:57:30Z</time>
      </trkpt>
      <trkpt lat="44.99111" lon="4.7044">
        <ele>582.48400878906</ele>
        <time>2009-10-24T14:57:36Z</time>
      </trkpt>
      <trkpt lat="44.99089" lon="4.70443">
        <ele>583.73400878906</ele>
        <time>2009-10-24T14:57:43Z</time>
      </trkpt>
      <trkpt lat="44.99065" lon="4.70446">
        <ele>584.86999511719</ele>
        <time>2009-10-24T14:57:51Z</time>
      </trkpt>
      <trkpt lat="44.9905" lon="4.70461">
        <ele>585.93798828125</ele>
        <time>2009-10-24T14:57:57Z</time>
      </trkpt>
      <trkpt lat="44.99042" lon="4.70484">
        <ele>586.82202148438</ele>
        <time>2009-10-24T14:58:03Z</time>
      </trkpt>
      <trkpt lat="44.99044" lon="4.70518">
        <ele>588.10198974609</ele>
        <time>2009-10-24T14:58:10Z</time>
      </trkpt>
      <trkpt lat="44.99052" lon="4.70561">
        <ele>589.57098388672</ele>
        <time>2009-10-24T14:58:19Z</time>
      </trkpt>
      <trkpt lat="44.99065" lon="4.70598">
        <ele>590.92102050781</ele>
        <time>2009-10-24T14:58:28Z</time>
      </trkpt>
      <trkpt lat="44.99071" lon="4.70623">
        <ele>592.10400390625</ele>
        <time>2009-10-24T14:58:34Z</time>
      </trkpt>
      <trkpt lat="44.9907" lon="4.7065">
        <ele>593.02502441406</ele>
        <time>2009-10-24T14:58:40Z</time>
      </trkpt>
      <trkpt lat="44.99062" lon="4.70672">
        <ele>593.97198486328</ele>
        <time>2009-10-24T14:58:46Z</time>
      </trkpt>
      <trkpt lat="44.99049" lon="4.70698">
        <ele>595.29302978516</ele>
        <time>2009-10-24T14:58:54Z</time>
      </trkpt>
      <trkpt lat="44.99043" lon="4.70718">
        <ele>596.02502441406</ele>
        <time>2009-10-24T14:59:00Z</time>
      </trkpt>
      <trkpt lat="44.9904" lon="4.70733">
        <ele>596.62701416016</ele>
        <time>2009-10-24T14:59:05Z</time>
      </trkpt>
      <trkpt lat="44.99032" lon="4.70761">
        <ele>597.69000244141</ele>
        <time>2009-10-24T14:59:13Z</time>
      </trkpt>
      <trkpt lat="44.99017" lon="4.70785">
        <ele>598.94201660156</ele>
        <time>2009-10-24T14:59:21Z</time>
      </trkpt>
      <trkpt lat="44.99" lon="4.70801">
        <ele>599.67498779297</ele>
        <time>2009-10-24T14:59:28Z</time>
      </trkpt>
      <trkpt lat="44.98984" lon="4.70819">
        <ele>600.458984375</ele>
        <time>2009-10-24T14:59:35Z</time>
      </trkpt>
      <trkpt lat="44.98967" lon="4.70844">
        <ele>600.76397705078</ele>
        <time>2009-10-24T14:59:42Z</time>
      </trkpt>
      <trkpt lat="44.98965" lon="4.70849">
        <ele>601.06799316406</ele>
        <time>2009-10-24T14:59:43Z</time>
      </trkpt>
      <trkpt lat="44.9895" lon="4.70879">
        <ele>600.84600830078</ele>
        <time>2009-10-24T14:59:49Z</time>
      </trkpt>
      <trkpt lat="44.98945" lon="4.7089">
        <ele>600.71899414062</ele>
        <time>2009-10-24T14:59:51Z</time>
      </trkpt>
      <trkpt lat="44.98933" lon="4.70929">
        <ele>600.41802978516</ele>
        <time>2009-10-24T14:59:57Z</time>
      </trkpt>
      <trkpt lat="44.98917" lon="4.70967">
        <ele>599.68597412109</ele>
        <time>2009-10-24T15:00:03Z</time>
      </trkpt>
      <trkpt lat="44.98912" lon="4.70981">
        <ele>599.54302978516</ele>
        <time>2009-10-24T15:00:05Z</time>
      </trkpt>
      <trkpt lat="44.98912" lon="4.71034">
        <ele>597.84497070312</ele>
        <time>2009-10-24T15:00:11Z</time>
      </trkpt>
      <trkpt lat="44.9891" lon="4.71114">
        <ele>596.35101318359</ele>
        <time>2009-10-24T15:00:19Z</time>
      </trkpt>
      <trkpt lat="44.98913" lon="4.71148">
        <ele>594.46301269531</ele>
        <time>2009-10-24T15:00:22Z</time>
      </trkpt>
      <trkpt lat="44.98915" lon="4.7116">
        <ele>593.81097412109</ele>
        <time>2009-10-24T15:00:23Z</time>
      </trkpt>
      <trkpt lat="44.98927" lon="4.71211">
        <ele>590.97998046875</ele>
        <time>2009-10-24T15:00:27Z</time>
      </trkpt>
      <trkpt lat="44.98949" lon="4.71247">
        <ele>589.68597412109</ele>
        <time>2009-10-24T15:00:31Z</time>
      </trkpt>
      <trkpt lat="44.98986" lon="4.71281">
        <ele>587.74401855469</ele>
        <time>2009-10-24T15:00:36Z</time>
      </trkpt>
      <trkpt lat="44.99026" lon="4.71314">
        <ele>585.35400390625</ele>
        <time>2009-10-24T15:00:41Z</time>
      </trkpt>
      <trkpt lat="44.99052" lon="4.71335">
        <ele>584.02899169922</ele>
        <time>2009-10-24T15:00:44Z</time>
      </trkpt>
      <trkpt lat="44.99072" lon="4.71368">
        <ele>582.85400390625</ele>
        <time>2009-10-24T15:00:47Z</time>
      </trkpt>
      <trkpt lat="44.99074" lon="4.7138">
        <ele>582.22100830078</ele>
        <time>2009-10-24T15:00:48Z</time>
      </trkpt>
      <trkpt lat="44.99088" lon="4.71403">
        <ele>581.05102539062</ele>
        <time>2009-10-24T15:00:51Z</time>
      </trkpt>
      <trkpt lat="44.99099" lon="4.71403">
        <ele>580.0830078125</ele>
        <time>2009-10-24T15:00:53Z</time>
      </trkpt>
      <trkpt lat="44.99133" lon="4.71415">
        <ele>577.67797851562</ele>
        <time>2009-10-24T15:00:57Z</time>
      </trkpt>
      <trkpt lat="44.99186" lon="4.71466">
        <ele>575.35797119141</ele>
        <time>2009-10-24T15:01:03Z</time>
      </trkpt>
      <trkpt lat="44.99206" lon="4.71514">
        <ele>573.41998291016</ele>
        <time>2009-10-24T15:01:07Z</time>
      </trkpt>
      <trkpt lat="44.99231" lon="4.71572">
        <ele>571.23199462891</ele>
        <time>2009-10-24T15:01:12Z</time>
      </trkpt>
      <trkpt lat="44.99245" lon="4.71593">
        <ele>570.50402832031</ele>
        <time>2009-10-24T15:01:14Z</time>
      </trkpt>
      <trkpt lat="44.99251" lon="4.71618">
        <ele>569.68298339844</ele>
        <time>2009-10-24T15:01:16Z</time>
      </trkpt>
      <trkpt lat="44.99254" lon="4.71646">
        <ele>569.30499267578</ele>
        <time>2009-10-24T15:01:18Z</time>
      </trkpt>
      <trkpt lat="44.99272" lon="4.71694">
        <ele>567.78601074219</ele>
        <time>2009-10-24T15:01:22Z</time>
      </trkpt>
      <trkpt lat="44.99301" lon="4.71748">
        <ele>565.96697998047</ele>
        <time>2009-10-24T15:01:27Z</time>
      </trkpt>
      <trkpt lat="44.99306" lon="4.71759">
        <ele>565.57897949219</ele>
        <time>2009-10-24T15:01:28Z</time>
      </trkpt>
      <trkpt lat="44.99335" lon="4.71793">
        <ele>564.29901123047</ele>
        <time>2009-10-24T15:01:32Z</time>
      </trkpt>
      <trkpt lat="44.99351" lon="4.71807">
        <ele>563.46002197266</ele>
        <time>2009-10-24T15:01:34Z</time>
      </trkpt>
      <trkpt lat="44.99363" lon="4.7184">
        <ele>562.12097167969</ele>
        <time>2009-10-24T15:01:37Z</time>
      </trkpt>
      <trkpt lat="44.99353" lon="4.71863">
        <ele>561.30999755859</ele>
        <time>2009-10-24T15:01:39Z</time>
      </trkpt>
      <trkpt lat="44.9934" lon="4.71882">
        <ele>561.1259765625</ele>
        <time>2009-10-24T15:01:41Z</time>
      </trkpt>
      <trkpt lat="44.99332" lon="4.71917">
        <ele>560.59301757812</ele>
        <time>2009-10-24T15:01:44Z</time>
      </trkpt>
      <trkpt lat="44.99338" lon="4.7194">
        <ele>560.28900146484</ele>
        <time>2009-10-24T15:01:46Z</time>
      </trkpt>
      <trkpt lat="44.99342" lon="4.71981">
        <ele>559.85400390625</ele>
        <time>2009-10-24T15:01:50Z</time>
      </trkpt>
      <trkpt lat="44.99336" lon="4.71988">
        <ele>560.08697509766</ele>
        <time>2009-10-24T15:01:51Z</time>
      </trkpt>
      <trkpt lat="44.9932" lon="4.72021">
        <ele>559.07299804688</ele>
        <time>2009-10-24T15:01:55Z</time>
      </trkpt>
      <trkpt lat="44.99325" lon="4.72041">
        <ele>558.35498046875</ele>
        <time>2009-10-24T15:01:57Z</time>
      </trkpt>
      <trkpt lat="44.99337" lon="4.72056">
        <ele>557.92401123047</ele>
        <time>2009-10-24T15:01:59Z</time>
      </trkpt>
      <trkpt lat="44.99357" lon="4.72077">
        <ele>556.63800048828</ele>
        <time>2009-10-24T15:02:02Z</time>
      </trkpt>
      <trkpt lat="44.99388" lon="4.72135">
        <ele>554.24200439453</ele>
        <time>2009-10-24T15:02:08Z</time>
      </trkpt>
      <trkpt lat="44.99392" lon="4.72145">
        <ele>553.86199951172</ele>
        <time>2009-10-24T15:02:09Z</time>
      </trkpt>
      <trkpt lat="44.99429" lon="4.72182">
        <ele>551.59002685547</ele>
        <time>2009-10-24T15:02:14Z</time>
      </trkpt>
      <trkpt lat="44.99445" lon="4.72197">
        <ele>550.81701660156</ele>
        <time>2009-10-24T15:02:16Z</time>
      </trkpt>
      <trkpt lat="44.99482" lon="4.72211">
        <ele>549.90002441406</ele>
        <time>2009-10-24T15:02:20Z</time>
      </trkpt>
      <trkpt lat="44.99551" lon="4.72214">
        <ele>547.12799072266</ele>
        <time>2009-10-24T15:02:27Z</time>
      </trkpt>
      <trkpt lat="44.99561" lon="4.72214">
        <ele>547.01202392578</ele>
        <time>2009-10-24T15:02:28Z</time>
      </trkpt>
      <trkpt lat="44.99596" lon="4.72235">
        <ele>544.73901367188</ele>
        <time>2009-10-24T15:02:32Z</time>
      </trkpt>
      <trkpt lat="44.99601" lon="4.72247">
        <ele>544.48797607422</ele>
        <time>2009-10-24T15:02:33Z</time>
      </trkpt>
      <trkpt lat="44.99604" lon="4.72259">
        <ele>544.08099365234</ele>
        <time>2009-10-24T15:02:34Z</time>
      </trkpt>
      <trkpt lat="44.99612" lon="4.72328">
        <ele>542.01898193359</ele>
        <time>2009-10-24T15:02:39Z</time>
      </trkpt>
      <trkpt lat="44.99608" lon="4.72342">
        <ele>541.89001464844</ele>
        <time>2009-10-24T15:02:40Z</time>
      </trkpt>
      <trkpt lat="44.99603" lon="4.72355">
        <ele>541.69396972656</ele>
        <time>2009-10-24T15:02:41Z</time>
      </trkpt>
      <trkpt lat="44.99585" lon="4.7239">
        <ele>540.84399414062</ele>
        <time>2009-10-24T15:02:44Z</time>
      </trkpt>
      <trkpt lat="44.99575" lon="4.72443">
        <ele>539.82702636719</ele>
        <time>2009-10-24T15:02:48Z</time>
      </trkpt>
      <trkpt lat="44.99578" lon="4.72485">
        <ele>538.57202148438</ele>
        <time>2009-10-24T15:02:51Z</time>
      </trkpt>
      <trkpt lat="44.99571" lon="4.72523">
        <ele>536.75402832031</ele>
        <time>2009-10-24T15:02:54Z</time>
      </trkpt>
      <trkpt lat="44.99551" lon="4.72532">
        <ele>536.39398193359</ele>
        <time>2009-10-24T15:02:56Z</time>
      </trkpt>
      <trkpt lat="44.99541" lon="4.72533">
        <ele>535.96099853516</ele>
        <time>2009-10-24T15:02:57Z</time>
      </trkpt>
      <trkpt lat="44.99522" lon="4.72536">
        <ele>535.63397216797</ele>
        <time>2009-10-24T15:02:59Z</time>
      </trkpt>
      <trkpt lat="44.99478" lon="4.72558">
        <ele>534.01800537109</ele>
        <time>2009-10-24T15:03:04Z</time>
      </trkpt>
      <trkpt lat="44.99419" lon="4.72602">
        <ele>531.28698730469</ele>
        <time>2009-10-24T15:03:11Z</time>
      </trkpt>
      <trkpt lat="44.9939" lon="4.72635">
        <ele>529.68499755859</ele>
        <time>2009-10-24T15:03:15Z</time>
      </trkpt>
      <trkpt lat="44.99359" lon="4.72667">
        <ele>528.33502197266</ele>
        <time>2009-10-24T15:03:19Z</time>
      </trkpt>
      <trkpt lat="44.99339" lon="4.72707">
        <ele>527.06701660156</ele>
        <time>2009-10-24T15:03:23Z</time>
      </trkpt>
      <trkpt lat="44.99344" lon="4.72732">
        <ele>526.86700439453</ele>
        <time>2009-10-24T15:03:25Z</time>
      </trkpt>
      <trkpt lat="44.99363" lon="4.72763">
        <ele>525.19000244141</ele>
        <time>2009-10-24T15:03:28Z</time>
      </trkpt>
      <trkpt lat="44.99377" lon="4.7278">
        <ele>524.38299560547</ele>
        <time>2009-10-24T15:03:30Z</time>
      </trkpt>
      <trkpt lat="44.99402" lon="4.72804">
        <ele>522.80603027344</ele>
        <time>2009-10-24T15:03:33Z</time>
      </trkpt>
      <trkpt lat="44.99416" lon="4.7284">
        <ele>520.47302246094</ele>
        <time>2009-10-24T15:03:36Z</time>
      </trkpt>
      <trkpt lat="44.99403" lon="4.7286">
        <ele>519.60498046875</ele>
        <time>2009-10-24T15:03:38Z</time>
      </trkpt>
      <trkpt lat="44.99393" lon="4.72865">
        <ele>519.26898193359</ele>
        <time>2009-10-24T15:03:39Z</time>
      </trkpt>
      <trkpt lat="44.99356" lon="4.72878">
        <ele>517.95098876953</ele>
        <time>2009-10-24T15:03:43Z</time>
      </trkpt>
      <trkpt lat="44.99317" lon="4.72882">
        <ele>516.72900390625</ele>
        <time>2009-10-24T15:03:47Z</time>
      </trkpt>
      <trkpt lat="44.99295" lon="4.72901">
        <ele>516.17401123047</ele>
        <time>2009-10-24T15:03:50Z</time>
      </trkpt>
      <trkpt lat="44.99294" lon="4.72928">
        <ele>515.291015625</ele>
        <time>2009-10-24T15:03:52Z</time>
      </trkpt>
      <trkpt lat="44.99303" lon="4.72966">
        <ele>514.26898193359</ele>
        <time>2009-10-24T15:03:55Z</time>
      </trkpt>
      <trkpt lat="44.99322" lon="4.72992">
        <ele>513.70501708984</ele>
        <time>2009-10-24T15:03:58Z</time>
      </trkpt>
      <trkpt lat="44.99337" lon="4.73005">
        <ele>513.34899902344</ele>
        <time>2009-10-24T15:04:00Z</time>
      </trkpt>
      <trkpt lat="44.99358" lon="4.73043">
        <ele>512.41497802734</ele>
        <time>2009-10-24T15:04:04Z</time>
      </trkpt>
      <trkpt lat="44.9936" lon="4.73056">
        <ele>512.00897216797</ele>
        <time>2009-10-24T15:04:05Z</time>
      </trkpt>
      <trkpt lat="44.99361" lon="4.73081">
        <ele>511.51901245117</ele>
        <time>2009-10-24T15:04:07Z</time>
      </trkpt>
      <trkpt lat="44.99355" lon="4.7312">
        <ele>509.57000732422</ele>
        <time>2009-10-24T15:04:10Z</time>
      </trkpt>
      <trkpt lat="44.99338" lon="4.73134">
        <ele>508.72100830078</ele>
        <time>2009-10-24T15:04:12Z</time>
      </trkpt>
      <trkpt lat="44.99288" lon="4.73153">
        <ele>506.38800048828</ele>
        <time>2009-10-24T15:04:17Z</time>
      </trkpt>
      <trkpt lat="44.99251" lon="4.73179">
        <ele>505.04901123047</ele>
        <time>2009-10-24T15:04:21Z</time>
      </trkpt>
      <trkpt lat="44.99244" lon="4.73189">
        <ele>504.75900268555</ele>
        <time>2009-10-24T15:04:22Z</time>
      </trkpt>
      <trkpt lat="44.99209" lon="4.73217">
        <ele>502.80700683594</ele>
        <time>2009-10-24T15:04:26Z</time>
      </trkpt>
      <trkpt lat="44.99168" lon="4.73218">
        <ele>501.91500854492</ele>
        <time>2009-10-24T15:04:30Z</time>
      </trkpt>
      <trkpt lat="44.99142" lon="4.73238">
        <ele>500.26501464844</ele>
        <time>2009-10-24T15:04:33Z</time>
      </trkpt>
      <trkpt lat="44.99112" lon="4.73278">
        <ele>498.45098876953</ele>
        <time>2009-10-24T15:04:37Z</time>
      </trkpt>
      <trkpt lat="44.99096" lon="4.73295">
        <ele>497.83499145508</ele>
        <time>2009-10-24T15:04:39Z</time>
      </trkpt>
      <trkpt lat="44.99039" lon="4.73335">
        <ele>495.28698730469</ele>
        <time>2009-10-24T15:04:45Z</time>
      </trkpt>
      <trkpt lat="44.9901" lon="4.73356">
        <ele>493.77600097656</ele>
        <time>2009-10-24T15:04:48Z</time>
      </trkpt>
      <trkpt lat="44.99001" lon="4.73363">
        <ele>493.06201171875</ele>
        <time>2009-10-24T15:04:49Z</time>
      </trkpt>
      <trkpt lat="44.98985" lon="4.73399">
        <ele>492.20700073242</ele>
        <time>2009-10-24T15:04:52Z</time>
      </trkpt>
      <trkpt lat="44.98985" lon="4.73444">
        <ele>490.1369934082</ele>
        <time>2009-10-24T15:04:55Z</time>
      </trkpt>
      <trkpt lat="44.9898" lon="4.73457">
        <ele>490.10699462891</ele>
        <time>2009-10-24T15:04:56Z</time>
      </trkpt>
      <trkpt lat="44.98956" lon="4.73485">
        <ele>488.57901000977</ele>
        <time>2009-10-24T15:04:59Z</time>
      </trkpt>
      <trkpt lat="44.98947" lon="4.73509">
        <ele>487.82699584961</ele>
        <time>2009-10-24T15:05:01Z</time>
      </trkpt>
      <trkpt lat="44.98947" lon="4.73523">
        <ele>487.68301391602</ele>
        <time>2009-10-24T15:05:02Z</time>
      </trkpt>
      <trkpt lat="44.98938" lon="4.73574">
        <ele>485.92098999023</ele>
        <time>2009-10-24T15:05:06Z</time>
      </trkpt>
      <trkpt lat="44.98912" lon="4.73592">
        <ele>484.91900634766</ele>
        <time>2009-10-24T15:05:09Z</time>
      </trkpt>
      <trkpt lat="44.98903" lon="4.73592">
        <ele>484.46600341797</ele>
        <time>2009-10-24T15:05:10Z</time>
      </trkpt>
      <trkpt lat="44.98869" lon="4.7361">
        <ele>483.22198486328</ele>
        <time>2009-10-24T15:05:14Z</time>
      </trkpt>
      <trkpt lat="44.9885" lon="4.73643">
        <ele>482.1130065918</ele>
        <time>2009-10-24T15:05:17Z</time>
      </trkpt>
      <trkpt lat="44.98823" lon="4.73654">
        <ele>481.39898681641</ele>
        <time>2009-10-24T15:05:20Z</time>
      </trkpt>
      <trkpt lat="44.9881" lon="4.73673">
        <ele>480.35299682617</ele>
        <time>2009-10-24T15:05:22Z</time>
      </trkpt>
      <trkpt lat="44.98808" lon="4.73699">
        <ele>479.93899536133</ele>
        <time>2009-10-24T15:05:24Z</time>
      </trkpt>
      <trkpt lat="44.9882" lon="4.73753">
        <ele>477.4580078125</ele>
        <time>2009-10-24T15:05:28Z</time>
      </trkpt>
      <trkpt lat="44.9884" lon="4.73784">
        <ele>476.02200317383</ele>
        <time>2009-10-24T15:05:31Z</time>
      </trkpt>
      <trkpt lat="44.98849" lon="4.7379">
        <ele>475.78698730469</ele>
        <time>2009-10-24T15:05:32Z</time>
      </trkpt>
      <trkpt lat="44.98859" lon="4.73796">
        <ele>475.04800415039</ele>
        <time>2009-10-24T15:05:33Z</time>
      </trkpt>
      <trkpt lat="44.98898" lon="4.73812">
        <ele>473.63101196289</ele>
        <time>2009-10-24T15:05:37Z</time>
      </trkpt>
      <trkpt lat="44.98916" lon="4.73823">
        <ele>472.72100830078</ele>
        <time>2009-10-24T15:05:39Z</time>
      </trkpt>
      <trkpt lat="44.98945" lon="4.73862">
        <ele>470.90701293945</ele>
        <time>2009-10-24T15:05:43Z</time>
      </trkpt>
      <trkpt lat="44.98948" lon="4.7389">
        <ele>469.78500366211</ele>
        <time>2009-10-24T15:05:45Z</time>
      </trkpt>
      <trkpt lat="44.98936" lon="4.7393">
        <ele>468.17001342773</ele>
        <time>2009-10-24T15:05:48Z</time>
      </trkpt>
      <trkpt lat="44.98928" lon="4.73939">
        <ele>467.6969909668</ele>
        <time>2009-10-24T15:05:49Z</time>
      </trkpt>
      <trkpt lat="44.98901" lon="4.73962">
        <ele>466.09899902344</ele>
        <time>2009-10-24T15:05:52Z</time>
      </trkpt>
      <trkpt lat="44.98891" lon="4.7397">
        <ele>465.68899536133</ele>
        <time>2009-10-24T15:05:53Z</time>
      </trkpt>
      <trkpt lat="44.98862" lon="4.74013">
        <ele>463.40301513672</ele>
        <time>2009-10-24T15:05:57Z</time>
      </trkpt>
      <trkpt lat="44.98858" lon="4.74027">
        <ele>463.17001342773</ele>
        <time>2009-10-24T15:05:58Z</time>
      </trkpt>
      <trkpt lat="44.98834" lon="4.74073">
        <ele>461.04098510742</ele>
        <time>2009-10-24T15:06:02Z</time>
      </trkpt>
      <trkpt lat="44.98824" lon="4.74079">
        <ele>460.85101318359</ele>
        <time>2009-10-24T15:06:03Z</time>
      </trkpt>
      <trkpt lat="44.98771" lon="4.74121">
        <ele>459.39898681641</ele>
        <time>2009-10-24T15:06:09Z</time>
      </trkpt>
      <trkpt lat="44.98754" lon="4.74134">
        <ele>459.10101318359</ele>
        <time>2009-10-24T15:06:11Z</time>
      </trkpt>
      <trkpt lat="44.98735" lon="4.74174">
        <ele>458.50601196289</ele>
        <time>2009-10-24T15:06:15Z</time>
      </trkpt>
      <trkpt lat="44.98739" lon="4.74198">
        <ele>457.86099243164</ele>
        <time>2009-10-24T15:06:17Z</time>
      </trkpt>
      <trkpt lat="44.98754" lon="4.74215">
        <ele>456.33599853516</ele>
        <time>2009-10-24T15:06:19Z</time>
      </trkpt>
      <trkpt lat="44.98762" lon="4.74222">
        <ele>456.04800415039</ele>
        <time>2009-10-24T15:06:20Z</time>
      </trkpt>
      <trkpt lat="44.9878" lon="4.74235">
        <ele>455.04400634766</ele>
        <time>2009-10-24T15:06:22Z</time>
      </trkpt>
      <trkpt lat="44.98809" lon="4.7426">
        <ele>453.14801025391</ele>
        <time>2009-10-24T15:06:25Z</time>
      </trkpt>
      <trkpt lat="44.98817" lon="4.7427">
        <ele>452.49301147461</ele>
        <time>2009-10-24T15:06:26Z</time>
      </trkpt>
      <trkpt lat="44.98861" lon="4.74313">
        <ele>450.26000976562</ele>
        <time>2009-10-24T15:06:31Z</time>
      </trkpt>
      <trkpt lat="44.98897" lon="4.74339">
        <ele>448.52700805664</ele>
        <time>2009-10-24T15:06:35Z</time>
      </trkpt>
      <trkpt lat="44.98951" lon="4.74356">
        <ele>444.43701171875</ele>
        <time>2009-10-24T15:06:40Z</time>
      </trkpt>
      <trkpt lat="44.98981" lon="4.74382">
        <ele>439.69198608398</ele>
        <time>2009-10-24T15:06:43Z</time>
      </trkpt>
      <trkpt lat="44.98994" lon="4.74413">
        <ele>438.07598876953</ele>
        <time>2009-10-24T15:06:45Z</time>
      </trkpt>
      <trkpt lat="44.99017" lon="4.74453">
        <ele>435.20901489258</ele>
        <time>2009-10-24T15:06:48Z</time>
      </trkpt>
      <trkpt lat="44.99029" lon="4.74461">
        <ele>434.7619934082</ele>
        <time>2009-10-24T15:06:49Z</time>
      </trkpt>
      <trkpt lat="44.99081" lon="4.74509">
        <ele>431.30801391602</ele>
        <time>2009-10-24T15:06:54Z</time>
      </trkpt>
      <trkpt lat="44.99096" lon="4.74547">
        <ele>427.90200805664</ele>
        <time>2009-10-24T15:06:57Z</time>
      </trkpt>
      <trkpt lat="44.99087" lon="4.74575">
        <ele>426.19299316406</ele>
        <time>2009-10-24T15:06:59Z</time>
      </trkpt>
      <trkpt lat="44.9904" lon="4.74675">
        <ele>420.11099243164</ele>
        <time>2009-10-24T15:07:06Z</time>
      </trkpt>
      <trkpt lat="44.99029" lon="4.74703">
        <ele>419.36898803711</ele>
        <time>2009-10-24T15:07:08Z</time>
      </trkpt>
      <trkpt lat="44.99023" lon="4.74718">
        <ele>418.75100708008</ele>
        <time>2009-10-24T15:07:10Z</time>
      </trkpt>
      <trkpt lat="44.99022" lon="4.74727">
        <ele>418.34399414062</ele>
        <time>2009-10-24T15:07:13Z</time>
      </trkpt>
      <trkpt lat="44.99019" lon="4.7474">
        <ele>417.80801391602</ele>
        <time>2009-10-24T15:07:19Z</time>
      </trkpt>
      <trkpt lat="44.99017" lon="4.74759">
        <ele>416.92401123047</ele>
        <time>2009-10-24T15:07:24Z</time>
      </trkpt>
      <trkpt lat="44.99013" lon="4.74769">
        <ele>416.8450012207</ele>
        <time>2009-10-24T15:07:29Z</time>
      </trkpt>
      <trkpt lat="44.99001" lon="4.74789">
        <ele>416.41900634766</ele>
        <time>2009-10-24T15:07:34Z</time>
      </trkpt>
      <trkpt lat="44.98988" lon="4.74818">
        <ele>415.88500976562</ele>
        <time>2009-10-24T15:07:39Z</time>
      </trkpt>
      <trkpt lat="44.98964" lon="4.74848">
        <ele>414.50299072266</ele>
        <time>2009-10-24T15:07:44Z</time>
      </trkpt>
      <trkpt lat="44.98942" lon="4.74855">
        <ele>413.19400024414</ele>
        <time>2009-10-24T15:07:47Z</time>
      </trkpt>
      <trkpt lat="44.98927" lon="4.74847">
        <ele>412.88000488281</ele>
        <time>2009-10-24T15:07:49Z</time>
      </trkpt>
      <trkpt lat="44.98894" lon="4.74821">
        <ele>412.37799072266</ele>
        <time>2009-10-24T15:07:54Z</time>
      </trkpt>
      <trkpt lat="44.98873" lon="4.7479">
        <ele>410.18499755859</ele>
        <time>2009-10-24T15:07:58Z</time>
      </trkpt>
      <trkpt lat="44.98844" lon="4.74764">
        <ele>408.8039855957</ele>
        <time>2009-10-24T15:08:02Z</time>
      </trkpt>
      <trkpt lat="44.98836" lon="4.74761">
        <ele>408.89898681641</ele>
        <time>2009-10-24T15:08:03Z</time>
      </trkpt>
      <trkpt lat="44.9881" lon="4.74755">
        <ele>407.6969909668</ele>
        <time>2009-10-24T15:08:06Z</time>
      </trkpt>
      <trkpt lat="44.98785" lon="4.74751">
        <ele>407.38400268555</ele>
        <time>2009-10-24T15:08:09Z</time>
      </trkpt>
      <trkpt lat="44.98752" lon="4.74755">
        <ele>405.93701171875</ele>
        <time>2009-10-24T15:08:13Z</time>
      </trkpt>
      <trkpt lat="44.98694" lon="4.74779">
        <ele>403.80999755859</ele>
        <time>2009-10-24T15:08:20Z</time>
      </trkpt>
      <trkpt lat="44.98657" lon="4.74781">
        <ele>401.89599609375</ele>
        <time>2009-10-24T15:08:24Z</time>
      </trkpt>
      <trkpt lat="44.98597" lon="4.74753">
        <ele>396.04598999023</ele>
        <time>2009-10-24T15:08:30Z</time>
      </trkpt>
      <trkpt lat="44.98555" lon="4.74696">
        <ele>392.27200317383</ele>
        <time>2009-10-24T15:08:35Z</time>
      </trkpt>
      <trkpt lat="44.98535" lon="4.74676">
        <ele>390.62600708008</ele>
        <time>2009-10-24T15:08:37Z</time>
      </trkpt>
      <trkpt lat="44.98523" lon="4.74671">
        <ele>389.73300170898</ele>
        <time>2009-10-24T15:08:38Z</time>
      </trkpt>
      <trkpt lat="44.98474" lon="4.74649">
        <ele>385.58499145508</ele>
        <time>2009-10-24T15:08:42Z</time>
      </trkpt>
      <trkpt lat="44.98431" lon="4.74609">
        <ele>382.73001098633</ele>
        <time>2009-10-24T15:08:46Z</time>
      </trkpt>
      <trkpt lat="44.98417" lon="4.74589">
        <ele>381.3210144043</ele>
        <time>2009-10-24T15:08:48Z</time>
      </trkpt>
      <trkpt lat="44.98408" lon="4.74574">
        <ele>380.69100952148</ele>
        <time>2009-10-24T15:08:52Z</time>
      </trkpt>
      <trkpt lat="44.98401" lon="4.74581">
        <ele>380.75698852539</ele>
        <time>2009-10-24T15:08:56Z</time>
      </trkpt>
      <trkpt lat="44.98404" lon="4.74603">
        <ele>380.35299682617</ele>
        <time>2009-10-24T15:09:03Z</time>
      </trkpt>
      <trkpt lat="44.98404" lon="4.74605">
        <ele>380.2919921875</ele>
        <time>2009-10-24T15:09:08Z</time>
      </trkpt>
      <trkpt lat="44.98405" lon="4.74605">
        <ele>380.14599609375</ele>
        <time>2009-10-24T15:09:22Z</time>
      </trkpt>
      <trkpt lat="44.98406" lon="4.74606">
        <ele>380.13800048828</ele>
        <time>2009-10-24T15:09:56Z</time>
      </trkpt>
      <trkpt lat="44.98412" lon="4.74601">
        <ele>379.76699829102</ele>
        <time>2009-10-24T15:10:01Z</time>
      </trkpt>
      <trkpt lat="44.9841" lon="4.74587">
        <ele>380.10101318359</ele>
        <time>2009-10-24T15:10:06Z</time>
      </trkpt>
      <trkpt lat="44.98407" lon="4.74573">
        <ele>380.1130065918</ele>
        <time>2009-10-24T15:10:11Z</time>
      </trkpt>
      <trkpt lat="44.98404" lon="4.74563">
        <ele>380.38101196289</ele>
        <time>2009-10-24T15:10:15Z</time>
      </trkpt>
      <trkpt lat="44.98398" lon="4.74544">
        <ele>380.66299438477</ele>
        <time>2009-10-24T15:10:21Z</time>
      </trkpt>
      <trkpt lat="44.98395" lon="4.74546">
        <ele>380.69198608398</ele>
        <time>2009-10-24T15:10:25Z</time>
      </trkpt>
      <trkpt lat="44.98395" lon="4.74547">
        <ele>380.23098754883</ele>
        <time>2009-10-24T15:10:27Z</time>
      </trkpt>
      <trkpt lat="44.98401" lon="4.74555">
        <ele>380.45401000977</ele>
        <time>2009-10-24T15:10:32Z</time>
      </trkpt>
      <trkpt lat="44.98404" lon="4.74578">
        <ele>380.125</ele>
        <time>2009-10-24T15:10:39Z</time>
      </trkpt>
      <trkpt lat="44.98407" lon="4.74599">
        <ele>379.67098999023</ele>
        <time>2009-10-24T15:10:45Z</time>
      </trkpt>
      <trkpt lat="44.98413" lon="4.74614">
        <ele>379.4700012207</ele>
        <time>2009-10-24T15:10:50Z</time>
      </trkpt>
      <trkpt lat="44.9842" lon="4.7462">
        <ele>379.20498657227</ele>
        <time>2009-10-24T15:10:53Z</time>
      </trkpt>
      <trkpt lat="44.98428" lon="4.74625">
        <ele>378.84298706055</ele>
        <time>2009-10-24T15:10:57Z</time>
      </trkpt>
      <trkpt lat="44.98441" lon="4.74638">
        <ele>378.53298950195</ele>
        <time>2009-10-24T15:11:03Z</time>
      </trkpt>
      <trkpt lat="44.98462" lon="4.74662">
        <ele>377.89700317383</ele>
        <time>2009-10-24T15:11:10Z</time>
      </trkpt>
      <trkpt lat="44.98487" lon="4.74691">
        <ele>377.27200317383</ele>
        <time>2009-10-24T15:11:18Z</time>
      </trkpt>
      <trkpt lat="44.98513" lon="4.74718">
        <ele>376.32901000977</ele>
        <time>2009-10-24T15:11:24Z</time>
      </trkpt>
      <trkpt lat="44.98536" lon="4.7475">
        <ele>375.41400146484</ele>
        <time>2009-10-24T15:11:30Z</time>
      </trkpt>
      <trkpt lat="44.98539" lon="4.74756">
        <ele>375.375</ele>
        <time>2009-10-24T15:11:31Z</time>
      </trkpt>
      <trkpt lat="44.98549" lon="4.74796">
        <ele>374.85699462891</ele>
        <time>2009-10-24T15:11:36Z</time>
      </trkpt>
      <trkpt lat="44.98549" lon="4.74823">
        <ele>374.4700012207</ele>
        <time>2009-10-24T15:11:39Z</time>
      </trkpt>
      <trkpt lat="44.98535" lon="4.74854">
        <ele>373.61499023438</ele>
        <time>2009-10-24T15:11:43Z</time>
      </trkpt>
      <trkpt lat="44.98511" lon="4.74873">
        <ele>373.57501220703</ele>
        <time>2009-10-24T15:11:47Z</time>
      </trkpt>
      <trkpt lat="44.98502" lon="4.74901">
        <ele>374.30999755859</ele>
        <time>2009-10-24T15:11:51Z</time>
      </trkpt>
      <trkpt lat="44.98506" lon="4.74916">
        <ele>374.45700073242</ele>
        <time>2009-10-24T15:11:53Z</time>
      </trkpt>
      <trkpt lat="44.98525" lon="4.74967">
        <ele>374.40798950195</ele>
        <time>2009-10-24T15:12:00Z</time>
      </trkpt>
      <trkpt lat="44.98532" lon="4.74999">
        <ele>374.39300537109</ele>
        <time>2009-10-24T15:12:04Z</time>
      </trkpt>
      <trkpt lat="44.98536" lon="4.75024">
        <ele>374.45098876953</ele>
        <time>2009-10-24T15:12:07Z</time>
      </trkpt>
      <trkpt lat="44.98543" lon="4.75076">
        <ele>374.97799682617</ele>
        <time>2009-10-24T15:12:13Z</time>
      </trkpt>
      <trkpt lat="44.98546" lon="4.75113">
        <ele>375.07000732422</ele>
        <time>2009-10-24T15:12:17Z</time>
      </trkpt>
      <trkpt lat="44.9855" lon="4.75177">
        <ele>375.74798583984</ele>
        <time>2009-10-24T15:12:24Z</time>
      </trkpt>
      <trkpt lat="44.98557" lon="4.75211">
        <ele>375.93099975586</ele>
        <time>2009-10-24T15:12:28Z</time>
      </trkpt>
      <trkpt lat="44.98554" lon="4.75247">
        <ele>376.21701049805</ele>
        <time>2009-10-24T15:12:32Z</time>
      </trkpt>
      <trkpt lat="44.98542" lon="4.7527">
        <ele>376.51599121094</ele>
        <time>2009-10-24T15:12:35Z</time>
      </trkpt>
      <trkpt lat="44.98502" lon="4.75318">
        <ele>376.96499633789</ele>
        <time>2009-10-24T15:12:43Z</time>
      </trkpt>
      <trkpt lat="44.98481" lon="4.7534">
        <ele>377.03799438477</ele>
        <time>2009-10-24T15:12:47Z</time>
      </trkpt>
      <trkpt lat="44.98455" lon="4.75343">
        <ele>377.18399047852</ele>
        <time>2009-10-24T15:12:51Z</time>
      </trkpt>
      <trkpt lat="44.98443" lon="4.75335">
        <ele>377.1549987793</ele>
        <time>2009-10-24T15:12:53Z</time>
      </trkpt>
      <trkpt lat="44.98426" lon="4.7532">
        <ele>377.11700439453</ele>
        <time>2009-10-24T15:12:56Z</time>
      </trkpt>
      <trkpt lat="44.98399" lon="4.75278">
        <ele>377.93099975586</ele>
        <time>2009-10-24T15:13:02Z</time>
      </trkpt>
      <trkpt lat="44.98389" lon="4.75264">
        <ele>377.98498535156</ele>
        <time>2009-10-24T15:13:04Z</time>
      </trkpt>
      <trkpt lat="44.98366" lon="4.75252">
        <ele>378.50100708008</ele>
        <time>2009-10-24T15:13:08Z</time>
      </trkpt>
      <trkpt lat="44.98352" lon="4.7527">
        <ele>378.50299072266</ele>
        <time>2009-10-24T15:13:11Z</time>
      </trkpt>
      <trkpt lat="44.98353" lon="4.75297">
        <ele>378.95700073242</ele>
        <time>2009-10-24T15:13:14Z</time>
      </trkpt>
      <trkpt lat="44.9836" lon="4.75312">
        <ele>379.16400146484</ele>
        <time>2009-10-24T15:13:16Z</time>
      </trkpt>
      <trkpt lat="44.98369" lon="4.75327">
        <ele>379.81298828125</ele>
        <time>2009-10-24T15:13:18Z</time>
      </trkpt>
      <trkpt lat="44.9838" lon="4.75363">
        <ele>379.62701416016</ele>
        <time>2009-10-24T15:13:22Z</time>
      </trkpt>
      <trkpt lat="44.98384" lon="4.75393">
        <ele>379.35900878906</ele>
        <time>2009-10-24T15:13:25Z</time>
      </trkpt>
      <trkpt lat="44.98381" lon="4.75443">
        <ele>379.32800292969</ele>
        <time>2009-10-24T15:13:30Z</time>
      </trkpt>
      <trkpt lat="44.9838" lon="4.75453">
        <ele>379.37200927734</ele>
        <time>2009-10-24T15:13:31Z</time>
      </trkpt>
      <trkpt lat="44.98369" lon="4.7549">
        <ele>379.48599243164</ele>
        <time>2009-10-24T15:13:35Z</time>
      </trkpt>
      <trkpt lat="44.98357" lon="4.75536">
        <ele>380.41299438477</ele>
        <time>2009-10-24T15:13:40Z</time>
      </trkpt>
      <trkpt lat="44.98353" lon="4.75576">
        <ele>380.40798950195</ele>
        <time>2009-10-24T15:13:44Z</time>
      </trkpt>
      <trkpt lat="44.98345" lon="4.75603">
        <ele>380.73300170898</ele>
        <time>2009-10-24T15:13:47Z</time>
      </trkpt>
      <trkpt lat="44.98336" lon="4.75619">
        <ele>380.99301147461</ele>
        <time>2009-10-24T15:13:49Z</time>
      </trkpt>
      <trkpt lat="44.98322" lon="4.75651">
        <ele>380.97100830078</ele>
        <time>2009-10-24T15:13:53Z</time>
      </trkpt>
      <trkpt lat="44.9833" lon="4.75676">
        <ele>381.23699951172</ele>
        <time>2009-10-24T15:13:56Z</time>
      </trkpt>
      <trkpt lat="44.98334" lon="4.75683">
        <ele>381.31100463867</ele>
        <time>2009-10-24T15:13:57Z</time>
      </trkpt>
      <trkpt lat="44.98352" lon="4.75713">
        <ele>381.56698608398</ele>
        <time>2009-10-24T15:14:01Z</time>
      </trkpt>
      <trkpt lat="44.98359" lon="4.75731">
        <ele>381.83700561523</ele>
        <time>2009-10-24T15:14:03Z</time>
      </trkpt>
      <trkpt lat="44.9837" lon="4.75754">
        <ele>381.89001464844</ele>
        <time>2009-10-24T15:14:06Z</time>
      </trkpt>
      <trkpt lat="44.98391" lon="4.75774">
        <ele>382.03201293945</ele>
        <time>2009-10-24T15:14:10Z</time>
      </trkpt>
      <trkpt lat="44.98425" lon="4.75794">
        <ele>382.42599487305</ele>
        <time>2009-10-24T15:14:15Z</time>
      </trkpt>
      <trkpt lat="44.98458" lon="4.75815">
        <ele>382.48001098633</ele>
        <time>2009-10-24T15:14:20Z</time>
      </trkpt>
      <trkpt lat="44.98493" lon="4.75846">
        <ele>382.76699829102</ele>
        <time>2009-10-24T15:14:26Z</time>
      </trkpt>
      <trkpt lat="44.98516" lon="4.75862">
        <ele>383.00299072266</ele>
        <time>2009-10-24T15:14:30Z</time>
      </trkpt>
      <trkpt lat="44.98549" lon="4.7588">
        <ele>383.32800292969</ele>
        <time>2009-10-24T15:14:35Z</time>
      </trkpt>
      <trkpt lat="44.98555" lon="4.75885">
        <ele>383.36700439453</ele>
        <time>2009-10-24T15:14:36Z</time>
      </trkpt>
      <trkpt lat="44.98578" lon="4.75915">
        <ele>383.75698852539</ele>
        <time>2009-10-24T15:14:40Z</time>
      </trkpt>
      <trkpt lat="44.98579" lon="4.75947">
        <ele>383.91598510742</ele>
        <time>2009-10-24T15:14:43Z</time>
      </trkpt>
      <trkpt lat="44.98578" lon="4.75956">
        <ele>384.21798706055</ele>
        <time>2009-10-24T15:14:44Z</time>
      </trkpt>
      <trkpt lat="44.98581" lon="4.76004">
        <ele>384.58898925781</ele>
        <time>2009-10-24T15:14:49Z</time>
      </trkpt>
      <trkpt lat="44.986" lon="4.76013">
        <ele>384.71099853516</ele>
        <time>2009-10-24T15:14:52Z</time>
      </trkpt>
      <trkpt lat="44.98621" lon="4.75998">
        <ele>385.27899169922</ele>
        <time>2009-10-24T15:14:55Z</time>
      </trkpt>
      <trkpt lat="44.98632" lon="4.75983">
        <ele>385.41400146484</ele>
        <time>2009-10-24T15:14:57Z</time>
      </trkpt>
      <trkpt lat="44.98666" lon="4.75958">
        <ele>386.13900756836</ele>
        <time>2009-10-24T15:15:02Z</time>
      </trkpt>
      <trkpt lat="44.98696" lon="4.75913">
        <ele>386.72601318359</ele>
        <time>2009-10-24T15:15:08Z</time>
      </trkpt>
      <trkpt lat="44.98722" lon="4.75896">
        <ele>386.57501220703</ele>
        <time>2009-10-24T15:15:12Z</time>
      </trkpt>
      <trkpt lat="44.98767" lon="4.75897">
        <ele>387.11898803711</ele>
        <time>2009-10-24T15:15:18Z</time>
      </trkpt>
      <trkpt lat="44.98796" lon="4.75901">
        <ele>387.54901123047</ele>
        <time>2009-10-24T15:15:22Z</time>
      </trkpt>
      <trkpt lat="44.98822" lon="4.75919">
        <ele>387.93200683594</ele>
        <time>2009-10-24T15:15:26Z</time>
      </trkpt>
      <trkpt lat="44.9883" lon="4.75935">
        <ele>388.10699462891</ele>
        <time>2009-10-24T15:15:28Z</time>
      </trkpt>
      <trkpt lat="44.98838" lon="4.75953">
        <ele>388.42498779297</ele>
        <time>2009-10-24T15:15:30Z</time>
      </trkpt>
      <trkpt lat="44.98859" lon="4.75979">
        <ele>388.88198852539</ele>
        <time>2009-10-24T15:15:34Z</time>
      </trkpt>
      <trkpt lat="44.98873" lon="4.75979">
        <ele>389.22900390625</ele>
        <time>2009-10-24T15:15:36Z</time>
      </trkpt>
      <trkpt lat="44.98886" lon="4.7597">
        <ele>389.71200561523</ele>
        <time>2009-10-24T15:15:38Z</time>
      </trkpt>
      <trkpt lat="44.98921" lon="4.75951">
        <ele>389.3630065918</ele>
        <time>2009-10-24T15:15:43Z</time>
      </trkpt>
      <trkpt lat="44.98944" lon="4.75961">
        <ele>389.89498901367</ele>
        <time>2009-10-24T15:15:46Z</time>
      </trkpt>
      <trkpt lat="44.98957" lon="4.75972">
        <ele>390.08401489258</ele>
        <time>2009-10-24T15:15:48Z</time>
      </trkpt>
      <trkpt lat="44.98983" lon="4.75999">
        <ele>390.4289855957</ele>
        <time>2009-10-24T15:15:52Z</time>
      </trkpt>
      <trkpt lat="44.99013" lon="4.76013">
        <ele>390.34600830078</ele>
        <time>2009-10-24T15:15:56Z</time>
      </trkpt>
      <trkpt lat="44.99035" lon="4.76006">
        <ele>390.83099365234</ele>
        <time>2009-10-24T15:15:59Z</time>
      </trkpt>
      <trkpt lat="44.99041" lon="4.76001">
        <ele>390.87298583984</ele>
        <time>2009-10-24T15:16:00Z</time>
      </trkpt>
      <trkpt lat="44.99054" lon="4.75992">
        <ele>391.48999023438</ele>
        <time>2009-10-24T15:16:02Z</time>
      </trkpt>
      <trkpt lat="44.99084" lon="4.75983">
        <ele>391.55499267578</ele>
        <time>2009-10-24T15:16:06Z</time>
      </trkpt>
      <trkpt lat="44.99144" lon="4.75984">
        <ele>392.28799438477</ele>
        <time>2009-10-24T15:16:14Z</time>
      </trkpt>
      <trkpt lat="44.99211" lon="4.75975">
        <ele>393.51998901367</ele>
        <time>2009-10-24T15:16:23Z</time>
      </trkpt>
      <trkpt lat="44.99255" lon="4.75978">
        <ele>394.14001464844</ele>
        <time>2009-10-24T15:16:29Z</time>
      </trkpt>
      <trkpt lat="44.99326" lon="4.75993">
        <ele>394.70098876953</ele>
        <time>2009-10-24T15:16:39Z</time>
      </trkpt>
      <trkpt lat="44.99348" lon="4.75995">
        <ele>394.75201416016</ele>
        <time>2009-10-24T15:16:42Z</time>
      </trkpt>
      <trkpt lat="44.99383" lon="4.75983">
        <ele>395.38101196289</ele>
        <time>2009-10-24T15:16:47Z</time>
      </trkpt>
      <trkpt lat="44.99403" lon="4.75974">
        <ele>395.93200683594</ele>
        <time>2009-10-24T15:16:50Z</time>
      </trkpt>
      <trkpt lat="44.99458" lon="4.75969">
        <ele>397.00100708008</ele>
        <time>2009-10-24T15:16:58Z</time>
      </trkpt>
      <trkpt lat="44.99519" lon="4.75968">
        <ele>397.87701416016</ele>
        <time>2009-10-24T15:17:07Z</time>
      </trkpt>
      <trkpt lat="44.99596" lon="4.75967">
        <ele>399.04800415039</ele>
        <time>2009-10-24T15:17:18Z</time>
      </trkpt>
      <trkpt lat="44.99644" lon="4.75973">
        <ele>399.99700927734</ele>
        <time>2009-10-24T15:17:25Z</time>
      </trkpt>
      <trkpt lat="44.99689" lon="4.75994">
        <ele>400.89300537109</ele>
        <time>2009-10-24T15:17:32Z</time>
      </trkpt>
      <trkpt lat="44.99709" lon="4.7602">
        <ele>399.93099975586</ele>
        <time>2009-10-24T15:17:36Z</time>
      </trkpt>
      <trkpt lat="44.99714" lon="4.7606">
        <ele>399.18099975586</ele>
        <time>2009-10-24T15:17:40Z</time>
      </trkpt>
      <trkpt lat="44.99709" lon="4.7608">
        <ele>398.90701293945</ele>
        <time>2009-10-24T15:17:42Z</time>
      </trkpt>
      <trkpt lat="44.99704" lon="4.7613">
        <ele>397.2619934082</ele>
        <time>2009-10-24T15:17:47Z</time>
      </trkpt>
      <trkpt lat="44.99718" lon="4.76141">
        <ele>396.55200195312</ele>
        <time>2009-10-24T15:17:49Z</time>
      </trkpt>
      <trkpt lat="44.99728" lon="4.76141">
        <ele>396.17300415039</ele>
        <time>2009-10-24T15:17:50Z</time>
      </trkpt>
      <trkpt lat="44.9976" lon="4.76159">
        <ele>394.93099975586</ele>
        <time>2009-10-24T15:17:54Z</time>
      </trkpt>
      <trkpt lat="44.99775" lon="4.76188">
        <ele>393.33999633789</ele>
        <time>2009-10-24T15:17:57Z</time>
      </trkpt>
      <trkpt lat="44.99801" lon="4.76201">
        <ele>393.00900268555</ele>
        <time>2009-10-24T15:18:00Z</time>
      </trkpt>
      <trkpt lat="44.99831" lon="4.76191">
        <ele>391.82299804688</ele>
        <time>2009-10-24T15:18:03Z</time>
      </trkpt>
      <trkpt lat="44.99866" lon="4.76167">
        <ele>390.38900756836</ele>
        <time>2009-10-24T15:18:07Z</time>
      </trkpt>
      <trkpt lat="44.99905" lon="4.76166">
        <ele>388.67999267578</ele>
        <time>2009-10-24T15:18:11Z</time>
      </trkpt>
      <trkpt lat="44.99921" lon="4.76185">
        <ele>387.63299560547</ele>
        <time>2009-10-24T15:18:13Z</time>
      </trkpt>
      <trkpt lat="44.99918" lon="4.7621">
        <ele>386.4289855957</ele>
        <time>2009-10-24T15:18:15Z</time>
      </trkpt>
      <trkpt lat="44.99921" lon="4.76244">
        <ele>385.66500854492</ele>
        <time>2009-10-24T15:18:18Z</time>
      </trkpt>
      <trkpt lat="44.99934" lon="4.76258">
        <ele>384.95999145508</ele>
        <time>2009-10-24T15:18:20Z</time>
      </trkpt>
      <trkpt lat="44.99966" lon="4.7628">
        <ele>383.56298828125</ele>
        <time>2009-10-24T15:18:24Z</time>
      </trkpt>
      <trkpt lat="44.9999" lon="4.76321">
        <ele>381.89498901367</ele>
        <time>2009-10-24T15:18:28Z</time>
      </trkpt>
      <trkpt lat="44.99999" lon="4.76361">
        <ele>380.50100708008</ele>
        <time>2009-10-24T15:18:31Z</time>
      </trkpt>
      <trkpt lat="45.00005" lon="4.76404">
        <ele>379.54098510742</ele>
        <time>2009-10-24T15:18:34Z</time>
      </trkpt>
      <trkpt lat="45" lon="4.76478">
        <ele>377.05999755859</ele>
        <time>2009-10-24T15:18:39Z</time>
      </trkpt>
      <trkpt lat="44.99989" lon="4.76523">
        <ele>376.36898803711</ele>
        <time>2009-10-24T15:18:42Z</time>
      </trkpt>
      <trkpt lat="44.99973" lon="4.76597">
        <ele>374.27200317383</ele>
        <time>2009-10-24T15:18:47Z</time>
      </trkpt>
      <trkpt lat="44.99968" lon="4.76644">
        <ele>373.69400024414</ele>
        <time>2009-10-24T15:18:50Z</time>
      </trkpt>
      <trkpt lat="44.99943" lon="4.7669">
        <ele>371.84399414062</ele>
        <time>2009-10-24T15:18:54Z</time>
      </trkpt>
      <trkpt lat="44.99944" lon="4.76714">
        <ele>371.07901000977</ele>
        <time>2009-10-24T15:18:56Z</time>
      </trkpt>
      <trkpt lat="44.99958" lon="4.76732">
        <ele>370.43399047852</ele>
        <time>2009-10-24T15:18:58Z</time>
      </trkpt>
      <trkpt lat="44.99972" lon="4.76757">
        <ele>369.75100708008</ele>
        <time>2009-10-24T15:19:00Z</time>
      </trkpt>
      <trkpt lat="44.99978" lon="4.76804">
        <ele>368.05999755859</ele>
        <time>2009-10-24T15:19:03Z</time>
      </trkpt>
      <trkpt lat="44.99987" lon="4.76832">
        <ele>367.12399291992</ele>
        <time>2009-10-24T15:19:05Z</time>
      </trkpt>
      <trkpt lat="44.99994" lon="4.76843">
        <ele>366.8330078125</ele>
        <time>2009-10-24T15:19:06Z</time>
      </trkpt>
      <trkpt lat="45.00002" lon="4.76853">
        <ele>366.75500488281</ele>
        <time>2009-10-24T15:19:07Z</time>
      </trkpt>
      <trkpt lat="45.00018" lon="4.7687">
        <ele>366.63000488281</ele>
        <time>2009-10-24T15:19:09Z</time>
      </trkpt>
      <trkpt lat="45.00043" lon="4.76867">
        <ele>367.51501464844</ele>
        <time>2009-10-24T15:19:12Z</time>
      </trkpt>
      <trkpt lat="45.00055" lon="4.76852">
        <ele>368.04501342773</ele>
        <time>2009-10-24T15:19:14Z</time>
      </trkpt>
      <trkpt lat="45.00058" lon="4.76844">
        <ele>368.88198852539</ele>
        <time>2009-10-24T15:19:15Z</time>
      </trkpt>
      <trkpt lat="45.00064" lon="4.76829">
        <ele>369.25100708008</ele>
        <time>2009-10-24T15:19:17Z</time>
      </trkpt>
      <trkpt lat="45.00086" lon="4.76793">
        <ele>370.71798706055</ele>
        <time>2009-10-24T15:19:24Z</time>
      </trkpt>
      <trkpt lat="45.00092" lon="4.76783">
        <ele>371.27499389648</ele>
        <time>2009-10-24T15:19:26Z</time>
      </trkpt>
      <trkpt lat="45.00096" lon="4.76772">
        <ele>371.61099243164</ele>
        <time>2009-10-24T15:19:28Z</time>
      </trkpt>
      <trkpt lat="45.00104" lon="4.76744">
        <ele>372.94000244141</ele>
        <time>2009-10-24T15:19:33Z</time>
      </trkpt>
      <trkpt lat="45.00105" lon="4.76718">
        <ele>373.71099853516</ele>
        <time>2009-10-24T15:19:37Z</time>
      </trkpt>
      <trkpt lat="45.001" lon="4.76697">
        <ele>374.38400268555</ele>
        <time>2009-10-24T15:19:40Z</time>
      </trkpt>
      <trkpt lat="45.00096" lon="4.76649">
        <ele>375.41500854492</ele>
        <time>2009-10-24T15:19:46Z</time>
      </trkpt>
      <trkpt lat="45.00104" lon="4.76608">
        <ele>376.84100341797</ele>
        <time>2009-10-24T15:19:51Z</time>
      </trkpt>
      <trkpt lat="45.00121" lon="4.766">
        <ele>378.02899169922</ele>
        <time>2009-10-24T15:19:54Z</time>
      </trkpt>
      <trkpt lat="45.00132" lon="4.76604">
        <ele>378.69500732422</ele>
        <time>2009-10-24T15:19:56Z</time>
      </trkpt>
      <trkpt lat="45.00157" lon="4.7663">
        <ele>380.95401000977</ele>
        <time>2009-10-24T15:20:02Z</time>
      </trkpt>
      <trkpt lat="45.00164" lon="4.7664">
        <ele>381.35101318359</ele>
        <time>2009-10-24T15:20:04Z</time>
      </trkpt>
      <trkpt lat="45.00183" lon="4.76647">
        <ele>382.53399658203</ele>
        <time>2009-10-24T15:20:08Z</time>
      </trkpt>
      <trkpt lat="45.00193" lon="4.76632">
        <ele>383.21398925781</ele>
        <time>2009-10-24T15:20:11Z</time>
      </trkpt>
      <trkpt lat="45.00193" lon="4.7661">
        <ele>383.96099853516</ele>
        <time>2009-10-24T15:20:14Z</time>
      </trkpt>
      <trkpt lat="45.00175" lon="4.7655">
        <ele>386.63198852539</ele>
        <time>2009-10-24T15:20:23Z</time>
      </trkpt>
      <trkpt lat="45.00177" lon="4.76524">
        <ele>387.47698974609</ele>
        <time>2009-10-24T15:20:27Z</time>
      </trkpt>
      <trkpt lat="45.0019" lon="4.76514">
        <ele>388.80499267578</ele>
        <time>2009-10-24T15:20:30Z</time>
      </trkpt>
      <trkpt lat="45.00206" lon="4.76497">
        <ele>389.80099487305</ele>
        <time>2009-10-24T15:20:34Z</time>
      </trkpt>
      <trkpt lat="45.00204" lon="4.76476">
        <ele>390.85400390625</ele>
        <time>2009-10-24T15:20:37Z</time>
      </trkpt>
      <trkpt lat="45.00201" lon="4.7647">
        <ele>391.01300048828</ele>
        <time>2009-10-24T15:20:38Z</time>
      </trkpt>
      <trkpt lat="45.00188" lon="4.76448">
        <ele>392.3869934082</ele>
        <time>2009-10-24T15:20:42Z</time>
      </trkpt>
      <trkpt lat="45.0018" lon="4.7643">
        <ele>393.01501464844</ele>
        <time>2009-10-24T15:20:45Z</time>
      </trkpt>
      <trkpt lat="45.00176" lon="4.76397">
        <ele>394.39300537109</ele>
        <time>2009-10-24T15:20:50Z</time>
      </trkpt>
      <trkpt lat="45.00182" lon="4.76338">
        <ele>396.53500366211</ele>
        <time>2009-10-24T15:20:59Z</time>
      </trkpt>
      <trkpt lat="45.00196" lon="4.76311">
        <ele>397.46301269531</ele>
        <time>2009-10-24T15:21:04Z</time>
      </trkpt>
      <trkpt lat="45.00209" lon="4.76303">
        <ele>398.42700195312</ele>
        <time>2009-10-24T15:21:07Z</time>
      </trkpt>
      <trkpt lat="45.00229" lon="4.76296">
        <ele>399.77398681641</ele>
        <time>2009-10-24T15:21:11Z</time>
      </trkpt>
      <trkpt lat="45.00266" lon="4.76275">
        <ele>401.59698486328</ele>
        <time>2009-10-24T15:21:19Z</time>
      </trkpt>
      <trkpt lat="45.00298" lon="4.76269">
        <ele>403.10998535156</ele>
        <time>2009-10-24T15:21:25Z</time>
      </trkpt>
      <trkpt lat="45.00348" lon="4.76267">
        <ele>405.35699462891</ele>
        <time>2009-10-24T15:21:34Z</time>
      </trkpt>
      <trkpt lat="45.00384" lon="4.76271">
        <ele>406.96398925781</ele>
        <time>2009-10-24T15:21:41Z</time>
      </trkpt>
      <trkpt lat="45.0042" lon="4.76291">
        <ele>408.68301391602</ele>
        <time>2009-10-24T15:21:48Z</time>
      </trkpt>
      <trkpt lat="45.00439" lon="4.76317">
        <ele>409.8210144043</ele>
        <time>2009-10-24T15:21:53Z</time>
      </trkpt>
      <trkpt lat="45.00463" lon="4.76389">
        <ele>412.43499755859</ele>
        <time>2009-10-24T15:22:03Z</time>
      </trkpt>
      <trkpt lat="45.00478" lon="4.76433">
        <ele>413.57400512695</ele>
        <time>2009-10-24T15:22:09Z</time>
      </trkpt>
      <trkpt lat="45.00504" lon="4.76475">
        <ele>415.1669921875</ele>
        <time>2009-10-24T15:22:16Z</time>
      </trkpt>
      <trkpt lat="45.00549" lon="4.76529">
        <ele>417.47698974609</ele>
        <time>2009-10-24T15:22:26Z</time>
      </trkpt>
      <trkpt lat="45.00592" lon="4.76582">
        <ele>419.58599853516</ele>
        <time>2009-10-24T15:22:36Z</time>
      </trkpt>
      <trkpt lat="45.00629" lon="4.76631">
        <ele>421.38800048828</ele>
        <time>2009-10-24T15:22:45Z</time>
      </trkpt>
      <trkpt lat="45.00661" lon="4.76677">
        <ele>422.95300292969</ele>
        <time>2009-10-24T15:22:53Z</time>
      </trkpt>
      <trkpt lat="45.00681" lon="4.76724">
        <ele>424.40899658203</ele>
        <time>2009-10-24T15:23:00Z</time>
      </trkpt>
      <trkpt lat="45.00683" lon="4.76732">
        <ele>424.53399658203</ele>
        <time>2009-10-24T15:23:01Z</time>
      </trkpt>
      <trkpt lat="45.00698" lon="4.76769">
        <ele>425.82800292969</ele>
        <time>2009-10-24T15:23:06Z</time>
      </trkpt>
      <trkpt lat="45.00734" lon="4.76824">
        <ele>427.54400634766</ele>
        <time>2009-10-24T15:23:15Z</time>
      </trkpt>
      <trkpt lat="45.00754" lon="4.76854">
        <ele>428.60900878906</ele>
        <time>2009-10-24T15:23:20Z</time>
      </trkpt>
      <trkpt lat="45.00766" lon="4.76898">
        <ele>430.26599121094</ele>
        <time>2009-10-24T15:23:26Z</time>
      </trkpt>
      <trkpt lat="45.00768" lon="4.76931">
        <ele>430.625</ele>
        <time>2009-10-24T15:23:30Z</time>
      </trkpt>
      <trkpt lat="45.00763" lon="4.76962">
        <ele>431.43200683594</ele>
        <time>2009-10-24T15:23:34Z</time>
      </trkpt>
      <trkpt lat="45.00743" lon="4.77036">
        <ele>434.06600952148</ele>
        <time>2009-10-24T15:23:44Z</time>
      </trkpt>
      <trkpt lat="45.00722" lon="4.77109">
        <ele>435.91198730469</ele>
        <time>2009-10-24T15:23:54Z</time>
      </trkpt>
      <trkpt lat="45.00702" lon="4.77184">
        <ele>438.18499755859</ele>
        <time>2009-10-24T15:24:04Z</time>
      </trkpt>
      <trkpt lat="45.00697" lon="4.77234">
        <ele>439.90899658203</ele>
        <time>2009-10-24T15:24:10Z</time>
      </trkpt>
      <trkpt lat="45.00703" lon="4.77289">
        <ele>440.81399536133</ele>
        <time>2009-10-24T15:24:16Z</time>
      </trkpt>
      <trkpt lat="45.00721" lon="4.77368">
        <ele>441.66900634766</ele>
        <time>2009-10-24T15:24:24Z</time>
      </trkpt>
      <trkpt lat="45.00745" lon="4.77434">
        <ele>442.53900146484</ele>
        <time>2009-10-24T15:24:31Z</time>
      </trkpt>
      <trkpt lat="45.00778" lon="4.77492">
        <ele>444.22399902344</ele>
        <time>2009-10-24T15:24:38Z</time>
      </trkpt>
      <trkpt lat="45.0082" lon="4.77546">
        <ele>446.44000244141</ele>
        <time>2009-10-24T15:24:46Z</time>
      </trkpt>
      <trkpt lat="45.00868" lon="4.77606">
        <ele>449.60000610352</ele>
        <time>2009-10-24T15:24:56Z</time>
      </trkpt>
      <trkpt lat="45.00909" lon="4.77657">
        <ele>452.04400634766</ele>
        <time>2009-10-24T15:25:04Z</time>
      </trkpt>
      <trkpt lat="45.00918" lon="4.77671">
        <ele>452.68399047852</ele>
        <time>2009-10-24T15:25:06Z</time>
      </trkpt>
      <trkpt lat="45.00933" lon="4.77715">
        <ele>454.10998535156</ele>
        <time>2009-10-24T15:25:11Z</time>
      </trkpt>
      <trkpt lat="45.00934" lon="4.77725">
        <ele>454.81900024414</ele>
        <time>2009-10-24T15:25:12Z</time>
      </trkpt>
      <trkpt lat="45.00937" lon="4.77803">
        <ele>456.63299560547</ele>
        <time>2009-10-24T15:25:20Z</time>
      </trkpt>
      <trkpt lat="45.00938" lon="4.77833">
        <ele>457.4280090332</ele>
        <time>2009-10-24T15:25:23Z</time>
      </trkpt>
      <trkpt lat="45.0094" lon="4.77855">
        <ele>457.73300170898</ele>
        <time>2009-10-24T15:25:25Z</time>
      </trkpt>
      <trkpt lat="45.00941" lon="4.77944">
        <ele>461.10900878906</ele>
        <time>2009-10-24T15:25:33Z</time>
      </trkpt>
      <trkpt lat="45.00941" lon="4.77953">
        <ele>461.32299804688</ele>
        <time>2009-10-24T15:25:34Z</time>
      </trkpt>
      <trkpt lat="45.00941" lon="4.77962">
        <ele>461.44198608398</ele>
        <time>2009-10-24T15:25:35Z</time>
      </trkpt>
      <trkpt lat="45.00942" lon="4.78011">
        <ele>462.74798583984</ele>
        <time>2009-10-24T15:25:42Z</time>
      </trkpt>
      <trkpt lat="45.00943" lon="4.78055">
        <ele>463.92199707031</ele>
        <time>2009-10-24T15:25:49Z</time>
      </trkpt>
      <trkpt lat="45.00942" lon="4.78103">
        <ele>465.07901000977</ele>
        <time>2009-10-24T15:25:57Z</time>
      </trkpt>
      <trkpt lat="45.00943" lon="4.78125">
        <ele>465.20300292969</ele>
        <time>2009-10-24T15:26:01Z</time>
      </trkpt>
      <trkpt lat="45.00956" lon="4.78147">
        <ele>465.73999023438</ele>
        <time>2009-10-24T15:26:06Z</time>
      </trkpt>
      <trkpt lat="45.0096" lon="4.78148">
        <ele>465.91799926758</ele>
        <time>2009-10-24T15:26:07Z</time>
      </trkpt>
      <trkpt lat="45.00994" lon="4.78149">
        <ele>466.02899169922</ele>
        <time>2009-10-24T15:26:15Z</time>
      </trkpt>
      <trkpt lat="45.01019" lon="4.78157">
        <ele>465.86700439453</ele>
        <time>2009-10-24T15:26:21Z</time>
      </trkpt>
      <trkpt lat="45.01037" lon="4.78169">
        <ele>466.07400512695</ele>
        <time>2009-10-24T15:26:26Z</time>
      </trkpt>
      <trkpt lat="45.01047" lon="4.78185">
        <ele>466.17001342773</ele>
        <time>2009-10-24T15:26:31Z</time>
      </trkpt>
      <trkpt lat="45.01057" lon="4.78199">
        <ele>465.78100585938</ele>
        <time>2009-10-24T15:26:35Z</time>
      </trkpt>
      <trkpt lat="45.0106" lon="4.78202">
        <ele>465.87799072266</ele>
        <time>2009-10-24T15:26:36Z</time>
      </trkpt>
      <trkpt lat="45.01068" lon="4.78205">
        <ele>465.56201171875</ele>
        <time>2009-10-24T15:26:40Z</time>
      </trkpt>
      <trkpt lat="45.01062" lon="4.782">
        <ele>465.64700317383</ele>
        <time>2009-10-24T15:26:43Z</time>
      </trkpt>
      <trkpt lat="45.01052" lon="4.78193">
        <ele>465.48901367188</ele>
        <time>2009-10-24T15:26:47Z</time>
      </trkpt>
      <trkpt lat="45.01048" lon="4.78183">
        <ele>465.88299560547</ele>
        <time>2009-10-24T15:26:53Z</time>
      </trkpt>
      <trkpt lat="45.01046" lon="4.78181">
        <ele>465.95300292969</ele>
        <time>2009-10-24T15:27:11Z</time>
      </trkpt>
      <trkpt lat="45.01046" lon="4.7818">
        <ele>465.87200927734</ele>
        <time>2009-10-24T15:27:25Z</time>
      </trkpt>
      <trkpt lat="45.01044" lon="4.78178">
        <ele>465.96398925781</ele>
        <time>2009-10-24T15:27:47Z</time>
      </trkpt>
      <trkpt lat="45.01044" lon="4.78177">
        <ele>466.05700683594</ele>
        <time>2009-10-24T15:27:56Z</time>
      </trkpt>
      <trkpt lat="45.01045" lon="4.78178">
        <ele>466.04098510742</ele>
        <time>2009-10-24T15:28:16Z</time>
      </trkpt>
      <trkpt lat="45.01045" lon="4.78178">
        <ele>465.94299316406</ele>
        <time>2009-10-24T15:28:29Z</time>
      </trkpt>
      <trkpt lat="45.01044" lon="4.78176">
        <ele>465.92401123047</ele>
        <time>2009-10-24T15:29:10Z</time>
      </trkpt>
      <trkpt lat="45.01045" lon="4.78175">
        <ele>466.00201416016</ele>
        <time>2009-10-24T15:29:35Z</time>
      </trkpt>
      <trkpt lat="45.01045" lon="4.78176">
        <ele>465.89599609375</ele>
        <time>2009-10-24T15:29:45Z</time>
      </trkpt>
      <trkpt lat="45.01045" lon="4.78175">
        <ele>465.90701293945</ele>
        <time>2009-10-24T15:30:03Z</time>
      </trkpt>
      <trkpt lat="45.01046" lon="4.78174">
        <ele>465.66598510742</ele>
        <time>2009-10-24T15:30:33Z</time>
      </trkpt>
      <trkpt lat="45.01046" lon="4.78174">
        <ele>465.33801269531</ele>
        <time>2009-10-24T15:30:55Z</time>
      </trkpt>
      <trkpt lat="45.01045" lon="4.78174">
        <ele>465.0830078125</ele>
        <time>2009-10-24T15:31:13Z</time>
      </trkpt>
      <trkpt lat="45.01045" lon="4.78175">
        <ele>465.22299194336</ele>
        <time>2009-10-24T15:31:20Z</time>
      </trkpt>
      <trkpt lat="45.01045" lon="4.78175">
        <ele>465.23901367188</ele>
        <time>2009-10-24T15:31:29Z</time>
      </trkpt>
      <trkpt lat="45.01047" lon="4.78176">
        <ele>465.10699462891</ele>
        <time>2009-10-24T15:31:47Z</time>
      </trkpt>
      <trkpt lat="45.01057" lon="4.78185">
        <ele>464.53500366211</ele>
        <time>2009-10-24T15:31:55Z</time>
      </trkpt>
      <trkpt lat="45.01074" lon="4.782">
        <ele>464.53799438477</ele>
        <time>2009-10-24T15:32:01Z</time>
      </trkpt>
      <trkpt lat="45.01096" lon="4.78219">
        <ele>463.93600463867</ele>
        <time>2009-10-24T15:32:08Z</time>
      </trkpt>
      <trkpt lat="45.01111" lon="4.78236">
        <ele>463.75201416016</ele>
        <time>2009-10-24T15:32:12Z</time>
      </trkpt>
      <trkpt lat="45.01141" lon="4.78264">
        <ele>462.79000854492</ele>
        <time>2009-10-24T15:32:19Z</time>
      </trkpt>
      <trkpt lat="45.01184" lon="4.78302">
        <ele>461.77600097656</ele>
        <time>2009-10-24T15:32:28Z</time>
      </trkpt>
      <trkpt lat="45.01226" lon="4.78342">
        <ele>460.56399536133</ele>
        <time>2009-10-24T15:32:36Z</time>
      </trkpt>
      <trkpt lat="45.01266" lon="4.78382">
        <ele>459.1969909668</ele>
        <time>2009-10-24T15:32:43Z</time>
      </trkpt>
      <trkpt lat="45.01286" lon="4.78397">
        <ele>458.50399780273</ele>
        <time>2009-10-24T15:32:46Z</time>
      </trkpt>
      <trkpt lat="45.01324" lon="4.78403">
        <ele>458.66101074219</ele>
        <time>2009-10-24T15:32:51Z</time>
      </trkpt>
      <trkpt lat="45.01348" lon="4.78395">
        <ele>457.77801513672</ele>
        <time>2009-10-24T15:32:54Z</time>
      </trkpt>
      <trkpt lat="45.01363" lon="4.78386">
        <ele>457.07901000977</ele>
        <time>2009-10-24T15:32:56Z</time>
      </trkpt>
      <trkpt lat="45.01425" lon="4.78346">
        <ele>455.93798828125</ele>
        <time>2009-10-24T15:33:04Z</time>
      </trkpt>
      <trkpt lat="45.01471" lon="4.78309">
        <ele>455.1780090332</ele>
        <time>2009-10-24T15:33:10Z</time>
      </trkpt>
      <trkpt lat="45.01536" lon="4.78266">
        <ele>453.48400878906</ele>
        <time>2009-10-24T15:33:18Z</time>
      </trkpt>
      <trkpt lat="45.01561" lon="4.78252">
        <ele>452.85699462891</ele>
        <time>2009-10-24T15:33:21Z</time>
      </trkpt>
      <trkpt lat="45.01644" lon="4.782">
        <ele>451.09698486328</ele>
        <time>2009-10-24T15:33:31Z</time>
      </trkpt>
      <trkpt lat="45.01667" lon="4.78162">
        <ele>450.3869934082</ele>
        <time>2009-10-24T15:33:35Z</time>
      </trkpt>
      <trkpt lat="45.01671" lon="4.78137">
        <ele>449.82501220703</ele>
        <time>2009-10-24T15:33:37Z</time>
      </trkpt>
      <trkpt lat="45.01677" lon="4.78016">
        <ele>447.72601318359</ele>
        <time>2009-10-24T15:33:46Z</time>
      </trkpt>
      <trkpt lat="45.01678" lon="4.78003">
        <ele>447.54501342773</ele>
        <time>2009-10-24T15:33:47Z</time>
      </trkpt>
      <trkpt lat="45.01697" lon="4.77956">
        <ele>446.14099121094</ele>
        <time>2009-10-24T15:33:51Z</time>
      </trkpt>
      <trkpt lat="45.01725" lon="4.77943">
        <ele>445.63400268555</ele>
        <time>2009-10-24T15:33:54Z</time>
      </trkpt>
      <trkpt lat="45.01735" lon="4.77943">
        <ele>445.22601318359</ele>
        <time>2009-10-24T15:33:55Z</time>
      </trkpt>
      <trkpt lat="45.01795" lon="4.77952">
        <ele>442.34600830078</ele>
        <time>2009-10-24T15:34:01Z</time>
      </trkpt>
      <trkpt lat="45.01867" lon="4.77981">
        <ele>439.38900756836</ele>
        <time>2009-10-24T15:34:08Z</time>
      </trkpt>
      <trkpt lat="45.01889" lon="4.77989">
        <ele>438.21701049805</ele>
        <time>2009-10-24T15:34:10Z</time>
      </trkpt>
      <trkpt lat="45.01911" lon="4.77999">
        <ele>437.48901367188</ele>
        <time>2009-10-24T15:34:12Z</time>
      </trkpt>
      <trkpt lat="45.01963" lon="4.7804">
        <ele>434.50100708008</ele>
        <time>2009-10-24T15:34:17Z</time>
      </trkpt>
      <trkpt lat="45.01998" lon="4.78051">
        <ele>432.81698608398</ele>
        <time>2009-10-24T15:34:20Z</time>
      </trkpt>
      <trkpt lat="45.02021" lon="4.78066">
        <ele>431.3330078125</ele>
        <time>2009-10-24T15:34:22Z</time>
      </trkpt>
      <trkpt lat="45.02043" lon="4.78083">
        <ele>430.45498657227</ele>
        <time>2009-10-24T15:34:24Z</time>
      </trkpt>
      <trkpt lat="45.02103" lon="4.78108">
        <ele>427.61801147461</ele>
        <time>2009-10-24T15:34:29Z</time>
      </trkpt>
      <trkpt lat="45.02141" lon="4.78119">
        <ele>425.5530090332</ele>
        <time>2009-10-24T15:34:32Z</time>
      </trkpt>
      <trkpt lat="45.02184" lon="4.7816">
        <ele>422.85299682617</ele>
        <time>2009-10-24T15:34:36Z</time>
      </trkpt>
      <trkpt lat="45.02206" lon="4.78207">
        <ele>421.5299987793</ele>
        <time>2009-10-24T15:34:39Z</time>
      </trkpt>
      <trkpt lat="45.02227" lon="4.78269">
        <ele>417.85101318359</ele>
        <time>2009-10-24T15:34:43Z</time>
      </trkpt>
      <trkpt lat="45.02219" lon="4.78282">
        <ele>417.27899169922</ele>
        <time>2009-10-24T15:34:44Z</time>
      </trkpt>
      <trkpt lat="45.02209" lon="4.78292">
        <ele>417.02600097656</ele>
        <time>2009-10-24T15:34:45Z</time>
      </trkpt>
      <trkpt lat="45.02198" lon="4.78298">
        <ele>415.82998657227</ele>
        <time>2009-10-24T15:34:46Z</time>
      </trkpt>
      <trkpt lat="45.02153" lon="4.78326">
        <ele>414</ele>
        <time>2009-10-24T15:34:50Z</time>
      </trkpt>
      <trkpt lat="45.02117" lon="4.78333">
        <ele>411.73001098633</ele>
        <time>2009-10-24T15:34:53Z</time>
      </trkpt>
      <trkpt lat="45.02096" lon="4.78339">
        <ele>410.20001220703</ele>
        <time>2009-10-24T15:34:55Z</time>
      </trkpt>
      <trkpt lat="45.02097" lon="4.78368">
        <ele>409.24301147461</ele>
        <time>2009-10-24T15:34:57Z</time>
      </trkpt>
      <trkpt lat="45.0211" lon="4.78392">
        <ele>408.46701049805</ele>
        <time>2009-10-24T15:34:59Z</time>
      </trkpt>
      <trkpt lat="45.02126" lon="4.78407">
        <ele>406.90200805664</ele>
        <time>2009-10-24T15:35:01Z</time>
      </trkpt>
      <trkpt lat="45.02156" lon="4.78439">
        <ele>404.73001098633</ele>
        <time>2009-10-24T15:35:04Z</time>
      </trkpt>
      <trkpt lat="45.02193" lon="4.78458">
        <ele>403.61999511719</ele>
        <time>2009-10-24T15:35:07Z</time>
      </trkpt>
      <trkpt lat="45.0223" lon="4.78466">
        <ele>401.03799438477</ele>
        <time>2009-10-24T15:35:10Z</time>
      </trkpt>
      <trkpt lat="45.02252" lon="4.78487">
        <ele>399.6789855957</ele>
        <time>2009-10-24T15:35:12Z</time>
      </trkpt>
      <trkpt lat="45.02284" lon="4.7852">
        <ele>398.23400878906</ele>
        <time>2009-10-24T15:35:15Z</time>
      </trkpt>
      <trkpt lat="45.02319" lon="4.78545">
        <ele>396.47601318359</ele>
        <time>2009-10-24T15:35:18Z</time>
      </trkpt>
      <trkpt lat="45.02362" lon="4.78584">
        <ele>393.75</ele>
        <time>2009-10-24T15:35:22Z</time>
      </trkpt>
      <trkpt lat="45.02388" lon="4.78586">
        <ele>392.31600952148</ele>
        <time>2009-10-24T15:35:24Z</time>
      </trkpt>
      <trkpt lat="45.02413" lon="4.78581">
        <ele>391.56500244141</ele>
        <time>2009-10-24T15:35:26Z</time>
      </trkpt>
      <trkpt lat="45.02441" lon="4.78589">
        <ele>388.66299438477</ele>
        <time>2009-10-24T15:35:29Z</time>
      </trkpt>
      <trkpt lat="45.02439" lon="4.78613">
        <ele>387.13598632812</ele>
        <time>2009-10-24T15:35:31Z</time>
      </trkpt>
      <trkpt lat="45.02422" lon="4.78626">
        <ele>385.88000488281</ele>
        <time>2009-10-24T15:35:33Z</time>
      </trkpt>
      <trkpt lat="45.02364" lon="4.78669">
        <ele>382.6789855957</ele>
        <time>2009-10-24T15:35:39Z</time>
      </trkpt>
      <trkpt lat="45.02353" lon="4.78678">
        <ele>382.16598510742</ele>
        <time>2009-10-24T15:35:40Z</time>
      </trkpt>
      <trkpt lat="45.02306" lon="4.78695">
        <ele>379.54299926758</ele>
        <time>2009-10-24T15:35:44Z</time>
      </trkpt>
      <trkpt lat="45.02278" lon="4.78722">
        <ele>377.92300415039</ele>
        <time>2009-10-24T15:35:47Z</time>
      </trkpt>
      <trkpt lat="45.02284" lon="4.78755">
        <ele>377.10299682617</ele>
        <time>2009-10-24T15:35:49Z</time>
      </trkpt>
      <trkpt lat="45.02301" lon="4.78778">
        <ele>375.74200439453</ele>
        <time>2009-10-24T15:35:51Z</time>
      </trkpt>
      <trkpt lat="45.02334" lon="4.78801">
        <ele>373.35400390625</ele>
        <time>2009-10-24T15:35:54Z</time>
      </trkpt>
      <trkpt lat="45.02359" lon="4.78804">
        <ele>373.06298828125</ele>
        <time>2009-10-24T15:35:56Z</time>
      </trkpt>
      <trkpt lat="45.02398" lon="4.78805">
        <ele>370.32901000977</ele>
        <time>2009-10-24T15:35:59Z</time>
      </trkpt>
      <trkpt lat="45.02447" lon="4.78833">
        <ele>367.20001220703</ele>
        <time>2009-10-24T15:36:03Z</time>
      </trkpt>
      <trkpt lat="45.02465" lon="4.78862">
        <ele>365.19299316406</ele>
        <time>2009-10-24T15:36:05Z</time>
      </trkpt>
      <trkpt lat="45.02472" lon="4.78879">
        <ele>364.15200805664</ele>
        <time>2009-10-24T15:36:06Z</time>
      </trkpt>
      <trkpt lat="45.02505" lon="4.78938">
        <ele>360.76300048828</ele>
        <time>2009-10-24T15:36:10Z</time>
      </trkpt>
      <trkpt lat="45.02514" lon="4.78971">
        <ele>359.42401123047</ele>
        <time>2009-10-24T15:36:12Z</time>
      </trkpt>
      <trkpt lat="45.02532" lon="4.79018">
        <ele>356.53900146484</ele>
        <time>2009-10-24T15:36:15Z</time>
      </trkpt>
      <trkpt lat="45.02543" lon="4.79027">
        <ele>356.24600219727</ele>
        <time>2009-10-24T15:36:16Z</time>
      </trkpt>
      <trkpt lat="45.02569" lon="4.79035">
        <ele>354.79800415039</ele>
        <time>2009-10-24T15:36:18Z</time>
      </trkpt>
      <trkpt lat="45.02605" lon="4.79057">
        <ele>352.07400512695</ele>
        <time>2009-10-24T15:36:21Z</time>
      </trkpt>
      <trkpt lat="45.02617" lon="4.79091">
        <ele>351.00299072266</ele>
        <time>2009-10-24T15:36:23Z</time>
      </trkpt>
      <trkpt lat="45.0262" lon="4.7911">
        <ele>350.1669921875</ele>
        <time>2009-10-24T15:36:24Z</time>
      </trkpt>
      <trkpt lat="45.02623" lon="4.79149">
        <ele>349.22601318359</ele>
        <time>2009-10-24T15:36:26Z</time>
      </trkpt>
      <trkpt lat="45.02602" lon="4.79193">
        <ele>345.64099121094</ele>
        <time>2009-10-24T15:36:29Z</time>
      </trkpt>
      <trkpt lat="45.02581" lon="4.79221">
        <ele>344.46499633789</ele>
        <time>2009-10-24T15:36:31Z</time>
      </trkpt>
      <trkpt lat="45.02584" lon="4.79254">
        <ele>342.38900756836</ele>
        <time>2009-10-24T15:36:33Z</time>
      </trkpt>
      <trkpt lat="45.026" lon="4.79303">
        <ele>339.73599243164</ele>
        <time>2009-10-24T15:36:36Z</time>
      </trkpt>
      <trkpt lat="45.0262" lon="4.79327">
        <ele>338.43099975586</ele>
        <time>2009-10-24T15:36:38Z</time>
      </trkpt>
      <trkpt lat="45.02646" lon="4.79328">
        <ele>337.38101196289</ele>
        <time>2009-10-24T15:36:40Z</time>
      </trkpt>
      <trkpt lat="45.0267" lon="4.79333">
        <ele>334.9469909668</ele>
        <time>2009-10-24T15:36:42Z</time>
      </trkpt>
      <trkpt lat="45.0268" lon="4.79344">
        <ele>334.21499633789</ele>
        <time>2009-10-24T15:36:43Z</time>
      </trkpt>
      <trkpt lat="45.02725" lon="4.79403">
        <ele>330.5719909668</ele>
        <time>2009-10-24T15:36:48Z</time>
      </trkpt>
      <trkpt lat="45.02717" lon="4.79428">
        <ele>329.05899047852</ele>
        <time>2009-10-24T15:36:50Z</time>
      </trkpt>
      <trkpt lat="45.02699" lon="4.79446">
        <ele>328.0719909668</ele>
        <time>2009-10-24T15:36:52Z</time>
      </trkpt>
      <trkpt lat="45.02679" lon="4.79497">
        <ele>325.57699584961</ele>
        <time>2009-10-24T15:36:56Z</time>
      </trkpt>
      <trkpt lat="45.02692" lon="4.79523">
        <ele>324.31698608398</ele>
        <time>2009-10-24T15:36:58Z</time>
      </trkpt>
      <trkpt lat="45.02732" lon="4.7955">
        <ele>321.25799560547</ele>
        <time>2009-10-24T15:37:02Z</time>
      </trkpt>
      <trkpt lat="45.02746" lon="4.79549">
        <ele>320.23901367188</ele>
        <time>2009-10-24T15:37:03Z</time>
      </trkpt>
      <trkpt lat="45.02774" lon="4.79552">
        <ele>318.31298828125</ele>
        <time>2009-10-24T15:37:05Z</time>
      </trkpt>
      <trkpt lat="45.02817" lon="4.79556">
        <ele>316.14801025391</ele>
        <time>2009-10-24T15:37:08Z</time>
      </trkpt>
      <trkpt lat="45.02836" lon="4.79583">
        <ele>314.45001220703</ele>
        <time>2009-10-24T15:37:10Z</time>
      </trkpt>
      <trkpt lat="45.02849" lon="4.79618">
        <ele>313.99099731445</ele>
        <time>2009-10-24T15:37:12Z</time>
      </trkpt>
      <trkpt lat="45.0286" lon="4.79654">
        <ele>311.67199707031</ele>
        <time>2009-10-24T15:37:14Z</time>
      </trkpt>
      <trkpt lat="45.02885" lon="4.79719">
        <ele>308.25201416016</ele>
        <time>2009-10-24T15:37:18Z</time>
      </trkpt>
      <trkpt lat="45.0288" lon="4.79753">
        <ele>306.09201049805</ele>
        <time>2009-10-24T15:37:20Z</time>
      </trkpt>
      <trkpt lat="45.02875" lon="4.79785">
        <ele>305.17401123047</ele>
        <time>2009-10-24T15:37:22Z</time>
      </trkpt>
      <trkpt lat="45.02888" lon="4.79809">
        <ele>303.82598876953</ele>
        <time>2009-10-24T15:37:24Z</time>
      </trkpt>
      <trkpt lat="45.0291" lon="4.79816">
        <ele>302.17098999023</ele>
        <time>2009-10-24T15:37:26Z</time>
      </trkpt>
      <trkpt lat="45.02931" lon="4.79838">
        <ele>300.63000488281</ele>
        <time>2009-10-24T15:37:28Z</time>
      </trkpt>
      <trkpt lat="45.02971" lon="4.79892">
        <ele>298.0950012207</ele>
        <time>2009-10-24T15:37:32Z</time>
      </trkpt>
      <trkpt lat="45.02984" lon="4.79902">
        <ele>296.79901123047</ele>
        <time>2009-10-24T15:37:33Z</time>
      </trkpt>
      <trkpt lat="45.03016" lon="4.79936">
        <ele>294.65701293945</ele>
        <time>2009-10-24T15:37:36Z</time>
      </trkpt>
      <trkpt lat="45.03028" lon="4.79971">
        <ele>293.2380065918</ele>
        <time>2009-10-24T15:37:38Z</time>
      </trkpt>
      <trkpt lat="45.03047" lon="4.8004">
        <ele>289.58599853516</ele>
        <time>2009-10-24T15:37:42Z</time>
      </trkpt>
      <trkpt lat="45.03062" lon="4.80066">
        <ele>287.79998779297</ele>
        <time>2009-10-24T15:37:44Z</time>
      </trkpt>
      <trkpt lat="45.03085" lon="4.80072">
        <ele>286.33200073242</ele>
        <time>2009-10-24T15:37:46Z</time>
      </trkpt>
      <trkpt lat="45.03109" lon="4.80085">
        <ele>284.29998779297</ele>
        <time>2009-10-24T15:37:48Z</time>
      </trkpt>
      <trkpt lat="45.03116" lon="4.80112">
        <ele>283.03698730469</ele>
        <time>2009-10-24T15:37:50Z</time>
      </trkpt>
      <trkpt lat="45.03103" lon="4.80135">
        <ele>281.23999023438</ele>
        <time>2009-10-24T15:37:52Z</time>
      </trkpt>
      <trkpt lat="45.03094" lon="4.80144">
        <ele>281.02499389648</ele>
        <time>2009-10-24T15:37:53Z</time>
      </trkpt>
      <trkpt lat="45.03079" lon="4.80168">
        <ele>279.55999755859</ele>
        <time>2009-10-24T15:37:55Z</time>
      </trkpt>
      <trkpt lat="45.03077" lon="4.80197">
        <ele>277.72601318359</ele>
        <time>2009-10-24T15:37:57Z</time>
      </trkpt>
      <trkpt lat="45.0309" lon="4.8021">
        <ele>276.94500732422</ele>
        <time>2009-10-24T15:37:59Z</time>
      </trkpt>
      <trkpt lat="45.03111" lon="4.80211">
        <ele>276.67199707031</ele>
        <time>2009-10-24T15:38:01Z</time>
      </trkpt>
      <trkpt lat="45.03165" lon="4.80211">
        <ele>272.94799804688</ele>
        <time>2009-10-24T15:38:05Z</time>
      </trkpt>
      <trkpt lat="45.03197" lon="4.80239">
        <ele>270.48498535156</ele>
        <time>2009-10-24T15:38:08Z</time>
      </trkpt>
      <trkpt lat="45.032" lon="4.80273">
        <ele>269.11099243164</ele>
        <time>2009-10-24T15:38:10Z</time>
      </trkpt>
      <trkpt lat="45.03191" lon="4.80307">
        <ele>267.50500488281</ele>
        <time>2009-10-24T15:38:12Z</time>
      </trkpt>
      <trkpt lat="45.03195" lon="4.80338">
        <ele>265.68099975586</ele>
        <time>2009-10-24T15:38:14Z</time>
      </trkpt>
      <trkpt lat="45.03219" lon="4.80349">
        <ele>264.29098510742</ele>
        <time>2009-10-24T15:38:16Z</time>
      </trkpt>
      <trkpt lat="45.03245" lon="4.80342">
        <ele>263.19500732422</ele>
        <time>2009-10-24T15:38:18Z</time>
      </trkpt>
      <trkpt lat="45.03268" lon="4.8034">
        <ele>261.4880065918</ele>
        <time>2009-10-24T15:38:20Z</time>
      </trkpt>
      <trkpt lat="45.03286" lon="4.80364">
        <ele>259.75</ele>
        <time>2009-10-24T15:38:22Z</time>
      </trkpt>
      <trkpt lat="45.03292" lon="4.80396">
        <ele>258.30801391602</ele>
        <time>2009-10-24T15:38:24Z</time>
      </trkpt>
      <trkpt lat="45.0328" lon="4.80426">
        <ele>257.03799438477</ele>
        <time>2009-10-24T15:38:26Z</time>
      </trkpt>
      <trkpt lat="45.03273" lon="4.80454">
        <ele>256.31201171875</ele>
        <time>2009-10-24T15:38:28Z</time>
      </trkpt>
      <trkpt lat="45.0328" lon="4.80479">
        <ele>254.05299377441</ele>
        <time>2009-10-24T15:38:30Z</time>
      </trkpt>
      <trkpt lat="45.03299" lon="4.80478">
        <ele>253.25999450684</ele>
        <time>2009-10-24T15:38:32Z</time>
      </trkpt>
      <trkpt lat="45.03338" lon="4.80494">
        <ele>250.55700683594</ele>
        <time>2009-10-24T15:38:36Z</time>
      </trkpt>
      <trkpt lat="45.03348" lon="4.80526">
        <ele>249.38900756836</ele>
        <time>2009-10-24T15:38:38Z</time>
      </trkpt>
      <trkpt lat="45.0335" lon="4.80575">
        <ele>247.52000427246</ele>
        <time>2009-10-24T15:38:41Z</time>
      </trkpt>
      <trkpt lat="45.0334" lon="4.806">
        <ele>245.87699890137</ele>
        <time>2009-10-24T15:38:43Z</time>
      </trkpt>
      <trkpt lat="45.03333" lon="4.80624">
        <ele>244.19400024414</ele>
        <time>2009-10-24T15:38:45Z</time>
      </trkpt>
      <trkpt lat="45.03344" lon="4.80642">
        <ele>243.25</ele>
        <time>2009-10-24T15:38:47Z</time>
      </trkpt>
      <trkpt lat="45.03352" lon="4.80645">
        <ele>243.01400756836</ele>
        <time>2009-10-24T15:38:48Z</time>
      </trkpt>
      <trkpt lat="45.03386" lon="4.80672">
        <ele>240.09199523926</ele>
        <time>2009-10-24T15:38:52Z</time>
      </trkpt>
      <trkpt lat="45.034" lon="4.80715">
        <ele>238.89599609375</ele>
        <time>2009-10-24T15:38:55Z</time>
      </trkpt>
      <trkpt lat="45.03391" lon="4.80743">
        <ele>237.45700073242</ele>
        <time>2009-10-24T15:38:57Z</time>
      </trkpt>
      <trkpt lat="45.03382" lon="4.80769">
        <ele>235.7619934082</ele>
        <time>2009-10-24T15:38:59Z</time>
      </trkpt>
      <trkpt lat="45.03393" lon="4.80789">
        <ele>234.3869934082</ele>
        <time>2009-10-24T15:39:01Z</time>
      </trkpt>
      <trkpt lat="45.03412" lon="4.80794">
        <ele>233.08399963379</ele>
        <time>2009-10-24T15:39:03Z</time>
      </trkpt>
      <trkpt lat="45.03424" lon="4.80821">
        <ele>231.47900390625</ele>
        <time>2009-10-24T15:39:05Z</time>
      </trkpt>
      <trkpt lat="45.03442" lon="4.80864">
        <ele>229.41600036621</ele>
        <time>2009-10-24T15:39:08Z</time>
      </trkpt>
      <trkpt lat="45.03451" lon="4.80876">
        <ele>228.52200317383</ele>
        <time>2009-10-24T15:39:09Z</time>
      </trkpt>
      <trkpt lat="45.03477" lon="4.80939">
        <ele>225.18499755859</ele>
        <time>2009-10-24T15:39:13Z</time>
      </trkpt>
      <trkpt lat="45.03497" lon="4.80991">
        <ele>223.5</ele>
        <time>2009-10-24T15:39:16Z</time>
      </trkpt>
      <trkpt lat="45.03519" lon="4.81064">
        <ele>219.34599304199</ele>
        <time>2009-10-24T15:39:20Z</time>
      </trkpt>
      <trkpt lat="45.03541" lon="4.81084">
        <ele>217.50300598144</ele>
        <time>2009-10-24T15:39:22Z</time>
      </trkpt>
      <trkpt lat="45.03566" lon="4.81103">
        <ele>215.71299743652</ele>
        <time>2009-10-24T15:39:24Z</time>
      </trkpt>
      <trkpt lat="45.0358" lon="4.81136">
        <ele>213.91700744629</ele>
        <time>2009-10-24T15:39:26Z</time>
      </trkpt>
      <trkpt lat="45.03593" lon="4.81172">
        <ele>212.85899353027</ele>
        <time>2009-10-24T15:39:28Z</time>
      </trkpt>
      <trkpt lat="45.0363" lon="4.8126">
        <ele>208.62899780273</ele>
        <time>2009-10-24T15:39:33Z</time>
      </trkpt>
      <trkpt lat="45.03672" lon="4.81346">
        <ele>204.70100402832</ele>
        <time>2009-10-24T15:39:38Z</time>
      </trkpt>
      <trkpt lat="45.03697" lon="4.81423">
        <ele>201.16299438477</ele>
        <time>2009-10-24T15:39:42Z</time>
      </trkpt>
      <trkpt lat="45.03709" lon="4.81462">
        <ele>199.76300048828</ele>
        <time>2009-10-24T15:39:44Z</time>
      </trkpt>
      <trkpt lat="45.03715" lon="4.8148">
        <ele>199.73599243164</ele>
        <time>2009-10-24T15:39:45Z</time>
      </trkpt>
      <trkpt lat="45.03758" lon="4.81559">
        <ele>199.70700073242</ele>
        <time>2009-10-24T15:39:50Z</time>
      </trkpt>
      <trkpt lat="45.03773" lon="4.81593">
        <ele>192.33500671387</ele>
        <time>2009-10-24T15:39:52Z</time>
      </trkpt>
      <trkpt lat="45.03803" lon="4.81639">
        <ele>189.42700195312</ele>
        <time>2009-10-24T15:39:55Z</time>
      </trkpt>
      <trkpt lat="45.03841" lon="4.81698">
        <ele>186.16600036621</ele>
        <time>2009-10-24T15:39:59Z</time>
      </trkpt>
      <trkpt lat="45.03868" lon="4.81746">
        <ele>183.34199523926</ele>
        <time>2009-10-24T15:40:02Z</time>
      </trkpt>
      <trkpt lat="45.03898" lon="4.81791">
        <ele>181.6130065918</ele>
        <time>2009-10-24T15:40:05Z</time>
      </trkpt>
      <trkpt lat="45.03931" lon="4.8186">
        <ele>177.56300354004</ele>
        <time>2009-10-24T15:40:09Z</time>
      </trkpt>
      <trkpt lat="45.03938" lon="4.81879">
        <ele>177.33700561523</ele>
        <time>2009-10-24T15:40:10Z</time>
      </trkpt>
      <trkpt lat="45.03944" lon="4.81897">
        <ele>176.55900573731</ele>
        <time>2009-10-24T15:40:11Z</time>
      </trkpt>
      <trkpt lat="45.03973" lon="4.8194">
        <ele>173.98300170898</ele>
        <time>2009-10-24T15:40:14Z</time>
      </trkpt>
      <trkpt lat="45.03986" lon="4.81949">
        <ele>173.22099304199</ele>
        <time>2009-10-24T15:40:15Z</time>
      </trkpt>
      <trkpt lat="45.04039" lon="4.81991">
        <ele>169.39900207519</ele>
        <time>2009-10-24T15:40:19Z</time>
      </trkpt>
      <trkpt lat="45.04075" lon="4.82029">
        <ele>165.69700622559</ele>
        <time>2009-10-24T15:40:22Z</time>
      </trkpt>
      <trkpt lat="45.04098" lon="4.82058">
        <ele>164.73500061035</ele>
        <time>2009-10-24T15:40:24Z</time>
      </trkpt>
      <trkpt lat="45.04148" lon="4.82104">
        <ele>161.51899719238</ele>
        <time>2009-10-24T15:40:28Z</time>
      </trkpt>
      <trkpt lat="45.0417" lon="4.82123">
        <ele>160.19799804688</ele>
        <time>2009-10-24T15:40:30Z</time>
      </trkpt>
      <trkpt lat="45.04231" lon="4.82172">
        <ele>155.89700317383</ele>
        <time>2009-10-24T15:40:35Z</time>
      </trkpt>
      <trkpt lat="45.04258" lon="4.82216">
        <ele>153.47799682617</ele>
        <time>2009-10-24T15:40:38Z</time>
      </trkpt>
      <trkpt lat="45.04261" lon="4.82253">
        <ele>151.68899536133</ele>
        <time>2009-10-24T15:40:40Z</time>
      </trkpt>
      <trkpt lat="45.04259" lon="4.82272">
        <ele>150.01400756836</ele>
        <time>2009-10-24T15:40:41Z</time>
      </trkpt>
      <trkpt lat="45.04238" lon="4.82449">
        <ele>142.21099853516</ele>
        <time>2009-10-24T15:40:50Z</time>
      </trkpt>
      <trkpt lat="45.04238" lon="4.82469">
        <ele>141.85400390625</ele>
        <time>2009-10-24T15:40:51Z</time>
      </trkpt>
      <trkpt lat="45.04254" lon="4.82543">
        <ele>138.30499267578</ele>
        <time>2009-10-24T15:40:55Z</time>
      </trkpt>
      <trkpt lat="45.04276" lon="4.82612">
        <ele>134.62199401856</ele>
        <time>2009-10-24T15:40:59Z</time>
      </trkpt>
      <trkpt lat="45.04277" lon="4.8265">
        <ele>133.82600402832</ele>
        <time>2009-10-24T15:41:01Z</time>
      </trkpt>
      <trkpt lat="45.04272" lon="4.82688">
        <ele>131.89500427246</ele>
        <time>2009-10-24T15:41:03Z</time>
      </trkpt>
      <trkpt lat="45.0426" lon="4.82743">
        <ele>129.49299621582</ele>
        <time>2009-10-24T15:41:06Z</time>
      </trkpt>
      <trkpt lat="45.04274" lon="4.82815">
        <ele>126.54499816894</ele>
        <time>2009-10-24T15:41:10Z</time>
      </trkpt>
      <trkpt lat="45.04296" lon="4.82895">
        <ele>124.42400360107</ele>
        <time>2009-10-24T15:41:15Z</time>
      </trkpt>
      <trkpt lat="45.04309" lon="4.8295">
        <ele>123.40399932861</ele>
        <time>2009-10-24T15:41:19Z</time>
      </trkpt>
      <trkpt lat="45.04312" lon="4.82964">
        <ele>122.76699829102</ele>
        <time>2009-10-24T15:41:21Z</time>
      </trkpt>
      <trkpt lat="45.04313" lon="4.82968">
        <ele>122.72499847412</ele>
        <time>2009-10-24T15:41:24Z</time>
      </trkpt>
      <trkpt lat="45.04313" lon="4.82967">
        <ele>122.54900360107</ele>
        <time>2009-10-24T15:41:29Z</time>
      </trkpt>
      <trkpt lat="45.04317" lon="4.82963">
        <ele>122.74199676514</ele>
        <time>2009-10-24T15:41:34Z</time>
      </trkpt>
      <trkpt lat="45.04316" lon="4.82962">
        <ele>122.7080001831</ele>
        <time>2009-10-24T15:41:35Z</time>
      </trkpt>
      <trkpt lat="45.04313" lon="4.82944">
        <ele>122.64499664307</ele>
        <time>2009-10-24T15:41:43Z</time>
      </trkpt>
      <trkpt lat="45.04309" lon="4.82931">
        <ele>122.96499633789</ele>
        <time>2009-10-24T15:41:49Z</time>
      </trkpt>
      <trkpt lat="45.04307" lon="4.82924">
        <ele>123.07099914551</ele>
        <time>2009-10-24T15:41:52Z</time>
      </trkpt>
      <trkpt lat="45.04307" lon="4.82922">
        <ele>123.18000030518</ele>
        <time>2009-10-24T15:41:53Z</time>
      </trkpt>
      <trkpt lat="45.04303" lon="4.82908">
        <ele>123.20099639893</ele>
        <time>2009-10-24T15:41:59Z</time>
      </trkpt>
      <trkpt lat="45.043" lon="4.82895">
        <ele>123.40399932861</ele>
        <time>2009-10-24T15:42:04Z</time>
      </trkpt>
      <trkpt lat="45.04295" lon="4.8289">
        <ele>123.26699829102</ele>
        <time>2009-10-24T15:42:07Z</time>
      </trkpt>
      <trkpt lat="45.04293" lon="4.82885">
        <ele>123.48500061035</ele>
        <time>2009-10-24T15:42:09Z</time>
      </trkpt>
      <trkpt lat="45.04282" lon="4.82882">
        <ele>123.81800079346</ele>
        <time>2009-10-24T15:42:14Z</time>
      </trkpt>
      <trkpt lat="45.04271" lon="4.82878">
        <ele>123.7379989624</ele>
        <time>2009-10-24T15:42:19Z</time>
      </trkpt>
      <trkpt lat="45.04265" lon="4.82876">
        <ele>123.8330001831</ele>
        <time>2009-10-24T15:42:23Z</time>
      </trkpt>
      <trkpt lat="45.04269" lon="4.82878">
        <ele>123.58999633789</ele>
        <time>2009-10-24T15:42:26Z</time>
      </trkpt>
      <trkpt lat="45.0428" lon="4.82883">
        <ele>123.68800354004</ele>
        <time>2009-10-24T15:42:31Z</time>
      </trkpt>
      <trkpt lat="45.0429" lon="4.82886">
        <ele>123.43099975586</ele>
        <time>2009-10-24T15:42:35Z</time>
      </trkpt>
      <trkpt lat="45.043" lon="4.82903">
        <ele>123.14099884033</ele>
        <time>2009-10-24T15:42:40Z</time>
      </trkpt>
      <trkpt lat="45.04303" lon="4.82918">
        <ele>122.62200164795</ele>
        <time>2009-10-24T15:42:45Z</time>
      </trkpt>
      <trkpt lat="45.04305" lon="4.82929">
        <ele>122.34600067139</ele>
        <time>2009-10-24T15:42:50Z</time>
      </trkpt>
      <trkpt lat="45.0431" lon="4.82947">
        <ele>122.04599761963</ele>
        <time>2009-10-24T15:43:00Z</time>
      </trkpt>
      <trkpt lat="45.04314" lon="4.82965">
        <ele>121.99299621582</ele>
        <time>2009-10-24T15:43:08Z</time>
      </trkpt>
      <trkpt lat="45.04312" lon="4.82978">
        <ele>121.73899841309</ele>
        <time>2009-10-24T15:43:15Z</time>
      </trkpt>
      <trkpt lat="45.04312" lon="4.82979">
        <ele>121.78399658203</ele>
        <time>2009-10-24T15:43:23Z</time>
      </trkpt>
      <trkpt lat="45.04312" lon="4.8298">
        <ele>121.9049987793</ele>
        <time>2009-10-24T15:43:28Z</time>
      </trkpt>
      <trkpt lat="45.04312" lon="4.82982">
        <ele>121.67400360107</ele>
        <time>2009-10-24T15:43:35Z</time>
      </trkpt>
      <trkpt lat="45.04305" lon="4.82987">
        <ele>121.75299835205</ele>
        <time>2009-10-24T15:43:41Z</time>
      </trkpt>
      <trkpt lat="45.04282" lon="4.82988">
        <ele>121.6429977417</ele>
        <time>2009-10-24T15:43:47Z</time>
      </trkpt>
      <trkpt lat="45.04247" lon="4.82991">
        <ele>121.2679977417</ele>
        <time>2009-10-24T15:43:54Z</time>
      </trkpt>
      <trkpt lat="45.042" lon="4.82994">
        <ele>120.36499786377</ele>
        <time>2009-10-24T15:44:02Z</time>
      </trkpt>
      <trkpt lat="45.04148" lon="4.82998">
        <ele>119.17400360107</ele>
        <time>2009-10-24T15:44:10Z</time>
      </trkpt>
      <trkpt lat="45.04099" lon="4.83003">
        <ele>118.24299621582</ele>
        <time>2009-10-24T15:44:17Z</time>
      </trkpt>
      <trkpt lat="45.04041" lon="4.83008">
        <ele>116.56999969482</ele>
        <time>2009-10-24T15:44:25Z</time>
      </trkpt>
      <trkpt lat="45.03997" lon="4.83012">
        <ele>116.202003479</ele>
        <time>2009-10-24T15:44:31Z</time>
      </trkpt>
      <trkpt lat="45.03951" lon="4.83018">
        <ele>115.28900146484</ele>
        <time>2009-10-24T15:44:37Z</time>
      </trkpt>
      <trkpt lat="45.03888" lon="4.83023">
        <ele>114.28399658203</ele>
        <time>2009-10-24T15:44:45Z</time>
      </trkpt>
      <trkpt lat="45.03872" lon="4.83025">
        <ele>114.16100311279</ele>
        <time>2009-10-24T15:44:47Z</time>
      </trkpt>
      <trkpt lat="45.03817" lon="4.83024">
        <ele>114.41100311279</ele>
        <time>2009-10-24T15:44:54Z</time>
      </trkpt>
      <trkpt lat="45.03775" lon="4.83018">
        <ele>114.31300354004</ele>
        <time>2009-10-24T15:45:00Z</time>
      </trkpt>
      <trkpt lat="45.03711" lon="4.83012">
        <ele>115.64900207519</ele>
        <time>2009-10-24T15:45:09Z</time>
      </trkpt>
      <trkpt lat="45.03674" lon="4.83012">
        <ele>114.89199829102</ele>
        <time>2009-10-24T15:45:14Z</time>
      </trkpt>
      <trkpt lat="45.0363" lon="4.83023">
        <ele>114.56099700928</ele>
        <time>2009-10-24T15:45:20Z</time>
      </trkpt>
      <trkpt lat="45.03566" lon="4.83048">
        <ele>114.71199798584</ele>
        <time>2009-10-24T15:45:29Z</time>
      </trkpt>
      <trkpt lat="45.03509" lon="4.83077">
        <ele>114.69699859619</ele>
        <time>2009-10-24T15:45:37Z</time>
      </trkpt>
      <trkpt lat="45.03474" lon="4.83101">
        <ele>114.31500244141</ele>
        <time>2009-10-24T15:45:42Z</time>
      </trkpt>
      <trkpt lat="45.03427" lon="4.83115">
        <ele>114.11799621582</ele>
        <time>2009-10-24T15:45:48Z</time>
      </trkpt>
      <trkpt lat="45.0338" lon="4.83124">
        <ele>114.14600372315</ele>
        <time>2009-10-24T15:45:54Z</time>
      </trkpt>
      <trkpt lat="45.03327" lon="4.83123">
        <ele>114.69799804688</ele>
        <time>2009-10-24T15:46:01Z</time>
      </trkpt>
      <trkpt lat="45.03271" lon="4.8311">
        <ele>115.21299743652</ele>
        <time>2009-10-24T15:46:09Z</time>
      </trkpt>
      <trkpt lat="45.03217" lon="4.83094">
        <ele>115.8690032959</ele>
        <time>2009-10-24T15:46:17Z</time>
      </trkpt>
      <trkpt lat="45.03171" lon="4.83075">
        <ele>116.3870010376</ele>
        <time>2009-10-24T15:46:24Z</time>
      </trkpt>
      <trkpt lat="45.0312" lon="4.83046">
        <ele>117.3629989624</ele>
        <time>2009-10-24T15:46:32Z</time>
      </trkpt>
      <trkpt lat="45.03061" lon="4.83016">
        <ele>118.25199890137</ele>
        <time>2009-10-24T15:46:41Z</time>
      </trkpt>
      <trkpt lat="45.03019" lon="4.83013">
        <ele>119.58399963379</ele>
        <time>2009-10-24T15:46:47Z</time>
      </trkpt>
      <trkpt lat="45.02971" lon="4.83029">
        <ele>120.04699707031</ele>
        <time>2009-10-24T15:46:54Z</time>
      </trkpt>
      <trkpt lat="45.02912" lon="4.8305">
        <ele>118.97299957275</ele>
        <time>2009-10-24T15:47:02Z</time>
      </trkpt>
      <trkpt lat="45.02835" lon="4.83078">
        <ele>117.66999816894</ele>
        <time>2009-10-24T15:47:12Z</time>
      </trkpt>
      <trkpt lat="45.02752" lon="4.83115">
        <ele>116.47799682617</ele>
        <time>2009-10-24T15:47:22Z</time>
      </trkpt>
      <trkpt lat="45.02679" lon="4.83153">
        <ele>115.8570022583</ele>
        <time>2009-10-24T15:47:31Z</time>
      </trkpt>
      <trkpt lat="45.02617" lon="4.83185">
        <ele>114.78800201416</ele>
        <time>2009-10-24T15:47:39Z</time>
      </trkpt>
      <trkpt lat="45.02567" lon="4.83208">
        <ele>116.23000335693</ele>
        <time>2009-10-24T15:47:46Z</time>
      </trkpt>
      <trkpt lat="45.0254" lon="4.83212">
        <ele>116.76499938965</ele>
        <time>2009-10-24T15:47:50Z</time>
      </trkpt>
      <trkpt lat="45.0253" lon="4.83212">
        <ele>117.09100341797</ele>
        <time>2009-10-24T15:47:52Z</time>
      </trkpt>
      <trkpt lat="45.02515" lon="4.8322">
        <ele>117.21099853516</ele>
        <time>2009-10-24T15:47:56Z</time>
      </trkpt>
      <trkpt lat="45.02496" lon="4.83232">
        <ele>115.93800354004</ele>
        <time>2009-10-24T15:48:00Z</time>
      </trkpt>
      <trkpt lat="45.0245" lon="4.83246">
        <ele>114.202003479</ele>
        <time>2009-10-24T15:48:07Z</time>
      </trkpt>
      <trkpt lat="45.02396" lon="4.83276">
        <ele>114.10099792481</ele>
        <time>2009-10-24T15:48:15Z</time>
      </trkpt>
      <trkpt lat="45.02364" lon="4.83296">
        <ele>113.1309967041</ele>
        <time>2009-10-24T15:48:20Z</time>
      </trkpt>
      <trkpt lat="45.02317" lon="4.83327">
        <ele>111.17600250244</ele>
        <time>2009-10-24T15:48:26Z</time>
      </trkpt>
      <trkpt lat="45.02271" lon="4.83353">
        <ele>110.96299743652</ele>
        <time>2009-10-24T15:48:32Z</time>
      </trkpt>
      <trkpt lat="45.022" lon="4.83383">
        <ele>110.84799957275</ele>
        <time>2009-10-24T15:48:41Z</time>
      </trkpt>
      <trkpt lat="45.02148" lon="4.834">
        <ele>111.44799804688</ele>
        <time>2009-10-24T15:48:48Z</time>
      </trkpt>
      <trkpt lat="45.02122" lon="4.83407">
        <ele>111.10099792481</ele>
        <time>2009-10-24T15:48:52Z</time>
      </trkpt>
      <trkpt lat="45.02106" lon="4.83415">
        <ele>111.33599853516</ele>
        <time>2009-10-24T15:48:55Z</time>
      </trkpt>
      <trkpt lat="45.02078" lon="4.83417">
        <ele>111.36499786377</ele>
        <time>2009-10-24T15:49:00Z</time>
      </trkpt>
      <trkpt lat="45.02073" lon="4.83417">
        <ele>111.44699859619</ele>
        <time>2009-10-24T15:49:01Z</time>
      </trkpt>
      <trkpt lat="45.02025" lon="4.83423">
        <ele>111.86699676514</ele>
        <time>2009-10-24T15:49:09Z</time>
      </trkpt>
      <trkpt lat="45.01978" lon="4.83425">
        <ele>112.32399749756</ele>
        <time>2009-10-24T15:49:17Z</time>
      </trkpt>
      <trkpt lat="45.01937" lon="4.83423">
        <ele>112.5299987793</ele>
        <time>2009-10-24T15:49:24Z</time>
      </trkpt>
      <trkpt lat="45.01926" lon="4.83422">
        <ele>113.10199737549</ele>
        <time>2009-10-24T15:49:26Z</time>
      </trkpt>
      <trkpt lat="45.01904" lon="4.83423">
        <ele>114.93199920654</ele>
        <time>2009-10-24T15:49:32Z</time>
      </trkpt>
      <trkpt lat="45.01891" lon="4.83438">
        <ele>113.83200073242</ele>
        <time>2009-10-24T15:49:36Z</time>
      </trkpt>
      <trkpt lat="45.01884" lon="4.83451">
        <ele>113.71800231934</ele>
        <time>2009-10-24T15:49:38Z</time>
      </trkpt>
      <trkpt lat="45.01868" lon="4.83473">
        <ele>114.01899719238</ele>
        <time>2009-10-24T15:49:42Z</time>
      </trkpt>
      <trkpt lat="45.01831" lon="4.8351">
        <ele>113.58899688721</ele>
        <time>2009-10-24T15:49:50Z</time>
      </trkpt>
      <trkpt lat="45.01788" lon="4.83541">
        <ele>113.64700317383</ele>
        <time>2009-10-24T15:49:58Z</time>
      </trkpt>
      <trkpt lat="45.01748" lon="4.83566">
        <ele>112.84400177002</ele>
        <time>2009-10-24T15:50:05Z</time>
      </trkpt>
      <trkpt lat="45.01706" lon="4.83585">
        <ele>111.98600006103</ele>
        <time>2009-10-24T15:50:12Z</time>
      </trkpt>
      <trkpt lat="45.01663" lon="4.83603">
        <ele>111.5950012207</ele>
        <time>2009-10-24T15:50:19Z</time>
      </trkpt>
      <trkpt lat="45.0162" lon="4.83629">
        <ele>112.04100036621</ele>
        <time>2009-10-24T15:50:25Z</time>
      </trkpt>
      <trkpt lat="45.01563" lon="4.83668">
        <ele>111.952003479</ele>
        <time>2009-10-24T15:50:33Z</time>
      </trkpt>
      <trkpt lat="45.01517" lon="4.83689">
        <ele>112.19000244141</ele>
        <time>2009-10-24T15:50:39Z</time>
      </trkpt>
      <trkpt lat="45.01477" lon="4.83689">
        <ele>112.25900268555</ele>
        <time>2009-10-24T15:50:44Z</time>
      </trkpt>
      <trkpt lat="45.0143" lon="4.83673">
        <ele>112.03600311279</ele>
        <time>2009-10-24T15:50:50Z</time>
      </trkpt>
      <trkpt lat="45.01352" lon="4.83634">
        <ele>111.98000335693</ele>
        <time>2009-10-24T15:51:00Z</time>
      </trkpt>
      <trkpt lat="45.01261" lon="4.83587">
        <ele>112.02300262451</ele>
        <time>2009-10-24T15:51:12Z</time>
      </trkpt>
      <trkpt lat="45.01214" lon="4.83567">
        <ele>112.74500274658</ele>
        <time>2009-10-24T15:51:18Z</time>
      </trkpt>
      <trkpt lat="45.01176" lon="4.8357">
        <ele>113.11399841309</ele>
        <time>2009-10-24T15:51:23Z</time>
      </trkpt>
      <trkpt lat="45.01148" lon="4.83592">
        <ele>112.87200164795</ele>
        <time>2009-10-24T15:51:27Z</time>
      </trkpt>
      <trkpt lat="45.01113" lon="4.83654">
        <ele>112.92500305176</ele>
        <time>2009-10-24T15:51:34Z</time>
      </trkpt>
      <trkpt lat="45.01068" lon="4.83744">
        <ele>112.95899963379</ele>
        <time>2009-10-24T15:51:44Z</time>
      </trkpt>
      <trkpt lat="45.01057" lon="4.83794">
        <ele>114.38899993897</ele>
        <time>2009-10-24T15:51:49Z</time>
      </trkpt>
      <trkpt lat="45.01054" lon="4.83811">
        <ele>115.26000213623</ele>
        <time>2009-10-24T15:51:51Z</time>
      </trkpt>
      <trkpt lat="45.01049" lon="4.83843">
        <ele>116.68099975586</ele>
        <time>2009-10-24T15:51:55Z</time>
      </trkpt>
      <trkpt lat="45.01038" lon="4.83912">
        <ele>116.74600219727</ele>
        <time>2009-10-24T15:52:03Z</time>
      </trkpt>
      <trkpt lat="45.01024" lon="4.84001">
        <ele>116.83999633789</ele>
        <time>2009-10-24T15:52:12Z</time>
      </trkpt>
      <trkpt lat="45.0101" lon="4.84089">
        <ele>116.74700164795</ele>
        <time>2009-10-24T15:52:21Z</time>
      </trkpt>
      <trkpt lat="45.01009" lon="4.84099">
        <ele>116.47899627685</ele>
        <time>2009-10-24T15:52:22Z</time>
      </trkpt>
      <trkpt lat="45.01015" lon="4.84138">
        <ele>115.12899780273</ele>
        <time>2009-10-24T15:52:26Z</time>
      </trkpt>
      <trkpt lat="45.01028" lon="4.84152">
        <ele>114.30699920654</ele>
        <time>2009-10-24T15:52:28Z</time>
      </trkpt>
      <trkpt lat="45.01037" lon="4.84154">
        <ele>114.15799713135</ele>
        <time>2009-10-24T15:52:29Z</time>
      </trkpt>
      <trkpt lat="45.01067" lon="4.84173">
        <ele>112.78800201416</ele>
        <time>2009-10-24T15:52:33Z</time>
      </trkpt>
      <trkpt lat="45.01069" lon="4.84197">
        <ele>112.09899902344</ele>
        <time>2009-10-24T15:52:35Z</time>
      </trkpt>
      <trkpt lat="45.01072" lon="4.84207">
        <ele>112.21199798584</ele>
        <time>2009-10-24T15:52:36Z</time>
      </trkpt>
      <trkpt lat="45.01076" lon="4.84229">
        <ele>112.07800292969</ele>
        <time>2009-10-24T15:52:38Z</time>
      </trkpt>
      <trkpt lat="45.01079" lon="4.84319">
        <ele>111.63600158691</ele>
        <time>2009-10-24T15:52:46Z</time>
      </trkpt>
      <trkpt lat="45.01075" lon="4.84401">
        <ele>111.577003479</ele>
        <time>2009-10-24T15:52:54Z</time>
      </trkpt>
      <trkpt lat="45.01073" lon="4.84462">
        <ele>111.52300262451</ele>
        <time>2009-10-24T15:53:01Z</time>
      </trkpt>
      <trkpt lat="45.01074" lon="4.84534">
        <ele>112.61100006103</ele>
        <time>2009-10-24T15:53:09Z</time>
      </trkpt>
      <trkpt lat="45.01074" lon="4.84543">
        <ele>112.76399993897</ele>
        <time>2009-10-24T15:53:10Z</time>
      </trkpt>
      <trkpt lat="45.01086" lon="4.84578">
        <ele>112.7379989624</ele>
        <time>2009-10-24T15:53:14Z</time>
      </trkpt>
      <trkpt lat="45.01125" lon="4.8464">
        <ele>113.03600311279</ele>
        <time>2009-10-24T15:53:23Z</time>
      </trkpt>
      <trkpt lat="45.01164" lon="4.84687">
        <ele>113.15100097656</ele>
        <time>2009-10-24T15:53:31Z</time>
      </trkpt>
      <trkpt lat="45.01216" lon="4.84749">
        <ele>113.23999786377</ele>
        <time>2009-10-24T15:53:41Z</time>
      </trkpt>
      <trkpt lat="45.01262" lon="4.84807">
        <ele>113.22100067139</ele>
        <time>2009-10-24T15:53:50Z</time>
      </trkpt>
      <trkpt lat="45.01283" lon="4.84857">
        <ele>113.31700134277</ele>
        <time>2009-10-24T15:53:56Z</time>
      </trkpt>
      <trkpt lat="45.01288" lon="4.84875">
        <ele>113.24800109863</ele>
        <time>2009-10-24T15:53:58Z</time>
      </trkpt>
      <trkpt lat="45.01294" lon="4.84922">
        <ele>113.10800170898</ele>
        <time>2009-10-24T15:54:03Z</time>
      </trkpt>
      <trkpt lat="45.01297" lon="4.8493">
        <ele>113.08000183106</ele>
        <time>2009-10-24T15:54:04Z</time>
      </trkpt>
      <trkpt lat="45.01319" lon="4.84991">
        <ele>113.43099975586</ele>
        <time>2009-10-24T15:54:11Z</time>
      </trkpt>
      <trkpt lat="45.01345" lon="4.85083">
        <ele>113.74099731445</ele>
        <time>2009-10-24T15:54:21Z</time>
      </trkpt>
      <trkpt lat="45.01366" lon="4.85139">
        <ele>114.78199768066</ele>
        <time>2009-10-24T15:54:28Z</time>
      </trkpt>
      <trkpt lat="45.01383" lon="4.85184">
        <ele>116.69599914551</ele>
        <time>2009-10-24T15:54:35Z</time>
      </trkpt>
      <trkpt lat="45.0139" lon="4.85202">
        <ele>117.41200256348</ele>
        <time>2009-10-24T15:54:38Z</time>
      </trkpt>
      <trkpt lat="45.01395" lon="4.85213">
        <ele>117.69400024414</ele>
        <time>2009-10-24T15:54:40Z</time>
      </trkpt>
      <trkpt lat="45.01411" lon="4.85258">
        <ele>119.46600341797</ele>
        <time>2009-10-24T15:54:48Z</time>
      </trkpt>
      <trkpt lat="45.01435" lon="4.85318">
        <ele>121.01899719238</ele>
        <time>2009-10-24T15:54:58Z</time>
      </trkpt>
      <trkpt lat="45.01447" lon="4.85352">
        <ele>121.41500091553</ele>
        <time>2009-10-24T15:55:04Z</time>
      </trkpt>
      <trkpt lat="45.01464" lon="4.85397">
        <ele>121.54599761963</ele>
        <time>2009-10-24T15:55:12Z</time>
      </trkpt>
      <trkpt lat="45.01482" lon="4.8544">
        <ele>120.42600250244</ele>
        <time>2009-10-24T15:55:20Z</time>
      </trkpt>
      <trkpt lat="45.01493" lon="4.85471">
        <ele>120.05100250244</ele>
        <time>2009-10-24T15:55:26Z</time>
      </trkpt>
      <trkpt lat="45.015" lon="4.85488">
        <ele>119.59300231934</ele>
        <time>2009-10-24T15:55:29Z</time>
      </trkpt>
      <trkpt lat="45.01516" lon="4.85531">
        <ele>119.54000091553</ele>
        <time>2009-10-24T15:55:36Z</time>
      </trkpt>
      <trkpt lat="45.01527" lon="4.85564">
        <ele>120.80000305176</ele>
        <time>2009-10-24T15:55:42Z</time>
      </trkpt>
      <trkpt lat="45.01538" lon="4.85598">
        <ele>122.55500030518</ele>
        <time>2009-10-24T15:55:48Z</time>
      </trkpt>
      <trkpt lat="45.01536" lon="4.85626">
        <ele>123.33200073242</ele>
        <time>2009-10-24T15:55:53Z</time>
      </trkpt>
      <trkpt lat="45.01535" lon="4.85632">
        <ele>123.42500305176</ele>
        <time>2009-10-24T15:55:54Z</time>
      </trkpt>
      <trkpt lat="45.01535" lon="4.85656">
        <ele>123.97499847412</ele>
        <time>2009-10-24T15:55:58Z</time>
      </trkpt>
      <trkpt lat="45.0154" lon="4.85665">
        <ele>124.51999664307</ele>
        <time>2009-10-24T15:56:00Z</time>
      </trkpt>
      <trkpt lat="45.01547" lon="4.85674">
        <ele>124.83999633789</ele>
        <time>2009-10-24T15:56:02Z</time>
      </trkpt>
      <trkpt lat="45.01556" lon="4.85703">
        <ele>126.2679977417</ele>
        <time>2009-10-24T15:56:07Z</time>
      </trkpt>
      <trkpt lat="45.01562" lon="4.85746">
        <ele>127.07099914551</ele>
        <time>2009-10-24T15:56:14Z</time>
      </trkpt>
      <trkpt lat="45.01575" lon="4.8577">
        <ele>128.09300231934</ele>
        <time>2009-10-24T15:56:19Z</time>
      </trkpt>
      <trkpt lat="45.01588" lon="4.85776">
        <ele>128.57899475098</ele>
        <time>2009-10-24T15:56:22Z</time>
      </trkpt>
      <trkpt lat="45.01624" lon="4.85773">
        <ele>128.53500366211</ele>
        <time>2009-10-24T15:56:30Z</time>
      </trkpt>
      <trkpt lat="45.0166" lon="4.85768">
        <ele>127.547996521</ele>
        <time>2009-10-24T15:56:37Z</time>
      </trkpt>
      <trkpt lat="45.01701" lon="4.85761">
        <ele>125.37200164795</ele>
        <time>2009-10-24T15:56:43Z</time>
      </trkpt>
      <trkpt lat="45.0175" lon="4.85761">
        <ele>123.71199798584</ele>
        <time>2009-10-24T15:56:49Z</time>
      </trkpt>
      <trkpt lat="45.01806" lon="4.85772">
        <ele>122.89399719238</ele>
        <time>2009-10-24T15:56:56Z</time>
      </trkpt>
      <trkpt lat="45.01876" lon="4.85787">
        <ele>121.94499969482</ele>
        <time>2009-10-24T15:57:05Z</time>
      </trkpt>
      <trkpt lat="45.0196" lon="4.85804">
        <ele>121.00299835205</ele>
        <time>2009-10-24T15:57:16Z</time>
      </trkpt>
      <trkpt lat="45.01975" lon="4.85808">
        <ele>121.02300262451</ele>
        <time>2009-10-24T15:57:18Z</time>
      </trkpt>
      <trkpt lat="45.01999" lon="4.85832">
        <ele>120.93099975586</ele>
        <time>2009-10-24T15:57:22Z</time>
      </trkpt>
      <trkpt lat="45.02002" lon="4.85841">
        <ele>120.92099761963</ele>
        <time>2009-10-24T15:57:23Z</time>
      </trkpt>
      <trkpt lat="45.02033" lon="4.85928">
        <ele>121.56700134277</ele>
        <time>2009-10-24T15:57:33Z</time>
      </trkpt>
      <trkpt lat="45.02063" lon="4.85988">
        <ele>122.14800262451</ele>
        <time>2009-10-24T15:57:41Z</time>
      </trkpt>
      <trkpt lat="45.02087" lon="4.86031">
        <ele>123.93000030518</ele>
        <time>2009-10-24T15:57:48Z</time>
      </trkpt>
      <trkpt lat="45.02113" lon="4.86094">
        <ele>125.26699829102</ele>
        <time>2009-10-24T15:57:58Z</time>
      </trkpt>
      <trkpt lat="45.02132" lon="4.86137">
        <ele>126.39199829102</ele>
        <time>2009-10-24T15:58:05Z</time>
      </trkpt>
      <trkpt lat="45.02152" lon="4.86173">
        <ele>128.25</ele>
        <time>2009-10-24T15:58:12Z</time>
      </trkpt>
      <trkpt lat="45.02174" lon="4.86212">
        <ele>130.11000061035</ele>
        <time>2009-10-24T15:58:20Z</time>
      </trkpt>
      <trkpt lat="45.02189" lon="4.86252">
        <ele>131.72700500488</ele>
        <time>2009-10-24T15:58:28Z</time>
      </trkpt>
      <trkpt lat="45.02203" lon="4.86279">
        <ele>132.91400146484</ele>
        <time>2009-10-24T15:58:34Z</time>
      </trkpt>
      <trkpt lat="45.02223" lon="4.86311">
        <ele>133.24800109863</ele>
        <time>2009-10-24T15:58:42Z</time>
      </trkpt>
      <trkpt lat="45.02245" lon="4.86345">
        <ele>133.34599304199</ele>
        <time>2009-10-24T15:58:50Z</time>
      </trkpt>
      <trkpt lat="45.02266" lon="4.86385">
        <ele>133.4109954834</ele>
        <time>2009-10-24T15:58:58Z</time>
      </trkpt>
      <trkpt lat="45.02288" lon="4.86429">
        <ele>133.45100402832</ele>
        <time>2009-10-24T15:59:06Z</time>
      </trkpt>
      <trkpt lat="45.02315" lon="4.86483">
        <ele>133.42500305176</ele>
        <time>2009-10-24T15:59:15Z</time>
      </trkpt>
      <trkpt lat="45.02344" lon="4.8654">
        <ele>133.75999450684</ele>
        <time>2009-10-24T15:59:24Z</time>
      </trkpt>
      <trkpt lat="45.02379" lon="4.86608">
        <ele>134.68400573731</ele>
        <time>2009-10-24T15:59:35Z</time>
      </trkpt>
      <trkpt lat="45.02413" lon="4.86673">
        <ele>134.56599426269</ele>
        <time>2009-10-24T15:59:45Z</time>
      </trkpt>
      <trkpt lat="45.02451" lon="4.86749">
        <ele>135.04600524902</ele>
        <time>2009-10-24T15:59:56Z</time>
      </trkpt>
      <trkpt lat="45.02476" lon="4.86799">
        <ele>135.30799865723</ele>
        <time>2009-10-24T16:00:04Z</time>
      </trkpt>
      <trkpt lat="45.02483" lon="4.86818">
        <ele>135.59100341797</ele>
        <time>2009-10-24T16:00:08Z</time>
      </trkpt>
      <trkpt lat="45.02483" lon="4.86824">
        <ele>136.05700683594</ele>
        <time>2009-10-24T16:00:12Z</time>
      </trkpt>
      <trkpt lat="45.02484" lon="4.86824">
        <ele>135.99000549316</ele>
        <time>2009-10-24T16:00:14Z</time>
      </trkpt>
      <trkpt lat="45.02488" lon="4.86836">
        <ele>135.84199523926</ele>
        <time>2009-10-24T16:00:20Z</time>
      </trkpt>
      <trkpt lat="45.02499" lon="4.86851">
        <ele>135.33599853516</ele>
        <time>2009-10-24T16:00:25Z</time>
      </trkpt>
      <trkpt lat="45.02511" lon="4.8688">
        <ele>135.55799865723</ele>
        <time>2009-10-24T16:00:30Z</time>
      </trkpt>
      <trkpt lat="45.02531" lon="4.86937">
        <ele>135.42799377441</ele>
        <time>2009-10-24T16:00:38Z</time>
      </trkpt>
      <trkpt lat="45.02555" lon="4.87013">
        <ele>135.17300415039</ele>
        <time>2009-10-24T16:00:48Z</time>
      </trkpt>
      <trkpt lat="45.02576" lon="4.8707">
        <ele>134.72099304199</ele>
        <time>2009-10-24T16:00:55Z</time>
      </trkpt>
      <trkpt lat="45.02607" lon="4.87139">
        <ele>133.8390045166</ele>
        <time>2009-10-24T16:01:03Z</time>
      </trkpt>
      <trkpt lat="45.0263" lon="4.8719">
        <ele>133.35000610352</ele>
        <time>2009-10-24T16:01:09Z</time>
      </trkpt>
      <trkpt lat="45.02654" lon="4.87247">
        <ele>133.02299499512</ele>
        <time>2009-10-24T16:01:16Z</time>
      </trkpt>
      <trkpt lat="45.02681" lon="4.87313">
        <ele>133.52900695801</ele>
        <time>2009-10-24T16:01:24Z</time>
      </trkpt>
      <trkpt lat="45.02708" lon="4.87381">
        <ele>135.05799865723</ele>
        <time>2009-10-24T16:01:33Z</time>
      </trkpt>
      <trkpt lat="45.02734" lon="4.87438">
        <ele>136.84800720215</ele>
        <time>2009-10-24T16:01:42Z</time>
      </trkpt>
      <trkpt lat="45.02758" lon="4.87488">
        <ele>139.38600158691</ele>
        <time>2009-10-24T16:01:51Z</time>
      </trkpt>
      <trkpt lat="45.02771" lon="4.87516">
        <ele>139.89700317383</ele>
        <time>2009-10-24T16:01:56Z</time>
      </trkpt>
      <trkpt lat="45.02785" lon="4.87547">
        <ele>139.49299621582</ele>
        <time>2009-10-24T16:02:01Z</time>
      </trkpt>
      <trkpt lat="45.02803" lon="4.87585">
        <ele>137.93600463867</ele>
        <time>2009-10-24T16:02:06Z</time>
      </trkpt>
      <trkpt lat="45.02811" lon="4.87603">
        <ele>137.0059967041</ele>
        <time>2009-10-24T16:02:08Z</time>
      </trkpt>
      <trkpt lat="45.02833" lon="4.87652">
        <ele>136.96299743652</ele>
        <time>2009-10-24T16:02:14Z</time>
      </trkpt>
      <trkpt lat="45.02864" lon="4.87725">
        <ele>137.2559967041</ele>
        <time>2009-10-24T16:02:23Z</time>
      </trkpt>
      <trkpt lat="45.02895" lon="4.87778">
        <ele>136.97599792481</ele>
        <time>2009-10-24T16:02:30Z</time>
      </trkpt>
      <trkpt lat="45.02936" lon="4.87847">
        <ele>136.16299438477</ele>
        <time>2009-10-24T16:02:39Z</time>
      </trkpt>
      <trkpt lat="45.02963" lon="4.87895">
        <ele>136.14999389648</ele>
        <time>2009-10-24T16:02:45Z</time>
      </trkpt>
      <trkpt lat="45.02999" lon="4.87926">
        <ele>135.66200256348</ele>
        <time>2009-10-24T16:02:51Z</time>
      </trkpt>
      <trkpt lat="45.03054" lon="4.87961">
        <ele>136.44799804688</ele>
        <time>2009-10-24T16:03:00Z</time>
      </trkpt>
      <trkpt lat="45.03112" lon="4.88">
        <ele>137.20799255371</ele>
        <time>2009-10-24T16:03:10Z</time>
      </trkpt>
      <trkpt lat="45.0315" lon="4.88034">
        <ele>137.47700500488</ele>
        <time>2009-10-24T16:03:17Z</time>
      </trkpt>
      <trkpt lat="45.03205" lon="4.8808">
        <ele>137.92100524902</ele>
        <time>2009-10-24T16:03:27Z</time>
      </trkpt>
      <trkpt lat="45.03244" lon="4.88107">
        <ele>138.05200195312</ele>
        <time>2009-10-24T16:03:34Z</time>
      </trkpt>
      <trkpt lat="45.03301" lon="4.88148">
        <ele>138.58500671387</ele>
        <time>2009-10-24T16:03:44Z</time>
      </trkpt>
      <trkpt lat="45.0336" lon="4.88195">
        <ele>138.65199279785</ele>
        <time>2009-10-24T16:03:54Z</time>
      </trkpt>
      <trkpt lat="45.03421" lon="4.88238">
        <ele>138.67799377441</ele>
        <time>2009-10-24T16:04:04Z</time>
      </trkpt>
      <trkpt lat="45.03473" lon="4.88269">
        <ele>138.60699462891</ele>
        <time>2009-10-24T16:04:12Z</time>
      </trkpt>
      <trkpt lat="45.03522" lon="4.88305">
        <ele>138.73599243164</ele>
        <time>2009-10-24T16:04:20Z</time>
      </trkpt>
      <trkpt lat="45.03583" lon="4.88352">
        <ele>139.39799499512</ele>
        <time>2009-10-24T16:04:30Z</time>
      </trkpt>
      <trkpt lat="45.03635" lon="4.884">
        <ele>139.63999938965</ele>
        <time>2009-10-24T16:04:39Z</time>
      </trkpt>
      <trkpt lat="45.03699" lon="4.88461">
        <ele>139.58599853516</ele>
        <time>2009-10-24T16:04:50Z</time>
      </trkpt>
      <trkpt lat="45.03778" lon="4.88533">
        <ele>138.89500427246</ele>
        <time>2009-10-24T16:05:03Z</time>
      </trkpt>
      <trkpt lat="45.03847" lon="4.88597">
        <ele>138.56799316406</ele>
        <time>2009-10-24T16:05:14Z</time>
      </trkpt>
      <trkpt lat="45.03913" lon="4.88661">
        <ele>139.10099792481</ele>
        <time>2009-10-24T16:05:25Z</time>
      </trkpt>
      <trkpt lat="45.03929" lon="4.88677">
        <ele>139.42100524902</ele>
        <time>2009-10-24T16:05:28Z</time>
      </trkpt>
      <trkpt lat="45.03935" lon="4.88697">
        <ele>139.83099365234</ele>
        <time>2009-10-24T16:05:31Z</time>
      </trkpt>
      <trkpt lat="45.03949" lon="4.88722">
        <ele>139.64900207519</ele>
        <time>2009-10-24T16:05:35Z</time>
      </trkpt>
      <trkpt lat="45.03959" lon="4.88742">
        <ele>138.78700256348</ele>
        <time>2009-10-24T16:05:38Z</time>
      </trkpt>
      <trkpt lat="45.03962" lon="4.8876">
        <ele>139.22900390625</ele>
        <time>2009-10-24T16:05:40Z</time>
      </trkpt>
      <trkpt lat="45.03969" lon="4.88827">
        <ele>139.09100341797</ele>
        <time>2009-10-24T16:05:48Z</time>
      </trkpt>
      <trkpt lat="45.03976" lon="4.88894">
        <ele>139.04899597168</ele>
        <time>2009-10-24T16:05:56Z</time>
      </trkpt>
      <trkpt lat="45.03985" lon="4.88974">
        <ele>139.87899780273</ele>
        <time>2009-10-24T16:06:05Z</time>
      </trkpt>
      <trkpt lat="45.03997" lon="4.8908">
        <ele>139.63000488281</ele>
        <time>2009-10-24T16:06:16Z</time>
      </trkpt>
      <trkpt lat="45.04005" lon="4.89172">
        <ele>139.70300292969</ele>
        <time>2009-10-24T16:06:25Z</time>
      </trkpt>
      <trkpt lat="45.04012" lon="4.89254">
        <ele>139.87199401856</ele>
        <time>2009-10-24T16:06:33Z</time>
      </trkpt>
      <trkpt lat="45.04015" lon="4.89365">
        <ele>140.11599731445</ele>
        <time>2009-10-24T16:06:44Z</time>
      </trkpt>
      <trkpt lat="45.04016" lon="4.89465">
        <ele>140.06199645996</ele>
        <time>2009-10-24T16:06:54Z</time>
      </trkpt>
      <trkpt lat="45.0402" lon="4.89535">
        <ele>140.60699462891</ele>
        <time>2009-10-24T16:07:01Z</time>
      </trkpt>
      <trkpt lat="45.04026" lon="4.89603">
        <ele>140.625</ele>
        <time>2009-10-24T16:07:08Z</time>
      </trkpt>
      <trkpt lat="45.0403" lon="4.89656">
        <ele>140.76100158691</ele>
        <time>2009-10-24T16:07:14Z</time>
      </trkpt>
      <trkpt lat="45.04033" lon="4.89744">
        <ele>141.37800598144</ele>
        <time>2009-10-24T16:07:24Z</time>
      </trkpt>
      <trkpt lat="45.04037" lon="4.89804">
        <ele>141.43200683594</ele>
        <time>2009-10-24T16:07:31Z</time>
      </trkpt>
      <trkpt lat="45.0405" lon="4.89876">
        <ele>141.72799682617</ele>
        <time>2009-10-24T16:07:40Z</time>
      </trkpt>
      <trkpt lat="45.04072" lon="4.89959">
        <ele>141.94900512695</ele>
        <time>2009-10-24T16:07:50Z</time>
      </trkpt>
      <trkpt lat="45.04089" lon="4.90036">
        <ele>142.03399658203</ele>
        <time>2009-10-24T16:07:59Z</time>
      </trkpt>
      <trkpt lat="45.04103" lon="4.90112">
        <ele>142.18299865723</ele>
        <time>2009-10-24T16:08:08Z</time>
      </trkpt>
      <trkpt lat="45.04119" lon="4.90186">
        <ele>142.97900390625</ele>
        <time>2009-10-24T16:08:17Z</time>
      </trkpt>
      <trkpt lat="45.0414" lon="4.90241">
        <ele>143.08000183106</ele>
        <time>2009-10-24T16:08:24Z</time>
      </trkpt>
      <trkpt lat="45.04159" lon="4.90284">
        <ele>142.83700561523</ele>
        <time>2009-10-24T16:08:30Z</time>
      </trkpt>
      <trkpt lat="45.04185" lon="4.90336">
        <ele>143.2140045166</ele>
        <time>2009-10-24T16:08:37Z</time>
      </trkpt>
      <trkpt lat="45.04206" lon="4.9038">
        <ele>142.82699584961</ele>
        <time>2009-10-24T16:08:43Z</time>
      </trkpt>
      <trkpt lat="45.04231" lon="4.90432">
        <ele>143.37300109863</ele>
        <time>2009-10-24T16:08:50Z</time>
      </trkpt>
      <trkpt lat="45.04258" lon="4.90497">
        <ele>143.36199951172</ele>
        <time>2009-10-24T16:08:58Z</time>
      </trkpt>
      <trkpt lat="45.04285" lon="4.90575">
        <ele>143.16999816894</ele>
        <time>2009-10-24T16:09:07Z</time>
      </trkpt>
      <trkpt lat="45.04311" lon="4.90664">
        <ele>143.17500305176</ele>
        <time>2009-10-24T16:09:17Z</time>
      </trkpt>
      <trkpt lat="45.04335" lon="4.90731">
        <ele>143.19999694824</ele>
        <time>2009-10-24T16:09:25Z</time>
      </trkpt>
      <trkpt lat="45.04359" lon="4.90795">
        <ele>143.39700317383</ele>
        <time>2009-10-24T16:09:33Z</time>
      </trkpt>
      <trkpt lat="45.04373" lon="4.90834">
        <ele>143.6130065918</ele>
        <time>2009-10-24T16:09:38Z</time>
      </trkpt>
      <trkpt lat="45.04396" lon="4.90895">
        <ele>144.22700500488</ele>
        <time>2009-10-24T16:09:46Z</time>
      </trkpt>
      <trkpt lat="45.04418" lon="4.90947">
        <ele>144.65600585938</ele>
        <time>2009-10-24T16:09:53Z</time>
      </trkpt>
      <trkpt lat="45.04451" lon="4.91008">
        <ele>145.31900024414</ele>
        <time>2009-10-24T16:10:02Z</time>
      </trkpt>
      <trkpt lat="45.04475" lon="4.91057">
        <ele>145.10299682617</ele>
        <time>2009-10-24T16:10:09Z</time>
      </trkpt>
      <trkpt lat="45.04504" lon="4.91111">
        <ele>145.35699462891</ele>
        <time>2009-10-24T16:10:17Z</time>
      </trkpt>
      <trkpt lat="45.04529" lon="4.91149">
        <ele>145.19299316406</ele>
        <time>2009-10-24T16:10:23Z</time>
      </trkpt>
      <trkpt lat="45.04559" lon="4.91192">
        <ele>145.54100036621</ele>
        <time>2009-10-24T16:10:30Z</time>
      </trkpt>
      <trkpt lat="45.04586" lon="4.91237">
        <ele>145.5950012207</ele>
        <time>2009-10-24T16:10:37Z</time>
      </trkpt>
      <trkpt lat="45.04612" lon="4.91286">
        <ele>145.94799804688</ele>
        <time>2009-10-24T16:10:44Z</time>
      </trkpt>
      <trkpt lat="45.04643" lon="4.91346">
        <ele>145.71499633789</ele>
        <time>2009-10-24T16:10:52Z</time>
      </trkpt>
      <trkpt lat="45.04679" lon="4.91414">
        <ele>145.67700195312</ele>
        <time>2009-10-24T16:11:01Z</time>
      </trkpt>
      <trkpt lat="45.04712" lon="4.91475">
        <ele>147.01100158691</ele>
        <time>2009-10-24T16:11:09Z</time>
      </trkpt>
      <trkpt lat="45.04749" lon="4.91548">
        <ele>146.33399963379</ele>
        <time>2009-10-24T16:11:18Z</time>
      </trkpt>
      <trkpt lat="45.04774" lon="4.91608">
        <ele>146.3390045166</ele>
        <time>2009-10-24T16:11:25Z</time>
      </trkpt>
      <trkpt lat="45.04792" lon="4.91662">
        <ele>146.79299926758</ele>
        <time>2009-10-24T16:11:31Z</time>
      </trkpt>
      <trkpt lat="45.04816" lon="4.91754">
        <ele>146.7559967041</ele>
        <time>2009-10-24T16:11:41Z</time>
      </trkpt>
      <trkpt lat="45.04842" lon="4.91837">
        <ele>146.52400207519</ele>
        <time>2009-10-24T16:11:50Z</time>
      </trkpt>
      <trkpt lat="45.04867" lon="4.91911">
        <ele>146.59899902344</ele>
        <time>2009-10-24T16:11:58Z</time>
      </trkpt>
      <trkpt lat="45.04894" lon="4.91983">
        <ele>147.19400024414</ele>
        <time>2009-10-24T16:12:06Z</time>
      </trkpt>
      <trkpt lat="45.04934" lon="4.92079">
        <ele>147.38800048828</ele>
        <time>2009-10-24T16:12:17Z</time>
      </trkpt>
      <trkpt lat="45.04959" lon="4.92139">
        <ele>147.77499389648</ele>
        <time>2009-10-24T16:12:24Z</time>
      </trkpt>
      <trkpt lat="45.05001" lon="4.92234">
        <ele>148.06199645996</ele>
        <time>2009-10-24T16:12:35Z</time>
      </trkpt>
      <trkpt lat="45.05027" lon="4.92292">
        <ele>147.87899780273</ele>
        <time>2009-10-24T16:12:42Z</time>
      </trkpt>
      <trkpt lat="45.0504" lon="4.92314">
        <ele>147.85899353027</ele>
        <time>2009-10-24T16:12:45Z</time>
      </trkpt>
      <trkpt lat="45.05064" lon="4.92328">
        <ele>148.23100280762</ele>
        <time>2009-10-24T16:12:49Z</time>
      </trkpt>
      <trkpt lat="45.05117" lon="4.92337">
        <ele>148.47399902344</ele>
        <time>2009-10-24T16:12:57Z</time>
      </trkpt>
      <trkpt lat="45.05171" lon="4.92339">
        <ele>148.60200500488</ele>
        <time>2009-10-24T16:13:05Z</time>
      </trkpt>
      <trkpt lat="45.05231" lon="4.92323">
        <ele>148.7440032959</ele>
        <time>2009-10-24T16:13:14Z</time>
      </trkpt>
      <trkpt lat="45.05283" lon="4.9231">
        <ele>148.83799743652</ele>
        <time>2009-10-24T16:13:22Z</time>
      </trkpt>
      <trkpt lat="45.0535" lon="4.92297">
        <ele>148.99200439453</ele>
        <time>2009-10-24T16:13:32Z</time>
      </trkpt>
      <trkpt lat="45.0539" lon="4.923">
        <ele>149.16799926758</ele>
        <time>2009-10-24T16:13:38Z</time>
      </trkpt>
      <trkpt lat="45.0543" lon="4.92315">
        <ele>149.2799987793</ele>
        <time>2009-10-24T16:13:44Z</time>
      </trkpt>
      <trkpt lat="45.05473" lon="4.92326">
        <ele>150.1190032959</ele>
        <time>2009-10-24T16:13:50Z</time>
      </trkpt>
      <trkpt lat="45.05512" lon="4.92332">
        <ele>150.10800170898</ele>
        <time>2009-10-24T16:13:56Z</time>
      </trkpt>
      <trkpt lat="45.05564" lon="4.92337">
        <ele>150.16700744629</ele>
        <time>2009-10-24T16:14:04Z</time>
      </trkpt>
      <trkpt lat="45.05609" lon="4.92337">
        <ele>150.18499755859</ele>
        <time>2009-10-24T16:14:11Z</time>
      </trkpt>
      <trkpt lat="45.05648" lon="4.92341">
        <ele>150.28900146484</ele>
        <time>2009-10-24T16:14:17Z</time>
      </trkpt>
      <trkpt lat="45.05684" lon="4.92342">
        <ele>150.72500610352</ele>
        <time>2009-10-24T16:14:23Z</time>
      </trkpt>
      <trkpt lat="45.05704" lon="4.92341">
        <ele>151.09100341797</ele>
        <time>2009-10-24T16:14:27Z</time>
      </trkpt>
      <trkpt lat="45.05724" lon="4.92346">
        <ele>151.41299438477</ele>
        <time>2009-10-24T16:14:33Z</time>
      </trkpt>
      <trkpt lat="45.05727" lon="4.92354">
        <ele>151.41799926758</ele>
        <time>2009-10-24T16:14:37Z</time>
      </trkpt>
      <trkpt lat="45.05727" lon="4.92371">
        <ele>151.58200073242</ele>
        <time>2009-10-24T16:14:41Z</time>
      </trkpt>
      <trkpt lat="45.05726" lon="4.92392">
        <ele>151.69099426269</ele>
        <time>2009-10-24T16:14:44Z</time>
      </trkpt>
      <trkpt lat="45.05714" lon="4.92451">
        <ele>151.41200256348</ele>
        <time>2009-10-24T16:14:52Z</time>
      </trkpt>
      <trkpt lat="45.05708" lon="4.92473">
        <ele>151.73899841309</ele>
        <time>2009-10-24T16:14:55Z</time>
      </trkpt>
      <trkpt lat="45.05691" lon="4.92506">
        <ele>151.52299499512</ele>
        <time>2009-10-24T16:15:00Z</time>
      </trkpt>
      <trkpt lat="45.05685" lon="4.92534">
        <ele>152.07600402832</ele>
        <time>2009-10-24T16:15:04Z</time>
      </trkpt>
      <trkpt lat="45.05687" lon="4.92556">
        <ele>152.51100158691</ele>
        <time>2009-10-24T16:15:07Z</time>
      </trkpt>
      <trkpt lat="45.05688" lon="4.92592">
        <ele>153.45500183106</ele>
        <time>2009-10-24T16:15:12Z</time>
      </trkpt>
      <trkpt lat="45.05698" lon="4.9262">
        <ele>154.22399902344</ele>
        <time>2009-10-24T16:15:16Z</time>
      </trkpt>
      <trkpt lat="45.05729" lon="4.92664">
        <ele>155.19799804688</ele>
        <time>2009-10-24T16:15:24Z</time>
      </trkpt>
      <trkpt lat="45.0576" lon="4.92702">
        <ele>155.39399719238</ele>
        <time>2009-10-24T16:15:31Z</time>
      </trkpt>
      <trkpt lat="45.05806" lon="4.92761">
        <ele>155.83599853516</ele>
        <time>2009-10-24T16:15:41Z</time>
      </trkpt>
      <trkpt lat="45.05862" lon="4.92832">
        <ele>156.43899536133</ele>
        <time>2009-10-24T16:15:53Z</time>
      </trkpt>
      <trkpt lat="45.05907" lon="4.9288">
        <ele>157.05999755859</ele>
        <time>2009-10-24T16:16:02Z</time>
      </trkpt>
      <trkpt lat="45.05959" lon="4.92917">
        <ele>157.30200195312</ele>
        <time>2009-10-24T16:16:11Z</time>
      </trkpt>
      <trkpt lat="45.06025" lon="4.92959">
        <ele>157.69299316406</ele>
        <time>2009-10-24T16:16:22Z</time>
      </trkpt>
      <trkpt lat="45.0611" lon="4.93014">
        <ele>158.75799560547</ele>
        <time>2009-10-24T16:16:36Z</time>
      </trkpt>
      <trkpt lat="45.06178" lon="4.93053">
        <ele>159.77799987793</ele>
        <time>2009-10-24T16:16:47Z</time>
      </trkpt>
      <trkpt lat="45.06232" lon="4.93079">
        <ele>159.95300292969</ele>
        <time>2009-10-24T16:16:56Z</time>
      </trkpt>
      <trkpt lat="45.06298" lon="4.93109">
        <ele>160.45599365234</ele>
        <time>2009-10-24T16:17:07Z</time>
      </trkpt>
      <trkpt lat="45.06365" lon="4.9314">
        <ele>160.50799560547</ele>
        <time>2009-10-24T16:17:18Z</time>
      </trkpt>
      <trkpt lat="45.06426" lon="4.93168">
        <ele>160.82000732422</ele>
        <time>2009-10-24T16:17:28Z</time>
      </trkpt>
      <trkpt lat="45.06464" lon="4.93185">
        <ele>161.13200378418</ele>
        <time>2009-10-24T16:17:34Z</time>
      </trkpt>
      <trkpt lat="45.06519" lon="4.93204">
        <ele>160.72300720215</ele>
        <time>2009-10-24T16:17:43Z</time>
      </trkpt>
      <trkpt lat="45.06573" lon="4.93216">
        <ele>161.20599365234</ele>
        <time>2009-10-24T16:17:52Z</time>
      </trkpt>
      <trkpt lat="45.06631" lon="4.93224">
        <ele>161.27099609375</ele>
        <time>2009-10-24T16:18:01Z</time>
      </trkpt>
      <trkpt lat="45.06688" lon="4.9324">
        <ele>161.23500061035</ele>
        <time>2009-10-24T16:18:10Z</time>
      </trkpt>
      <trkpt lat="45.06741" lon="4.93263">
        <ele>161.63800048828</ele>
        <time>2009-10-24T16:18:19Z</time>
      </trkpt>
      <trkpt lat="45.06775" lon="4.93278">
        <ele>162.36099243164</ele>
        <time>2009-10-24T16:18:25Z</time>
      </trkpt>
      <trkpt lat="45.06819" lon="4.93297">
        <ele>162.82299804688</ele>
        <time>2009-10-24T16:18:33Z</time>
      </trkpt>
      <trkpt lat="45.06872" lon="4.93321">
        <ele>163.14799499512</ele>
        <time>2009-10-24T16:18:43Z</time>
      </trkpt>
      <trkpt lat="45.06922" lon="4.93341">
        <ele>163.29699707031</ele>
        <time>2009-10-24T16:18:52Z</time>
      </trkpt>
      <trkpt lat="45.0696" lon="4.93354">
        <ele>164.28900146484</ele>
        <time>2009-10-24T16:18:59Z</time>
      </trkpt>
      <trkpt lat="45.07002" lon="4.9337">
        <ele>164.17700195312</ele>
        <time>2009-10-24T16:19:07Z</time>
      </trkpt>
      <trkpt lat="45.07067" lon="4.93397">
        <ele>164.90299987793</ele>
        <time>2009-10-24T16:19:19Z</time>
      </trkpt>
      <trkpt lat="45.07113" lon="4.93419">
        <ele>165.24800109863</ele>
        <time>2009-10-24T16:19:27Z</time>
      </trkpt>
      <trkpt lat="45.07179" lon="4.9345">
        <ele>165.40100097656</ele>
        <time>2009-10-24T16:19:38Z</time>
      </trkpt>
      <trkpt lat="45.07234" lon="4.93477">
        <ele>165.81100463867</ele>
        <time>2009-10-24T16:19:47Z</time>
      </trkpt>
      <trkpt lat="45.07298" lon="4.93507">
        <ele>165.48300170898</ele>
        <time>2009-10-24T16:19:57Z</time>
      </trkpt>
      <trkpt lat="45.07355" lon="4.93534">
        <ele>165.18699645996</ele>
        <time>2009-10-24T16:20:06Z</time>
      </trkpt>
      <trkpt lat="45.07401" lon="4.93552">
        <ele>165.55499267578</ele>
        <time>2009-10-24T16:20:13Z</time>
      </trkpt>
      <trkpt lat="45.07482" lon="4.93574">
        <ele>166.53700256348</ele>
        <time>2009-10-24T16:20:25Z</time>
      </trkpt>
      <trkpt lat="45.0755" lon="4.93594">
        <ele>167.36500549316</ele>
        <time>2009-10-24T16:20:35Z</time>
      </trkpt>
      <trkpt lat="45.07597" lon="4.93609">
        <ele>167.9940032959</ele>
        <time>2009-10-24T16:20:42Z</time>
      </trkpt>
      <trkpt lat="45.07668" lon="4.9363">
        <ele>168.75900268555</ele>
        <time>2009-10-24T16:20:53Z</time>
      </trkpt>
      <trkpt lat="45.07743" lon="4.93652">
        <ele>169.22999572754</ele>
        <time>2009-10-24T16:21:05Z</time>
      </trkpt>
      <trkpt lat="45.07835" lon="4.93678">
        <ele>169.70300292969</ele>
        <time>2009-10-24T16:21:20Z</time>
      </trkpt>
      <trkpt lat="45.07906" lon="4.93698">
        <ele>170.34899902344</ele>
        <time>2009-10-24T16:21:32Z</time>
      </trkpt>
      <trkpt lat="45.08005" lon="4.93726">
        <ele>170.70100402832</ele>
        <time>2009-10-24T16:21:48Z</time>
      </trkpt>
      <trkpt lat="45.08075" lon="4.93743">
        <ele>171.05799865723</ele>
        <time>2009-10-24T16:21:59Z</time>
      </trkpt>
      <trkpt lat="45.08138" lon="4.93749">
        <ele>170.87199401856</ele>
        <time>2009-10-24T16:22:09Z</time>
      </trkpt>
      <trkpt lat="45.08203" lon="4.93744">
        <ele>170.73300170898</ele>
        <time>2009-10-24T16:22:19Z</time>
      </trkpt>
      <trkpt lat="45.08268" lon="4.93733">
        <ele>170.88299560547</ele>
        <time>2009-10-24T16:22:29Z</time>
      </trkpt>
      <trkpt lat="45.08356" lon="4.93718">
        <ele>171.99699401856</ele>
        <time>2009-10-24T16:22:43Z</time>
      </trkpt>
      <trkpt lat="45.08429" lon="4.93706">
        <ele>173.34899902344</ele>
        <time>2009-10-24T16:22:55Z</time>
      </trkpt>
      <trkpt lat="45.08506" lon="4.93693">
        <ele>175.13200378418</ele>
        <time>2009-10-24T16:23:08Z</time>
      </trkpt>
      <trkpt lat="45.0857" lon="4.93673">
        <ele>175.96099853516</ele>
        <time>2009-10-24T16:23:19Z</time>
      </trkpt>
      <trkpt lat="45.08608" lon="4.93652">
        <ele>176.55400085449</ele>
        <time>2009-10-24T16:23:26Z</time>
      </trkpt>
      <trkpt lat="45.08656" lon="4.93623">
        <ele>177.00900268555</ele>
        <time>2009-10-24T16:23:35Z</time>
      </trkpt>
      <trkpt lat="45.08699" lon="4.936">
        <ele>177.99000549316</ele>
        <time>2009-10-24T16:23:43Z</time>
      </trkpt>
      <trkpt lat="45.08751" lon="4.93582">
        <ele>179.31900024414</ele>
        <time>2009-10-24T16:23:52Z</time>
      </trkpt>
      <trkpt lat="45.08807" lon="4.93576">
        <ele>180.10699462891</ele>
        <time>2009-10-24T16:24:02Z</time>
      </trkpt>
      <trkpt lat="45.08859" lon="4.93582">
        <ele>181.57200622559</ele>
        <time>2009-10-24T16:24:11Z</time>
      </trkpt>
      <trkpt lat="45.08899" lon="4.93591">
        <ele>181.68400573731</ele>
        <time>2009-10-24T16:24:18Z</time>
      </trkpt>
      <trkpt lat="45.08952" lon="4.93605">
        <ele>182.19900512695</ele>
        <time>2009-10-24T16:24:27Z</time>
      </trkpt>
      <trkpt lat="45.09021" lon="4.93624">
        <ele>182.2859954834</ele>
        <time>2009-10-24T16:24:38Z</time>
      </trkpt>
      <trkpt lat="45.09084" lon="4.9364">
        <ele>182.62199401856</ele>
        <time>2009-10-24T16:24:48Z</time>
      </trkpt>
      <trkpt lat="45.09127" lon="4.93651">
        <ele>182.55299377441</ele>
        <time>2009-10-24T16:24:55Z</time>
      </trkpt>
      <trkpt lat="45.09166" lon="4.93661">
        <ele>182.45500183106</ele>
        <time>2009-10-24T16:25:01Z</time>
      </trkpt>
      <trkpt lat="45.09211" lon="4.93672">
        <ele>182.57800292969</ele>
        <time>2009-10-24T16:25:08Z</time>
      </trkpt>
      <trkpt lat="45.09262" lon="4.93687">
        <ele>182.78199768066</ele>
        <time>2009-10-24T16:25:16Z</time>
      </trkpt>
      <trkpt lat="45.093" lon="4.93706">
        <ele>183.18800354004</ele>
        <time>2009-10-24T16:25:22Z</time>
      </trkpt>
      <trkpt lat="45.09346" lon="4.93743">
        <ele>183.34599304199</ele>
        <time>2009-10-24T16:25:30Z</time>
      </trkpt>
      <trkpt lat="45.0938" lon="4.93783">
        <ele>183.42300415039</ele>
        <time>2009-10-24T16:25:37Z</time>
      </trkpt>
      <trkpt lat="45.09409" lon="4.9383">
        <ele>184.16200256348</ele>
        <time>2009-10-24T16:25:44Z</time>
      </trkpt>
      <trkpt lat="45.09439" lon="4.9389">
        <ele>184.60299682617</ele>
        <time>2009-10-24T16:25:52Z</time>
      </trkpt>
      <trkpt lat="45.09462" lon="4.93933">
        <ele>184.98100280762</ele>
        <time>2009-10-24T16:25:58Z</time>
      </trkpt>
      <trkpt lat="45.09494" lon="4.93994">
        <ele>184.59199523926</ele>
        <time>2009-10-24T16:26:06Z</time>
      </trkpt>
      <trkpt lat="45.09521" lon="4.94047">
        <ele>185.05200195312</ele>
        <time>2009-10-24T16:26:13Z</time>
      </trkpt>
      <trkpt lat="45.09551" lon="4.94107">
        <ele>186.21499633789</ele>
        <time>2009-10-24T16:26:21Z</time>
      </trkpt>
      <trkpt lat="45.09581" lon="4.94166">
        <ele>187.65800476074</ele>
        <time>2009-10-24T16:26:29Z</time>
      </trkpt>
      <trkpt lat="45.09621" lon="4.94241">
        <ele>187.44000244141</ele>
        <time>2009-10-24T16:26:39Z</time>
      </trkpt>
      <trkpt lat="45.09664" lon="4.94303">
        <ele>186.77499389648</ele>
        <time>2009-10-24T16:26:48Z</time>
      </trkpt>
      <trkpt lat="45.09704" lon="4.94348">
        <ele>185.46899414062</ele>
        <time>2009-10-24T16:26:55Z</time>
      </trkpt>
      <trkpt lat="45.0975" lon="4.9439">
        <ele>183.48100280762</ele>
        <time>2009-10-24T16:27:02Z</time>
      </trkpt>
      <trkpt lat="45.09763" lon="4.94402">
        <ele>182.54400634766</ele>
        <time>2009-10-24T16:27:04Z</time>
      </trkpt>
      <trkpt lat="45.09832" lon="4.94465">
        <ele>179.44500732422</ele>
        <time>2009-10-24T16:27:14Z</time>
      </trkpt>
      <trkpt lat="45.09871" lon="4.9451">
        <ele>178.66600036621</ele>
        <time>2009-10-24T16:27:20Z</time>
      </trkpt>
      <trkpt lat="45.09888" lon="4.94533">
        <ele>178.53799438477</ele>
        <time>2009-10-24T16:27:23Z</time>
      </trkpt>
      <trkpt lat="45.09935" lon="4.94598">
        <ele>178.37800598144</ele>
        <time>2009-10-24T16:27:32Z</time>
      </trkpt>
      <trkpt lat="45.09979" lon="4.94646">
        <ele>179.55099487305</ele>
        <time>2009-10-24T16:27:40Z</time>
      </trkpt>
      <trkpt lat="45.10019" lon="4.94683">
        <ele>180.17399597168</ele>
        <time>2009-10-24T16:27:47Z</time>
      </trkpt>
      <trkpt lat="45.1008" lon="4.94737">
        <ele>181.35499572754</ele>
        <time>2009-10-24T16:27:58Z</time>
      </trkpt>
      <trkpt lat="45.1012" lon="4.94767">
        <ele>182.25100708008</ele>
        <time>2009-10-24T16:28:05Z</time>
      </trkpt>
      <trkpt lat="45.10184" lon="4.94812">
        <ele>183.23599243164</ele>
        <time>2009-10-24T16:28:16Z</time>
      </trkpt>
      <trkpt lat="45.10248" lon="4.94856">
        <ele>184.28199768066</ele>
        <time>2009-10-24T16:28:27Z</time>
      </trkpt>
      <trkpt lat="45.10308" lon="4.94893">
        <ele>184.7200012207</ele>
        <time>2009-10-24T16:28:37Z</time>
      </trkpt>
      <trkpt lat="45.10376" lon="4.94929">
        <ele>185.53500366211</ele>
        <time>2009-10-24T16:28:48Z</time>
      </trkpt>
      <trkpt lat="45.10419" lon="4.9496">
        <ele>186.05200195312</ele>
        <time>2009-10-24T16:28:56Z</time>
      </trkpt>
      <trkpt lat="45.10443" lon="4.94986">
        <ele>186.22599792481</ele>
        <time>2009-10-24T16:29:02Z</time>
      </trkpt>
      <trkpt lat="45.10449" lon="4.94996">
        <ele>185.96299743652</ele>
        <time>2009-10-24T16:29:04Z</time>
      </trkpt>
      <trkpt lat="45.10468" lon="4.95008">
        <ele>186.22300720215</ele>
        <time>2009-10-24T16:29:08Z</time>
      </trkpt>
      <trkpt lat="45.10477" lon="4.95007">
        <ele>186.46299743652</ele>
        <time>2009-10-24T16:29:10Z</time>
      </trkpt>
      <trkpt lat="45.10516" lon="4.9501">
        <ele>187.04800415039</ele>
        <time>2009-10-24T16:29:17Z</time>
      </trkpt>
      <trkpt lat="45.10541" lon="4.95019">
        <ele>187.27299499512</ele>
        <time>2009-10-24T16:29:22Z</time>
      </trkpt>
      <trkpt lat="45.10574" lon="4.95032">
        <ele>187.7559967041</ele>
        <time>2009-10-24T16:29:28Z</time>
      </trkpt>
      <trkpt lat="45.10625" lon="4.95054">
        <ele>188.63999938965</ele>
        <time>2009-10-24T16:29:36Z</time>
      </trkpt>
      <trkpt lat="45.10696" lon="4.95089">
        <ele>189.13499450684</ele>
        <time>2009-10-24T16:29:47Z</time>
      </trkpt>
      <trkpt lat="45.10752" lon="4.95128">
        <ele>189.30099487305</ele>
        <time>2009-10-24T16:29:56Z</time>
      </trkpt>
      <trkpt lat="45.10798" lon="4.95177">
        <ele>189.61599731445</ele>
        <time>2009-10-24T16:30:04Z</time>
      </trkpt>
      <trkpt lat="45.10836" lon="4.95221">
        <ele>189.91700744629</ele>
        <time>2009-10-24T16:30:11Z</time>
      </trkpt>
      <trkpt lat="45.10888" lon="4.9528">
        <ele>189.97700500488</ele>
        <time>2009-10-24T16:30:20Z</time>
      </trkpt>
      <trkpt lat="45.10917" lon="4.95325">
        <ele>190.36999511719</ele>
        <time>2009-10-24T16:30:26Z</time>
      </trkpt>
      <trkpt lat="45.10939" lon="4.95401">
        <ele>189.65600585938</ele>
        <time>2009-10-24T16:30:34Z</time>
      </trkpt>
      <trkpt lat="45.10963" lon="4.95497">
        <ele>191.00500488281</ele>
        <time>2009-10-24T16:30:44Z</time>
      </trkpt>
      <trkpt lat="45.10991" lon="4.95564">
        <ele>191.83700561523</ele>
        <time>2009-10-24T16:30:52Z</time>
      </trkpt>
      <trkpt lat="45.11023" lon="4.95613">
        <ele>192.54800415039</ele>
        <time>2009-10-24T16:30:59Z</time>
      </trkpt>
      <trkpt lat="45.1106" lon="4.95653">
        <ele>192.72700500488</ele>
        <time>2009-10-24T16:31:06Z</time>
      </trkpt>
      <trkpt lat="45.11116" lon="4.95715">
        <ele>192.08000183106</ele>
        <time>2009-10-24T16:31:16Z</time>
      </trkpt>
      <trkpt lat="45.11146" lon="4.95773">
        <ele>191.85400390625</ele>
        <time>2009-10-24T16:31:23Z</time>
      </trkpt>
      <trkpt lat="45.11185" lon="4.95836">
        <ele>191.81900024414</ele>
        <time>2009-10-24T16:31:31Z</time>
      </trkpt>
      <trkpt lat="45.11241" lon="4.95916">
        <ele>192.23500061035</ele>
        <time>2009-10-24T16:31:42Z</time>
      </trkpt>
      <trkpt lat="45.11285" lon="4.95991">
        <ele>193.05900573731</ele>
        <time>2009-10-24T16:31:52Z</time>
      </trkpt>
      <trkpt lat="45.11333" lon="4.96071">
        <ele>194.04400634766</ele>
        <time>2009-10-24T16:32:03Z</time>
      </trkpt>
      <trkpt lat="45.11366" lon="4.9613">
        <ele>194.30700683594</ele>
        <time>2009-10-24T16:32:11Z</time>
      </trkpt>
      <trkpt lat="45.11391" lon="4.96182">
        <ele>194.7859954834</ele>
        <time>2009-10-24T16:32:18Z</time>
      </trkpt>
      <trkpt lat="45.11407" lon="4.96216">
        <ele>195.5</ele>
        <time>2009-10-24T16:32:23Z</time>
      </trkpt>
      <trkpt lat="45.11432" lon="4.96267">
        <ele>195.54800415039</ele>
        <time>2009-10-24T16:32:31Z</time>
      </trkpt>
      <trkpt lat="45.11459" lon="4.96313">
        <ele>195.02900695801</ele>
        <time>2009-10-24T16:32:38Z</time>
      </trkpt>
      <trkpt lat="45.11494" lon="4.96365">
        <ele>194.22799682617</ele>
        <time>2009-10-24T16:32:46Z</time>
      </trkpt>
      <trkpt lat="45.11512" lon="4.9639">
        <ele>194.06100463867</ele>
        <time>2009-10-24T16:32:50Z</time>
      </trkpt>
      <trkpt lat="45.1154" lon="4.96435">
        <ele>193.74899291992</ele>
        <time>2009-10-24T16:32:57Z</time>
      </trkpt>
      <trkpt lat="45.11568" lon="4.96479">
        <ele>193.03700256348</ele>
        <time>2009-10-24T16:33:04Z</time>
      </trkpt>
      <trkpt lat="45.11573" lon="4.9649">
        <ele>193.24099731445</ele>
        <time>2009-10-24T16:33:06Z</time>
      </trkpt>
      <trkpt lat="45.11581" lon="4.96487">
        <ele>193.44799804688</ele>
        <time>2009-10-24T16:33:09Z</time>
      </trkpt>
      <trkpt lat="45.11583" lon="4.96477">
        <ele>193.54800415039</ele>
        <time>2009-10-24T16:33:11Z</time>
      </trkpt>
      <trkpt lat="45.11585" lon="4.96456">
        <ele>194.26100158691</ele>
        <time>2009-10-24T16:33:15Z</time>
      </trkpt>
      <trkpt lat="45.11581" lon="4.96446">
        <ele>194.56900024414</ele>
        <time>2009-10-24T16:33:19Z</time>
      </trkpt>
      <trkpt lat="45.11579" lon="4.96446">
        <ele>195.5359954834</ele>
        <time>2009-10-24T16:33:23Z</time>
      </trkpt>
      <trkpt lat="45.11576" lon="4.96446">
        <ele>194.19500732422</ele>
        <time>2009-10-24T16:33:43Z</time>
      </trkpt>
      <trkpt lat="45.1157" lon="4.96449">
        <ele>194.03900146484</ele>
        <time>2009-10-24T16:33:48Z</time>
      </trkpt>
      <trkpt lat="45.11563" lon="4.96439">
        <ele>194.1130065918</ele>
        <time>2009-10-24T16:33:52Z</time>
      </trkpt>
      <trkpt lat="45.11562" lon="4.96425">
        <ele>195.04299926758</ele>
        <time>2009-10-24T16:33:55Z</time>
      </trkpt>
      <trkpt lat="45.11566" lon="4.96422">
        <ele>195.08500671387</ele>
        <time>2009-10-24T16:33:58Z</time>
      </trkpt>
      <trkpt lat="45.11568" lon="4.96424">
        <ele>195.13000488281</ele>
        <time>2009-10-24T16:34:03Z</time>
      </trkpt>
      <trkpt lat="45.11568" lon="4.96424">
        <ele>195.13900756836</ele>
        <time>2009-10-24T16:34:04Z</time>
      </trkpt>
    </trkseg>
  </trk>
</gpx>